<?xml version="1.0" encoding="UTF-8" standalone="no" ?>
<gpx xmlns="http://www.topografix.com/GPX/1/1" xmlns:xsi="http://www.w3.org/2001/XMLSchema-instance" xsi:schemaLocation="http://www.topografix.com/GPX/1/1 http://www.topografix.com/GPX/1/1/gpx.xsd" version="1.1" creator="VisuGPX - https://www.visugpx.com">
  <metadata>
    <name>Rando pastre Marseilleveyre</name>
    <desc><![CDATA[Rando de mercredi 28 janvier Pastre, col de la selle Marseilleveyre, semaphore, pas de la selle pastre]]></desc>
  </metadata>
  <trk>
    <name><![CDATA[Maps3D 2015-01-28 06-04pm]]></name>
    <trkseg>
      <trkpt lat="43.23679" lon="5.36999">
        <ele>36.229118</ele>
        <time>2015-01-28T09:45:23Z</time>
      </trkpt>
      <trkpt lat="43.23675" lon="5.37003">
        <ele>36.626972</ele>
        <time>2015-01-28T09:45:29Z</time>
      </trkpt>
      <trkpt lat="43.2367" lon="5.37007">
        <ele>37.034969</ele>
        <time>2015-01-28T09:45:35Z</time>
      </trkpt>
      <trkpt lat="43.23667" lon="5.37011">
        <ele>37.387352</ele>
        <time>2015-01-28T09:45:39Z</time>
      </trkpt>
      <trkpt lat="43.23663" lon="5.37016">
        <ele>37.743973</ele>
        <time>2015-01-28T09:45:44Z</time>
      </trkpt>
      <trkpt lat="43.23658" lon="5.3702">
        <ele>38.081062</ele>
        <time>2015-01-28T09:45:50Z</time>
      </trkpt>
      <trkpt lat="43.23655" lon="5.37025">
        <ele>38.365585</ele>
        <time>2015-01-28T09:45:55Z</time>
      </trkpt>
      <trkpt lat="43.2365" lon="5.37027">
        <ele>38.636368</ele>
        <time>2015-01-28T09:46:00Z</time>
      </trkpt>
      <trkpt lat="43.23646" lon="5.37031">
        <ele>38.92128</ele>
        <time>2015-01-28T09:46:05Z</time>
      </trkpt>
      <trkpt lat="43.23642" lon="5.37035">
        <ele>39.217575</ele>
        <time>2015-01-28T09:46:10Z</time>
      </trkpt>
      <trkpt lat="43.23636" lon="5.37037">
        <ele>39.474327</ele>
        <time>2015-01-28T09:46:14Z</time>
      </trkpt>
      <trkpt lat="43.23632" lon="5.37041">
        <ele>39.728035</ele>
        <time>2015-01-28T09:46:18Z</time>
      </trkpt>
      <trkpt lat="43.23629" lon="5.37046">
        <ele>39.983109</ele>
        <time>2015-01-28T09:46:22Z</time>
      </trkpt>
      <trkpt lat="43.23624" lon="5.3705">
        <ele>40.231598</ele>
        <time>2015-01-28T09:46:29Z</time>
      </trkpt>
      <trkpt lat="43.2362" lon="5.37054">
        <ele>40.438107</ele>
        <time>2015-01-28T09:46:34Z</time>
      </trkpt>
      <trkpt lat="43.23617" lon="5.37058">
        <ele>40.650352</ele>
        <time>2015-01-28T09:46:39Z</time>
      </trkpt>
      <trkpt lat="43.23613" lon="5.37062">
        <ele>40.844463</ele>
        <time>2015-01-28T09:46:43Z</time>
      </trkpt>
      <trkpt lat="43.23609" lon="5.37066">
        <ele>41.03933</ele>
        <time>2015-01-28T09:46:48Z</time>
      </trkpt>
      <trkpt lat="43.23605" lon="5.37069">
        <ele>41.227741</ele>
        <time>2015-01-28T09:46:53Z</time>
      </trkpt>
      <trkpt lat="43.23601" lon="5.37073">
        <ele>41.407555</ele>
        <time>2015-01-28T09:46:58Z</time>
      </trkpt>
      <trkpt lat="43.23597" lon="5.37078">
        <ele>41.586071</ele>
        <time>2015-01-28T09:47:03Z</time>
      </trkpt>
      <trkpt lat="43.23593" lon="5.37082">
        <ele>41.749687</ele>
        <time>2015-01-28T09:47:09Z</time>
      </trkpt>
      <trkpt lat="43.23589" lon="5.37086">
        <ele>42.00386</ele>
        <time>2015-01-28T09:47:18Z</time>
      </trkpt>
      <trkpt lat="43.23585" lon="5.37089">
        <ele>42.297005</ele>
        <time>2015-01-28T09:47:23Z</time>
      </trkpt>
      <trkpt lat="43.23579" lon="5.37094">
        <ele>42.862885</ele>
        <time>2015-01-28T09:47:30Z</time>
      </trkpt>
      <trkpt lat="43.23576" lon="5.37098">
        <ele>43.316376</ele>
        <time>2015-01-28T09:47:34Z</time>
      </trkpt>
      <trkpt lat="43.23572" lon="5.37101">
        <ele>43.761932</ele>
        <time>2015-01-28T09:47:39Z</time>
      </trkpt>
      <trkpt lat="43.23568" lon="5.37104">
        <ele>44.188568</ele>
        <time>2015-01-28T09:47:44Z</time>
      </trkpt>
      <trkpt lat="43.23564" lon="5.37108">
        <ele>44.627106</ele>
        <time>2015-01-28T09:47:49Z</time>
      </trkpt>
      <trkpt lat="43.2356" lon="5.37111">
        <ele>45.063049</ele>
        <time>2015-01-28T09:47:53Z</time>
      </trkpt>
      <trkpt lat="43.23555" lon="5.37115">
        <ele>45.57605</ele>
        <time>2015-01-28T09:47:58Z</time>
      </trkpt>
      <trkpt lat="43.23551" lon="5.37118">
        <ele>46.027252</ele>
        <time>2015-01-28T09:48:02Z</time>
      </trkpt>
      <trkpt lat="43.23547" lon="5.37121">
        <ele>46.453278</ele>
        <time>2015-01-28T09:48:06Z</time>
      </trkpt>
      <trkpt lat="43.23543" lon="5.37126">
        <ele>46.936981</ele>
        <time>2015-01-28T09:48:11Z</time>
      </trkpt>
      <trkpt lat="43.23539" lon="5.37127">
        <ele>47.29129</ele>
        <time>2015-01-28T09:48:17Z</time>
      </trkpt>
      <trkpt lat="43.23534" lon="5.3713">
        <ele>47.7547</ele>
        <time>2015-01-28T09:48:22Z</time>
      </trkpt>
      <trkpt lat="43.2353" lon="5.37134">
        <ele>48.256104</ele>
        <time>2015-01-28T09:48:27Z</time>
      </trkpt>
      <trkpt lat="43.23525" lon="5.37139">
        <ele>48.811218</ele>
        <time>2015-01-28T09:48:32Z</time>
      </trkpt>
      <trkpt lat="43.23522" lon="5.37143">
        <ele>49.262268</ele>
        <time>2015-01-28T09:48:37Z</time>
      </trkpt>
      <trkpt lat="43.23517" lon="5.37146">
        <ele>49.746429</ele>
        <time>2015-01-28T09:48:42Z</time>
      </trkpt>
      <trkpt lat="43.23513" lon="5.3715">
        <ele>50.243256</ele>
        <time>2015-01-28T09:48:47Z</time>
      </trkpt>
      <trkpt lat="43.23509" lon="5.37155">
        <ele>50.740387</ele>
        <time>2015-01-28T09:48:51Z</time>
      </trkpt>
      <trkpt lat="43.23505" lon="5.37159">
        <ele>51.264832</ele>
        <time>2015-01-28T09:48:56Z</time>
      </trkpt>
      <trkpt lat="43.23501" lon="5.37164">
        <ele>51.742737</ele>
        <time>2015-01-28T09:49:01Z</time>
      </trkpt>
      <trkpt lat="43.23497" lon="5.37168">
        <ele>52.006508</ele>
        <time>2015-01-28T09:49:07Z</time>
      </trkpt>
      <trkpt lat="43.23493" lon="5.37172">
        <ele>52.106007</ele>
        <time>2015-01-28T09:49:11Z</time>
      </trkpt>
      <trkpt lat="43.23489" lon="5.37175">
        <ele>52.237633</ele>
        <time>2015-01-28T09:49:16Z</time>
      </trkpt>
      <trkpt lat="43.23484" lon="5.37179">
        <ele>52.371826</ele>
        <time>2015-01-28T09:49:22Z</time>
      </trkpt>
      <trkpt lat="43.2348" lon="5.37183">
        <ele>52.536835</ele>
        <time>2015-01-28T09:49:27Z</time>
      </trkpt>
      <trkpt lat="43.23476" lon="5.37186">
        <ele>52.685898</ele>
        <time>2015-01-28T09:49:31Z</time>
      </trkpt>
      <trkpt lat="43.23472" lon="5.3719">
        <ele>52.863297</ele>
        <time>2015-01-28T09:49:36Z</time>
      </trkpt>
      <trkpt lat="43.23468" lon="5.37194">
        <ele>53.128418</ele>
        <time>2015-01-28T09:49:41Z</time>
      </trkpt>
      <trkpt lat="43.23464" lon="5.37199">
        <ele>53.390713</ele>
        <time>2015-01-28T09:49:46Z</time>
      </trkpt>
      <trkpt lat="43.23459" lon="5.37203">
        <ele>53.664585</ele>
        <time>2015-01-28T09:49:51Z</time>
      </trkpt>
      <trkpt lat="43.23455" lon="5.37207">
        <ele>53.943604</ele>
        <time>2015-01-28T09:49:57Z</time>
      </trkpt>
      <trkpt lat="43.23451" lon="5.37211">
        <ele>54.255627</ele>
        <time>2015-01-28T09:50:05Z</time>
      </trkpt>
      <trkpt lat="43.23447" lon="5.37215">
        <ele>54.596508</ele>
        <time>2015-01-28T09:50:11Z</time>
      </trkpt>
      <trkpt lat="43.23444" lon="5.37222">
        <ele>55.086029</ele>
        <time>2015-01-28T09:50:17Z</time>
      </trkpt>
      <trkpt lat="43.23443" lon="5.37228">
        <ele>55.557961</ele>
        <time>2015-01-28T09:50:21Z</time>
      </trkpt>
      <trkpt lat="43.23443" lon="5.37236">
        <ele>56.072891</ele>
        <time>2015-01-28T09:50:25Z</time>
      </trkpt>
      <trkpt lat="43.23443" lon="5.37242">
        <ele>56.543221</ele>
        <time>2015-01-28T09:50:30Z</time>
      </trkpt>
      <trkpt lat="43.23439" lon="5.37247">
        <ele>57.017319</ele>
        <time>2015-01-28T09:50:37Z</time>
      </trkpt>
      <trkpt lat="43.23436" lon="5.37254">
        <ele>57.264381</ele>
        <time>2015-01-28T09:50:42Z</time>
      </trkpt>
      <trkpt lat="43.23435" lon="5.37261">
        <ele>57.256935</ele>
        <time>2015-01-28T09:50:48Z</time>
      </trkpt>
      <trkpt lat="43.23433" lon="5.37266">
        <ele>57.282738</ele>
        <time>2015-01-28T09:50:54Z</time>
      </trkpt>
      <trkpt lat="43.23431" lon="5.37272">
        <ele>57.297638</ele>
        <time>2015-01-28T09:50:59Z</time>
      </trkpt>
      <trkpt lat="43.23428" lon="5.37278">
        <ele>57.339066</ele>
        <time>2015-01-28T09:51:05Z</time>
      </trkpt>
      <trkpt lat="43.23425" lon="5.37284">
        <ele>57.368866</ele>
        <time>2015-01-28T09:51:11Z</time>
      </trkpt>
      <trkpt lat="43.23423" lon="5.37291">
        <ele>57.355568</ele>
        <time>2015-01-28T09:51:16Z</time>
      </trkpt>
      <trkpt lat="43.23422" lon="5.37299">
        <ele>57.299355</ele>
        <time>2015-01-28T09:51:21Z</time>
      </trkpt>
      <trkpt lat="43.23421" lon="5.37305">
        <ele>57.244057</ele>
        <time>2015-01-28T09:51:26Z</time>
      </trkpt>
      <trkpt lat="43.2342" lon="5.37312">
        <ele>57.200371</ele>
        <time>2015-01-28T09:51:31Z</time>
      </trkpt>
      <trkpt lat="43.23418" lon="5.37318">
        <ele>57.168991</ele>
        <time>2015-01-28T09:51:36Z</time>
      </trkpt>
      <trkpt lat="43.23415" lon="5.37324">
        <ele>57.191299</ele>
        <time>2015-01-28T09:51:41Z</time>
      </trkpt>
      <trkpt lat="43.23412" lon="5.37329">
        <ele>57.271084</ele>
        <time>2015-01-28T09:51:45Z</time>
      </trkpt>
      <trkpt lat="43.23408" lon="5.37334">
        <ele>57.447754</ele>
        <time>2015-01-28T09:51:51Z</time>
      </trkpt>
      <trkpt lat="43.23405" lon="5.37339">
        <ele>57.849014</ele>
        <time>2015-01-28T09:51:56Z</time>
      </trkpt>
      <trkpt lat="43.23401" lon="5.37344">
        <ele>58.351654</ele>
        <time>2015-01-28T09:52:01Z</time>
      </trkpt>
      <trkpt lat="43.23397" lon="5.37348">
        <ele>58.766472</ele>
        <time>2015-01-28T09:52:06Z</time>
      </trkpt>
      <trkpt lat="43.23391" lon="5.37353">
        <ele>59.38266</ele>
        <time>2015-01-28T09:52:12Z</time>
      </trkpt>
      <trkpt lat="43.23386" lon="5.37357">
        <ele>59.885666</ele>
        <time>2015-01-28T09:52:16Z</time>
      </trkpt>
      <trkpt lat="43.23384" lon="5.37362">
        <ele>60.353546</ele>
        <time>2015-01-28T09:52:20Z</time>
      </trkpt>
      <trkpt lat="43.23379" lon="5.37364">
        <ele>60.772781</ele>
        <time>2015-01-28T09:52:25Z</time>
      </trkpt>
      <trkpt lat="43.23374" lon="5.37364">
        <ele>61.118259</ele>
        <time>2015-01-28T09:52:29Z</time>
      </trkpt>
      <trkpt lat="43.23369" lon="5.37363">
        <ele>61.333946</ele>
        <time>2015-01-28T09:52:33Z</time>
      </trkpt>
      <trkpt lat="43.23364" lon="5.37361">
        <ele>61.528362</ele>
        <time>2015-01-28T09:52:38Z</time>
      </trkpt>
      <trkpt lat="43.23359" lon="5.37359">
        <ele>61.680779</ele>
        <time>2015-01-28T09:52:43Z</time>
      </trkpt>
      <trkpt lat="43.23355" lon="5.37357">
        <ele>61.782841</ele>
        <time>2015-01-28T09:52:47Z</time>
      </trkpt>
      <trkpt lat="43.23351" lon="5.37353">
        <ele>61.668442</ele>
        <time>2015-01-28T09:52:51Z</time>
      </trkpt>
      <trkpt lat="43.23348" lon="5.37348">
        <ele>61.419483</ele>
        <time>2015-01-28T09:52:55Z</time>
      </trkpt>
      <trkpt lat="43.23347" lon="5.37341">
        <ele>60.956322</ele>
        <time>2015-01-28T09:52:59Z</time>
      </trkpt>
      <trkpt lat="43.23345" lon="5.37336">
        <ele>60.618572</ele>
        <time>2015-01-28T09:53:05Z</time>
      </trkpt>
      <trkpt lat="43.23341" lon="5.37331">
        <ele>60.549709</ele>
        <time>2015-01-28T09:53:10Z</time>
      </trkpt>
      <trkpt lat="43.23339" lon="5.37324">
        <ele>60.405811</ele>
        <time>2015-01-28T09:53:14Z</time>
      </trkpt>
      <trkpt lat="43.23338" lon="5.37317">
        <ele>60.253658</ele>
        <time>2015-01-28T09:53:19Z</time>
      </trkpt>
      <trkpt lat="43.23333" lon="5.37313">
        <ele>60.264729</ele>
        <time>2015-01-28T09:53:23Z</time>
      </trkpt>
      <trkpt lat="43.23328" lon="5.37311">
        <ele>60.371155</ele>
        <time>2015-01-28T09:53:27Z</time>
      </trkpt>
      <trkpt lat="43.23323" lon="5.37311">
        <ele>60.565231</ele>
        <time>2015-01-28T09:53:33Z</time>
      </trkpt>
      <trkpt lat="43.23318" lon="5.37313">
        <ele>60.770245</ele>
        <time>2015-01-28T09:53:37Z</time>
      </trkpt>
      <trkpt lat="43.23313" lon="5.37314">
        <ele>60.962383</ele>
        <time>2015-01-28T09:53:45Z</time>
      </trkpt>
      <trkpt lat="43.23308" lon="5.37316">
        <ele>61.166355</ele>
        <time>2015-01-28T09:53:50Z</time>
      </trkpt>
      <trkpt lat="43.23302" lon="5.37316">
        <ele>61.360104</ele>
        <time>2015-01-28T09:53:56Z</time>
      </trkpt>
      <trkpt lat="43.23298" lon="5.37316">
        <ele>61.50494</ele>
        <time>2015-01-28T09:54:00Z</time>
      </trkpt>
      <trkpt lat="43.23293" lon="5.37317">
        <ele>61.671021</ele>
        <time>2015-01-28T09:54:07Z</time>
      </trkpt>
      <trkpt lat="43.2329" lon="5.37323">
        <ele>61.853989</ele>
        <time>2015-01-28T09:54:11Z</time>
      </trkpt>
      <trkpt lat="43.2329" lon="5.37329">
        <ele>61.974998</ele>
        <time>2015-01-28T09:54:15Z</time>
      </trkpt>
      <trkpt lat="43.23286" lon="5.37335">
        <ele>62.23465</ele>
        <time>2015-01-28T09:54:19Z</time>
      </trkpt>
      <trkpt lat="43.23283" lon="5.3734">
        <ele>62.741608</ele>
        <time>2015-01-28T09:54:23Z</time>
      </trkpt>
      <trkpt lat="43.23279" lon="5.37343">
        <ele>63.14682</ele>
        <time>2015-01-28T09:54:28Z</time>
      </trkpt>
      <trkpt lat="43.23275" lon="5.37349">
        <ele>63.696594</ele>
        <time>2015-01-28T09:54:34Z</time>
      </trkpt>
      <trkpt lat="43.23272" lon="5.37353">
        <ele>64.156128</ele>
        <time>2015-01-28T09:54:38Z</time>
      </trkpt>
      <trkpt lat="43.23266" lon="5.37353">
        <ele>64.282135</ele>
        <time>2015-01-28T09:54:42Z</time>
      </trkpt>
      <trkpt lat="43.23262" lon="5.37351">
        <ele>64.163483</ele>
        <time>2015-01-28T09:54:45Z</time>
      </trkpt>
      <trkpt lat="43.23257" lon="5.37349">
        <ele>64.103638</ele>
        <time>2015-01-28T09:54:49Z</time>
      </trkpt>
      <trkpt lat="43.23253" lon="5.37352">
        <ele>64.514282</ele>
        <time>2015-01-28T09:54:54Z</time>
      </trkpt>
      <trkpt lat="43.23249" lon="5.37356">
        <ele>64.980789</ele>
        <time>2015-01-28T09:54:59Z</time>
      </trkpt>
      <trkpt lat="43.23245" lon="5.3736">
        <ele>65.521759</ele>
        <time>2015-01-28T09:55:04Z</time>
      </trkpt>
      <trkpt lat="43.23242" lon="5.37365">
        <ele>66.029114</ele>
        <time>2015-01-28T09:55:09Z</time>
      </trkpt>
      <trkpt lat="43.2324" lon="5.3737">
        <ele>66.502098</ele>
        <time>2015-01-28T09:55:13Z</time>
      </trkpt>
      <trkpt lat="43.23237" lon="5.37377">
        <ele>66.992241</ele>
        <time>2015-01-28T09:55:18Z</time>
      </trkpt>
      <trkpt lat="43.23235" lon="5.37382">
        <ele>67.358139</ele>
        <time>2015-01-28T09:55:22Z</time>
      </trkpt>
      <trkpt lat="43.23233" lon="5.37389">
        <ele>67.713882</ele>
        <time>2015-01-28T09:55:27Z</time>
      </trkpt>
      <trkpt lat="43.23229" lon="5.37395">
        <ele>68.00795</ele>
        <time>2015-01-28T09:55:32Z</time>
      </trkpt>
      <trkpt lat="43.23225" lon="5.37398">
        <ele>68.107224</ele>
        <time>2015-01-28T09:55:38Z</time>
      </trkpt>
      <trkpt lat="43.23221" lon="5.37402">
        <ele>68.175247</ele>
        <time>2015-01-28T09:55:42Z</time>
      </trkpt>
      <trkpt lat="43.23216" lon="5.37404">
        <ele>68.106934</ele>
        <time>2015-01-28T09:55:47Z</time>
      </trkpt>
      <trkpt lat="43.23212" lon="5.37405">
        <ele>68.016312</ele>
        <time>2015-01-28T09:55:50Z</time>
      </trkpt>
      <trkpt lat="43.23207" lon="5.37409">
        <ele>67.908524</ele>
        <time>2015-01-28T09:55:55Z</time>
      </trkpt>
      <trkpt lat="43.23201" lon="5.37411">
        <ele>67.697792</ele>
        <time>2015-01-28T09:55:59Z</time>
      </trkpt>
      <trkpt lat="43.23196" lon="5.37411">
        <ele>67.512466</ele>
        <time>2015-01-28T09:56:03Z</time>
      </trkpt>
      <trkpt lat="43.23191" lon="5.37412">
        <ele>67.309036</ele>
        <time>2015-01-28T09:56:09Z</time>
      </trkpt>
      <trkpt lat="43.23187" lon="5.37415">
        <ele>67.026016</ele>
        <time>2015-01-28T09:56:14Z</time>
      </trkpt>
      <trkpt lat="43.23183" lon="5.37416">
        <ele>66.780045</ele>
        <time>2015-01-28T09:56:17Z</time>
      </trkpt>
      <trkpt lat="43.23178" lon="5.37419">
        <ele>66.716171</ele>
        <time>2015-01-28T09:56:21Z</time>
      </trkpt>
      <trkpt lat="43.23173" lon="5.37418">
        <ele>66.412933</ele>
        <time>2015-01-28T09:56:27Z</time>
      </trkpt>
      <trkpt lat="43.23169" lon="5.37422">
        <ele>66.499397</ele>
        <time>2015-01-28T09:56:32Z</time>
      </trkpt>
      <trkpt lat="43.23164" lon="5.37424">
        <ele>67.058434</ele>
        <time>2015-01-28T09:56:37Z</time>
      </trkpt>
      <trkpt lat="43.2316" lon="5.37428">
        <ele>67.972343</ele>
        <time>2015-01-28T09:56:41Z</time>
      </trkpt>
      <trkpt lat="43.23154" lon="5.37429">
        <ele>68.759682</ele>
        <time>2015-01-28T09:56:45Z</time>
      </trkpt>
      <trkpt lat="43.23149" lon="5.3743">
        <ele>69.451538</ele>
        <time>2015-01-28T09:56:51Z</time>
      </trkpt>
      <trkpt lat="43.23145" lon="5.37433">
        <ele>70.127449</ele>
        <time>2015-01-28T09:56:56Z</time>
      </trkpt>
      <trkpt lat="43.2314" lon="5.37436">
        <ele>70.855301</ele>
        <time>2015-01-28T09:57:00Z</time>
      </trkpt>
      <trkpt lat="43.23135" lon="5.37437">
        <ele>71.507996</ele>
        <time>2015-01-28T09:57:05Z</time>
      </trkpt>
      <trkpt lat="43.23129" lon="5.3744">
        <ele>72.122177</ele>
        <time>2015-01-28T09:57:11Z</time>
      </trkpt>
      <trkpt lat="43.23125" lon="5.37441">
        <ele>72.598602</ele>
        <time>2015-01-28T09:57:14Z</time>
      </trkpt>
      <trkpt lat="43.23121" lon="5.37445">
        <ele>72.936462</ele>
        <time>2015-01-28T09:57:18Z</time>
      </trkpt>
      <trkpt lat="43.23116" lon="5.37447">
        <ele>73.327049</ele>
        <time>2015-01-28T09:57:24Z</time>
      </trkpt>
      <trkpt lat="43.23111" lon="5.37449">
        <ele>73.682732</ele>
        <time>2015-01-28T09:57:29Z</time>
      </trkpt>
      <trkpt lat="43.23105" lon="5.37451">
        <ele>74.1147</ele>
        <time>2015-01-28T09:57:33Z</time>
      </trkpt>
      <trkpt lat="43.231" lon="5.37453">
        <ele>74.344452</ele>
        <time>2015-01-28T09:57:38Z</time>
      </trkpt>
      <trkpt lat="43.23095" lon="5.37457">
        <ele>74.379593</ele>
        <time>2015-01-28T09:57:44Z</time>
      </trkpt>
      <trkpt lat="43.23091" lon="5.37461">
        <ele>74.268555</ele>
        <time>2015-01-28T09:57:49Z</time>
      </trkpt>
      <trkpt lat="43.23085" lon="5.37461">
        <ele>74.51635</ele>
        <time>2015-01-28T09:57:55Z</time>
      </trkpt>
      <trkpt lat="43.23081" lon="5.37466">
        <ele>74.997536</ele>
        <time>2015-01-28T09:58:00Z</time>
      </trkpt>
      <trkpt lat="43.23078" lon="5.37471">
        <ele>76.006744</ele>
        <time>2015-01-28T09:58:05Z</time>
      </trkpt>
      <trkpt lat="43.23075" lon="5.37476">
        <ele>76.419075</ele>
        <time>2015-01-28T09:58:09Z</time>
      </trkpt>
      <trkpt lat="43.23072" lon="5.37481">
        <ele>76.860939</ele>
        <time>2015-01-28T09:58:17Z</time>
      </trkpt>
      <trkpt lat="43.23068" lon="5.37484">
        <ele>78.260193</ele>
        <time>2015-01-28T09:58:24Z</time>
      </trkpt>
      <trkpt lat="43.23064" lon="5.37489">
        <ele>79.007851</ele>
        <time>2015-01-28T09:58:30Z</time>
      </trkpt>
      <trkpt lat="43.23061" lon="5.37494">
        <ele>79.427444</ele>
        <time>2015-01-28T09:58:35Z</time>
      </trkpt>
      <trkpt lat="43.23058" lon="5.37499">
        <ele>80.081535</ele>
        <time>2015-01-28T09:58:39Z</time>
      </trkpt>
      <trkpt lat="43.23053" lon="5.37502">
        <ele>81.647522</ele>
        <time>2015-01-28T09:58:44Z</time>
      </trkpt>
      <trkpt lat="43.23049" lon="5.37503">
        <ele>83.44577</ele>
        <time>2015-01-28T09:58:49Z</time>
      </trkpt>
      <trkpt lat="43.23045" lon="5.37507">
        <ele>84.916779</ele>
        <time>2015-01-28T09:58:54Z</time>
      </trkpt>
      <trkpt lat="43.23042" lon="5.37512">
        <ele>86.026184</ele>
        <time>2015-01-28T09:58:58Z</time>
      </trkpt>
      <trkpt lat="43.23037" lon="5.37514">
        <ele>87.488136</ele>
        <time>2015-01-28T09:59:04Z</time>
      </trkpt>
      <trkpt lat="43.23032" lon="5.37517">
        <ele>89.231812</ele>
        <time>2015-01-28T09:59:09Z</time>
      </trkpt>
      <trkpt lat="43.23027" lon="5.37519">
        <ele>90.437614</ele>
        <time>2015-01-28T09:59:14Z</time>
      </trkpt>
      <trkpt lat="43.23024" lon="5.37524">
        <ele>90.98851</ele>
        <time>2015-01-28T09:59:21Z</time>
      </trkpt>
      <trkpt lat="43.23024" lon="5.37531">
        <ele>90.573692</ele>
        <time>2015-01-28T09:59:27Z</time>
      </trkpt>
      <trkpt lat="43.23023" lon="5.37538">
        <ele>90.193932</ele>
        <time>2015-01-28T09:59:31Z</time>
      </trkpt>
      <trkpt lat="43.23021" lon="5.37545">
        <ele>90.003769</ele>
        <time>2015-01-28T09:59:36Z</time>
      </trkpt>
      <trkpt lat="43.2302" lon="5.37552">
        <ele>89.608185</ele>
        <time>2015-01-28T09:59:41Z</time>
      </trkpt>
      <trkpt lat="43.23018" lon="5.37558">
        <ele>89.399635</ele>
        <time>2015-01-28T09:59:46Z</time>
      </trkpt>
      <trkpt lat="43.23015" lon="5.37563">
        <ele>89.125252</ele>
        <time>2015-01-28T09:59:52Z</time>
      </trkpt>
      <trkpt lat="43.23011" lon="5.37568">
        <ele>88.870995</ele>
        <time>2015-01-28T09:59:59Z</time>
      </trkpt>
      <trkpt lat="43.23008" lon="5.37573">
        <ele>88.423065</ele>
        <time>2015-01-28T10:00:07Z</time>
      </trkpt>
      <trkpt lat="43.23005" lon="5.37578">
        <ele>87.836327</ele>
        <time>2015-01-28T10:00:12Z</time>
      </trkpt>
      <trkpt lat="43.23001" lon="5.37582">
        <ele>87.23671</ele>
        <time>2015-01-28T10:00:17Z</time>
      </trkpt>
      <trkpt lat="43.22995" lon="5.37584">
        <ele>88.830902</ele>
        <time>2015-01-28T10:00:22Z</time>
      </trkpt>
      <trkpt lat="43.22993" lon="5.3759">
        <ele>90.604042</ele>
        <time>2015-01-28T10:00:30Z</time>
      </trkpt>
      <trkpt lat="43.22988" lon="5.3759">
        <ele>92.128975</ele>
        <time>2015-01-28T10:00:37Z</time>
      </trkpt>
      <trkpt lat="43.22984" lon="5.37594">
        <ele>93.876007</ele>
        <time>2015-01-28T10:00:45Z</time>
      </trkpt>
      <trkpt lat="43.2298" lon="5.37593">
        <ele>95.351837</ele>
        <time>2015-01-28T10:00:54Z</time>
      </trkpt>
      <trkpt lat="43.22976" lon="5.37589">
        <ele>96.211304</ele>
        <time>2015-01-28T10:01:00Z</time>
      </trkpt>
      <trkpt lat="43.22971" lon="5.37586">
        <ele>97.626152</ele>
        <time>2015-01-28T10:01:04Z</time>
      </trkpt>
      <trkpt lat="43.22967" lon="5.37583">
        <ele>98.997147</ele>
        <time>2015-01-28T10:01:14Z</time>
      </trkpt>
      <trkpt lat="43.22963" lon="5.37587">
        <ele>100.651093</ele>
        <time>2015-01-28T10:01:34Z</time>
      </trkpt>
      <trkpt lat="43.22958" lon="5.37588">
        <ele>102.477859</ele>
        <time>2015-01-28T10:01:44Z</time>
      </trkpt>
      <trkpt lat="43.22953" lon="5.37589">
        <ele>104.238266</ele>
        <time>2015-01-28T10:01:50Z</time>
      </trkpt>
      <trkpt lat="43.22948" lon="5.37587">
        <ele>105.788254</ele>
        <time>2015-01-28T10:01:57Z</time>
      </trkpt>
      <trkpt lat="43.22944" lon="5.37584">
        <ele>107.318985</ele>
        <time>2015-01-28T10:02:07Z</time>
      </trkpt>
      <trkpt lat="43.22939" lon="5.3758">
        <ele>109.342873</ele>
        <time>2015-01-28T10:02:20Z</time>
      </trkpt>
      <trkpt lat="43.22934" lon="5.37582">
        <ele>110.972107</ele>
        <time>2015-01-28T10:02:32Z</time>
      </trkpt>
      <trkpt lat="43.2293" lon="5.37585">
        <ele>112.233749</ele>
        <time>2015-01-28T10:02:59Z</time>
      </trkpt>
      <trkpt lat="43.22926" lon="5.37588">
        <ele>113.693451</ele>
        <time>2015-01-28T10:03:04Z</time>
      </trkpt>
      <trkpt lat="43.22924" lon="5.37595">
        <ele>113.900589</ele>
        <time>2015-01-28T10:03:12Z</time>
      </trkpt>
      <trkpt lat="43.22923" lon="5.37602">
        <ele>114.080505</ele>
        <time>2015-01-28T10:03:21Z</time>
      </trkpt>
      <trkpt lat="43.22921" lon="5.37608">
        <ele>114.483589</ele>
        <time>2015-01-28T10:03:30Z</time>
      </trkpt>
      <trkpt lat="43.22919" lon="5.37614">
        <ele>114.750885</ele>
        <time>2015-01-28T10:03:39Z</time>
      </trkpt>
      <trkpt lat="43.22921" lon="5.3762">
        <ele>113.961273</ele>
        <time>2015-01-28T10:03:45Z</time>
      </trkpt>
      <trkpt lat="43.22919" lon="5.37625">
        <ele>114.372505</ele>
        <time>2015-01-28T10:03:54Z</time>
      </trkpt>
      <trkpt lat="43.22916" lon="5.37631">
        <ele>114.922958</ele>
        <time>2015-01-28T10:04:01Z</time>
      </trkpt>
      <trkpt lat="43.22912" lon="5.37634">
        <ele>116.134842</ele>
        <time>2015-01-28T10:04:08Z</time>
      </trkpt>
      <trkpt lat="43.22908" lon="5.37631">
        <ele>117.812149</ele>
        <time>2015-01-28T10:04:16Z</time>
      </trkpt>
      <trkpt lat="43.22908" lon="5.37637">
        <ele>117.253418</ele>
        <time>2015-01-28T10:04:33Z</time>
      </trkpt>
      <trkpt lat="43.22905" lon="5.37641">
        <ele>118.311264</ele>
        <time>2015-01-28T10:04:44Z</time>
      </trkpt>
      <trkpt lat="43.229" lon="5.3764">
        <ele>119.908966</ele>
        <time>2015-01-28T10:04:51Z</time>
      </trkpt>
      <trkpt lat="43.22895" lon="5.37639">
        <ele>121.507858</ele>
        <time>2015-01-28T10:05:00Z</time>
      </trkpt>
      <trkpt lat="43.22891" lon="5.3764">
        <ele>123.029129</ele>
        <time>2015-01-28T10:05:18Z</time>
      </trkpt>
      <trkpt lat="43.22893" lon="5.37646">
        <ele>122.047272</ele>
        <time>2015-01-28T10:05:47Z</time>
      </trkpt>
      <trkpt lat="43.22888" lon="5.37648">
        <ele>123.48542</ele>
        <time>2015-01-28T10:06:27Z</time>
      </trkpt>
      <trkpt lat="43.22883" lon="5.37648">
        <ele>125.03624</ele>
        <time>2015-01-28T10:06:40Z</time>
      </trkpt>
      <trkpt lat="43.22879" lon="5.37652">
        <ele>126.268799</ele>
        <time>2015-01-28T10:06:54Z</time>
      </trkpt>
      <trkpt lat="43.22875" lon="5.37655">
        <ele>127.312653</ele>
        <time>2015-01-28T10:07:05Z</time>
      </trkpt>
      <trkpt lat="43.2287" lon="5.37655">
        <ele>128.797241</ele>
        <time>2015-01-28T10:07:13Z</time>
      </trkpt>
      <trkpt lat="43.22868" lon="5.37661">
        <ele>129.148682</ele>
        <time>2015-01-28T10:07:18Z</time>
      </trkpt>
      <trkpt lat="43.22866" lon="5.37667">
        <ele>129.48848</ele>
        <time>2015-01-28T10:07:24Z</time>
      </trkpt>
      <trkpt lat="43.22862" lon="5.37669">
        <ele>130.936768</ele>
        <time>2015-01-28T10:07:32Z</time>
      </trkpt>
      <trkpt lat="43.22857" lon="5.37671">
        <ele>132.456009</ele>
        <time>2015-01-28T10:07:41Z</time>
      </trkpt>
      <trkpt lat="43.22855" lon="5.37676">
        <ele>133.202621</ele>
        <time>2015-01-28T10:07:51Z</time>
      </trkpt>
      <trkpt lat="43.22851" lon="5.3768">
        <ele>134.356644</ele>
        <time>2015-01-28T10:07:58Z</time>
      </trkpt>
      <trkpt lat="43.22847" lon="5.37683">
        <ele>135.561722</ele>
        <time>2015-01-28T10:08:05Z</time>
      </trkpt>
      <trkpt lat="43.22843" lon="5.37688">
        <ele>136.586578</ele>
        <time>2015-01-28T10:08:12Z</time>
      </trkpt>
      <trkpt lat="43.22838" lon="5.37691">
        <ele>137.793976</ele>
        <time>2015-01-28T10:08:20Z</time>
      </trkpt>
      <trkpt lat="43.22834" lon="5.37695">
        <ele>138.864532</ele>
        <time>2015-01-28T10:08:28Z</time>
      </trkpt>
      <trkpt lat="43.2283" lon="5.377">
        <ele>139.425369</ele>
        <time>2015-01-28T10:08:34Z</time>
      </trkpt>
      <trkpt lat="43.22835" lon="5.37702">
        <ele>138.307404</ele>
        <time>2015-01-28T10:09:21Z</time>
      </trkpt>
      <trkpt lat="43.22834" lon="5.37709">
        <ele>138.283737</ele>
        <time>2015-01-28T10:09:28Z</time>
      </trkpt>
      <trkpt lat="43.22829" lon="5.37711">
        <ele>139.071793</ele>
        <time>2015-01-28T10:09:33Z</time>
      </trkpt>
      <trkpt lat="43.22824" lon="5.3771">
        <ele>139.876755</ele>
        <time>2015-01-28T10:09:40Z</time>
      </trkpt>
      <trkpt lat="43.2282" lon="5.37712">
        <ele>140.459854</ele>
        <time>2015-01-28T10:09:45Z</time>
      </trkpt>
      <trkpt lat="43.22815" lon="5.37715">
        <ele>140.927048</ele>
        <time>2015-01-28T10:09:49Z</time>
      </trkpt>
      <trkpt lat="43.2281" lon="5.37715">
        <ele>141.682037</ele>
        <time>2015-01-28T10:09:55Z</time>
      </trkpt>
      <trkpt lat="43.22805" lon="5.37716">
        <ele>142.269058</ele>
        <time>2015-01-28T10:09:59Z</time>
      </trkpt>
      <trkpt lat="43.22803" lon="5.37722">
        <ele>141.788361</ele>
        <time>2015-01-28T10:10:07Z</time>
      </trkpt>
      <trkpt lat="43.22799" lon="5.37725">
        <ele>141.913345</ele>
        <time>2015-01-28T10:10:19Z</time>
      </trkpt>
      <trkpt lat="43.22794" lon="5.37731">
        <ele>141.646545</ele>
        <time>2015-01-28T10:10:23Z</time>
      </trkpt>
      <trkpt lat="43.22789" lon="5.37729">
        <ele>142.551086</ele>
        <time>2015-01-28T10:10:35Z</time>
      </trkpt>
      <trkpt lat="43.22784" lon="5.37729">
        <ele>142.935516</ele>
        <time>2015-01-28T10:10:39Z</time>
      </trkpt>
      <trkpt lat="43.22778" lon="5.37734">
        <ele>142.61618</ele>
        <time>2015-01-28T10:10:43Z</time>
      </trkpt>
      <trkpt lat="43.22776" lon="5.3774">
        <ele>141.618637</ele>
        <time>2015-01-28T10:10:47Z</time>
      </trkpt>
      <trkpt lat="43.22772" lon="5.37745">
        <ele>141.006409</ele>
        <time>2015-01-28T10:10:53Z</time>
      </trkpt>
      <trkpt lat="43.22768" lon="5.37749">
        <ele>140.347595</ele>
        <time>2015-01-28T10:10:58Z</time>
      </trkpt>
      <trkpt lat="43.22763" lon="5.3775">
        <ele>140.371719</ele>
        <time>2015-01-28T10:11:04Z</time>
      </trkpt>
      <trkpt lat="43.22758" lon="5.3775">
        <ele>140.606094</ele>
        <time>2015-01-28T10:11:10Z</time>
      </trkpt>
      <trkpt lat="43.22754" lon="5.37751">
        <ele>140.894958</ele>
        <time>2015-01-28T10:11:16Z</time>
      </trkpt>
      <trkpt lat="43.22749" lon="5.37755">
        <ele>141.766693</ele>
        <time>2015-01-28T10:11:24Z</time>
      </trkpt>
      <trkpt lat="43.22746" lon="5.37758">
        <ele>143.533371</ele>
        <time>2015-01-28T10:11:30Z</time>
      </trkpt>
      <trkpt lat="43.22742" lon="5.37762">
        <ele>145.201935</ele>
        <time>2015-01-28T10:11:37Z</time>
      </trkpt>
      <trkpt lat="43.22737" lon="5.37763">
        <ele>147.066391</ele>
        <time>2015-01-28T10:11:41Z</time>
      </trkpt>
      <trkpt lat="43.22733" lon="5.37766">
        <ele>148.969666</ele>
        <time>2015-01-28T10:11:46Z</time>
      </trkpt>
      <trkpt lat="43.22729" lon="5.3777">
        <ele>150.397202</ele>
        <time>2015-01-28T10:11:52Z</time>
      </trkpt>
      <trkpt lat="43.22725" lon="5.37774">
        <ele>151.836639</ele>
        <time>2015-01-28T10:11:56Z</time>
      </trkpt>
      <trkpt lat="43.2272" lon="5.37777">
        <ele>153.216919</ele>
        <time>2015-01-28T10:12:00Z</time>
      </trkpt>
      <trkpt lat="43.22717" lon="5.37781">
        <ele>154.099854</ele>
        <time>2015-01-28T10:12:06Z</time>
      </trkpt>
      <trkpt lat="43.22713" lon="5.37787">
        <ele>155.138611</ele>
        <time>2015-01-28T10:12:12Z</time>
      </trkpt>
      <trkpt lat="43.22709" lon="5.37791">
        <ele>155.912384</ele>
        <time>2015-01-28T10:12:17Z</time>
      </trkpt>
      <trkpt lat="43.22705" lon="5.37795">
        <ele>156.72934</ele>
        <time>2015-01-28T10:12:23Z</time>
      </trkpt>
      <trkpt lat="43.22699" lon="5.37798">
        <ele>157.826843</ele>
        <time>2015-01-28T10:12:28Z</time>
      </trkpt>
      <trkpt lat="43.22694" lon="5.378">
        <ele>158.639984</ele>
        <time>2015-01-28T10:12:33Z</time>
      </trkpt>
      <trkpt lat="43.2269" lon="5.37804">
        <ele>159.185257</ele>
        <time>2015-01-28T10:12:39Z</time>
      </trkpt>
      <trkpt lat="43.22685" lon="5.37805">
        <ele>160.082489</ele>
        <time>2015-01-28T10:12:44Z</time>
      </trkpt>
      <trkpt lat="43.22681" lon="5.37808">
        <ele>160.400925</ele>
        <time>2015-01-28T10:12:50Z</time>
      </trkpt>
      <trkpt lat="43.22676" lon="5.37808">
        <ele>161.435181</ele>
        <time>2015-01-28T10:12:58Z</time>
      </trkpt>
      <trkpt lat="43.2267" lon="5.37809">
        <ele>162.25177</ele>
        <time>2015-01-28T10:13:04Z</time>
      </trkpt>
      <trkpt lat="43.22667" lon="5.37814">
        <ele>161.919739</ele>
        <time>2015-01-28T10:15:15Z</time>
      </trkpt>
      <trkpt lat="43.22668" lon="5.3782">
        <ele>160.162918</ele>
        <time>2015-01-28T10:15:20Z</time>
      </trkpt>
      <trkpt lat="43.22668" lon="5.37827">
        <ele>158.374741</ele>
        <time>2015-01-28T10:15:27Z</time>
      </trkpt>
      <trkpt lat="43.2267" lon="5.37834">
        <ele>156.731735</ele>
        <time>2015-01-28T10:15:34Z</time>
      </trkpt>
      <trkpt lat="43.22674" lon="5.37837">
        <ele>157.293167</ele>
        <time>2015-01-28T10:15:42Z</time>
      </trkpt>
      <trkpt lat="43.22678" lon="5.37841">
        <ele>158.118774</ele>
        <time>2015-01-28T10:15:51Z</time>
      </trkpt>
      <trkpt lat="43.22681" lon="5.37846">
        <ele>159.638062</ele>
        <time>2015-01-28T10:15:57Z</time>
      </trkpt>
      <trkpt lat="43.22686" lon="5.37849">
        <ele>159.776337</ele>
        <time>2015-01-28T10:16:03Z</time>
      </trkpt>
      <trkpt lat="43.2269" lon="5.37853">
        <ele>160.52063</ele>
        <time>2015-01-28T10:16:09Z</time>
      </trkpt>
      <trkpt lat="43.22692" lon="5.37859">
        <ele>162.326111</ele>
        <time>2015-01-28T10:16:15Z</time>
      </trkpt>
      <trkpt lat="43.22695" lon="5.37865">
        <ele>163.692688</ele>
        <time>2015-01-28T10:16:23Z</time>
      </trkpt>
      <trkpt lat="43.22699" lon="5.37866">
        <ele>163.375122</ele>
        <time>2015-01-28T10:16:32Z</time>
      </trkpt>
      <trkpt lat="43.22706" lon="5.37866">
        <ele>162.130005</ele>
        <time>2015-01-28T10:16:36Z</time>
      </trkpt>
      <trkpt lat="43.22711" lon="5.37865">
        <ele>161.150726</ele>
        <time>2015-01-28T10:16:41Z</time>
      </trkpt>
      <trkpt lat="43.22716" lon="5.37868">
        <ele>161.208527</ele>
        <time>2015-01-28T10:16:46Z</time>
      </trkpt>
      <trkpt lat="43.22712" lon="5.37873">
        <ele>163.24646</ele>
        <time>2015-01-28T10:16:51Z</time>
      </trkpt>
      <trkpt lat="43.22714" lon="5.37879">
        <ele>164.578766</ele>
        <time>2015-01-28T10:16:59Z</time>
      </trkpt>
      <trkpt lat="43.22718" lon="5.37883">
        <ele>165.232605</ele>
        <time>2015-01-28T10:17:05Z</time>
      </trkpt>
      <trkpt lat="43.2272" lon="5.37889">
        <ele>166.5242</ele>
        <time>2015-01-28T10:17:11Z</time>
      </trkpt>
      <trkpt lat="43.2272" lon="5.37896">
        <ele>168.227631</ele>
        <time>2015-01-28T10:17:16Z</time>
      </trkpt>
      <trkpt lat="43.22722" lon="5.37902">
        <ele>169.346191</ele>
        <time>2015-01-28T10:17:23Z</time>
      </trkpt>
      <trkpt lat="43.22724" lon="5.37908">
        <ele>170.622818</ele>
        <time>2015-01-28T10:17:31Z</time>
      </trkpt>
      <trkpt lat="43.22722" lon="5.37916">
        <ele>173.051468</ele>
        <time>2015-01-28T10:17:35Z</time>
      </trkpt>
      <trkpt lat="43.22723" lon="5.37922">
        <ele>174.97081</ele>
        <time>2015-01-28T10:17:42Z</time>
      </trkpt>
      <trkpt lat="43.22725" lon="5.37928">
        <ele>176.8741</ele>
        <time>2015-01-28T10:17:51Z</time>
      </trkpt>
      <trkpt lat="43.22729" lon="5.3793">
        <ele>176.598038</ele>
        <time>2015-01-28T10:17:59Z</time>
      </trkpt>
      <trkpt lat="43.2273" lon="5.37936">
        <ele>178.757736</ele>
        <time>2015-01-28T10:18:14Z</time>
      </trkpt>
      <trkpt lat="43.22734" lon="5.37935">
        <ele>177.242111</ele>
        <time>2015-01-28T10:18:27Z</time>
      </trkpt>
      <trkpt lat="43.22739" lon="5.37935">
        <ele>176.306595</ele>
        <time>2015-01-28T10:18:40Z</time>
      </trkpt>
      <trkpt lat="43.22744" lon="5.37935">
        <ele>175.016968</ele>
        <time>2015-01-28T10:18:52Z</time>
      </trkpt>
      <trkpt lat="43.22749" lon="5.37933">
        <ele>172.936996</ele>
        <time>2015-01-28T10:19:00Z</time>
      </trkpt>
      <trkpt lat="43.22753" lon="5.37928">
        <ele>171.091797</ele>
        <time>2015-01-28T10:19:05Z</time>
      </trkpt>
      <trkpt lat="43.22756" lon="5.37923">
        <ele>169.714035</ele>
        <time>2015-01-28T10:19:12Z</time>
      </trkpt>
      <trkpt lat="43.22757" lon="5.37916">
        <ele>167.614227</ele>
        <time>2015-01-28T10:19:16Z</time>
      </trkpt>
      <trkpt lat="43.22759" lon="5.3791">
        <ele>166.531982</ele>
        <time>2015-01-28T10:19:22Z</time>
      </trkpt>
      <trkpt lat="43.22762" lon="5.37915">
        <ele>168.154648</ele>
        <time>2015-01-28T10:22:36Z</time>
      </trkpt>
      <trkpt lat="43.2277" lon="5.37917">
        <ele>169.551147</ele>
        <time>2015-01-28T10:22:46Z</time>
      </trkpt>
      <trkpt lat="43.22766" lon="5.37918">
        <ele>169.183319</ele>
        <time>2015-01-28T10:24:51Z</time>
      </trkpt>
      <trkpt lat="43.22765" lon="5.37924">
        <ele>171.490112</ele>
        <time>2015-01-28T10:25:22Z</time>
      </trkpt>
      <trkpt lat="43.22767" lon="5.3793">
        <ele>173.757141</ele>
        <time>2015-01-28T10:25:57Z</time>
      </trkpt>
      <trkpt lat="43.22768" lon="5.37937">
        <ele>176.254837</ele>
        <time>2015-01-28T10:26:30Z</time>
      </trkpt>
      <trkpt lat="43.22766" lon="5.37942">
        <ele>178.186356</ele>
        <time>2015-01-28T10:26:48Z</time>
      </trkpt>
      <trkpt lat="43.22768" lon="5.37948">
        <ele>180.59874</ele>
        <time>2015-01-28T10:30:45Z</time>
      </trkpt>
      <trkpt lat="43.22763" lon="5.3795">
        <ele>180.531586</ele>
        <time>2015-01-28T10:32:36Z</time>
      </trkpt>
      <trkpt lat="43.22767" lon="5.37946">
        <ele>179.522766</ele>
        <time>2015-01-28T10:34:24Z</time>
      </trkpt>
      <trkpt lat="43.22766" lon="5.37953">
        <ele>182.016815</ele>
        <time>2015-01-28T10:37:09Z</time>
      </trkpt>
      <trkpt lat="43.22767" lon="5.37959">
        <ele>184.468796</ele>
        <time>2015-01-28T10:37:16Z</time>
      </trkpt>
      <trkpt lat="43.22765" lon="5.37965">
        <ele>186.079453</ele>
        <time>2015-01-28T10:37:28Z</time>
      </trkpt>
      <trkpt lat="43.22765" lon="5.37971">
        <ele>188.353638</ele>
        <time>2015-01-28T10:37:37Z</time>
      </trkpt>
      <trkpt lat="43.22766" lon="5.37978">
        <ele>190.890289</ele>
        <time>2015-01-28T10:37:45Z</time>
      </trkpt>
      <trkpt lat="43.22762" lon="5.3798">
        <ele>190.925949</ele>
        <time>2015-01-28T10:37:53Z</time>
      </trkpt>
      <trkpt lat="43.22766" lon="5.37982">
        <ele>192.519958</ele>
        <time>2015-01-28T10:38:30Z</time>
      </trkpt>
      <trkpt lat="43.22763" lon="5.37987">
        <ele>193.902634</ele>
        <time>2015-01-28T10:38:44Z</time>
      </trkpt>
      <trkpt lat="43.2276" lon="5.37993">
        <ele>195.179459</ele>
        <time>2015-01-28T10:38:50Z</time>
      </trkpt>
      <trkpt lat="43.22757" lon="5.37998">
        <ele>196.345566</ele>
        <time>2015-01-28T10:39:01Z</time>
      </trkpt>
      <trkpt lat="43.22759" lon="5.38003">
        <ele>198.555542</ele>
        <time>2015-01-28T10:39:46Z</time>
      </trkpt>
      <trkpt lat="43.22762" lon="5.38008">
        <ele>200.607635</ele>
        <time>2015-01-28T10:39:54Z</time>
      </trkpt>
      <trkpt lat="43.22767" lon="5.38009">
        <ele>201.938126</ele>
        <time>2015-01-28T10:40:25Z</time>
      </trkpt>
      <trkpt lat="43.22767" lon="5.38016">
        <ele>203.922699</ele>
        <time>2015-01-28T10:40:38Z</time>
      </trkpt>
      <trkpt lat="43.22768" lon="5.38022">
        <ele>206.019669</ele>
        <time>2015-01-28T10:40:42Z</time>
      </trkpt>
      <trkpt lat="43.22774" lon="5.38021">
        <ele>206.64502</ele>
        <time>2015-01-28T10:40:52Z</time>
      </trkpt>
      <trkpt lat="43.2275" lon="5.38001">
        <ele>196.442047</ele>
        <time>2015-01-28T10:40:55Z</time>
      </trkpt>
      <trkpt lat="43.22746" lon="5.37993">
        <ele>194.899124</ele>
        <time>2015-01-28T10:40:59Z</time>
      </trkpt>
      <trkpt lat="43.22748" lon="5.37999">
        <ele>196.540115</ele>
        <time>2015-01-28T10:41:08Z</time>
      </trkpt>
      <trkpt lat="43.228" lon="5.38043">
        <ele>217.843323</ele>
        <time>2015-01-28T10:41:24Z</time>
      </trkpt>
      <trkpt lat="43.22787" lon="5.38025">
        <ele>210.18924</ele>
        <time>2015-01-28T10:41:28Z</time>
      </trkpt>
      <trkpt lat="43.22788" lon="5.38018">
        <ele>208.12384</ele>
        <time>2015-01-28T10:41:32Z</time>
      </trkpt>
      <trkpt lat="43.22783" lon="5.38019">
        <ele>207.558258</ele>
        <time>2015-01-28T10:41:41Z</time>
      </trkpt>
      <trkpt lat="43.22781" lon="5.38024">
        <ele>208.754211</ele>
        <time>2015-01-28T10:41:47Z</time>
      </trkpt>
      <trkpt lat="43.22776" lon="5.38027">
        <ele>208.7388</ele>
        <time>2015-01-28T10:41:54Z</time>
      </trkpt>
      <trkpt lat="43.22773" lon="5.38032">
        <ele>209.817322</ele>
        <time>2015-01-28T10:44:11Z</time>
      </trkpt>
      <trkpt lat="43.22769" lon="5.38036">
        <ele>210.338989</ele>
        <time>2015-01-28T10:44:17Z</time>
      </trkpt>
      <trkpt lat="43.22766" lon="5.38041">
        <ele>211.410782</ele>
        <time>2015-01-28T10:44:23Z</time>
      </trkpt>
      <trkpt lat="43.22768" lon="5.38048">
        <ele>213.937668</ele>
        <time>2015-01-28T10:44:29Z</time>
      </trkpt>
      <trkpt lat="43.22766" lon="5.38055">
        <ele>215.703018</ele>
        <time>2015-01-28T10:44:33Z</time>
      </trkpt>
      <trkpt lat="43.22762" lon="5.38058">
        <ele>215.867706</ele>
        <time>2015-01-28T10:44:39Z</time>
      </trkpt>
      <trkpt lat="43.22758" lon="5.38062">
        <ele>216.445923</ele>
        <time>2015-01-28T10:44:46Z</time>
      </trkpt>
      <trkpt lat="43.22754" lon="5.38066">
        <ele>217.402847</ele>
        <time>2015-01-28T10:44:50Z</time>
      </trkpt>
      <trkpt lat="43.2275" lon="5.38072">
        <ele>218.404953</ele>
        <time>2015-01-28T10:44:57Z</time>
      </trkpt>
      <trkpt lat="43.22751" lon="5.38079">
        <ele>220.751083</ele>
        <time>2015-01-28T10:45:01Z</time>
      </trkpt>
      <trkpt lat="43.22751" lon="5.38086">
        <ele>222.705124</ele>
        <time>2015-01-28T10:45:07Z</time>
      </trkpt>
      <trkpt lat="43.22747" lon="5.38091">
        <ele>224.567337</ele>
        <time>2015-01-28T10:45:13Z</time>
      </trkpt>
      <trkpt lat="43.22743" lon="5.38092">
        <ele>225.863968</ele>
        <time>2015-01-28T10:45:18Z</time>
      </trkpt>
      <trkpt lat="43.22738" lon="5.38093">
        <ele>227.023895</ele>
        <time>2015-01-28T10:45:24Z</time>
      </trkpt>
      <trkpt lat="43.22734" lon="5.38092">
        <ele>227.515106</ele>
        <time>2015-01-28T10:45:32Z</time>
      </trkpt>
      <trkpt lat="43.22729" lon="5.38095">
        <ele>229.180756</ele>
        <time>2015-01-28T10:45:41Z</time>
      </trkpt>
      <trkpt lat="43.22726" lon="5.38099">
        <ele>231.012894</ele>
        <time>2015-01-28T10:45:48Z</time>
      </trkpt>
      <trkpt lat="43.22724" lon="5.38104">
        <ele>232.938934</ele>
        <time>2015-01-28T10:45:55Z</time>
      </trkpt>
      <trkpt lat="43.22722" lon="5.38111">
        <ele>234.959991</ele>
        <time>2015-01-28T10:46:02Z</time>
      </trkpt>
      <trkpt lat="43.22721" lon="5.38118">
        <ele>237.154694</ele>
        <time>2015-01-28T10:46:13Z</time>
      </trkpt>
      <trkpt lat="43.22721" lon="5.38124">
        <ele>239.008759</ele>
        <time>2015-01-28T10:46:29Z</time>
      </trkpt>
      <trkpt lat="43.22717" lon="5.38129">
        <ele>241.02887</ele>
        <time>2015-01-28T10:46:40Z</time>
      </trkpt>
      <trkpt lat="43.22714" lon="5.38133">
        <ele>242.927994</ele>
        <time>2015-01-28T10:46:50Z</time>
      </trkpt>
      <trkpt lat="43.22711" lon="5.38137">
        <ele>244.799866</ele>
        <time>2015-01-28T10:47:00Z</time>
      </trkpt>
      <trkpt lat="43.22709" lon="5.38143">
        <ele>246.912506</ele>
        <time>2015-01-28T10:47:12Z</time>
      </trkpt>
      <trkpt lat="43.22706" lon="5.38149">
        <ele>248.873047</ele>
        <time>2015-01-28T10:47:23Z</time>
      </trkpt>
      <trkpt lat="43.22702" lon="5.38153">
        <ele>250.730774</ele>
        <time>2015-01-28T10:47:43Z</time>
      </trkpt>
      <trkpt lat="43.22698" lon="5.3815">
        <ele>250.987701</ele>
        <time>2015-01-28T10:47:58Z</time>
      </trkpt>
      <trkpt lat="43.22696" lon="5.38145">
        <ele>249.838379</ele>
        <time>2015-01-28T10:48:07Z</time>
      </trkpt>
      <trkpt lat="43.22693" lon="5.38139">
        <ele>248.732483</ele>
        <time>2015-01-28T10:48:13Z</time>
      </trkpt>
      <trkpt lat="43.2269" lon="5.38133">
        <ele>247.60939</ele>
        <time>2015-01-28T10:48:17Z</time>
      </trkpt>
      <trkpt lat="43.22685" lon="5.38132">
        <ele>248.217499</ele>
        <time>2015-01-28T10:48:24Z</time>
      </trkpt>
      <trkpt lat="43.22682" lon="5.38137">
        <ele>250.472382</ele>
        <time>2015-01-28T10:48:29Z</time>
      </trkpt>
      <trkpt lat="43.22678" lon="5.38138">
        <ele>251.62088</ele>
        <time>2015-01-28T10:48:46Z</time>
      </trkpt>
      <trkpt lat="43.22673" lon="5.38132">
        <ele>250.78479</ele>
        <time>2015-01-28T10:48:54Z</time>
      </trkpt>
      <trkpt lat="43.2267" lon="5.38127">
        <ele>250.003616</ele>
        <time>2015-01-28T10:48:59Z</time>
      </trkpt>
      <trkpt lat="43.22673" lon="5.38121">
        <ele>247.792572</ele>
        <time>2015-01-28T10:49:07Z</time>
      </trkpt>
      <trkpt lat="43.22674" lon="5.38115">
        <ele>245.637115</ele>
        <time>2015-01-28T10:49:12Z</time>
      </trkpt>
      <trkpt lat="43.22672" lon="5.38108">
        <ele>244.066772</ele>
        <time>2015-01-28T10:49:17Z</time>
      </trkpt>
      <trkpt lat="43.22671" lon="5.38101">
        <ele>242.379074</ele>
        <time>2015-01-28T10:49:22Z</time>
      </trkpt>
      <trkpt lat="43.22667" lon="5.38097">
        <ele>241.863647</ele>
        <time>2015-01-28T10:49:27Z</time>
      </trkpt>
      <trkpt lat="43.22662" lon="5.381">
        <ele>244.254852</ele>
        <time>2015-01-28T10:49:33Z</time>
      </trkpt>
      <trkpt lat="43.22658" lon="5.381">
        <ele>246.085007</ele>
        <time>2015-01-28T10:49:42Z</time>
      </trkpt>
      <trkpt lat="43.22654" lon="5.38095">
        <ele>245.915955</ele>
        <time>2015-01-28T10:49:50Z</time>
      </trkpt>
      <trkpt lat="43.22651" lon="5.3809">
        <ele>245.263718</ele>
        <time>2015-01-28T10:49:56Z</time>
      </trkpt>
      <trkpt lat="43.22649" lon="5.38083">
        <ele>244.030609</ele>
        <time>2015-01-28T10:50:01Z</time>
      </trkpt>
      <trkpt lat="43.22648" lon="5.38077">
        <ele>243.303391</ele>
        <time>2015-01-28T10:50:07Z</time>
      </trkpt>
      <trkpt lat="43.22647" lon="5.38071">
        <ele>242.45842</ele>
        <time>2015-01-28T10:50:12Z</time>
      </trkpt>
      <trkpt lat="43.22647" lon="5.38064">
        <ele>241.088287</ele>
        <time>2015-01-28T10:50:18Z</time>
      </trkpt>
      <trkpt lat="43.22646" lon="5.38058">
        <ele>240.217712</ele>
        <time>2015-01-28T10:50:26Z</time>
      </trkpt>
      <trkpt lat="43.22646" lon="5.38051">
        <ele>238.864502</ele>
        <time>2015-01-28T10:50:33Z</time>
      </trkpt>
      <trkpt lat="43.22646" lon="5.38044">
        <ele>237.407867</ele>
        <time>2015-01-28T10:50:38Z</time>
      </trkpt>
      <trkpt lat="43.22644" lon="5.38038">
        <ele>236.695892</ele>
        <time>2015-01-28T10:50:46Z</time>
      </trkpt>
      <trkpt lat="43.22643" lon="5.38032">
        <ele>235.731537</ele>
        <time>2015-01-28T10:50:54Z</time>
      </trkpt>
      <trkpt lat="43.22639" lon="5.38028">
        <ele>236.101959</ele>
        <time>2015-01-28T10:50:59Z</time>
      </trkpt>
      <trkpt lat="43.22639" lon="5.38021">
        <ele>234.660934</ele>
        <time>2015-01-28T10:51:04Z</time>
      </trkpt>
      <trkpt lat="43.22638" lon="5.38015">
        <ele>233.567291</ele>
        <time>2015-01-28T10:51:10Z</time>
      </trkpt>
      <trkpt lat="43.22638" lon="5.38008">
        <ele>232.163376</ele>
        <time>2015-01-28T10:51:15Z</time>
      </trkpt>
      <trkpt lat="43.22636" lon="5.38002">
        <ele>231.382141</ele>
        <time>2015-01-28T10:51:19Z</time>
      </trkpt>
      <trkpt lat="43.22632" lon="5.37998">
        <ele>231.701706</ele>
        <time>2015-01-28T10:51:25Z</time>
      </trkpt>
      <trkpt lat="43.22627" lon="5.37996">
        <ele>232.277252</ele>
        <time>2015-01-28T10:51:29Z</time>
      </trkpt>
      <trkpt lat="43.22623" lon="5.37992">
        <ele>231.980423</ele>
        <time>2015-01-28T10:51:40Z</time>
      </trkpt>
      <trkpt lat="43.22618" lon="5.37992">
        <ele>233.298737</ele>
        <time>2015-01-28T10:51:46Z</time>
      </trkpt>
      <trkpt lat="43.22614" lon="5.37993">
        <ele>234.896088</ele>
        <time>2015-01-28T10:52:02Z</time>
      </trkpt>
      <trkpt lat="43.22608" lon="5.37993">
        <ele>236.258545</ele>
        <time>2015-01-28T10:52:11Z</time>
      </trkpt>
      <trkpt lat="43.22603" lon="5.37991">
        <ele>237.340759</ele>
        <time>2015-01-28T10:52:15Z</time>
      </trkpt>
      <trkpt lat="43.22603" lon="5.37984">
        <ele>235.470459</ele>
        <time>2015-01-28T10:52:27Z</time>
      </trkpt>
      <trkpt lat="43.226" lon="5.37979">
        <ele>234.682083</ele>
        <time>2015-01-28T10:52:32Z</time>
      </trkpt>
      <trkpt lat="43.22598" lon="5.37973">
        <ele>233.988754</ele>
        <time>2015-01-28T10:52:38Z</time>
      </trkpt>
      <trkpt lat="43.22596" lon="5.37967">
        <ele>232.863632</ele>
        <time>2015-01-28T10:52:45Z</time>
      </trkpt>
      <trkpt lat="43.22596" lon="5.37959">
        <ele>230.912292</ele>
        <time>2015-01-28T10:52:52Z</time>
      </trkpt>
      <trkpt lat="43.22596" lon="5.37953">
        <ele>229.475266</ele>
        <time>2015-01-28T10:52:57Z</time>
      </trkpt>
      <trkpt lat="43.22593" lon="5.37947">
        <ele>229.167267</ele>
        <time>2015-01-28T10:53:04Z</time>
      </trkpt>
      <trkpt lat="43.22589" lon="5.37943">
        <ele>229.483307</ele>
        <time>2015-01-28T10:53:12Z</time>
      </trkpt>
      <trkpt lat="43.22585" lon="5.37939">
        <ele>230.255692</ele>
        <time>2015-01-28T10:53:23Z</time>
      </trkpt>
      <trkpt lat="43.22583" lon="5.37933">
        <ele>229.774429</ele>
        <time>2015-01-28T10:53:40Z</time>
      </trkpt>
      <trkpt lat="43.22578" lon="5.37933">
        <ele>229.735565</ele>
        <time>2015-01-28T10:53:51Z</time>
      </trkpt>
      <trkpt lat="43.22574" lon="5.37929">
        <ele>229.144196</ele>
        <time>2015-01-28T10:53:59Z</time>
      </trkpt>
      <trkpt lat="43.22569" lon="5.37927">
        <ele>228.796814</ele>
        <time>2015-01-28T10:54:04Z</time>
      </trkpt>
      <trkpt lat="43.22564" lon="5.37925">
        <ele>228.437714</ele>
        <time>2015-01-28T10:54:09Z</time>
      </trkpt>
      <trkpt lat="43.22559" lon="5.37924">
        <ele>228.433075</ele>
        <time>2015-01-28T10:54:15Z</time>
      </trkpt>
      <trkpt lat="43.22554" lon="5.37922">
        <ele>228.360718</ele>
        <time>2015-01-28T10:54:21Z</time>
      </trkpt>
      <trkpt lat="43.2255" lon="5.3792">
        <ele>228.224945</ele>
        <time>2015-01-28T10:54:27Z</time>
      </trkpt>
      <trkpt lat="43.22545" lon="5.37918">
        <ele>228.106964</ele>
        <time>2015-01-28T10:54:35Z</time>
      </trkpt>
      <trkpt lat="43.2254" lon="5.37918">
        <ele>228.272339</ele>
        <time>2015-01-28T10:54:44Z</time>
      </trkpt>
      <trkpt lat="43.22536" lon="5.37915">
        <ele>228.301468</ele>
        <time>2015-01-28T10:54:54Z</time>
      </trkpt>
      <trkpt lat="43.22531" lon="5.37914">
        <ele>228.568268</ele>
        <time>2015-01-28T10:55:01Z</time>
      </trkpt>
      <trkpt lat="43.22526" lon="5.37913">
        <ele>228.860855</ele>
        <time>2015-01-28T10:55:09Z</time>
      </trkpt>
      <trkpt lat="43.22521" lon="5.37913">
        <ele>229.135773</ele>
        <time>2015-01-28T10:55:16Z</time>
      </trkpt>
      <trkpt lat="43.22517" lon="5.37914">
        <ele>229.3302</ele>
        <time>2015-01-28T10:55:24Z</time>
      </trkpt>
      <trkpt lat="43.22511" lon="5.37917">
        <ele>229.52562</ele>
        <time>2015-01-28T10:55:29Z</time>
      </trkpt>
      <trkpt lat="43.22508" lon="5.37922">
        <ele>230.156525</ele>
        <time>2015-01-28T10:55:34Z</time>
      </trkpt>
      <trkpt lat="43.22506" lon="5.37928">
        <ele>230.760757</ele>
        <time>2015-01-28T10:55:41Z</time>
      </trkpt>
      <trkpt lat="43.22504" lon="5.37933">
        <ele>231.320831</ele>
        <time>2015-01-28T10:55:47Z</time>
      </trkpt>
      <trkpt lat="43.22498" lon="5.37935">
        <ele>231.728012</ele>
        <time>2015-01-28T10:55:54Z</time>
      </trkpt>
      <trkpt lat="43.22494" lon="5.37938">
        <ele>232.371964</ele>
        <time>2015-01-28T10:55:59Z</time>
      </trkpt>
      <trkpt lat="43.22489" lon="5.37939">
        <ele>232.89386</ele>
        <time>2015-01-28T10:56:07Z</time>
      </trkpt>
      <trkpt lat="43.22486" lon="5.37934">
        <ele>232.900208</ele>
        <time>2015-01-28T10:56:12Z</time>
      </trkpt>
      <trkpt lat="43.22481" lon="5.37932">
        <ele>233.227203</ele>
        <time>2015-01-28T10:56:17Z</time>
      </trkpt>
      <trkpt lat="43.22476" lon="5.3793">
        <ele>233.626678</ele>
        <time>2015-01-28T10:56:21Z</time>
      </trkpt>
      <trkpt lat="43.22473" lon="5.37926">
        <ele>233.807892</ele>
        <time>2015-01-28T10:56:27Z</time>
      </trkpt>
      <trkpt lat="43.22468" lon="5.37925">
        <ele>234.265228</ele>
        <time>2015-01-28T10:56:37Z</time>
      </trkpt>
      <trkpt lat="43.22464" lon="5.37922">
        <ele>234.593643</ele>
        <time>2015-01-28T10:56:43Z</time>
      </trkpt>
      <trkpt lat="43.2246" lon="5.37915">
        <ele>234.96022</ele>
        <time>2015-01-28T10:56:48Z</time>
      </trkpt>
      <trkpt lat="43.22455" lon="5.37915">
        <ele>235.569946</ele>
        <time>2015-01-28T10:56:53Z</time>
      </trkpt>
      <trkpt lat="43.22452" lon="5.37912">
        <ele>236.548553</ele>
        <time>2015-01-28T10:57:00Z</time>
      </trkpt>
      <trkpt lat="43.22448" lon="5.37907">
        <ele>237.60791</ele>
        <time>2015-01-28T10:57:06Z</time>
      </trkpt>
      <trkpt lat="43.22445" lon="5.37903">
        <ele>238.705872</ele>
        <time>2015-01-28T10:57:13Z</time>
      </trkpt>
      <trkpt lat="43.22443" lon="5.37897">
        <ele>239.801437</ele>
        <time>2015-01-28T10:57:22Z</time>
      </trkpt>
      <trkpt lat="43.2244" lon="5.37891">
        <ele>241.092499</ele>
        <time>2015-01-28T10:57:31Z</time>
      </trkpt>
      <trkpt lat="43.22437" lon="5.37887">
        <ele>242.224411</ele>
        <time>2015-01-28T10:57:38Z</time>
      </trkpt>
      <trkpt lat="43.22433" lon="5.37883">
        <ele>243.457306</ele>
        <time>2015-01-28T10:57:45Z</time>
      </trkpt>
      <trkpt lat="43.22429" lon="5.37879">
        <ele>244.714157</ele>
        <time>2015-01-28T10:57:50Z</time>
      </trkpt>
      <trkpt lat="43.22429" lon="5.37873">
        <ele>245.917175</ele>
        <time>2015-01-28T10:57:57Z</time>
      </trkpt>
      <trkpt lat="43.22428" lon="5.37866">
        <ele>247.013443</ele>
        <time>2015-01-28T10:58:05Z</time>
      </trkpt>
      <trkpt lat="43.22426" lon="5.3786">
        <ele>248.442322</ele>
        <time>2015-01-28T10:58:19Z</time>
      </trkpt>
      <trkpt lat="43.22423" lon="5.37855">
        <ele>249.84552</ele>
        <time>2015-01-28T10:58:24Z</time>
      </trkpt>
      <trkpt lat="43.22421" lon="5.3785">
        <ele>251.238388</ele>
        <time>2015-01-28T10:58:37Z</time>
      </trkpt>
      <trkpt lat="43.22418" lon="5.37845">
        <ele>252.682861</ele>
        <time>2015-01-28T10:58:48Z</time>
      </trkpt>
      <trkpt lat="43.22415" lon="5.3784">
        <ele>253.948029</ele>
        <time>2015-01-28T10:59:00Z</time>
      </trkpt>
      <trkpt lat="43.22411" lon="5.37845">
        <ele>253.528564</ele>
        <time>2015-01-28T10:59:20Z</time>
      </trkpt>
      <trkpt lat="43.22408" lon="5.37851">
        <ele>252.855133</ele>
        <time>2015-01-28T10:59:25Z</time>
      </trkpt>
      <trkpt lat="43.22407" lon="5.37857">
        <ele>252.110397</ele>
        <time>2015-01-28T10:59:32Z</time>
      </trkpt>
      <trkpt lat="43.22405" lon="5.37863">
        <ele>251.579269</ele>
        <time>2015-01-28T10:59:37Z</time>
      </trkpt>
      <trkpt lat="43.22403" lon="5.37869">
        <ele>251.152939</ele>
        <time>2015-01-28T10:59:42Z</time>
      </trkpt>
      <trkpt lat="43.22401" lon="5.37875">
        <ele>250.673447</ele>
        <time>2015-01-28T10:59:48Z</time>
      </trkpt>
      <trkpt lat="43.22401" lon="5.37881">
        <ele>249.855301</ele>
        <time>2015-01-28T10:59:55Z</time>
      </trkpt>
      <trkpt lat="43.22402" lon="5.37888">
        <ele>248.783585</ele>
        <time>2015-01-28T11:00:03Z</time>
      </trkpt>
      <trkpt lat="43.224" lon="5.37894">
        <ele>248.500778</ele>
        <time>2015-01-28T11:00:11Z</time>
      </trkpt>
      <trkpt lat="43.22397" lon="5.37899">
        <ele>248.477844</ele>
        <time>2015-01-28T11:00:18Z</time>
      </trkpt>
      <trkpt lat="43.22394" lon="5.37905">
        <ele>248.601532</ele>
        <time>2015-01-28T11:00:31Z</time>
      </trkpt>
      <trkpt lat="43.2239" lon="5.37901">
        <ele>250.09024</ele>
        <time>2015-01-28T11:00:49Z</time>
      </trkpt>
      <trkpt lat="43.22386" lon="5.37899">
        <ele>251.471451</ele>
        <time>2015-01-28T11:01:09Z</time>
      </trkpt>
      <trkpt lat="43.22383" lon="5.37904">
        <ele>251.875061</ele>
        <time>2015-01-28T11:01:17Z</time>
      </trkpt>
      <trkpt lat="43.22379" lon="5.37904">
        <ele>253.156036</ele>
        <time>2015-01-28T11:01:49Z</time>
      </trkpt>
      <trkpt lat="43.22377" lon="5.37898">
        <ele>254.08844</ele>
        <time>2015-01-28T11:02:07Z</time>
      </trkpt>
      <trkpt lat="43.22375" lon="5.37892">
        <ele>254.855957</ele>
        <time>2015-01-28T11:02:15Z</time>
      </trkpt>
      <trkpt lat="43.22373" lon="5.37885">
        <ele>255.549667</ele>
        <time>2015-01-28T11:02:35Z</time>
      </trkpt>
      <trkpt lat="43.22371" lon="5.37879">
        <ele>256.454895</ele>
        <time>2015-01-28T11:02:43Z</time>
      </trkpt>
      <trkpt lat="43.22366" lon="5.37877">
        <ele>257.533112</ele>
        <time>2015-01-28T11:02:51Z</time>
      </trkpt>
      <trkpt lat="43.22361" lon="5.37879">
        <ele>258.396088</ele>
        <time>2015-01-28T11:02:56Z</time>
      </trkpt>
      <trkpt lat="43.22364" lon="5.37873">
        <ele>258.064972</ele>
        <time>2015-01-28T11:03:13Z</time>
      </trkpt>
      <trkpt lat="43.2236" lon="5.37868">
        <ele>258.729034</ele>
        <time>2015-01-28T11:03:31Z</time>
      </trkpt>
      <trkpt lat="43.22357" lon="5.37862">
        <ele>259.264252</ele>
        <time>2015-01-28T11:03:39Z</time>
      </trkpt>
      <trkpt lat="43.22353" lon="5.3786">
        <ele>259.944336</ele>
        <time>2015-01-28T11:03:46Z</time>
      </trkpt>
      <trkpt lat="43.2235" lon="5.37854">
        <ele>260.205444</ele>
        <time>2015-01-28T11:03:57Z</time>
      </trkpt>
      <trkpt lat="43.22349" lon="5.37848">
        <ele>260.181854</ele>
        <time>2015-01-28T11:04:04Z</time>
      </trkpt>
      <trkpt lat="43.22347" lon="5.37843">
        <ele>260.359131</ele>
        <time>2015-01-28T11:04:10Z</time>
      </trkpt>
      <trkpt lat="43.22345" lon="5.37837">
        <ele>260.289185</ele>
        <time>2015-01-28T11:04:21Z</time>
      </trkpt>
      <trkpt lat="43.22344" lon="5.3783">
        <ele>260.543335</ele>
        <time>2015-01-28T11:04:30Z</time>
      </trkpt>
      <trkpt lat="43.2234" lon="5.37828">
        <ele>261.054779</ele>
        <time>2015-01-28T11:04:40Z</time>
      </trkpt>
      <trkpt lat="43.22336" lon="5.37832">
        <ele>260.963898</ele>
        <time>2015-01-28T11:04:49Z</time>
      </trkpt>
      <trkpt lat="43.22333" lon="5.37836">
        <ele>261.069733</ele>
        <time>2015-01-28T11:04:59Z</time>
      </trkpt>
      <trkpt lat="43.22329" lon="5.37832">
        <ele>260.035034</ele>
        <time>2015-01-28T11:15:02Z</time>
      </trkpt>
      <trkpt lat="43.22329" lon="5.37826">
        <ele>260.502716</ele>
        <time>2015-01-28T11:15:18Z</time>
      </trkpt>
      <trkpt lat="43.22329" lon="5.37819">
        <ele>260.895844</ele>
        <time>2015-01-28T11:15:25Z</time>
      </trkpt>
      <trkpt lat="43.2233" lon="5.37813">
        <ele>261.396851</ele>
        <time>2015-01-28T11:15:32Z</time>
      </trkpt>
      <trkpt lat="43.2233" lon="5.37806">
        <ele>261.962677</ele>
        <time>2015-01-28T11:15:41Z</time>
      </trkpt>
      <trkpt lat="43.2233" lon="5.378">
        <ele>262.453033</ele>
        <time>2015-01-28T11:15:49Z</time>
      </trkpt>
      <trkpt lat="43.22329" lon="5.37793">
        <ele>262.591614</ele>
        <time>2015-01-28T11:15:59Z</time>
      </trkpt>
      <trkpt lat="43.22327" lon="5.37787">
        <ele>262.215515</ele>
        <time>2015-01-28T11:16:06Z</time>
      </trkpt>
      <trkpt lat="43.22326" lon="5.37781">
        <ele>261.992737</ele>
        <time>2015-01-28T11:16:14Z</time>
      </trkpt>
      <trkpt lat="43.22324" lon="5.37775">
        <ele>261.572662</ele>
        <time>2015-01-28T11:16:20Z</time>
      </trkpt>
      <trkpt lat="43.22321" lon="5.3777">
        <ele>260.939209</ele>
        <time>2015-01-28T11:16:25Z</time>
      </trkpt>
      <trkpt lat="43.22319" lon="5.37765">
        <ele>260.195984</ele>
        <time>2015-01-28T11:16:34Z</time>
      </trkpt>
      <trkpt lat="43.22318" lon="5.37757">
        <ele>260.290344</ele>
        <time>2015-01-28T11:16:46Z</time>
      </trkpt>
      <trkpt lat="43.22315" lon="5.37751">
        <ele>259.104462</ele>
        <time>2015-01-28T11:16:52Z</time>
      </trkpt>
      <trkpt lat="43.2231" lon="5.37747">
        <ele>257.692566</ele>
        <time>2015-01-28T11:16:56Z</time>
      </trkpt>
      <trkpt lat="43.22306" lon="5.37742">
        <ele>257.082336</ele>
        <time>2015-01-28T11:17:03Z</time>
      </trkpt>
      <trkpt lat="43.22303" lon="5.37735">
        <ele>257.281158</ele>
        <time>2015-01-28T11:17:09Z</time>
      </trkpt>
      <trkpt lat="43.22299" lon="5.37729">
        <ele>256.600281</ele>
        <time>2015-01-28T11:17:12Z</time>
      </trkpt>
      <trkpt lat="43.22295" lon="5.37724">
        <ele>255.517319</ele>
        <time>2015-01-28T11:17:16Z</time>
      </trkpt>
      <trkpt lat="43.2229" lon="5.37721">
        <ele>253.95575</ele>
        <time>2015-01-28T11:17:21Z</time>
      </trkpt>
      <trkpt lat="43.22286" lon="5.37718">
        <ele>252.455139</ele>
        <time>2015-01-28T11:17:26Z</time>
      </trkpt>
      <trkpt lat="43.22284" lon="5.37712">
        <ele>252.558044</ele>
        <time>2015-01-28T11:17:34Z</time>
      </trkpt>
      <trkpt lat="43.22284" lon="5.37705">
        <ele>253.286896</ele>
        <time>2015-01-28T11:17:42Z</time>
      </trkpt>
      <trkpt lat="43.22282" lon="5.377">
        <ele>253.031158</ele>
        <time>2015-01-28T11:17:52Z</time>
      </trkpt>
      <trkpt lat="43.22277" lon="5.37702">
        <ele>250.223999</ele>
        <time>2015-01-28T11:18:12Z</time>
      </trkpt>
      <trkpt lat="43.22277" lon="5.37696">
        <ele>251.499146</ele>
        <time>2015-01-28T11:18:26Z</time>
      </trkpt>
      <trkpt lat="43.22277" lon="5.37689">
        <ele>252.457245</ele>
        <time>2015-01-28T11:18:38Z</time>
      </trkpt>
      <trkpt lat="43.22277" lon="5.37682">
        <ele>253.418701</ele>
        <time>2015-01-28T11:18:52Z</time>
      </trkpt>
      <trkpt lat="43.22276" lon="5.37676">
        <ele>253.844528</ele>
        <time>2015-01-28T11:18:57Z</time>
      </trkpt>
      <trkpt lat="43.22275" lon="5.37669">
        <ele>254.205505</ele>
        <time>2015-01-28T11:19:01Z</time>
      </trkpt>
      <trkpt lat="43.22274" lon="5.37663">
        <ele>254.52446</ele>
        <time>2015-01-28T11:19:06Z</time>
      </trkpt>
      <trkpt lat="43.2227" lon="5.37659">
        <ele>252.974106</ele>
        <time>2015-01-28T11:19:21Z</time>
      </trkpt>
      <trkpt lat="43.2227" lon="5.37653">
        <ele>253.994965</ele>
        <time>2015-01-28T11:19:32Z</time>
      </trkpt>
      <trkpt lat="43.22267" lon="5.37648">
        <ele>253.397751</ele>
        <time>2015-01-28T11:19:41Z</time>
      </trkpt>
      <trkpt lat="43.22266" lon="5.37642">
        <ele>253.919205</ele>
        <time>2015-01-28T11:19:52Z</time>
      </trkpt>
      <trkpt lat="43.22264" lon="5.37636">
        <ele>254.243469</ele>
        <time>2015-01-28T11:20:00Z</time>
      </trkpt>
      <trkpt lat="43.22259" lon="5.3764">
        <ele>250.896149</ele>
        <time>2015-01-28T11:20:07Z</time>
      </trkpt>
      <trkpt lat="43.22256" lon="5.37644">
        <ele>248.076324</ele>
        <time>2015-01-28T11:20:13Z</time>
      </trkpt>
      <trkpt lat="43.22253" lon="5.3765">
        <ele>245.539108</ele>
        <time>2015-01-28T11:20:22Z</time>
      </trkpt>
      <trkpt lat="43.22251" lon="5.37655">
        <ele>242.8918</ele>
        <time>2015-01-28T11:20:29Z</time>
      </trkpt>
      <trkpt lat="43.22247" lon="5.37651">
        <ele>243.489807</ele>
        <time>2015-01-28T11:20:37Z</time>
      </trkpt>
      <trkpt lat="43.22241" lon="5.37651">
        <ele>243.484711</ele>
        <time>2015-01-28T11:20:45Z</time>
      </trkpt>
      <trkpt lat="43.22237" lon="5.37649">
        <ele>243.850891</ele>
        <time>2015-01-28T11:20:50Z</time>
      </trkpt>
      <trkpt lat="43.22233" lon="5.37646">
        <ele>244.528778</ele>
        <time>2015-01-28T11:20:55Z</time>
      </trkpt>
      <trkpt lat="43.2223" lon="5.37639">
        <ele>246.077469</ele>
        <time>2015-01-28T11:21:00Z</time>
      </trkpt>
      <trkpt lat="43.2223" lon="5.37633">
        <ele>247.560104</ele>
        <time>2015-01-28T11:21:05Z</time>
      </trkpt>
      <trkpt lat="43.22227" lon="5.37627">
        <ele>248.898941</ele>
        <time>2015-01-28T11:21:10Z</time>
      </trkpt>
      <trkpt lat="43.22224" lon="5.37622">
        <ele>249.97438</ele>
        <time>2015-01-28T11:21:15Z</time>
      </trkpt>
      <trkpt lat="43.2222" lon="5.37627">
        <ele>248.909576</ele>
        <time>2015-01-28T11:21:28Z</time>
      </trkpt>
      <trkpt lat="43.22217" lon="5.37633">
        <ele>247.498718</ele>
        <time>2015-01-28T11:21:35Z</time>
      </trkpt>
      <trkpt lat="43.22214" lon="5.37639">
        <ele>246.332001</ele>
        <time>2015-01-28T11:21:41Z</time>
      </trkpt>
      <trkpt lat="43.22219" lon="5.37641">
        <ele>245.848297</ele>
        <time>2015-01-28T11:21:54Z</time>
      </trkpt>
      <trkpt lat="43.22219" lon="5.37647">
        <ele>244.405838</ele>
        <time>2015-01-28T11:22:07Z</time>
      </trkpt>
      <trkpt lat="43.22218" lon="5.37654">
        <ele>242.894699</ele>
        <time>2015-01-28T11:22:14Z</time>
      </trkpt>
      <trkpt lat="43.2222" lon="5.3766">
        <ele>241.554016</ele>
        <time>2015-01-28T11:22:26Z</time>
      </trkpt>
      <trkpt lat="43.22218" lon="5.37667">
        <ele>239.988647</ele>
        <time>2015-01-28T11:22:40Z</time>
      </trkpt>
      <trkpt lat="43.22215" lon="5.37673">
        <ele>238.947723</ele>
        <time>2015-01-28T11:22:45Z</time>
      </trkpt>
      <trkpt lat="43.22212" lon="5.37679">
        <ele>237.743164</ele>
        <time>2015-01-28T11:22:52Z</time>
      </trkpt>
      <trkpt lat="43.2221" lon="5.37686">
        <ele>236.514206</ele>
        <time>2015-01-28T11:22:58Z</time>
      </trkpt>
      <trkpt lat="43.22209" lon="5.37692">
        <ele>235.330017</ele>
        <time>2015-01-28T11:23:03Z</time>
      </trkpt>
      <trkpt lat="43.22206" lon="5.37699">
        <ele>233.93956</ele>
        <time>2015-01-28T11:23:09Z</time>
      </trkpt>
      <trkpt lat="43.22204" lon="5.37705">
        <ele>232.510117</ele>
        <time>2015-01-28T11:23:16Z</time>
      </trkpt>
      <trkpt lat="43.222" lon="5.37711">
        <ele>231.009521</ele>
        <time>2015-01-28T11:23:21Z</time>
      </trkpt>
      <trkpt lat="43.22198" lon="5.37717">
        <ele>229.456482</ele>
        <time>2015-01-28T11:23:26Z</time>
      </trkpt>
      <trkpt lat="43.22197" lon="5.37724">
        <ele>227.970032</ele>
        <time>2015-01-28T11:23:31Z</time>
      </trkpt>
      <trkpt lat="43.22196" lon="5.3773">
        <ele>226.552887</ele>
        <time>2015-01-28T11:23:36Z</time>
      </trkpt>
      <trkpt lat="43.22194" lon="5.37736">
        <ele>225.035187</ele>
        <time>2015-01-28T11:23:43Z</time>
      </trkpt>
      <trkpt lat="43.22198" lon="5.37741">
        <ele>224.531754</ele>
        <time>2015-01-28T11:23:50Z</time>
      </trkpt>
      <trkpt lat="43.22198" lon="5.37748">
        <ele>223.151093</ele>
        <time>2015-01-28T11:23:59Z</time>
      </trkpt>
      <trkpt lat="43.22197" lon="5.37754">
        <ele>222.47876</ele>
        <time>2015-01-28T11:24:04Z</time>
      </trkpt>
      <trkpt lat="43.22198" lon="5.3776">
        <ele>222.701569</ele>
        <time>2015-01-28T11:24:11Z</time>
      </trkpt>
      <trkpt lat="43.22197" lon="5.37767">
        <ele>222.608673</ele>
        <time>2015-01-28T11:24:19Z</time>
      </trkpt>
      <trkpt lat="43.22196" lon="5.37773">
        <ele>222.325348</ele>
        <time>2015-01-28T11:24:27Z</time>
      </trkpt>
      <trkpt lat="43.22192" lon="5.37777">
        <ele>221.435272</ele>
        <time>2015-01-28T11:24:31Z</time>
      </trkpt>
      <trkpt lat="43.22189" lon="5.37783">
        <ele>220.787354</ele>
        <time>2015-01-28T11:24:37Z</time>
      </trkpt>
      <trkpt lat="43.22186" lon="5.37788">
        <ele>220.110641</ele>
        <time>2015-01-28T11:24:44Z</time>
      </trkpt>
      <trkpt lat="43.22182" lon="5.37791">
        <ele>219.013153</ele>
        <time>2015-01-28T11:24:49Z</time>
      </trkpt>
      <trkpt lat="43.22177" lon="5.37795">
        <ele>217.695877</ele>
        <time>2015-01-28T11:24:55Z</time>
      </trkpt>
      <trkpt lat="43.22172" lon="5.37797">
        <ele>216.30188</ele>
        <time>2015-01-28T11:24:59Z</time>
      </trkpt>
      <trkpt lat="43.22168" lon="5.37799">
        <ele>215.005737</ele>
        <time>2015-01-28T11:25:05Z</time>
      </trkpt>
      <trkpt lat="43.22165" lon="5.37804">
        <ele>214.110092</ele>
        <time>2015-01-28T11:25:10Z</time>
      </trkpt>
      <trkpt lat="43.22161" lon="5.37809">
        <ele>213.08699</ele>
        <time>2015-01-28T11:25:19Z</time>
      </trkpt>
      <trkpt lat="43.22158" lon="5.37813">
        <ele>212.047119</ele>
        <time>2015-01-28T11:25:25Z</time>
      </trkpt>
      <trkpt lat="43.22153" lon="5.37817">
        <ele>210.75882</ele>
        <time>2015-01-28T11:25:33Z</time>
      </trkpt>
      <trkpt lat="43.22149" lon="5.3782">
        <ele>209.398056</ele>
        <time>2015-01-28T11:25:41Z</time>
      </trkpt>
      <trkpt lat="43.22144" lon="5.37818">
        <ele>208.474792</ele>
        <time>2015-01-28T11:25:52Z</time>
      </trkpt>
      <trkpt lat="43.2214" lon="5.37822">
        <ele>207.11322</ele>
        <time>2015-01-28T11:25:57Z</time>
      </trkpt>
      <trkpt lat="43.22135" lon="5.37822">
        <ele>205.952576</ele>
        <time>2015-01-28T11:26:02Z</time>
      </trkpt>
      <trkpt lat="43.2213" lon="5.37821">
        <ele>204.783813</ele>
        <time>2015-01-28T11:26:11Z</time>
      </trkpt>
      <trkpt lat="43.22125" lon="5.37821">
        <ele>203.590179</ele>
        <time>2015-01-28T11:26:17Z</time>
      </trkpt>
      <trkpt lat="43.22121" lon="5.37819">
        <ele>202.94635</ele>
        <time>2015-01-28T11:26:23Z</time>
      </trkpt>
      <trkpt lat="43.22116" lon="5.37817">
        <ele>202.204437</ele>
        <time>2015-01-28T11:26:28Z</time>
      </trkpt>
      <trkpt lat="43.22112" lon="5.37815">
        <ele>201.647156</ele>
        <time>2015-01-28T11:26:36Z</time>
      </trkpt>
      <trkpt lat="43.22106" lon="5.37815">
        <ele>200.481308</ele>
        <time>2015-01-28T11:26:43Z</time>
      </trkpt>
      <trkpt lat="43.22102" lon="5.37816">
        <ele>199.141739</ele>
        <time>2015-01-28T11:26:51Z</time>
      </trkpt>
      <trkpt lat="43.22097" lon="5.37818">
        <ele>197.708237</ele>
        <time>2015-01-28T11:27:03Z</time>
      </trkpt>
      <trkpt lat="43.22093" lon="5.37821">
        <ele>195.728622</ele>
        <time>2015-01-28T11:27:13Z</time>
      </trkpt>
      <trkpt lat="43.22089" lon="5.37824">
        <ele>193.982849</ele>
        <time>2015-01-28T11:27:19Z</time>
      </trkpt>
      <trkpt lat="43.22085" lon="5.37828">
        <ele>191.810287</ele>
        <time>2015-01-28T11:27:39Z</time>
      </trkpt>
      <trkpt lat="43.2208" lon="5.3783">
        <ele>189.548859</ele>
        <time>2015-01-28T11:27:46Z</time>
      </trkpt>
      <trkpt lat="43.22077" lon="5.37835">
        <ele>187.213043</ele>
        <time>2015-01-28T11:27:51Z</time>
      </trkpt>
      <trkpt lat="43.22074" lon="5.3784">
        <ele>185.697876</ele>
        <time>2015-01-28T11:28:05Z</time>
      </trkpt>
      <trkpt lat="43.22072" lon="5.37846">
        <ele>184.191711</ele>
        <time>2015-01-28T11:28:29Z</time>
      </trkpt>
      <trkpt lat="43.22068" lon="5.37842">
        <ele>183.069763</ele>
        <time>2015-01-28T11:28:36Z</time>
      </trkpt>
      <trkpt lat="43.22066" lon="5.37848">
        <ele>181.544144</ele>
        <time>2015-01-28T11:29:04Z</time>
      </trkpt>
      <trkpt lat="43.22063" lon="5.37853">
        <ele>179.555069</ele>
        <time>2015-01-28T11:29:12Z</time>
      </trkpt>
      <trkpt lat="43.22059" lon="5.37857">
        <ele>177.611588</ele>
        <time>2015-01-28T11:29:22Z</time>
      </trkpt>
      <trkpt lat="43.22058" lon="5.37864">
        <ele>176.511856</ele>
        <time>2015-01-28T11:29:30Z</time>
      </trkpt>
      <trkpt lat="43.22059" lon="5.3787">
        <ele>176.139313</ele>
        <time>2015-01-28T11:29:37Z</time>
      </trkpt>
      <trkpt lat="43.22056" lon="5.37875">
        <ele>174.393005</ele>
        <time>2015-01-28T11:29:46Z</time>
      </trkpt>
      <trkpt lat="43.22055" lon="5.37881">
        <ele>173.105804</ele>
        <time>2015-01-28T11:29:53Z</time>
      </trkpt>
      <trkpt lat="43.22055" lon="5.37875">
        <ele>174.014572</ele>
        <time>2015-01-28T11:30:10Z</time>
      </trkpt>
      <trkpt lat="43.22053" lon="5.37868">
        <ele>174.013901</ele>
        <time>2015-01-28T11:30:16Z</time>
      </trkpt>
      <trkpt lat="43.22049" lon="5.37868">
        <ele>172.127838</ele>
        <time>2015-01-28T11:30:23Z</time>
      </trkpt>
      <trkpt lat="43.22045" lon="5.37874">
        <ele>170.121155</ele>
        <time>2015-01-28T11:30:33Z</time>
      </trkpt>
      <trkpt lat="43.22041" lon="5.37867">
        <ele>169.182404</ele>
        <time>2015-01-28T11:30:40Z</time>
      </trkpt>
      <trkpt lat="43.22041" lon="5.37874">
        <ele>168.232971</ele>
        <time>2015-01-28T11:30:48Z</time>
      </trkpt>
      <trkpt lat="43.22044" lon="5.3788">
        <ele>168.94516</ele>
        <time>2015-01-28T11:30:53Z</time>
      </trkpt>
      <trkpt lat="43.22046" lon="5.37886">
        <ele>168.894196</ele>
        <time>2015-01-28T11:31:04Z</time>
      </trkpt>
      <trkpt lat="43.22049" lon="5.37891">
        <ele>169.568893</ele>
        <time>2015-01-28T11:31:11Z</time>
      </trkpt>
      <trkpt lat="43.22047" lon="5.37897">
        <ele>168.099838</ele>
        <time>2015-01-28T11:31:19Z</time>
      </trkpt>
      <trkpt lat="43.22045" lon="5.37903">
        <ele>166.447495</ele>
        <time>2015-01-28T11:31:50Z</time>
      </trkpt>
      <trkpt lat="43.22043" lon="5.37909">
        <ele>165.109756</ele>
        <time>2015-01-28T11:32:00Z</time>
      </trkpt>
      <trkpt lat="43.22042" lon="5.37915">
        <ele>163.948639</ele>
        <time>2015-01-28T11:32:08Z</time>
      </trkpt>
      <trkpt lat="43.2204" lon="5.37921">
        <ele>163.053223</ele>
        <time>2015-01-28T11:32:16Z</time>
      </trkpt>
      <trkpt lat="43.22037" lon="5.37915">
        <ele>161.497803</ele>
        <time>2015-01-28T11:32:37Z</time>
      </trkpt>
      <trkpt lat="43.22032" lon="5.37912">
        <ele>160.150024</ele>
        <time>2015-01-28T11:32:43Z</time>
      </trkpt>
      <trkpt lat="43.22027" lon="5.37912">
        <ele>157.987396</ele>
        <time>2015-01-28T11:32:48Z</time>
      </trkpt>
      <trkpt lat="43.22023" lon="5.3791">
        <ele>156.455658</ele>
        <time>2015-01-28T11:32:54Z</time>
      </trkpt>
      <trkpt lat="43.22018" lon="5.37908">
        <ele>154.483917</ele>
        <time>2015-01-28T11:33:02Z</time>
      </trkpt>
      <trkpt lat="43.22013" lon="5.3791">
        <ele>152.104111</ele>
        <time>2015-01-28T11:33:09Z</time>
      </trkpt>
      <trkpt lat="43.22008" lon="5.37909">
        <ele>150.188782</ele>
        <time>2015-01-28T11:33:18Z</time>
      </trkpt>
      <trkpt lat="43.22003" lon="5.37908">
        <ele>148.31218</ele>
        <time>2015-01-28T11:33:26Z</time>
      </trkpt>
      <trkpt lat="43.21998" lon="5.37908">
        <ele>147.060394</ele>
        <time>2015-01-28T11:33:37Z</time>
      </trkpt>
      <trkpt lat="43.21994" lon="5.3791">
        <ele>146.71701</ele>
        <time>2015-01-28T11:33:45Z</time>
      </trkpt>
      <trkpt lat="43.21989" lon="5.37908">
        <ele>146.70105</ele>
        <time>2015-01-28T11:33:52Z</time>
      </trkpt>
      <trkpt lat="43.21984" lon="5.37911">
        <ele>146.268738</ele>
        <time>2015-01-28T11:33:58Z</time>
      </trkpt>
      <trkpt lat="43.21979" lon="5.3791">
        <ele>146.195801</ele>
        <time>2015-01-28T11:34:04Z</time>
      </trkpt>
      <trkpt lat="43.21974" lon="5.37908">
        <ele>146.186417</ele>
        <time>2015-01-28T11:34:27Z</time>
      </trkpt>
      <trkpt lat="43.2197" lon="5.37906">
        <ele>146.07373</ele>
        <time>2015-01-28T11:34:35Z</time>
      </trkpt>
      <trkpt lat="43.21966" lon="5.37902">
        <ele>146.000717</ele>
        <time>2015-01-28T11:34:39Z</time>
      </trkpt>
      <trkpt lat="43.21961" lon="5.37898">
        <ele>145.820312</ele>
        <time>2015-01-28T11:34:44Z</time>
      </trkpt>
      <trkpt lat="43.21956" lon="5.37895">
        <ele>145.437317</ele>
        <time>2015-01-28T11:34:48Z</time>
      </trkpt>
      <trkpt lat="43.21952" lon="5.37891">
        <ele>145.086761</ele>
        <time>2015-01-28T11:34:53Z</time>
      </trkpt>
      <trkpt lat="43.21951" lon="5.37884">
        <ele>144.878143</ele>
        <time>2015-01-28T11:35:06Z</time>
      </trkpt>
      <trkpt lat="43.21955" lon="5.37885">
        <ele>145.369659</ele>
        <time>2015-01-28T11:36:08Z</time>
      </trkpt>
      <trkpt lat="43.2196" lon="5.37885">
        <ele>145.874176</ele>
        <time>2015-01-28T11:36:36Z</time>
      </trkpt>
      <trkpt lat="43.21956" lon="5.37888">
        <ele>145.407227</ele>
        <time>2015-01-28T11:36:59Z</time>
      </trkpt>
      <trkpt lat="43.21958" lon="5.37882">
        <ele>145.656509</ele>
        <time>2015-01-28T11:43:03Z</time>
      </trkpt>
      <trkpt lat="43.21956" lon="5.37876">
        <ele>145.429382</ele>
        <time>2015-01-28T11:43:07Z</time>
      </trkpt>
      <trkpt lat="43.21953" lon="5.3787">
        <ele>144.961594</ele>
        <time>2015-01-28T11:43:12Z</time>
      </trkpt>
      <trkpt lat="43.21951" lon="5.37864">
        <ele>144.549545</ele>
        <time>2015-01-28T11:43:17Z</time>
      </trkpt>
      <trkpt lat="43.21949" lon="5.37858">
        <ele>144.10199</ele>
        <time>2015-01-28T11:43:21Z</time>
      </trkpt>
      <trkpt lat="43.21948" lon="5.37851">
        <ele>143.691406</ele>
        <time>2015-01-28T11:43:25Z</time>
      </trkpt>
      <trkpt lat="43.21947" lon="5.37844">
        <ele>143.258331</ele>
        <time>2015-01-28T11:43:30Z</time>
      </trkpt>
      <trkpt lat="43.21945" lon="5.37837">
        <ele>142.695419</ele>
        <time>2015-01-28T11:43:39Z</time>
      </trkpt>
      <trkpt lat="43.21943" lon="5.3783">
        <ele>141.987396</ele>
        <time>2015-01-28T11:43:44Z</time>
      </trkpt>
      <trkpt lat="43.21942" lon="5.37823">
        <ele>141.775726</ele>
        <time>2015-01-28T11:43:48Z</time>
      </trkpt>
      <trkpt lat="43.21943" lon="5.37816">
        <ele>142.031494</ele>
        <time>2015-01-28T11:43:54Z</time>
      </trkpt>
      <trkpt lat="43.21945" lon="5.37811">
        <ele>142.5867</ele>
        <time>2015-01-28T11:43:58Z</time>
      </trkpt>
      <trkpt lat="43.21944" lon="5.37804">
        <ele>142.413651</ele>
        <time>2015-01-28T11:44:03Z</time>
      </trkpt>
      <trkpt lat="43.2194" lon="5.378">
        <ele>140.640106</ele>
        <time>2015-01-28T11:44:07Z</time>
      </trkpt>
      <trkpt lat="43.21936" lon="5.37796">
        <ele>139.18808</ele>
        <time>2015-01-28T11:44:11Z</time>
      </trkpt>
      <trkpt lat="43.21933" lon="5.37791">
        <ele>137.669098</ele>
        <time>2015-01-28T11:44:19Z</time>
      </trkpt>
      <trkpt lat="43.21929" lon="5.37785">
        <ele>135.75502</ele>
        <time>2015-01-28T11:44:28Z</time>
      </trkpt>
      <trkpt lat="43.21926" lon="5.37782">
        <ele>133.733109</ele>
        <time>2015-01-28T11:44:34Z</time>
      </trkpt>
      <trkpt lat="43.21924" lon="5.37775">
        <ele>132.464722</ele>
        <time>2015-01-28T11:44:39Z</time>
      </trkpt>
      <trkpt lat="43.21921" lon="5.3777">
        <ele>130.483292</ele>
        <time>2015-01-28T11:44:49Z</time>
      </trkpt>
      <trkpt lat="43.21917" lon="5.37769">
        <ele>128.102173</ele>
        <time>2015-01-28T11:44:56Z</time>
      </trkpt>
      <trkpt lat="43.21911" lon="5.37769">
        <ele>129.294617</ele>
        <time>2015-01-28T11:45:02Z</time>
      </trkpt>
      <trkpt lat="43.21906" lon="5.3777">
        <ele>130.440887</ele>
        <time>2015-01-28T11:45:07Z</time>
      </trkpt>
      <trkpt lat="43.21901" lon="5.37771">
        <ele>131.733429</ele>
        <time>2015-01-28T11:45:11Z</time>
      </trkpt>
      <trkpt lat="43.21895" lon="5.37774">
        <ele>133.797852</ele>
        <time>2015-01-28T11:45:15Z</time>
      </trkpt>
      <trkpt lat="43.2189" lon="5.37774">
        <ele>135.068695</ele>
        <time>2015-01-28T11:45:20Z</time>
      </trkpt>
      <trkpt lat="43.21885" lon="5.37774">
        <ele>136.425354</ele>
        <time>2015-01-28T11:45:24Z</time>
      </trkpt>
      <trkpt lat="43.21882" lon="5.37769">
        <ele>135.420197</ele>
        <time>2015-01-28T11:45:29Z</time>
      </trkpt>
      <trkpt lat="43.21879" lon="5.37764">
        <ele>134.202927</ele>
        <time>2015-01-28T11:45:33Z</time>
      </trkpt>
      <trkpt lat="43.21878" lon="5.37757">
        <ele>131.767212</ele>
        <time>2015-01-28T11:45:38Z</time>
      </trkpt>
      <trkpt lat="43.21875" lon="5.37752">
        <ele>130.397522</ele>
        <time>2015-01-28T11:45:43Z</time>
      </trkpt>
      <trkpt lat="43.21872" lon="5.37748">
        <ele>129.574051</ele>
        <time>2015-01-28T11:45:48Z</time>
      </trkpt>
      <trkpt lat="43.21867" lon="5.37748">
        <ele>129.976868</ele>
        <time>2015-01-28T11:45:57Z</time>
      </trkpt>
      <trkpt lat="43.21864" lon="5.3774">
        <ele>129.003342</ele>
        <time>2015-01-28T11:46:01Z</time>
      </trkpt>
      <trkpt lat="43.21863" lon="5.37733">
        <ele>127.971008</ele>
        <time>2015-01-28T11:46:29Z</time>
      </trkpt>
      <trkpt lat="43.21861" lon="5.37728">
        <ele>127.056046</ele>
        <time>2015-01-28T11:46:35Z</time>
      </trkpt>
      <trkpt lat="43.21864" lon="5.37722">
        <ele>126.3339</ele>
        <time>2015-01-28T11:46:41Z</time>
      </trkpt>
      <trkpt lat="43.21868" lon="5.37716">
        <ele>125.828842</ele>
        <time>2015-01-28T11:46:46Z</time>
      </trkpt>
      <trkpt lat="43.21872" lon="5.37714">
        <ele>126.041718</ele>
        <time>2015-01-28T11:46:53Z</time>
      </trkpt>
      <trkpt lat="43.21875" lon="5.37719">
        <ele>126.818855</ele>
        <time>2015-01-28T11:46:58Z</time>
      </trkpt>
      <trkpt lat="43.21879" lon="5.37716">
        <ele>127.115524</ele>
        <time>2015-01-28T11:47:04Z</time>
      </trkpt>
      <trkpt lat="43.21883" lon="5.37712">
        <ele>127.439377</ele>
        <time>2015-01-28T11:47:12Z</time>
      </trkpt>
      <trkpt lat="43.21887" lon="5.37708">
        <ele>127.850784</ele>
        <time>2015-01-28T11:47:17Z</time>
      </trkpt>
      <trkpt lat="43.21888" lon="5.37702">
        <ele>128.056625</ele>
        <time>2015-01-28T11:47:21Z</time>
      </trkpt>
      <trkpt lat="43.21892" lon="5.37698">
        <ele>128.782898</ele>
        <time>2015-01-28T11:47:26Z</time>
      </trkpt>
      <trkpt lat="43.21895" lon="5.37694">
        <ele>129.645935</ele>
        <time>2015-01-28T11:47:31Z</time>
      </trkpt>
      <trkpt lat="43.21897" lon="5.37686">
        <ele>130.405838</ele>
        <time>2015-01-28T11:47:37Z</time>
      </trkpt>
      <trkpt lat="43.21895" lon="5.3768">
        <ele>130.148483</ele>
        <time>2015-01-28T11:47:42Z</time>
      </trkpt>
      <trkpt lat="43.21894" lon="5.37674">
        <ele>129.90416</ele>
        <time>2015-01-28T11:47:47Z</time>
      </trkpt>
      <trkpt lat="43.21892" lon="5.37668">
        <ele>129.292084</ele>
        <time>2015-01-28T11:47:54Z</time>
      </trkpt>
      <trkpt lat="43.21888" lon="5.37666">
        <ele>127.581329</ele>
        <time>2015-01-28T11:48:04Z</time>
      </trkpt>
      <trkpt lat="43.21882" lon="5.37666">
        <ele>125.562332</ele>
        <time>2015-01-28T11:48:09Z</time>
      </trkpt>
      <trkpt lat="43.21878" lon="5.37665">
        <ele>124.094971</ele>
        <time>2015-01-28T11:48:14Z</time>
      </trkpt>
      <trkpt lat="43.21874" lon="5.37666">
        <ele>122.042244</ele>
        <time>2015-01-28T11:48:21Z</time>
      </trkpt>
      <trkpt lat="43.21868" lon="5.37668">
        <ele>119.965225</ele>
        <time>2015-01-28T11:48:26Z</time>
      </trkpt>
      <trkpt lat="43.21867" lon="5.37661">
        <ele>120.331261</ele>
        <time>2015-01-28T11:48:32Z</time>
      </trkpt>
      <trkpt lat="43.21862" lon="5.37663">
        <ele>117.942612</ele>
        <time>2015-01-28T11:48:38Z</time>
      </trkpt>
      <trkpt lat="43.21857" lon="5.37666">
        <ele>115.566055</ele>
        <time>2015-01-28T11:48:43Z</time>
      </trkpt>
      <trkpt lat="43.21851" lon="5.37667">
        <ele>113.212349</ele>
        <time>2015-01-28T11:48:47Z</time>
      </trkpt>
      <trkpt lat="43.21847" lon="5.37665">
        <ele>111.764114</ele>
        <time>2015-01-28T11:48:58Z</time>
      </trkpt>
      <trkpt lat="43.21844" lon="5.37659">
        <ele>111.556969</ele>
        <time>2015-01-28T11:49:03Z</time>
      </trkpt>
      <trkpt lat="43.21841" lon="5.37655">
        <ele>111.176659</ele>
        <time>2015-01-28T11:49:08Z</time>
      </trkpt>
      <trkpt lat="43.21837" lon="5.37652">
        <ele>109.806343</ele>
        <time>2015-01-28T11:49:13Z</time>
      </trkpt>
      <trkpt lat="43.21832" lon="5.37649">
        <ele>109.10228</ele>
        <time>2015-01-28T11:49:19Z</time>
      </trkpt>
      <trkpt lat="43.21832" lon="5.37642">
        <ele>110.155037</ele>
        <time>2015-01-28T11:49:26Z</time>
      </trkpt>
      <trkpt lat="43.21831" lon="5.37636">
        <ele>111.042534</ele>
        <time>2015-01-28T11:49:32Z</time>
      </trkpt>
      <trkpt lat="43.21828" lon="5.37631">
        <ele>111.609215</ele>
        <time>2015-01-28T11:49:38Z</time>
      </trkpt>
      <trkpt lat="43.21822" lon="5.37628">
        <ele>111.409019</ele>
        <time>2015-01-28T11:49:44Z</time>
      </trkpt>
      <trkpt lat="43.21818" lon="5.37628">
        <ele>111.026154</ele>
        <time>2015-01-28T11:49:47Z</time>
      </trkpt>
      <trkpt lat="43.21813" lon="5.37626">
        <ele>110.669624</ele>
        <time>2015-01-28T11:49:52Z</time>
      </trkpt>
      <trkpt lat="43.21812" lon="5.37619">
        <ele>110.689514</ele>
        <time>2015-01-28T11:49:57Z</time>
      </trkpt>
      <trkpt lat="43.21809" lon="5.37613">
        <ele>110.283607</ele>
        <time>2015-01-28T11:50:03Z</time>
      </trkpt>
      <trkpt lat="43.21808" lon="5.37606">
        <ele>110.018478</ele>
        <time>2015-01-28T11:50:08Z</time>
      </trkpt>
      <trkpt lat="43.21804" lon="5.37601">
        <ele>108.946915</ele>
        <time>2015-01-28T11:50:13Z</time>
      </trkpt>
      <trkpt lat="43.218" lon="5.37603">
        <ele>107.85054</ele>
        <time>2015-01-28T11:50:18Z</time>
      </trkpt>
      <trkpt lat="43.21795" lon="5.376">
        <ele>106.331215</ele>
        <time>2015-01-28T11:50:23Z</time>
      </trkpt>
      <trkpt lat="43.21794" lon="5.37593">
        <ele>105.234192</ele>
        <time>2015-01-28T11:50:30Z</time>
      </trkpt>
      <trkpt lat="43.21791" lon="5.37587">
        <ele>103.526779</ele>
        <time>2015-01-28T11:50:36Z</time>
      </trkpt>
      <trkpt lat="43.21788" lon="5.37582">
        <ele>102.476837</ele>
        <time>2015-01-28T11:50:40Z</time>
      </trkpt>
      <trkpt lat="43.21784" lon="5.37577">
        <ele>102.232742</ele>
        <time>2015-01-28T11:50:46Z</time>
      </trkpt>
      <trkpt lat="43.2178" lon="5.37574">
        <ele>101.267128</ele>
        <time>2015-01-28T11:50:50Z</time>
      </trkpt>
      <trkpt lat="43.21777" lon="5.37568">
        <ele>101.562042</ele>
        <time>2015-01-28T11:50:56Z</time>
      </trkpt>
      <trkpt lat="43.21775" lon="5.37561">
        <ele>102.553024</ele>
        <time>2015-01-28T11:51:02Z</time>
      </trkpt>
      <trkpt lat="43.21772" lon="5.37556">
        <ele>102.101868</ele>
        <time>2015-01-28T11:51:06Z</time>
      </trkpt>
      <trkpt lat="43.21767" lon="5.37555">
        <ele>100.352112</ele>
        <time>2015-01-28T11:51:10Z</time>
      </trkpt>
      <trkpt lat="43.21762" lon="5.37551">
        <ele>99.420059</ele>
        <time>2015-01-28T11:51:14Z</time>
      </trkpt>
      <trkpt lat="43.21759" lon="5.37546">
        <ele>99.104073</ele>
        <time>2015-01-28T11:51:18Z</time>
      </trkpt>
      <trkpt lat="43.21757" lon="5.3754">
        <ele>99.976952</ele>
        <time>2015-01-28T11:51:24Z</time>
      </trkpt>
      <trkpt lat="43.21756" lon="5.37533">
        <ele>101.110794</ele>
        <time>2015-01-28T11:51:30Z</time>
      </trkpt>
      <trkpt lat="43.21755" lon="5.37527">
        <ele>101.836678</ele>
        <time>2015-01-28T11:51:34Z</time>
      </trkpt>
      <trkpt lat="43.21752" lon="5.37522">
        <ele>101.726242</ele>
        <time>2015-01-28T11:51:40Z</time>
      </trkpt>
      <trkpt lat="43.21749" lon="5.37516">
        <ele>101.842339</ele>
        <time>2015-01-28T11:51:46Z</time>
      </trkpt>
      <trkpt lat="43.21744" lon="5.37514">
        <ele>100.545082</ele>
        <time>2015-01-28T11:51:50Z</time>
      </trkpt>
      <trkpt lat="43.21742" lon="5.37508">
        <ele>100.567261</ele>
        <time>2015-01-28T11:51:56Z</time>
      </trkpt>
      <trkpt lat="43.21738" lon="5.37505">
        <ele>99.425095</ele>
        <time>2015-01-28T11:52:00Z</time>
      </trkpt>
      <trkpt lat="43.21732" lon="5.37505">
        <ele>97.037674</ele>
        <time>2015-01-28T11:52:04Z</time>
      </trkpt>
      <trkpt lat="43.21728" lon="5.37505">
        <ele>94.75457</ele>
        <time>2015-01-28T11:52:09Z</time>
      </trkpt>
      <trkpt lat="43.21723" lon="5.37507">
        <ele>92.39724</ele>
        <time>2015-01-28T11:52:13Z</time>
      </trkpt>
      <trkpt lat="43.21718" lon="5.37508">
        <ele>90.278214</ele>
        <time>2015-01-28T11:52:19Z</time>
      </trkpt>
      <trkpt lat="43.21716" lon="5.37516">
        <ele>88.910957</ele>
        <time>2015-01-28T11:52:30Z</time>
      </trkpt>
      <trkpt lat="43.21717" lon="5.37523">
        <ele>88.290909</ele>
        <time>2015-01-28T11:52:37Z</time>
      </trkpt>
      <trkpt lat="43.21716" lon="5.37531">
        <ele>87.380524</ele>
        <time>2015-01-28T11:52:41Z</time>
      </trkpt>
      <trkpt lat="43.21713" lon="5.37537">
        <ele>85.860573</ele>
        <time>2015-01-28T11:52:45Z</time>
      </trkpt>
      <trkpt lat="43.21708" lon="5.37542">
        <ele>84.13475</ele>
        <time>2015-01-28T11:52:49Z</time>
      </trkpt>
      <trkpt lat="43.21704" lon="5.37546">
        <ele>82.883377</ele>
        <time>2015-01-28T11:52:54Z</time>
      </trkpt>
      <trkpt lat="43.217" lon="5.37546">
        <ele>81.64119</ele>
        <time>2015-01-28T11:53:00Z</time>
      </trkpt>
      <trkpt lat="43.21695" lon="5.37549">
        <ele>80.325111</ele>
        <time>2015-01-28T11:53:10Z</time>
      </trkpt>
      <trkpt lat="43.2169" lon="5.37549">
        <ele>78.883926</ele>
        <time>2015-01-28T11:53:13Z</time>
      </trkpt>
      <trkpt lat="43.21684" lon="5.37547">
        <ele>77.43866</ele>
        <time>2015-01-28T11:53:18Z</time>
      </trkpt>
      <trkpt lat="43.2168" lon="5.37545">
        <ele>76.042473</ele>
        <time>2015-01-28T11:53:24Z</time>
      </trkpt>
      <trkpt lat="43.21675" lon="5.37543">
        <ele>74.603264</ele>
        <time>2015-01-28T11:53:28Z</time>
      </trkpt>
      <trkpt lat="43.21671" lon="5.37543">
        <ele>73.250763</ele>
        <time>2015-01-28T11:53:32Z</time>
      </trkpt>
      <trkpt lat="43.21666" lon="5.37541">
        <ele>71.941795</ele>
        <time>2015-01-28T11:53:38Z</time>
      </trkpt>
      <trkpt lat="43.21662" lon="5.37535">
        <ele>71.196243</ele>
        <time>2015-01-28T11:53:45Z</time>
      </trkpt>
      <trkpt lat="43.21659" lon="5.3753">
        <ele>70.549606</ele>
        <time>2015-01-28T11:53:52Z</time>
      </trkpt>
      <trkpt lat="43.21655" lon="5.37527">
        <ele>70.16275</ele>
        <time>2015-01-28T11:54:02Z</time>
      </trkpt>
      <trkpt lat="43.21651" lon="5.37525">
        <ele>69.786133</ele>
        <time>2015-01-28T11:54:09Z</time>
      </trkpt>
      <trkpt lat="43.21646" lon="5.37526">
        <ele>69.845779</ele>
        <time>2015-01-28T11:54:15Z</time>
      </trkpt>
      <trkpt lat="43.21642" lon="5.3752">
        <ele>68.649994</ele>
        <time>2015-01-28T11:54:22Z</time>
      </trkpt>
      <trkpt lat="43.21638" lon="5.37517">
        <ele>67.743256</ele>
        <time>2015-01-28T11:54:30Z</time>
      </trkpt>
      <trkpt lat="43.21635" lon="5.37511">
        <ele>66.491463</ele>
        <time>2015-01-28T11:54:35Z</time>
      </trkpt>
      <trkpt lat="43.21632" lon="5.37507">
        <ele>65.192345</ele>
        <time>2015-01-28T11:54:41Z</time>
      </trkpt>
      <trkpt lat="43.2163" lon="5.375">
        <ele>63.538147</ele>
        <time>2015-01-28T11:54:52Z</time>
      </trkpt>
      <trkpt lat="43.21629" lon="5.37494">
        <ele>64.143845</ele>
        <time>2015-01-28T11:54:58Z</time>
      </trkpt>
      <trkpt lat="43.21629" lon="5.37487">
        <ele>64.944252</ele>
        <time>2015-01-28T11:55:03Z</time>
      </trkpt>
      <trkpt lat="43.21632" lon="5.37482">
        <ele>65.984451</ele>
        <time>2015-01-28T11:55:08Z</time>
      </trkpt>
      <trkpt lat="43.21635" lon="5.37477">
        <ele>67.092293</ele>
        <time>2015-01-28T11:55:14Z</time>
      </trkpt>
      <trkpt lat="43.21636" lon="5.37471">
        <ele>68.194641</ele>
        <time>2015-01-28T11:55:21Z</time>
      </trkpt>
      <trkpt lat="43.21638" lon="5.37465">
        <ele>69.494049</ele>
        <time>2015-01-28T11:55:28Z</time>
      </trkpt>
      <trkpt lat="43.21639" lon="5.37458">
        <ele>70.649475</ele>
        <time>2015-01-28T11:55:34Z</time>
      </trkpt>
      <trkpt lat="43.21638" lon="5.37452">
        <ele>71.549255</ele>
        <time>2015-01-28T11:55:40Z</time>
      </trkpt>
      <trkpt lat="43.21637" lon="5.37445">
        <ele>72.217384</ele>
        <time>2015-01-28T11:55:50Z</time>
      </trkpt>
      <trkpt lat="43.21634" lon="5.37441">
        <ele>71.81382</ele>
        <time>2015-01-28T11:55:55Z</time>
      </trkpt>
      <trkpt lat="43.21629" lon="5.37438">
        <ele>70.970673</ele>
        <time>2015-01-28T11:56:04Z</time>
      </trkpt>
      <trkpt lat="43.21624" lon="5.37437">
        <ele>69.580841</ele>
        <time>2015-01-28T11:56:10Z</time>
      </trkpt>
      <trkpt lat="43.21619" lon="5.3744">
        <ele>67.878693</ele>
        <time>2015-01-28T11:56:16Z</time>
      </trkpt>
      <trkpt lat="43.21616" lon="5.37445">
        <ele>66.445518</ele>
        <time>2015-01-28T11:56:27Z</time>
      </trkpt>
      <trkpt lat="43.21611" lon="5.37446">
        <ele>64.964279</ele>
        <time>2015-01-28T11:56:30Z</time>
      </trkpt>
      <trkpt lat="43.21605" lon="5.37446">
        <ele>63.539238</ele>
        <time>2015-01-28T11:56:34Z</time>
      </trkpt>
      <trkpt lat="43.216" lon="5.37448">
        <ele>62.162346</ele>
        <time>2015-01-28T11:56:38Z</time>
      </trkpt>
      <trkpt lat="43.21596" lon="5.37449">
        <ele>60.947014</ele>
        <time>2015-01-28T11:56:45Z</time>
      </trkpt>
      <trkpt lat="43.21591" lon="5.3745">
        <ele>59.783276</ele>
        <time>2015-01-28T11:56:51Z</time>
      </trkpt>
      <trkpt lat="43.21587" lon="5.37452">
        <ele>58.655151</ele>
        <time>2015-01-28T11:56:57Z</time>
      </trkpt>
      <trkpt lat="43.21582" lon="5.37455">
        <ele>58.001984</ele>
        <time>2015-01-28T11:57:02Z</time>
      </trkpt>
      <trkpt lat="43.21577" lon="5.37455">
        <ele>58.404343</ele>
        <time>2015-01-28T11:57:07Z</time>
      </trkpt>
      <trkpt lat="43.21573" lon="5.37457">
        <ele>58.848339</ele>
        <time>2015-01-28T11:57:12Z</time>
      </trkpt>
      <trkpt lat="43.21568" lon="5.37454">
        <ele>58.957886</ele>
        <time>2015-01-28T11:57:17Z</time>
      </trkpt>
      <trkpt lat="43.21564" lon="5.37455">
        <ele>59.343403</ele>
        <time>2015-01-28T11:57:23Z</time>
      </trkpt>
      <trkpt lat="43.21559" lon="5.37452">
        <ele>59.480698</ele>
        <time>2015-01-28T11:57:29Z</time>
      </trkpt>
      <trkpt lat="43.21555" lon="5.37451">
        <ele>59.62912</ele>
        <time>2015-01-28T11:57:34Z</time>
      </trkpt>
      <trkpt lat="43.2155" lon="5.37448">
        <ele>59.564587</ele>
        <time>2015-01-28T11:57:40Z</time>
      </trkpt>
      <trkpt lat="43.21547" lon="5.37443">
        <ele>59.124939</ele>
        <time>2015-01-28T11:57:46Z</time>
      </trkpt>
      <trkpt lat="43.21545" lon="5.37437">
        <ele>58.293304</ele>
        <time>2015-01-28T11:57:52Z</time>
      </trkpt>
      <trkpt lat="43.21541" lon="5.37432">
        <ele>57.683556</ele>
        <time>2015-01-28T11:57:57Z</time>
      </trkpt>
      <trkpt lat="43.21538" lon="5.37427">
        <ele>56.912079</ele>
        <time>2015-01-28T11:58:03Z</time>
      </trkpt>
      <trkpt lat="43.21536" lon="5.37421">
        <ele>55.94593</ele>
        <time>2015-01-28T11:58:09Z</time>
      </trkpt>
      <trkpt lat="43.21532" lon="5.37416">
        <ele>55.154335</ele>
        <time>2015-01-28T11:58:13Z</time>
      </trkpt>
      <trkpt lat="43.21528" lon="5.37413">
        <ele>54.978352</ele>
        <time>2015-01-28T11:58:17Z</time>
      </trkpt>
      <trkpt lat="43.21524" lon="5.37409">
        <ele>54.745945</ele>
        <time>2015-01-28T11:58:27Z</time>
      </trkpt>
      <trkpt lat="43.21519" lon="5.37406">
        <ele>54.367367</ele>
        <time>2015-01-28T11:58:33Z</time>
      </trkpt>
      <trkpt lat="43.21514" lon="5.37404">
        <ele>53.939392</ele>
        <time>2015-01-28T11:58:37Z</time>
      </trkpt>
      <trkpt lat="43.21513" lon="5.37398">
        <ele>53.548481</ele>
        <time>2015-01-28T11:58:45Z</time>
      </trkpt>
      <trkpt lat="43.21512" lon="5.3739">
        <ele>53.124683</ele>
        <time>2015-01-28T11:58:51Z</time>
      </trkpt>
      <trkpt lat="43.21512" lon="5.37383">
        <ele>52.744324</ele>
        <time>2015-01-28T11:58:56Z</time>
      </trkpt>
      <trkpt lat="43.21513" lon="5.37376">
        <ele>52.626637</ele>
        <time>2015-01-28T11:59:01Z</time>
      </trkpt>
      <trkpt lat="43.21516" lon="5.37371">
        <ele>52.87088</ele>
        <time>2015-01-28T11:59:05Z</time>
      </trkpt>
      <trkpt lat="43.2152" lon="5.37367">
        <ele>53.462692</ele>
        <time>2015-01-28T11:59:09Z</time>
      </trkpt>
      <trkpt lat="43.21525" lon="5.37363">
        <ele>54.285103</ele>
        <time>2015-01-28T11:59:13Z</time>
      </trkpt>
      <trkpt lat="43.2153" lon="5.3736">
        <ele>55.232388</ele>
        <time>2015-01-28T11:59:17Z</time>
      </trkpt>
      <trkpt lat="43.21533" lon="5.37355">
        <ele>55.878014</ele>
        <time>2015-01-28T11:59:22Z</time>
      </trkpt>
      <trkpt lat="43.21531" lon="5.37348">
        <ele>55.562408</ele>
        <time>2015-01-28T11:59:26Z</time>
      </trkpt>
      <trkpt lat="43.21532" lon="5.37342">
        <ele>55.795662</ele>
        <time>2015-01-28T11:59:32Z</time>
      </trkpt>
      <trkpt lat="43.21535" lon="5.37336">
        <ele>56.514458</ele>
        <time>2015-01-28T11:59:36Z</time>
      </trkpt>
      <trkpt lat="43.21536" lon="5.37329">
        <ele>57.279137</ele>
        <time>2015-01-28T11:59:40Z</time>
      </trkpt>
      <trkpt lat="43.21537" lon="5.37323">
        <ele>58.251537</ele>
        <time>2015-01-28T11:59:44Z</time>
      </trkpt>
      <trkpt lat="43.21536" lon="5.37316">
        <ele>58.378822</ele>
        <time>2015-01-28T11:59:48Z</time>
      </trkpt>
      <trkpt lat="43.21532" lon="5.37309">
        <ele>57.509209</ele>
        <time>2015-01-28T11:59:52Z</time>
      </trkpt>
      <trkpt lat="43.2153" lon="5.37302">
        <ele>57.449005</ele>
        <time>2015-01-28T11:59:57Z</time>
      </trkpt>
      <trkpt lat="43.21526" lon="5.37297">
        <ele>56.301445</ele>
        <time>2015-01-28T12:00:00Z</time>
      </trkpt>
      <trkpt lat="43.21522" lon="5.37293">
        <ele>54.822906</ele>
        <time>2015-01-28T12:00:05Z</time>
      </trkpt>
      <trkpt lat="43.21519" lon="5.37288">
        <ele>54.030903</ele>
        <time>2015-01-28T12:00:10Z</time>
      </trkpt>
      <trkpt lat="43.21515" lon="5.37283">
        <ele>52.683952</ele>
        <time>2015-01-28T12:00:15Z</time>
      </trkpt>
      <trkpt lat="43.21513" lon="5.37278">
        <ele>51.816917</ele>
        <time>2015-01-28T12:00:18Z</time>
      </trkpt>
      <trkpt lat="43.21511" lon="5.37271">
        <ele>51.088329</ele>
        <time>2015-01-28T12:00:23Z</time>
      </trkpt>
      <trkpt lat="43.21508" lon="5.37265">
        <ele>49.955147</ele>
        <time>2015-01-28T12:00:51Z</time>
      </trkpt>
      <trkpt lat="43.21506" lon="5.37259">
        <ele>49.033417</ele>
        <time>2015-01-28T12:00:56Z</time>
      </trkpt>
      <trkpt lat="43.21502" lon="5.37254">
        <ele>47.151291</ele>
        <time>2015-01-28T12:01:00Z</time>
      </trkpt>
      <trkpt lat="43.21498" lon="5.37247">
        <ele>46.133671</ele>
        <time>2015-01-28T12:01:04Z</time>
      </trkpt>
      <trkpt lat="43.21495" lon="5.37243">
        <ele>46.226212</ele>
        <time>2015-01-28T12:01:07Z</time>
      </trkpt>
      <trkpt lat="43.21491" lon="5.37238">
        <ele>46.341835</ele>
        <time>2015-01-28T12:01:11Z</time>
      </trkpt>
      <trkpt lat="43.21487" lon="5.37232">
        <ele>46.457451</ele>
        <time>2015-01-28T12:01:16Z</time>
      </trkpt>
      <trkpt lat="43.21482" lon="5.37229">
        <ele>46.151836</ele>
        <time>2015-01-28T12:01:22Z</time>
      </trkpt>
      <trkpt lat="43.21478" lon="5.37225">
        <ele>46.071198</ele>
        <time>2015-01-28T12:01:26Z</time>
      </trkpt>
      <trkpt lat="43.21473" lon="5.37224">
        <ele>45.570076</ele>
        <time>2015-01-28T12:01:32Z</time>
      </trkpt>
      <trkpt lat="43.21469" lon="5.37223">
        <ele>45.086903</ele>
        <time>2015-01-28T12:01:38Z</time>
      </trkpt>
      <trkpt lat="43.21464" lon="5.37219">
        <ele>44.840271</ele>
        <time>2015-01-28T12:01:43Z</time>
      </trkpt>
      <trkpt lat="43.2146" lon="5.37216">
        <ele>44.420811</ele>
        <time>2015-01-28T12:01:49Z</time>
      </trkpt>
      <trkpt lat="43.21455" lon="5.37213">
        <ele>43.913128</ele>
        <time>2015-01-28T12:01:57Z</time>
      </trkpt>
      <trkpt lat="43.2145" lon="5.37212">
        <ele>43.341644</ele>
        <time>2015-01-28T12:02:01Z</time>
      </trkpt>
      <trkpt lat="43.21445" lon="5.3721">
        <ele>42.717922</ele>
        <time>2015-01-28T12:02:04Z</time>
      </trkpt>
      <trkpt lat="43.2144" lon="5.37209">
        <ele>42.109009</ele>
        <time>2015-01-28T12:02:07Z</time>
      </trkpt>
      <trkpt lat="43.21435" lon="5.37205">
        <ele>41.366982</ele>
        <time>2015-01-28T12:02:11Z</time>
      </trkpt>
      <trkpt lat="43.2143" lon="5.37204">
        <ele>40.66621</ele>
        <time>2015-01-28T12:02:15Z</time>
      </trkpt>
      <trkpt lat="43.21423" lon="5.37201">
        <ele>39.76622</ele>
        <time>2015-01-28T12:02:19Z</time>
      </trkpt>
      <trkpt lat="43.21419" lon="5.372">
        <ele>39.052204</ele>
        <time>2015-01-28T12:02:23Z</time>
      </trkpt>
      <trkpt lat="43.21413" lon="5.37202">
        <ele>39.282848</ele>
        <time>2015-01-28T12:02:27Z</time>
      </trkpt>
      <trkpt lat="43.21408" lon="5.37204">
        <ele>39.853584</ele>
        <time>2015-01-28T12:02:31Z</time>
      </trkpt>
      <trkpt lat="43.21403" lon="5.37207">
        <ele>40.377354</ele>
        <time>2015-01-28T12:02:36Z</time>
      </trkpt>
      <trkpt lat="43.214" lon="5.37212">
        <ele>40.639687</ele>
        <time>2015-01-28T12:02:42Z</time>
      </trkpt>
      <trkpt lat="43.21395" lon="5.37214">
        <ele>41.047878</ele>
        <time>2015-01-28T12:02:47Z</time>
      </trkpt>
      <trkpt lat="43.2139" lon="5.37215">
        <ele>41.40617</ele>
        <time>2015-01-28T12:02:51Z</time>
      </trkpt>
      <trkpt lat="43.21386" lon="5.37217">
        <ele>41.705246</ele>
        <time>2015-01-28T12:02:55Z</time>
      </trkpt>
      <trkpt lat="43.21381" lon="5.37218">
        <ele>42.015289</ele>
        <time>2015-01-28T12:02:59Z</time>
      </trkpt>
      <trkpt lat="43.21378" lon="5.37223">
        <ele>41.885338</ele>
        <time>2015-01-28T12:03:04Z</time>
      </trkpt>
      <trkpt lat="43.21375" lon="5.37229">
        <ele>41.656277</ele>
        <time>2015-01-28T12:03:08Z</time>
      </trkpt>
      <trkpt lat="43.21372" lon="5.37235">
        <ele>41.295532</ele>
        <time>2015-01-28T12:03:13Z</time>
      </trkpt>
      <trkpt lat="43.21369" lon="5.37239">
        <ele>41.040257</ele>
        <time>2015-01-28T12:03:20Z</time>
      </trkpt>
      <trkpt lat="43.21366" lon="5.37244">
        <ele>40.648376</ele>
        <time>2015-01-28T12:03:25Z</time>
      </trkpt>
      <trkpt lat="43.21363" lon="5.3725">
        <ele>40.019478</ele>
        <time>2015-01-28T12:03:30Z</time>
      </trkpt>
      <trkpt lat="43.21359" lon="5.37255">
        <ele>39.917019</ele>
        <time>2015-01-28T12:03:36Z</time>
      </trkpt>
      <trkpt lat="43.21356" lon="5.3726">
        <ele>39.750515</ele>
        <time>2015-01-28T12:03:41Z</time>
      </trkpt>
      <trkpt lat="43.21352" lon="5.37264">
        <ele>39.491432</ele>
        <time>2015-01-28T12:03:47Z</time>
      </trkpt>
      <trkpt lat="43.21353" lon="5.37271">
        <ele>39.297771</ele>
        <time>2015-01-28T12:03:51Z</time>
      </trkpt>
      <trkpt lat="43.21351" lon="5.37277">
        <ele>38.993713</ele>
        <time>2015-01-28T12:03:56Z</time>
      </trkpt>
      <trkpt lat="43.21348" lon="5.37281">
        <ele>38.567398</ele>
        <time>2015-01-28T12:04:03Z</time>
      </trkpt>
      <trkpt lat="43.21345" lon="5.37287">
        <ele>38.004726</ele>
        <time>2015-01-28T12:04:09Z</time>
      </trkpt>
      <trkpt lat="43.21343" lon="5.37293">
        <ele>37.417721</ele>
        <time>2015-01-28T12:04:14Z</time>
      </trkpt>
      <trkpt lat="43.21339" lon="5.37299">
        <ele>36.605728</ele>
        <time>2015-01-28T12:04:20Z</time>
      </trkpt>
      <trkpt lat="43.21337" lon="5.37305">
        <ele>35.92638</ele>
        <time>2015-01-28T12:04:26Z</time>
      </trkpt>
      <trkpt lat="43.21337" lon="5.37312">
        <ele>35.386627</ele>
        <time>2015-01-28T12:04:29Z</time>
      </trkpt>
      <trkpt lat="43.21336" lon="5.37321">
        <ele>34.566132</ele>
        <time>2015-01-28T12:04:33Z</time>
      </trkpt>
      <trkpt lat="43.21335" lon="5.37328">
        <ele>33.760391</ele>
        <time>2015-01-28T12:04:37Z</time>
      </trkpt>
      <trkpt lat="43.21331" lon="5.37333">
        <ele>33.343536</ele>
        <time>2015-01-28T12:04:43Z</time>
      </trkpt>
      <trkpt lat="43.21326" lon="5.37334">
        <ele>33.779816</ele>
        <time>2015-01-28T12:04:50Z</time>
      </trkpt>
      <trkpt lat="43.21324" lon="5.37341">
        <ele>33.833057</ele>
        <time>2015-01-28T12:04:57Z</time>
      </trkpt>
      <trkpt lat="43.21321" lon="5.37346">
        <ele>33.939232</ele>
        <time>2015-01-28T12:05:01Z</time>
      </trkpt>
      <trkpt lat="43.21318" lon="5.37351">
        <ele>34.055782</ele>
        <time>2015-01-28T12:05:07Z</time>
      </trkpt>
      <trkpt lat="43.21315" lon="5.37358">
        <ele>33.95586</ele>
        <time>2015-01-28T12:05:12Z</time>
      </trkpt>
      <trkpt lat="43.21313" lon="5.37364">
        <ele>33.785995</ele>
        <time>2015-01-28T12:05:17Z</time>
      </trkpt>
      <trkpt lat="43.21311" lon="5.3737">
        <ele>33.562244</ele>
        <time>2015-01-28T12:05:22Z</time>
      </trkpt>
      <trkpt lat="43.21308" lon="5.37376">
        <ele>33.267727</ele>
        <time>2015-01-28T12:05:29Z</time>
      </trkpt>
      <trkpt lat="43.21306" lon="5.37382">
        <ele>32.918625</ele>
        <time>2015-01-28T12:05:36Z</time>
      </trkpt>
      <trkpt lat="43.21303" lon="5.37387">
        <ele>32.516109</ele>
        <time>2015-01-28T12:05:43Z</time>
      </trkpt>
      <trkpt lat="43.21299" lon="5.37391">
        <ele>32.156464</ele>
        <time>2015-01-28T12:05:48Z</time>
      </trkpt>
      <trkpt lat="43.21296" lon="5.37397">
        <ele>31.600338</ele>
        <time>2015-01-28T12:05:53Z</time>
      </trkpt>
      <trkpt lat="43.21291" lon="5.374">
        <ele>31.063648</ele>
        <time>2015-01-28T12:05:59Z</time>
      </trkpt>
      <trkpt lat="43.21287" lon="5.37404">
        <ele>30.454174</ele>
        <time>2015-01-28T12:06:03Z</time>
      </trkpt>
      <trkpt lat="43.21284" lon="5.37409">
        <ele>29.695841</ele>
        <time>2015-01-28T12:06:07Z</time>
      </trkpt>
      <trkpt lat="43.21281" lon="5.37413">
        <ele>28.965996</ele>
        <time>2015-01-28T12:06:11Z</time>
      </trkpt>
      <trkpt lat="43.21275" lon="5.37415">
        <ele>28.346378</ele>
        <time>2015-01-28T12:06:16Z</time>
      </trkpt>
      <trkpt lat="43.21271" lon="5.37419">
        <ele>27.753681</ele>
        <time>2015-01-28T12:06:22Z</time>
      </trkpt>
      <trkpt lat="43.21267" lon="5.3742">
        <ele>27.35046</ele>
        <time>2015-01-28T12:06:29Z</time>
      </trkpt>
      <trkpt lat="43.21262" lon="5.3742">
        <ele>26.939552</ele>
        <time>2015-01-28T12:06:33Z</time>
      </trkpt>
      <trkpt lat="43.21257" lon="5.37421">
        <ele>26.485365</ele>
        <time>2015-01-28T12:06:38Z</time>
      </trkpt>
      <trkpt lat="43.21253" lon="5.37423">
        <ele>26.035902</ele>
        <time>2015-01-28T12:06:44Z</time>
      </trkpt>
      <trkpt lat="43.21248" lon="5.37425">
        <ele>25.578444</ele>
        <time>2015-01-28T12:06:49Z</time>
      </trkpt>
      <trkpt lat="43.21242" lon="5.37427">
        <ele>25.219847</ele>
        <time>2015-01-28T12:06:55Z</time>
      </trkpt>
      <trkpt lat="43.21238" lon="5.37424">
        <ele>25.068436</ele>
        <time>2015-01-28T12:06:59Z</time>
      </trkpt>
      <trkpt lat="43.21233" lon="5.37425">
        <ele>24.774628</ele>
        <time>2015-01-28T12:07:05Z</time>
      </trkpt>
      <trkpt lat="43.21228" lon="5.37425">
        <ele>24.478176</ele>
        <time>2015-01-28T12:07:10Z</time>
      </trkpt>
      <trkpt lat="43.21222" lon="5.37426">
        <ele>24.157572</ele>
        <time>2015-01-28T12:07:15Z</time>
      </trkpt>
      <trkpt lat="43.21218" lon="5.37426">
        <ele>23.918087</ele>
        <time>2015-01-28T12:07:19Z</time>
      </trkpt>
      <trkpt lat="43.21212" lon="5.37424">
        <ele>23.622135</ele>
        <time>2015-01-28T12:07:24Z</time>
      </trkpt>
      <trkpt lat="43.21208" lon="5.37424">
        <ele>23.378357</ele>
        <time>2015-01-28T12:07:29Z</time>
      </trkpt>
      <trkpt lat="43.21203" lon="5.37424">
        <ele>23.108959</ele>
        <time>2015-01-28T12:07:36Z</time>
      </trkpt>
      <trkpt lat="43.21198" lon="5.37427">
        <ele>22.822453</ele>
        <time>2015-01-28T12:07:42Z</time>
      </trkpt>
      <trkpt lat="43.21193" lon="5.37426">
        <ele>22.54327</ele>
        <time>2015-01-28T12:07:47Z</time>
      </trkpt>
      <trkpt lat="43.21188" lon="5.37425">
        <ele>22.273767</ele>
        <time>2015-01-28T12:07:52Z</time>
      </trkpt>
      <trkpt lat="43.21183" lon="5.37425">
        <ele>21.993881</ele>
        <time>2015-01-28T12:07:57Z</time>
      </trkpt>
      <trkpt lat="43.21178" lon="5.37424">
        <ele>21.693918</ele>
        <time>2015-01-28T12:08:02Z</time>
      </trkpt>
      <trkpt lat="43.21173" lon="5.37423">
        <ele>21.417059</ele>
        <time>2015-01-28T12:08:07Z</time>
      </trkpt>
      <trkpt lat="43.21168" lon="5.37422">
        <ele>21.136599</ele>
        <time>2015-01-28T12:08:12Z</time>
      </trkpt>
      <trkpt lat="43.21163" lon="5.37422">
        <ele>20.799227</ele>
        <time>2015-01-28T12:08:16Z</time>
      </trkpt>
      <trkpt lat="43.21159" lon="5.37422">
        <ele>20.424717</ele>
        <time>2015-01-28T12:08:21Z</time>
      </trkpt>
      <trkpt lat="43.21154" lon="5.37419">
        <ele>20.017416</ele>
        <time>2015-01-28T12:08:26Z</time>
      </trkpt>
      <trkpt lat="43.2115" lon="5.37415">
        <ele>19.97418</ele>
        <time>2015-01-28T12:08:30Z</time>
      </trkpt>
      <trkpt lat="43.21145" lon="5.37412">
        <ele>20.210938</ele>
        <time>2015-01-28T12:08:34Z</time>
      </trkpt>
      <trkpt lat="43.2114" lon="5.37412">
        <ele>19.865318</ele>
        <time>2015-01-28T12:08:39Z</time>
      </trkpt>
      <trkpt lat="43.21135" lon="5.3741">
        <ele>19.856564</ele>
        <time>2015-01-28T12:08:44Z</time>
      </trkpt>
      <trkpt lat="43.21131" lon="5.37408">
        <ele>19.807442</ele>
        <time>2015-01-28T12:08:50Z</time>
      </trkpt>
      <trkpt lat="43.21126" lon="5.37408">
        <ele>19.348286</ele>
        <time>2015-01-28T12:08:55Z</time>
      </trkpt>
      <trkpt lat="43.2112" lon="5.37407">
        <ele>18.989336</ele>
        <time>2015-01-28T12:08:59Z</time>
      </trkpt>
      <trkpt lat="43.21116" lon="5.37406">
        <ele>18.814751</ele>
        <time>2015-01-28T12:09:04Z</time>
      </trkpt>
      <trkpt lat="43.21111" lon="5.37406">
        <ele>18.1994</ele>
        <time>2015-01-28T12:09:08Z</time>
      </trkpt>
      <trkpt lat="43.21106" lon="5.37401">
        <ele>18.537066</ele>
        <time>2015-01-28T12:09:12Z</time>
      </trkpt>
      <trkpt lat="43.21102" lon="5.37397">
        <ele>18.797482</ele>
        <time>2015-01-28T12:09:16Z</time>
      </trkpt>
      <trkpt lat="43.21097" lon="5.37396">
        <ele>18.467207</ele>
        <time>2015-01-28T12:09:21Z</time>
      </trkpt>
      <trkpt lat="43.21093" lon="5.37394">
        <ele>18.13212</ele>
        <time>2015-01-28T12:09:25Z</time>
      </trkpt>
      <trkpt lat="43.21088" lon="5.37394">
        <ele>17.534798</ele>
        <time>2015-01-28T12:09:33Z</time>
      </trkpt>
      <trkpt lat="43.21083" lon="5.37392">
        <ele>17.183226</ele>
        <time>2015-01-28T12:09:38Z</time>
      </trkpt>
      <trkpt lat="43.21079" lon="5.37391">
        <ele>17.01129</ele>
        <time>2015-01-28T12:09:42Z</time>
      </trkpt>
      <trkpt lat="43.21074" lon="5.37387">
        <ele>17.043034</ele>
        <time>2015-01-28T12:09:47Z</time>
      </trkpt>
      <trkpt lat="43.2107" lon="5.37385">
        <ele>16.859241</ele>
        <time>2015-01-28T12:09:52Z</time>
      </trkpt>
      <trkpt lat="43.21066" lon="5.37381">
        <ele>16.854874</ele>
        <time>2015-01-28T12:09:57Z</time>
      </trkpt>
      <trkpt lat="43.21061" lon="5.3738">
        <ele>16.478298</ele>
        <time>2015-01-28T12:10:03Z</time>
      </trkpt>
      <trkpt lat="43.21056" lon="5.37376">
        <ele>16.322491</ele>
        <time>2015-01-28T12:10:07Z</time>
      </trkpt>
      <trkpt lat="43.21051" lon="5.37373">
        <ele>15.991823</ele>
        <time>2015-01-28T12:10:11Z</time>
      </trkpt>
      <trkpt lat="43.21047" lon="5.37373">
        <ele>15.452903</ele>
        <time>2015-01-28T12:10:16Z</time>
      </trkpt>
      <trkpt lat="43.21041" lon="5.37371">
        <ele>14.961981</ele>
        <time>2015-01-28T12:10:21Z</time>
      </trkpt>
      <trkpt lat="43.21036" lon="5.3737">
        <ele>14.385122</ele>
        <time>2015-01-28T12:10:25Z</time>
      </trkpt>
      <trkpt lat="43.2103" lon="5.37371">
        <ele>13.654137</ele>
        <time>2015-01-28T12:10:29Z</time>
      </trkpt>
      <trkpt lat="43.21025" lon="5.37369">
        <ele>13.103313</ele>
        <time>2015-01-28T12:10:35Z</time>
      </trkpt>
      <trkpt lat="43.2102" lon="5.37367">
        <ele>12.537546</ele>
        <time>2015-01-28T12:10:41Z</time>
      </trkpt>
      <trkpt lat="43.21016" lon="5.37363">
        <ele>12.12412</ele>
        <time>2015-01-28T12:10:45Z</time>
      </trkpt>
      <trkpt lat="43.21012" lon="5.37359">
        <ele>11.722986</ele>
        <time>2015-01-28T12:10:50Z</time>
      </trkpt>
      <trkpt lat="43.21009" lon="5.37363">
        <ele>11.133608</ele>
        <time>2015-01-28T12:10:55Z</time>
      </trkpt>
      <trkpt lat="43.21005" lon="5.37357">
        <ele>10.734636</ele>
        <time>2015-01-28T12:11:02Z</time>
      </trkpt>
      <trkpt lat="43.21008" lon="5.37351">
        <ele>11.20077</ele>
        <time>2015-01-28T12:11:05Z</time>
      </trkpt>
      <trkpt lat="43.21007" lon="5.37343">
        <ele>11.119043</ele>
        <time>2015-01-28T12:11:10Z</time>
      </trkpt>
      <trkpt lat="43.21001" lon="5.37339">
        <ele>10.201031</ele>
        <time>2015-01-28T12:11:14Z</time>
      </trkpt>
      <trkpt lat="43.20996" lon="5.37342">
        <ele>9.86084</ele>
        <time>2015-01-28T12:11:19Z</time>
      </trkpt>
      <trkpt lat="43.20992" lon="5.37339">
        <ele>9.718704</ele>
        <time>2015-01-28T12:11:24Z</time>
      </trkpt>
      <trkpt lat="43.20989" lon="5.37334">
        <ele>9.619919</ele>
        <time>2015-01-28T12:11:27Z</time>
      </trkpt>
      <trkpt lat="43.20988" lon="5.37324">
        <ele>9.591823</ele>
        <time>2015-01-28T12:11:31Z</time>
      </trkpt>
      <trkpt lat="43.20984" lon="5.37321">
        <ele>9.446004</ele>
        <time>2015-01-28T12:11:42Z</time>
      </trkpt>
      <trkpt lat="43.20983" lon="5.37313">
        <ele>9.357053</ele>
        <time>2015-01-28T12:11:47Z</time>
      </trkpt>
      <trkpt lat="43.2098" lon="5.37308">
        <ele>9.20338</ele>
        <time>2015-01-28T12:11:51Z</time>
      </trkpt>
      <trkpt lat="43.20975" lon="5.37307">
        <ele>8.941157</ele>
        <time>2015-01-28T12:11:56Z</time>
      </trkpt>
      <trkpt lat="43.20972" lon="5.37302">
        <ele>8.711271</ele>
        <time>2015-01-28T12:12:01Z</time>
      </trkpt>
      <trkpt lat="43.2097" lon="5.37296">
        <ele>8.55423</ele>
        <time>2015-01-28T12:12:07Z</time>
      </trkpt>
      <trkpt lat="43.20969" lon="5.37289">
        <ele>8.445623</ele>
        <time>2015-01-28T12:12:11Z</time>
      </trkpt>
      <trkpt lat="43.20969" lon="5.37282">
        <ele>8.350757</ele>
        <time>2015-01-28T12:12:15Z</time>
      </trkpt>
      <trkpt lat="43.20967" lon="5.37276">
        <ele>8.167139</ele>
        <time>2015-01-28T12:12:19Z</time>
      </trkpt>
      <trkpt lat="43.20964" lon="5.37272">
        <ele>7.828394</ele>
        <time>2015-01-28T12:12:24Z</time>
      </trkpt>
      <trkpt lat="43.20959" lon="5.3727">
        <ele>7.398303</ele>
        <time>2015-01-28T12:12:29Z</time>
      </trkpt>
      <trkpt lat="43.2096" lon="5.37262">
        <ele>7.309884</ele>
        <time>2015-01-28T12:12:36Z</time>
      </trkpt>
      <trkpt lat="43.2096" lon="5.37255">
        <ele>7.280586</ele>
        <time>2015-01-28T12:12:40Z</time>
      </trkpt>
      <trkpt lat="43.20963" lon="5.37249">
        <ele>7.553114</ele>
        <time>2015-01-28T12:12:45Z</time>
      </trkpt>
      <trkpt lat="43.20958" lon="5.3725">
        <ele>6.977647</ele>
        <time>2015-01-28T12:12:59Z</time>
      </trkpt>
      <trkpt lat="43.20957" lon="5.37257">
        <ele>7.021558</ele>
        <time>2015-01-28T12:13:05Z</time>
      </trkpt>
      <trkpt lat="43.20959" lon="5.3725">
        <ele>7.087589</ele>
        <time>2015-01-28T12:13:20Z</time>
      </trkpt>
      <trkpt lat="43.20963" lon="5.37245">
        <ele>8.059997</ele>
        <time>2015-01-28T12:13:24Z</time>
      </trkpt>
      <trkpt lat="43.20967" lon="5.37239">
        <ele>9.038002</ele>
        <time>2015-01-28T12:13:29Z</time>
      </trkpt>
      <trkpt lat="43.2097" lon="5.37234">
        <ele>10.046642</ele>
        <time>2015-01-28T12:13:34Z</time>
      </trkpt>
      <trkpt lat="43.20975" lon="5.37231">
        <ele>10.897063</ele>
        <time>2015-01-28T12:15:40Z</time>
      </trkpt>
      <trkpt lat="43.20971" lon="5.37235">
        <ele>10.016547</ele>
        <time>2015-01-28T12:19:24Z</time>
      </trkpt>
      <trkpt lat="43.20975" lon="5.37233">
        <ele>10.789762</ele>
        <time>2015-01-28T12:46:16Z</time>
      </trkpt>
      <trkpt lat="43.20971" lon="5.37229">
        <ele>10.80073</ele>
        <time>2015-01-28T12:49:41Z</time>
      </trkpt>
      <trkpt lat="43.20976" lon="5.37227">
        <ele>11.673382</ele>
        <time>2015-01-28T13:34:19Z</time>
      </trkpt>
      <trkpt lat="43.20972" lon="5.37234">
        <ele>10.283121</ele>
        <time>2015-01-28T13:35:21Z</time>
      </trkpt>
      <trkpt lat="43.20972" lon="5.37227">
        <ele>11.046943</ele>
        <time>2015-01-28T13:39:52Z</time>
      </trkpt>
      <trkpt lat="43.20968" lon="5.37232">
        <ele>10.094648</ele>
        <time>2015-01-28T13:40:36Z</time>
      </trkpt>
      <trkpt lat="43.2097" lon="5.37238">
        <ele>9.563241</ele>
        <time>2015-01-28T13:40:46Z</time>
      </trkpt>
      <trkpt lat="43.20968" lon="5.37232">
        <ele>9.997915</ele>
        <time>2015-01-28T13:42:36Z</time>
      </trkpt>
      <trkpt lat="43.20965" lon="5.37239">
        <ele>8.930164</ele>
        <time>2015-01-28T13:44:44Z</time>
      </trkpt>
      <trkpt lat="43.20964" lon="5.37246">
        <ele>8.009417</ele>
        <time>2015-01-28T13:44:48Z</time>
      </trkpt>
      <trkpt lat="43.20963" lon="5.37252">
        <ele>7.422973</ele>
        <time>2015-01-28T13:44:53Z</time>
      </trkpt>
      <trkpt lat="43.20961" lon="5.37259">
        <ele>7.345744</ele>
        <time>2015-01-28T13:44:59Z</time>
      </trkpt>
      <trkpt lat="43.20965" lon="5.37262">
        <ele>7.748265</ele>
        <time>2015-01-28T13:45:07Z</time>
      </trkpt>
      <trkpt lat="43.20969" lon="5.3726">
        <ele>8.146285</ele>
        <time>2015-01-28T13:45:13Z</time>
      </trkpt>
      <trkpt lat="43.20974" lon="5.37262">
        <ele>8.541666</ele>
        <time>2015-01-28T13:45:21Z</time>
      </trkpt>
      <trkpt lat="43.20976" lon="5.37257">
        <ele>8.731485</ele>
        <time>2015-01-28T13:45:29Z</time>
      </trkpt>
      <trkpt lat="43.20981" lon="5.37255">
        <ele>9.18761</ele>
        <time>2015-01-28T13:45:35Z</time>
      </trkpt>
      <trkpt lat="43.20985" lon="5.37252">
        <ele>9.551211</ele>
        <time>2015-01-28T13:45:41Z</time>
      </trkpt>
      <trkpt lat="43.20988" lon="5.37246">
        <ele>10.440787</ele>
        <time>2015-01-28T13:45:48Z</time>
      </trkpt>
      <trkpt lat="43.2099" lon="5.37239">
        <ele>11.563826</ele>
        <time>2015-01-28T13:45:57Z</time>
      </trkpt>
      <trkpt lat="43.20991" lon="5.37233">
        <ele>12.601637</ele>
        <time>2015-01-28T13:46:04Z</time>
      </trkpt>
      <trkpt lat="43.20989" lon="5.37227">
        <ele>13.301659</ele>
        <time>2015-01-28T13:46:11Z</time>
      </trkpt>
      <trkpt lat="43.2099" lon="5.37221">
        <ele>14.245492</ele>
        <time>2015-01-28T13:46:20Z</time>
      </trkpt>
      <trkpt lat="43.20988" lon="5.37215">
        <ele>14.816525</ele>
        <time>2015-01-28T13:46:27Z</time>
      </trkpt>
      <trkpt lat="43.20985" lon="5.3721">
        <ele>15.152645</ele>
        <time>2015-01-28T13:46:32Z</time>
      </trkpt>
      <trkpt lat="43.20986" lon="5.37203">
        <ele>16.287346</ele>
        <time>2015-01-28T13:46:38Z</time>
      </trkpt>
      <trkpt lat="43.20985" lon="5.37197">
        <ele>16.912924</ele>
        <time>2015-01-28T13:46:43Z</time>
      </trkpt>
      <trkpt lat="43.20982" lon="5.37191">
        <ele>17.141455</ele>
        <time>2015-01-28T13:46:49Z</time>
      </trkpt>
      <trkpt lat="43.20978" lon="5.37187">
        <ele>17.140022</ele>
        <time>2015-01-28T13:46:55Z</time>
      </trkpt>
      <trkpt lat="43.20975" lon="5.37183">
        <ele>17.115311</ele>
        <time>2015-01-28T13:47:02Z</time>
      </trkpt>
      <trkpt lat="43.2097" lon="5.37181">
        <ele>16.496849</ele>
        <time>2015-01-28T13:47:07Z</time>
      </trkpt>
      <trkpt lat="43.20966" lon="5.37177">
        <ele>16.234264</ele>
        <time>2015-01-28T13:47:12Z</time>
      </trkpt>
      <trkpt lat="43.20962" lon="5.37173">
        <ele>16.037302</ele>
        <time>2015-01-28T13:47:17Z</time>
      </trkpt>
      <trkpt lat="43.2096" lon="5.37167">
        <ele>16.254889</ele>
        <time>2015-01-28T13:47:21Z</time>
      </trkpt>
      <trkpt lat="43.20957" lon="5.37161">
        <ele>16.958906</ele>
        <time>2015-01-28T13:47:26Z</time>
      </trkpt>
      <trkpt lat="43.20955" lon="5.37155">
        <ele>17.417377</ele>
        <time>2015-01-28T13:47:30Z</time>
      </trkpt>
      <trkpt lat="43.20953" lon="5.37149">
        <ele>18.274038</ele>
        <time>2015-01-28T13:47:37Z</time>
      </trkpt>
      <trkpt lat="43.20951" lon="5.37143">
        <ele>18.807201</ele>
        <time>2015-01-28T13:47:43Z</time>
      </trkpt>
      <trkpt lat="43.20948" lon="5.37137">
        <ele>19.340054</ele>
        <time>2015-01-28T13:47:50Z</time>
      </trkpt>
      <trkpt lat="43.20947" lon="5.37131">
        <ele>20.266365</ele>
        <time>2015-01-28T13:47:56Z</time>
      </trkpt>
      <trkpt lat="43.20944" lon="5.37125">
        <ele>20.595146</ele>
        <time>2015-01-28T13:48:05Z</time>
      </trkpt>
      <trkpt lat="43.20939" lon="5.37122">
        <ele>20.375439</ele>
        <time>2015-01-28T13:48:11Z</time>
      </trkpt>
      <trkpt lat="43.20935" lon="5.37116">
        <ele>20.535229</ele>
        <time>2015-01-28T13:48:16Z</time>
      </trkpt>
      <trkpt lat="43.20933" lon="5.3711">
        <ele>21.047377</ele>
        <time>2015-01-28T13:48:20Z</time>
      </trkpt>
      <trkpt lat="43.20929" lon="5.37106">
        <ele>20.950851</ele>
        <time>2015-01-28T13:48:24Z</time>
      </trkpt>
      <trkpt lat="43.20925" lon="5.37104">
        <ele>20.260963</ele>
        <time>2015-01-28T13:48:29Z</time>
      </trkpt>
      <trkpt lat="43.20921" lon="5.37101">
        <ele>20.008556</ele>
        <time>2015-01-28T13:48:34Z</time>
      </trkpt>
      <trkpt lat="43.20916" lon="5.37099">
        <ele>19.2873</ele>
        <time>2015-01-28T13:48:40Z</time>
      </trkpt>
      <trkpt lat="43.20911" lon="5.37097">
        <ele>18.665825</ele>
        <time>2015-01-28T13:48:46Z</time>
      </trkpt>
      <trkpt lat="43.20907" lon="5.37098">
        <ele>17.642229</ele>
        <time>2015-01-28T13:48:51Z</time>
      </trkpt>
      <trkpt lat="43.20903" lon="5.37094">
        <ele>17.45805</ele>
        <time>2015-01-28T13:48:56Z</time>
      </trkpt>
      <trkpt lat="43.20899" lon="5.3709">
        <ele>17.251703</ele>
        <time>2015-01-28T13:49:03Z</time>
      </trkpt>
      <trkpt lat="43.20896" lon="5.37086">
        <ele>17.039764</ele>
        <time>2015-01-28T13:49:10Z</time>
      </trkpt>
      <trkpt lat="43.20892" lon="5.37083">
        <ele>16.609192</ele>
        <time>2015-01-28T13:49:18Z</time>
      </trkpt>
      <trkpt lat="43.20887" lon="5.37079">
        <ele>15.860107</ele>
        <time>2015-01-28T13:51:09Z</time>
      </trkpt>
      <trkpt lat="43.20884" lon="5.37073">
        <ele>15.667847</ele>
        <time>2015-01-28T13:51:14Z</time>
      </trkpt>
      <trkpt lat="43.20881" lon="5.37068">
        <ele>15.466888</ele>
        <time>2015-01-28T13:51:18Z</time>
      </trkpt>
      <trkpt lat="43.20878" lon="5.37062">
        <ele>15.105621</ele>
        <time>2015-01-28T13:51:23Z</time>
      </trkpt>
      <trkpt lat="43.20877" lon="5.37055">
        <ele>15.415894</ele>
        <time>2015-01-28T13:51:28Z</time>
      </trkpt>
      <trkpt lat="43.20877" lon="5.37049">
        <ele>15.844818</ele>
        <time>2015-01-28T13:51:31Z</time>
      </trkpt>
      <trkpt lat="43.20877" lon="5.37042">
        <ele>16.331329</ele>
        <time>2015-01-28T13:51:35Z</time>
      </trkpt>
      <trkpt lat="43.20877" lon="5.37036">
        <ele>16.770416</ele>
        <time>2015-01-28T13:51:39Z</time>
      </trkpt>
      <trkpt lat="43.20875" lon="5.37029">
        <ele>16.974304</ele>
        <time>2015-01-28T13:51:43Z</time>
      </trkpt>
      <trkpt lat="43.20873" lon="5.37023">
        <ele>16.810883</ele>
        <time>2015-01-28T13:51:47Z</time>
      </trkpt>
      <trkpt lat="43.20869" lon="5.37018">
        <ele>16.537598</ele>
        <time>2015-01-28T13:51:52Z</time>
      </trkpt>
      <trkpt lat="43.20866" lon="5.37012">
        <ele>16.30661</ele>
        <time>2015-01-28T13:51:57Z</time>
      </trkpt>
      <trkpt lat="43.20864" lon="5.37006">
        <ele>16.172211</ele>
        <time>2015-01-28T13:52:02Z</time>
      </trkpt>
      <trkpt lat="43.20862" lon="5.37">
        <ele>16.12442</ele>
        <time>2015-01-28T13:52:07Z</time>
      </trkpt>
      <trkpt lat="43.20859" lon="5.36995">
        <ele>15.936885</ele>
        <time>2015-01-28T13:52:12Z</time>
      </trkpt>
      <trkpt lat="43.20858" lon="5.36989">
        <ele>16.107742</ele>
        <time>2015-01-28T13:52:17Z</time>
      </trkpt>
      <trkpt lat="43.20856" lon="5.36981">
        <ele>16.041773</ele>
        <time>2015-01-28T13:52:21Z</time>
      </trkpt>
      <trkpt lat="43.20854" lon="5.36975">
        <ele>16.04435</ele>
        <time>2015-01-28T13:52:25Z</time>
      </trkpt>
      <trkpt lat="43.20853" lon="5.36968">
        <ele>16.115587</ele>
        <time>2015-01-28T13:52:29Z</time>
      </trkpt>
      <trkpt lat="43.20851" lon="5.36961">
        <ele>16.026461</ele>
        <time>2015-01-28T13:52:34Z</time>
      </trkpt>
      <trkpt lat="43.20848" lon="5.36955">
        <ele>15.89178</ele>
        <time>2015-01-28T13:52:38Z</time>
      </trkpt>
      <trkpt lat="43.20846" lon="5.36949">
        <ele>15.740643</ele>
        <time>2015-01-28T13:52:43Z</time>
      </trkpt>
      <trkpt lat="43.20845" lon="5.36942">
        <ele>15.714331</ele>
        <time>2015-01-28T13:52:47Z</time>
      </trkpt>
      <trkpt lat="43.20842" lon="5.36935">
        <ele>15.496058</ele>
        <time>2015-01-28T13:52:52Z</time>
      </trkpt>
      <trkpt lat="43.2084" lon="5.36929">
        <ele>15.179657</ele>
        <time>2015-01-28T13:52:58Z</time>
      </trkpt>
      <trkpt lat="43.20838" lon="5.36923">
        <ele>14.82338</ele>
        <time>2015-01-28T13:53:03Z</time>
      </trkpt>
      <trkpt lat="43.20835" lon="5.36918">
        <ele>14.323722</ele>
        <time>2015-01-28T13:53:08Z</time>
      </trkpt>
      <trkpt lat="43.20832" lon="5.36912">
        <ele>13.901413</ele>
        <time>2015-01-28T13:53:12Z</time>
      </trkpt>
      <trkpt lat="43.20831" lon="5.36905">
        <ele>13.763412</ele>
        <time>2015-01-28T13:53:17Z</time>
      </trkpt>
      <trkpt lat="43.20829" lon="5.36899">
        <ele>13.648758</ele>
        <time>2015-01-28T13:53:22Z</time>
      </trkpt>
      <trkpt lat="43.20828" lon="5.36892">
        <ele>13.648178</ele>
        <time>2015-01-28T13:53:27Z</time>
      </trkpt>
      <trkpt lat="43.20828" lon="5.36886">
        <ele>13.65802</ele>
        <time>2015-01-28T13:53:32Z</time>
      </trkpt>
      <trkpt lat="43.20827" lon="5.36879">
        <ele>13.561127</ele>
        <time>2015-01-28T13:53:36Z</time>
      </trkpt>
      <trkpt lat="43.20825" lon="5.36873">
        <ele>13.451447</ele>
        <time>2015-01-28T13:53:41Z</time>
      </trkpt>
      <trkpt lat="43.20824" lon="5.36867">
        <ele>13.335831</ele>
        <time>2015-01-28T13:53:45Z</time>
      </trkpt>
      <trkpt lat="43.20822" lon="5.3686">
        <ele>13.236877</ele>
        <time>2015-01-28T13:53:49Z</time>
      </trkpt>
      <trkpt lat="43.20821" lon="5.36853">
        <ele>13.146179</ele>
        <time>2015-01-28T13:53:54Z</time>
      </trkpt>
      <trkpt lat="43.2082" lon="5.36847">
        <ele>13.097321</ele>
        <time>2015-01-28T13:53:59Z</time>
      </trkpt>
      <trkpt lat="43.2082" lon="5.3684">
        <ele>13.146484</ele>
        <time>2015-01-28T13:54:04Z</time>
      </trkpt>
      <trkpt lat="43.20819" lon="5.36834">
        <ele>13.061752</ele>
        <time>2015-01-28T13:54:09Z</time>
      </trkpt>
      <trkpt lat="43.20817" lon="5.36827">
        <ele>12.973061</ele>
        <time>2015-01-28T13:54:13Z</time>
      </trkpt>
      <trkpt lat="43.20818" lon="5.36821">
        <ele>13.208993</ele>
        <time>2015-01-28T13:54:19Z</time>
      </trkpt>
      <trkpt lat="43.20816" lon="5.36814">
        <ele>13.138595</ele>
        <time>2015-01-28T13:54:24Z</time>
      </trkpt>
      <trkpt lat="43.20813" lon="5.36808">
        <ele>12.853926</ele>
        <time>2015-01-28T13:54:30Z</time>
      </trkpt>
      <trkpt lat="43.20813" lon="5.36801">
        <ele>12.930747</ele>
        <time>2015-01-28T13:54:34Z</time>
      </trkpt>
      <trkpt lat="43.20813" lon="5.36794">
        <ele>13.13527</ele>
        <time>2015-01-28T13:54:38Z</time>
      </trkpt>
      <trkpt lat="43.20812" lon="5.36788">
        <ele>13.182385</ele>
        <time>2015-01-28T13:54:42Z</time>
      </trkpt>
      <trkpt lat="43.20811" lon="5.36781">
        <ele>13.085474</ele>
        <time>2015-01-28T13:54:47Z</time>
      </trkpt>
      <trkpt lat="43.2081" lon="5.36773">
        <ele>13.153763</ele>
        <time>2015-01-28T13:54:52Z</time>
      </trkpt>
      <trkpt lat="43.2081" lon="5.36766">
        <ele>13.275765</ele>
        <time>2015-01-28T13:54:58Z</time>
      </trkpt>
      <trkpt lat="43.2081" lon="5.36759">
        <ele>13.436479</ele>
        <time>2015-01-28T13:55:04Z</time>
      </trkpt>
      <trkpt lat="43.20811" lon="5.36753">
        <ele>13.746044</ele>
        <time>2015-01-28T13:55:10Z</time>
      </trkpt>
      <trkpt lat="43.20809" lon="5.36746">
        <ele>13.800461</ele>
        <time>2015-01-28T13:55:16Z</time>
      </trkpt>
      <trkpt lat="43.20808" lon="5.36739">
        <ele>14.273264</ele>
        <time>2015-01-28T13:55:21Z</time>
      </trkpt>
      <trkpt lat="43.20806" lon="5.36733">
        <ele>14.521158</ele>
        <time>2015-01-28T13:55:26Z</time>
      </trkpt>
      <trkpt lat="43.20804" lon="5.36727">
        <ele>14.843534</ele>
        <time>2015-01-28T13:55:33Z</time>
      </trkpt>
      <trkpt lat="43.20803" lon="5.3672">
        <ele>15.247423</ele>
        <time>2015-01-28T13:55:39Z</time>
      </trkpt>
      <trkpt lat="43.20802" lon="5.36714">
        <ele>15.750177</ele>
        <time>2015-01-28T13:55:44Z</time>
      </trkpt>
      <trkpt lat="43.208" lon="5.36707">
        <ele>16.270058</ele>
        <time>2015-01-28T13:55:51Z</time>
      </trkpt>
      <trkpt lat="43.20797" lon="5.367">
        <ele>16.695501</ele>
        <time>2015-01-28T13:55:58Z</time>
      </trkpt>
      <trkpt lat="43.20795" lon="5.36694">
        <ele>17.180809</ele>
        <time>2015-01-28T13:56:03Z</time>
      </trkpt>
      <trkpt lat="43.20793" lon="5.36689">
        <ele>17.704197</ele>
        <time>2015-01-28T13:56:07Z</time>
      </trkpt>
      <trkpt lat="43.20792" lon="5.36683">
        <ele>18.286121</ele>
        <time>2015-01-28T13:56:11Z</time>
      </trkpt>
      <trkpt lat="43.2079" lon="5.36677">
        <ele>18.856157</ele>
        <time>2015-01-28T13:56:15Z</time>
      </trkpt>
      <trkpt lat="43.20787" lon="5.36671">
        <ele>19.534891</ele>
        <time>2015-01-28T13:56:20Z</time>
      </trkpt>
      <trkpt lat="43.20787" lon="5.36664">
        <ele>24.21739</ele>
        <time>2015-01-28T13:56:25Z</time>
      </trkpt>
      <trkpt lat="43.20786" lon="5.36657">
        <ele>23.411777</ele>
        <time>2015-01-28T13:56:31Z</time>
      </trkpt>
      <trkpt lat="43.20784" lon="5.36651">
        <ele>22.789951</ele>
        <time>2015-01-28T13:56:37Z</time>
      </trkpt>
      <trkpt lat="43.20782" lon="5.36644">
        <ele>21.926533</ele>
        <time>2015-01-28T13:56:43Z</time>
      </trkpt>
      <trkpt lat="43.20781" lon="5.36638">
        <ele>21.044392</ele>
        <time>2015-01-28T13:56:48Z</time>
      </trkpt>
      <trkpt lat="43.2078" lon="5.36631">
        <ele>20.110035</ele>
        <time>2015-01-28T13:56:55Z</time>
      </trkpt>
      <trkpt lat="43.20779" lon="5.36625">
        <ele>19.085617</ele>
        <time>2015-01-28T13:57:02Z</time>
      </trkpt>
      <trkpt lat="43.20778" lon="5.36618">
        <ele>17.901112</ele>
        <time>2015-01-28T13:57:09Z</time>
      </trkpt>
      <trkpt lat="43.20778" lon="5.36611">
        <ele>16.818163</ele>
        <time>2015-01-28T13:57:15Z</time>
      </trkpt>
      <trkpt lat="43.20777" lon="5.36604">
        <ele>15.614473</ele>
        <time>2015-01-28T13:57:20Z</time>
      </trkpt>
      <trkpt lat="43.20774" lon="5.36599">
        <ele>14.265218</ele>
        <time>2015-01-28T13:58:00Z</time>
      </trkpt>
      <trkpt lat="43.20775" lon="5.36592">
        <ele>13.329854</ele>
        <time>2015-01-28T13:58:05Z</time>
      </trkpt>
      <trkpt lat="43.20775" lon="5.36585">
        <ele>12.249061</ele>
        <time>2015-01-28T13:58:10Z</time>
      </trkpt>
      <trkpt lat="43.20775" lon="5.36579">
        <ele>12.034744</ele>
        <time>2015-01-28T13:58:15Z</time>
      </trkpt>
      <trkpt lat="43.20775" lon="5.36572">
        <ele>12.276988</ele>
        <time>2015-01-28T13:58:20Z</time>
      </trkpt>
      <trkpt lat="43.20774" lon="5.36565">
        <ele>12.353533</ele>
        <time>2015-01-28T13:58:26Z</time>
      </trkpt>
      <trkpt lat="43.20772" lon="5.36558">
        <ele>12.039183</ele>
        <time>2015-01-28T13:58:31Z</time>
      </trkpt>
      <trkpt lat="43.20769" lon="5.36551">
        <ele>11.693439</ele>
        <time>2015-01-28T13:58:36Z</time>
      </trkpt>
      <trkpt lat="43.2077" lon="5.36544">
        <ele>11.982102</ele>
        <time>2015-01-28T13:58:42Z</time>
      </trkpt>
      <trkpt lat="43.2077" lon="5.36538">
        <ele>12.304945</ele>
        <time>2015-01-28T13:58:49Z</time>
      </trkpt>
      <trkpt lat="43.2077" lon="5.36531">
        <ele>12.694479</ele>
        <time>2015-01-28T13:58:54Z</time>
      </trkpt>
      <trkpt lat="43.20771" lon="5.36524">
        <ele>13.14576</ele>
        <time>2015-01-28T13:58:59Z</time>
      </trkpt>
      <trkpt lat="43.20771" lon="5.36517">
        <ele>13.638695</ele>
        <time>2015-01-28T13:59:04Z</time>
      </trkpt>
      <trkpt lat="43.20772" lon="5.3651">
        <ele>14.217037</ele>
        <time>2015-01-28T13:59:09Z</time>
      </trkpt>
      <trkpt lat="43.20772" lon="5.36503">
        <ele>14.627161</ele>
        <time>2015-01-28T13:59:15Z</time>
      </trkpt>
      <trkpt lat="43.20773" lon="5.36496">
        <ele>14.946651</ele>
        <time>2015-01-28T13:59:21Z</time>
      </trkpt>
      <trkpt lat="43.20774" lon="5.3649">
        <ele>15.037292</ele>
        <time>2015-01-28T13:59:27Z</time>
      </trkpt>
      <trkpt lat="43.20774" lon="5.36484">
        <ele>15.019797</ele>
        <time>2015-01-28T13:59:33Z</time>
      </trkpt>
      <trkpt lat="43.20774" lon="5.36476">
        <ele>14.760924</ele>
        <time>2015-01-28T13:59:39Z</time>
      </trkpt>
      <trkpt lat="43.20772" lon="5.36471">
        <ele>14.011922</ele>
        <time>2015-01-28T13:59:43Z</time>
      </trkpt>
      <trkpt lat="43.20771" lon="5.36464">
        <ele>13.507591</ele>
        <time>2015-01-28T13:59:47Z</time>
      </trkpt>
      <trkpt lat="43.20772" lon="5.36458">
        <ele>13.852984</ele>
        <time>2015-01-28T13:59:52Z</time>
      </trkpt>
      <trkpt lat="43.20774" lon="5.36453">
        <ele>14.160704</ele>
        <time>2015-01-28T13:59:57Z</time>
      </trkpt>
      <trkpt lat="43.20776" lon="5.36447">
        <ele>14.679348</ele>
        <time>2015-01-28T14:00:02Z</time>
      </trkpt>
      <trkpt lat="43.20777" lon="5.3644">
        <ele>14.801713</ele>
        <time>2015-01-28T14:00:07Z</time>
      </trkpt>
      <trkpt lat="43.20776" lon="5.36434">
        <ele>14.587709</ele>
        <time>2015-01-28T14:00:12Z</time>
      </trkpt>
      <trkpt lat="43.20777" lon="5.36427">
        <ele>14.60789</ele>
        <time>2015-01-28T14:00:18Z</time>
      </trkpt>
      <trkpt lat="43.2078" lon="5.36423">
        <ele>15.626795</ele>
        <time>2015-01-28T14:00:25Z</time>
      </trkpt>
      <trkpt lat="43.20783" lon="5.36417">
        <ele>16.42687</ele>
        <time>2015-01-28T14:00:32Z</time>
      </trkpt>
      <trkpt lat="43.20783" lon="5.36411">
        <ele>15.954485</ele>
        <time>2015-01-28T14:00:36Z</time>
      </trkpt>
      <trkpt lat="43.20786" lon="5.36405">
        <ele>16.468029</ele>
        <time>2015-01-28T14:00:41Z</time>
      </trkpt>
      <trkpt lat="43.20786" lon="5.36399">
        <ele>16.25042</ele>
        <time>2015-01-28T14:00:49Z</time>
      </trkpt>
      <trkpt lat="43.20787" lon="5.36392">
        <ele>16.042274</ele>
        <time>2015-01-28T14:00:54Z</time>
      </trkpt>
      <trkpt lat="43.20788" lon="5.36385">
        <ele>16.056122</ele>
        <time>2015-01-28T14:00:59Z</time>
      </trkpt>
      <trkpt lat="43.20787" lon="5.36378">
        <ele>15.249111</ele>
        <time>2015-01-28T14:01:04Z</time>
      </trkpt>
      <trkpt lat="43.20789" lon="5.36373">
        <ele>15.525169</ele>
        <time>2015-01-28T14:01:11Z</time>
      </trkpt>
      <trkpt lat="43.20793" lon="5.36368">
        <ele>16.163853</ele>
        <time>2015-01-28T14:01:17Z</time>
      </trkpt>
      <trkpt lat="43.20797" lon="5.36364">
        <ele>16.853207</ele>
        <time>2015-01-28T14:01:22Z</time>
      </trkpt>
      <trkpt lat="43.20802" lon="5.36361">
        <ele>17.656368</ele>
        <time>2015-01-28T14:01:29Z</time>
      </trkpt>
      <trkpt lat="43.20804" lon="5.36356">
        <ele>17.725538</ele>
        <time>2015-01-28T14:01:36Z</time>
      </trkpt>
      <trkpt lat="43.20807" lon="5.36351">
        <ele>17.77124</ele>
        <time>2015-01-28T14:01:41Z</time>
      </trkpt>
      <trkpt lat="43.20809" lon="5.36345">
        <ele>17.732212</ele>
        <time>2015-01-28T14:01:48Z</time>
      </trkpt>
      <trkpt lat="43.20812" lon="5.3634">
        <ele>17.774118</ele>
        <time>2015-01-28T14:01:55Z</time>
      </trkpt>
      <trkpt lat="43.20816" lon="5.36335">
        <ele>18.072687</ele>
        <time>2015-01-28T14:02:01Z</time>
      </trkpt>
      <trkpt lat="43.20819" lon="5.36329">
        <ele>18.095469</ele>
        <time>2015-01-28T14:02:06Z</time>
      </trkpt>
      <trkpt lat="43.20823" lon="5.36325">
        <ele>18.459084</ele>
        <time>2015-01-28T14:02:10Z</time>
      </trkpt>
      <trkpt lat="43.20826" lon="5.3632">
        <ele>18.603537</ele>
        <time>2015-01-28T14:02:16Z</time>
      </trkpt>
      <trkpt lat="43.20826" lon="5.36313">
        <ele>18.115767</ele>
        <time>2015-01-28T14:02:22Z</time>
      </trkpt>
      <trkpt lat="43.20829" lon="5.36306">
        <ele>17.911549</ele>
        <time>2015-01-28T14:02:29Z</time>
      </trkpt>
      <trkpt lat="43.20831" lon="5.36299">
        <ele>17.747559</ele>
        <time>2015-01-28T14:02:36Z</time>
      </trkpt>
      <trkpt lat="43.20833" lon="5.36294">
        <ele>17.695894</ele>
        <time>2015-01-28T14:02:44Z</time>
      </trkpt>
      <trkpt lat="43.20837" lon="5.36289">
        <ele>18.226318</ele>
        <time>2015-01-28T14:03:01Z</time>
      </trkpt>
      <trkpt lat="43.20841" lon="5.36293">
        <ele>19.61046</ele>
        <time>2015-01-28T14:03:08Z</time>
      </trkpt>
      <trkpt lat="43.20843" lon="5.36299">
        <ele>20.943968</ele>
        <time>2015-01-28T14:03:13Z</time>
      </trkpt>
      <trkpt lat="43.20845" lon="5.36305">
        <ele>22.013271</ele>
        <time>2015-01-28T14:03:18Z</time>
      </trkpt>
      <trkpt lat="43.20842" lon="5.363">
        <ele>20.673124</ele>
        <time>2015-01-28T14:05:17Z</time>
      </trkpt>
      <trkpt lat="43.2084" lon="5.36294">
        <ele>19.634499</ele>
        <time>2015-01-28T14:05:24Z</time>
      </trkpt>
      <trkpt lat="43.20839" lon="5.36287">
        <ele>18.700336</ele>
        <time>2015-01-28T14:05:30Z</time>
      </trkpt>
      <trkpt lat="43.20838" lon="5.36281">
        <ele>17.730799</ele>
        <time>2015-01-28T14:05:37Z</time>
      </trkpt>
      <trkpt lat="43.20838" lon="5.36274">
        <ele>17.19676</ele>
        <time>2015-01-28T14:05:43Z</time>
      </trkpt>
      <trkpt lat="43.20839" lon="5.36267">
        <ele>16.785873</ele>
        <time>2015-01-28T14:05:48Z</time>
      </trkpt>
      <trkpt lat="43.20842" lon="5.36261">
        <ele>16.95179</ele>
        <time>2015-01-28T14:05:53Z</time>
      </trkpt>
      <trkpt lat="43.20844" lon="5.36256">
        <ele>16.962374</ele>
        <time>2015-01-28T14:05:58Z</time>
      </trkpt>
      <trkpt lat="43.20849" lon="5.36253">
        <ele>17.622585</ele>
        <time>2015-01-28T14:06:04Z</time>
      </trkpt>
      <trkpt lat="43.20853" lon="5.3625">
        <ele>18.239433</ele>
        <time>2015-01-28T14:06:09Z</time>
      </trkpt>
      <trkpt lat="43.20858" lon="5.36247">
        <ele>18.727505</ele>
        <time>2015-01-28T14:06:14Z</time>
      </trkpt>
      <trkpt lat="43.2086" lon="5.36241">
        <ele>18.325924</ele>
        <time>2015-01-28T14:06:21Z</time>
      </trkpt>
      <trkpt lat="43.20861" lon="5.36235">
        <ele>17.73241</ele>
        <time>2015-01-28T14:06:27Z</time>
      </trkpt>
      <trkpt lat="43.20866" lon="5.36232">
        <ele>18.084583</ele>
        <time>2015-01-28T14:06:32Z</time>
      </trkpt>
      <trkpt lat="43.20869" lon="5.36227">
        <ele>17.933575</ele>
        <time>2015-01-28T14:06:39Z</time>
      </trkpt>
      <trkpt lat="43.20873" lon="5.36224">
        <ele>18.194666</ele>
        <time>2015-01-28T14:06:48Z</time>
      </trkpt>
      <trkpt lat="43.20876" lon="5.36219">
        <ele>17.770931</ele>
        <time>2015-01-28T14:06:55Z</time>
      </trkpt>
      <trkpt lat="43.2088" lon="5.36215">
        <ele>17.843811</ele>
        <time>2015-01-28T14:07:02Z</time>
      </trkpt>
      <trkpt lat="43.20884" lon="5.36212">
        <ele>17.87505</ele>
        <time>2015-01-28T14:07:06Z</time>
      </trkpt>
      <trkpt lat="43.20888" lon="5.36209">
        <ele>17.807518</ele>
        <time>2015-01-28T14:07:10Z</time>
      </trkpt>
      <trkpt lat="43.20891" lon="5.36204">
        <ele>17.253933</ele>
        <time>2015-01-28T14:07:21Z</time>
      </trkpt>
      <trkpt lat="43.20896" lon="5.36201">
        <ele>17.328873</ele>
        <time>2015-01-28T14:07:27Z</time>
      </trkpt>
      <trkpt lat="43.209" lon="5.36197">
        <ele>17.029959</ele>
        <time>2015-01-28T14:07:46Z</time>
      </trkpt>
      <trkpt lat="43.20903" lon="5.36193">
        <ele>16.711363</ele>
        <time>2015-01-28T14:07:52Z</time>
      </trkpt>
      <trkpt lat="43.20908" lon="5.36193">
        <ele>17.22127</ele>
        <time>2015-01-28T14:07:58Z</time>
      </trkpt>
      <trkpt lat="43.20913" lon="5.36192">
        <ele>17.51296</ele>
        <time>2015-01-28T14:08:04Z</time>
      </trkpt>
      <trkpt lat="43.20917" lon="5.36189">
        <ele>17.287724</ele>
        <time>2015-01-28T14:08:12Z</time>
      </trkpt>
      <trkpt lat="43.2092" lon="5.36184">
        <ele>16.331955</ele>
        <time>2015-01-28T14:08:20Z</time>
      </trkpt>
      <trkpt lat="43.20925" lon="5.36184">
        <ele>16.53783</ele>
        <time>2015-01-28T14:08:25Z</time>
      </trkpt>
      <trkpt lat="43.2093" lon="5.36184">
        <ele>16.903027</ele>
        <time>2015-01-28T14:08:32Z</time>
      </trkpt>
      <trkpt lat="43.20934" lon="5.36186">
        <ele>17.458797</ele>
        <time>2015-01-28T14:08:37Z</time>
      </trkpt>
      <trkpt lat="43.20938" lon="5.36189">
        <ele>18.261122</ele>
        <time>2015-01-28T14:08:44Z</time>
      </trkpt>
      <trkpt lat="43.20943" lon="5.3619">
        <ele>18.706015</ele>
        <time>2015-01-28T14:09:04Z</time>
      </trkpt>
      <trkpt lat="43.20947" lon="5.3619">
        <ele>18.843109</ele>
        <time>2015-01-28T14:09:11Z</time>
      </trkpt>
      <trkpt lat="43.20952" lon="5.3619">
        <ele>19.154938</ele>
        <time>2015-01-28T14:09:17Z</time>
      </trkpt>
      <trkpt lat="43.20957" lon="5.3619">
        <ele>19.335678</ele>
        <time>2015-01-28T14:09:26Z</time>
      </trkpt>
      <trkpt lat="43.20962" lon="5.36192">
        <ele>19.75095</ele>
        <time>2015-01-28T14:09:34Z</time>
      </trkpt>
      <trkpt lat="43.20967" lon="5.36191">
        <ele>19.863518</ele>
        <time>2015-01-28T14:09:42Z</time>
      </trkpt>
      <trkpt lat="43.20971" lon="5.36193">
        <ele>20.284016</ele>
        <time>2015-01-28T14:09:53Z</time>
      </trkpt>
      <trkpt lat="43.20975" lon="5.36198">
        <ele>20.877197</ele>
        <time>2015-01-28T14:10:03Z</time>
      </trkpt>
      <trkpt lat="43.20978" lon="5.36202">
        <ele>21.422583</ele>
        <time>2015-01-28T14:10:19Z</time>
      </trkpt>
      <trkpt lat="43.20982" lon="5.36207">
        <ele>21.894194</ele>
        <time>2015-01-28T14:10:34Z</time>
      </trkpt>
      <trkpt lat="43.20985" lon="5.36212">
        <ele>22.280483</ele>
        <time>2015-01-28T14:10:48Z</time>
      </trkpt>
      <trkpt lat="43.20988" lon="5.36216">
        <ele>22.550076</ele>
        <time>2015-01-28T14:10:53Z</time>
      </trkpt>
      <trkpt lat="43.20993" lon="5.36217">
        <ele>22.540916</ele>
        <time>2015-01-28T14:10:57Z</time>
      </trkpt>
      <trkpt lat="43.20998" lon="5.36219">
        <ele>22.58222</ele>
        <time>2015-01-28T14:11:07Z</time>
      </trkpt>
      <trkpt lat="43.21003" lon="5.3622">
        <ele>22.997715</ele>
        <time>2015-01-28T14:11:12Z</time>
      </trkpt>
      <trkpt lat="43.21008" lon="5.36218">
        <ele>23.648438</ele>
        <time>2015-01-28T14:11:18Z</time>
      </trkpt>
      <trkpt lat="43.21012" lon="5.36219">
        <ele>24.409552</ele>
        <time>2015-01-28T14:11:27Z</time>
      </trkpt>
      <trkpt lat="43.21017" lon="5.36217">
        <ele>25.099865</ele>
        <time>2015-01-28T14:11:33Z</time>
      </trkpt>
      <trkpt lat="43.21022" lon="5.36217">
        <ele>25.870434</ele>
        <time>2015-01-28T14:11:41Z</time>
      </trkpt>
      <trkpt lat="43.21027" lon="5.3622">
        <ele>26.656231</ele>
        <time>2015-01-28T14:11:48Z</time>
      </trkpt>
      <trkpt lat="43.21029" lon="5.36213">
        <ele>26.967381</ele>
        <time>2015-01-28T14:15:02Z</time>
      </trkpt>
      <trkpt lat="43.21027" lon="5.36208">
        <ele>26.63089</ele>
        <time>2015-01-28T14:15:12Z</time>
      </trkpt>
      <trkpt lat="43.21027" lon="5.36201">
        <ele>26.770702</ele>
        <time>2015-01-28T14:15:20Z</time>
      </trkpt>
      <trkpt lat="43.21023" lon="5.36204">
        <ele>25.930862</ele>
        <time>2015-01-28T14:15:29Z</time>
      </trkpt>
      <trkpt lat="43.21019" lon="5.36199">
        <ele>25.104239</ele>
        <time>2015-01-28T14:15:36Z</time>
      </trkpt>
      <trkpt lat="43.21018" lon="5.36191">
        <ele>24.883944</ele>
        <time>2015-01-28T14:15:42Z</time>
      </trkpt>
      <trkpt lat="43.21018" lon="5.36185">
        <ele>24.847267</ele>
        <time>2015-01-28T14:15:49Z</time>
      </trkpt>
      <trkpt lat="43.21014" lon="5.36183">
        <ele>23.839466</ele>
        <time>2015-01-28T14:15:55Z</time>
      </trkpt>
      <trkpt lat="43.21011" lon="5.36177">
        <ele>23.093204</ele>
        <time>2015-01-28T14:16:01Z</time>
      </trkpt>
      <trkpt lat="43.2101" lon="5.36171">
        <ele>22.502491</ele>
        <time>2015-01-28T14:16:08Z</time>
      </trkpt>
      <trkpt lat="43.21007" lon="5.36164">
        <ele>21.918642</ele>
        <time>2015-01-28T14:16:13Z</time>
      </trkpt>
      <trkpt lat="43.21005" lon="5.36159">
        <ele>21.526724</ele>
        <time>2015-01-28T14:16:21Z</time>
      </trkpt>
      <trkpt lat="43.21003" lon="5.36152">
        <ele>21.380808</ele>
        <time>2015-01-28T14:16:27Z</time>
      </trkpt>
      <trkpt lat="43.21002" lon="5.36146">
        <ele>21.26082</ele>
        <time>2015-01-28T14:16:34Z</time>
      </trkpt>
      <trkpt lat="43.21" lon="5.36139">
        <ele>20.940964</ele>
        <time>2015-01-28T14:16:39Z</time>
      </trkpt>
      <trkpt lat="43.20996" lon="5.36134">
        <ele>20.529427</ele>
        <time>2015-01-28T14:16:46Z</time>
      </trkpt>
      <trkpt lat="43.20993" lon="5.36129">
        <ele>20.231373</ele>
        <time>2015-01-28T14:16:51Z</time>
      </trkpt>
      <trkpt lat="43.20994" lon="5.36123">
        <ele>20.565596</ele>
        <time>2015-01-28T14:16:59Z</time>
      </trkpt>
      <trkpt lat="43.20997" lon="5.36118">
        <ele>21.181555</ele>
        <time>2015-01-28T14:17:06Z</time>
      </trkpt>
      <trkpt lat="43.20998" lon="5.36112">
        <ele>21.695265</ele>
        <time>2015-01-28T14:17:10Z</time>
      </trkpt>
      <trkpt lat="43.20999" lon="5.36105">
        <ele>22.036894</ele>
        <time>2015-01-28T14:17:14Z</time>
      </trkpt>
      <trkpt lat="43.20998" lon="5.36099">
        <ele>21.998404</ele>
        <time>2015-01-28T14:17:20Z</time>
      </trkpt>
      <trkpt lat="43.20994" lon="5.36094">
        <ele>21.380754</ele>
        <time>2015-01-28T14:17:25Z</time>
      </trkpt>
      <trkpt lat="43.2099" lon="5.36091">
        <ele>20.618662</ele>
        <time>2015-01-28T14:17:37Z</time>
      </trkpt>
      <trkpt lat="43.20985" lon="5.36088">
        <ele>19.723494</ele>
        <time>2015-01-28T14:17:43Z</time>
      </trkpt>
      <trkpt lat="43.20982" lon="5.36083">
        <ele>19.067896</ele>
        <time>2015-01-28T14:17:52Z</time>
      </trkpt>
      <trkpt lat="43.20978" lon="5.36077">
        <ele>18.905037</ele>
        <time>2015-01-28T14:17:58Z</time>
      </trkpt>
      <trkpt lat="43.20976" lon="5.36071">
        <ele>19.062447</ele>
        <time>2015-01-28T14:18:05Z</time>
      </trkpt>
      <trkpt lat="43.2098" lon="5.36066">
        <ele>20.344486</ele>
        <time>2015-01-28T14:18:10Z</time>
      </trkpt>
      <trkpt lat="43.20982" lon="5.3606">
        <ele>21.324493</ele>
        <time>2015-01-28T14:18:18Z</time>
      </trkpt>
      <trkpt lat="43.2098" lon="5.36054">
        <ele>21.399597</ele>
        <time>2015-01-28T14:21:16Z</time>
      </trkpt>
      <trkpt lat="43.20978" lon="5.36048">
        <ele>21.670685</ele>
        <time>2015-01-28T14:21:25Z</time>
      </trkpt>
      <trkpt lat="43.20979" lon="5.36041">
        <ele>22.589598</ele>
        <time>2015-01-28T14:21:34Z</time>
      </trkpt>
      <trkpt lat="43.20979" lon="5.36034">
        <ele>23.292606</ele>
        <time>2015-01-28T14:21:41Z</time>
      </trkpt>
      <trkpt lat="43.2098" lon="5.36027">
        <ele>24.146988</ele>
        <time>2015-01-28T14:21:46Z</time>
      </trkpt>
      <trkpt lat="43.20982" lon="5.36022">
        <ele>25.14868</ele>
        <time>2015-01-28T14:21:50Z</time>
      </trkpt>
      <trkpt lat="43.20982" lon="5.36015">
        <ele>25.738781</ele>
        <time>2015-01-28T14:21:58Z</time>
      </trkpt>
      <trkpt lat="43.20979" lon="5.36009">
        <ele>25.629799</ele>
        <time>2015-01-28T14:22:06Z</time>
      </trkpt>
      <trkpt lat="43.20977" lon="5.36003">
        <ele>25.579302</ele>
        <time>2015-01-28T14:22:14Z</time>
      </trkpt>
      <trkpt lat="43.20973" lon="5.35998">
        <ele>25.067739</ele>
        <time>2015-01-28T14:22:21Z</time>
      </trkpt>
      <trkpt lat="43.20973" lon="5.35991">
        <ele>25.739117</ele>
        <time>2015-01-28T14:22:28Z</time>
      </trkpt>
      <trkpt lat="43.20973" lon="5.35983">
        <ele>26.407791</ele>
        <time>2015-01-28T14:22:34Z</time>
      </trkpt>
      <trkpt lat="43.20975" lon="5.35977">
        <ele>27.478724</ele>
        <time>2015-01-28T14:22:56Z</time>
      </trkpt>
      <trkpt lat="43.2098" lon="5.35975">
        <ele>28.917416</ele>
        <time>2015-01-28T14:23:21Z</time>
      </trkpt>
      <trkpt lat="43.20983" lon="5.35971">
        <ele>30.388649</ele>
        <time>2015-01-28T14:23:28Z</time>
      </trkpt>
      <trkpt lat="43.20986" lon="5.35965">
        <ele>31.788658</ele>
        <time>2015-01-28T14:23:39Z</time>
      </trkpt>
      <trkpt lat="43.20985" lon="5.35958">
        <ele>32.087524</ele>
        <time>2015-01-28T14:23:51Z</time>
      </trkpt>
      <trkpt lat="43.20986" lon="5.35951">
        <ele>33.123192</ele>
        <time>2015-01-28T14:23:56Z</time>
      </trkpt>
      <trkpt lat="43.20987" lon="5.35944">
        <ele>33.944324</ele>
        <time>2015-01-28T14:24:04Z</time>
      </trkpt>
      <trkpt lat="43.20986" lon="5.35937">
        <ele>34.363369</ele>
        <time>2015-01-28T14:24:10Z</time>
      </trkpt>
      <trkpt lat="43.20987" lon="5.35931">
        <ele>35.135109</ele>
        <time>2015-01-28T14:24:16Z</time>
      </trkpt>
      <trkpt lat="43.20988" lon="5.35924">
        <ele>36.315922</ele>
        <time>2015-01-28T14:24:24Z</time>
      </trkpt>
      <trkpt lat="43.20987" lon="5.35918">
        <ele>36.393421</ele>
        <time>2015-01-28T14:24:38Z</time>
      </trkpt>
      <trkpt lat="43.20989" lon="5.35912">
        <ele>37.101063</ele>
        <time>2015-01-28T14:24:45Z</time>
      </trkpt>
      <trkpt lat="43.2099" lon="5.35905">
        <ele>37.495903</ele>
        <time>2015-01-28T14:24:51Z</time>
      </trkpt>
      <trkpt lat="43.20992" lon="5.35898">
        <ele>37.742413</ele>
        <time>2015-01-28T14:24:58Z</time>
      </trkpt>
      <trkpt lat="43.20993" lon="5.35893">
        <ele>38.241299</ele>
        <time>2015-01-28T14:25:03Z</time>
      </trkpt>
      <trkpt lat="43.20995" lon="5.35886">
        <ele>38.642628</ele>
        <time>2015-01-28T14:25:08Z</time>
      </trkpt>
      <trkpt lat="43.20994" lon="5.35879">
        <ele>38.196774</ele>
        <time>2015-01-28T14:25:13Z</time>
      </trkpt>
      <trkpt lat="43.20996" lon="5.35872">
        <ele>38.680218</ele>
        <time>2015-01-28T14:25:18Z</time>
      </trkpt>
      <trkpt lat="43.20998" lon="5.35866">
        <ele>39.055813</ele>
        <time>2015-01-28T14:25:23Z</time>
      </trkpt>
      <trkpt lat="43.20998" lon="5.3586">
        <ele>39.050396</ele>
        <time>2015-01-28T14:25:28Z</time>
      </trkpt>
      <trkpt lat="43.21" lon="5.35854">
        <ele>39.60759</ele>
        <time>2015-01-28T14:25:35Z</time>
      </trkpt>
      <trkpt lat="43.21003" lon="5.35848">
        <ele>40.369308</ele>
        <time>2015-01-28T14:25:43Z</time>
      </trkpt>
      <trkpt lat="43.21008" lon="5.35844">
        <ele>41.858364</ele>
        <time>2015-01-28T14:25:55Z</time>
      </trkpt>
      <trkpt lat="43.21012" lon="5.35844">
        <ele>43.519207</ele>
        <time>2015-01-28T14:26:00Z</time>
      </trkpt>
      <trkpt lat="43.21016" lon="5.3584">
        <ele>44.688515</ele>
        <time>2015-01-28T14:26:06Z</time>
      </trkpt>
      <trkpt lat="43.21018" lon="5.35834">
        <ele>45.164707</ele>
        <time>2015-01-28T14:26:15Z</time>
      </trkpt>
      <trkpt lat="43.21022" lon="5.3583">
        <ele>46.586273</ele>
        <time>2015-01-28T14:26:21Z</time>
      </trkpt>
      <trkpt lat="43.21025" lon="5.35825">
        <ele>47.634109</ele>
        <time>2015-01-28T14:26:28Z</time>
      </trkpt>
      <trkpt lat="43.21029" lon="5.35821">
        <ele>48.754929</ele>
        <time>2015-01-28T14:26:35Z</time>
      </trkpt>
      <trkpt lat="43.21033" lon="5.35817">
        <ele>50.076996</ele>
        <time>2015-01-28T14:26:40Z</time>
      </trkpt>
      <trkpt lat="43.21037" lon="5.35812">
        <ele>51.200287</ele>
        <time>2015-01-28T14:26:48Z</time>
      </trkpt>
      <trkpt lat="43.2104" lon="5.35807">
        <ele>52.17627</ele>
        <time>2015-01-28T14:26:56Z</time>
      </trkpt>
      <trkpt lat="43.21044" lon="5.35804">
        <ele>53.656296</ele>
        <time>2015-01-28T14:27:09Z</time>
      </trkpt>
      <trkpt lat="43.21049" lon="5.35802">
        <ele>55.231339</ele>
        <time>2015-01-28T14:27:14Z</time>
      </trkpt>
      <trkpt lat="43.21053" lon="5.35797">
        <ele>56.593231</ele>
        <time>2015-01-28T14:27:22Z</time>
      </trkpt>
      <trkpt lat="43.21058" lon="5.35794">
        <ele>58.24556</ele>
        <time>2015-01-28T14:27:40Z</time>
      </trkpt>
      <trkpt lat="43.2106" lon="5.35789">
        <ele>58.958633</ele>
        <time>2015-01-28T14:27:48Z</time>
      </trkpt>
      <trkpt lat="43.21063" lon="5.35783">
        <ele>59.79509</ele>
        <time>2015-01-28T14:27:54Z</time>
      </trkpt>
      <trkpt lat="43.21062" lon="5.35776">
        <ele>59.346268</ele>
        <time>2015-01-28T14:28:12Z</time>
      </trkpt>
      <trkpt lat="43.21062" lon="5.35769">
        <ele>59.042999</ele>
        <time>2015-01-28T14:28:30Z</time>
      </trkpt>
      <trkpt lat="43.21062" lon="5.35763">
        <ele>58.809036</ele>
        <time>2015-01-28T14:28:39Z</time>
      </trkpt>
      <trkpt lat="43.21063" lon="5.35757">
        <ele>58.933258</ele>
        <time>2015-01-28T14:28:55Z</time>
      </trkpt>
      <trkpt lat="43.21059" lon="5.35752">
        <ele>57.531631</ele>
        <time>2015-01-28T14:29:04Z</time>
      </trkpt>
      <trkpt lat="43.21056" lon="5.35746">
        <ele>56.629429</ele>
        <time>2015-01-28T14:29:09Z</time>
      </trkpt>
      <trkpt lat="43.21053" lon="5.35741">
        <ele>56.338921</ele>
        <time>2015-01-28T14:29:14Z</time>
      </trkpt>
      <trkpt lat="43.21053" lon="5.35733">
        <ele>56.683922</ele>
        <time>2015-01-28T14:29:20Z</time>
      </trkpt>
      <trkpt lat="43.21054" lon="5.35727">
        <ele>57.579914</ele>
        <time>2015-01-28T14:29:32Z</time>
      </trkpt>
      <trkpt lat="43.21056" lon="5.35722">
        <ele>58.904842</ele>
        <time>2015-01-28T14:29:42Z</time>
      </trkpt>
      <trkpt lat="43.21059" lon="5.35715">
        <ele>60.324169</ele>
        <time>2015-01-28T14:29:53Z</time>
      </trkpt>
      <trkpt lat="43.21063" lon="5.35711">
        <ele>62.119251</ele>
        <time>2015-01-28T14:30:00Z</time>
      </trkpt>
      <trkpt lat="43.21064" lon="5.35717">
        <ele>61.870781</ele>
        <time>2015-01-28T14:30:11Z</time>
      </trkpt>
      <trkpt lat="43.21063" lon="5.35725">
        <ele>60.811958</ele>
        <time>2015-01-28T14:30:17Z</time>
      </trkpt>
      <trkpt lat="43.21063" lon="5.35731">
        <ele>60.495605</ele>
        <time>2015-01-28T14:30:27Z</time>
      </trkpt>
      <trkpt lat="43.21068" lon="5.35729">
        <ele>62.230114</ele>
        <time>2015-01-28T14:32:04Z</time>
      </trkpt>
      <trkpt lat="43.21072" lon="5.35726">
        <ele>63.901955</ele>
        <time>2015-01-28T14:32:09Z</time>
      </trkpt>
      <trkpt lat="43.21076" lon="5.35722">
        <ele>65.58696</ele>
        <time>2015-01-28T14:32:16Z</time>
      </trkpt>
      <trkpt lat="43.2108" lon="5.35719">
        <ele>67.245987</ele>
        <time>2015-01-28T14:32:54Z</time>
      </trkpt>
      <trkpt lat="43.21083" lon="5.35724">
        <ele>68.078934</ele>
        <time>2015-01-28T14:33:05Z</time>
      </trkpt>
      <trkpt lat="43.21086" lon="5.35728">
        <ele>68.060722</ele>
        <time>2015-01-28T14:33:13Z</time>
      </trkpt>
      <trkpt lat="43.21089" lon="5.35734">
        <ele>67.871277</ele>
        <time>2015-01-28T14:33:21Z</time>
      </trkpt>
      <trkpt lat="43.21092" lon="5.35739">
        <ele>68.043732</ele>
        <time>2015-01-28T14:33:30Z</time>
      </trkpt>
      <trkpt lat="43.21096" lon="5.35743">
        <ele>68.304291</ele>
        <time>2015-01-28T14:33:37Z</time>
      </trkpt>
      <trkpt lat="43.21099" lon="5.35747">
        <ele>68.731956</ele>
        <time>2015-01-28T14:33:46Z</time>
      </trkpt>
      <trkpt lat="43.21104" lon="5.35748">
        <ele>69.412781</ele>
        <time>2015-01-28T14:33:53Z</time>
      </trkpt>
      <trkpt lat="43.21108" lon="5.35751">
        <ele>70.155724</ele>
        <time>2015-01-28T14:34:09Z</time>
      </trkpt>
      <trkpt lat="43.2111" lon="5.35745">
        <ele>70.433899</ele>
        <time>2015-01-28T14:34:24Z</time>
      </trkpt>
      <trkpt lat="43.2111" lon="5.35739">
        <ele>70.245987</ele>
        <time>2015-01-28T14:34:34Z</time>
      </trkpt>
      <trkpt lat="43.2111" lon="5.35732">
        <ele>70.02739</ele>
        <time>2015-01-28T14:34:43Z</time>
      </trkpt>
      <trkpt lat="43.2111" lon="5.35726">
        <ele>69.905052</ele>
        <time>2015-01-28T14:34:52Z</time>
      </trkpt>
      <trkpt lat="43.21111" lon="5.3572">
        <ele>69.823387</ele>
        <time>2015-01-28T14:35:02Z</time>
      </trkpt>
      <trkpt lat="43.21117" lon="5.35718">
        <ele>70.003891</ele>
        <time>2015-01-28T14:38:34Z</time>
      </trkpt>
      <trkpt lat="43.21117" lon="5.35724">
        <ele>70.344078</ele>
        <time>2015-01-28T14:40:48Z</time>
      </trkpt>
      <trkpt lat="43.2112" lon="5.3573">
        <ele>70.915359</ele>
        <time>2015-01-28T14:40:53Z</time>
      </trkpt>
      <trkpt lat="43.21121" lon="5.35736">
        <ele>71.420929</ele>
        <time>2015-01-28T14:40:59Z</time>
      </trkpt>
      <trkpt lat="43.21124" lon="5.35742">
        <ele>72.197632</ele>
        <time>2015-01-28T14:41:09Z</time>
      </trkpt>
      <trkpt lat="43.21126" lon="5.35747">
        <ele>73.004036</ele>
        <time>2015-01-28T14:41:17Z</time>
      </trkpt>
      <trkpt lat="43.2113" lon="5.35752">
        <ele>74.009033</ele>
        <time>2015-01-28T14:41:23Z</time>
      </trkpt>
      <trkpt lat="43.21132" lon="5.35758">
        <ele>74.923294</ele>
        <time>2015-01-28T14:41:29Z</time>
      </trkpt>
      <trkpt lat="43.21133" lon="5.35765">
        <ele>75.77301</ele>
        <time>2015-01-28T14:41:34Z</time>
      </trkpt>
      <trkpt lat="43.21138" lon="5.35766">
        <ele>76.743446</ele>
        <time>2015-01-28T14:41:39Z</time>
      </trkpt>
      <trkpt lat="43.21142" lon="5.35769">
        <ele>77.922966</ele>
        <time>2015-01-28T14:41:45Z</time>
      </trkpt>
      <trkpt lat="43.21146" lon="5.35774">
        <ele>79.256386</ele>
        <time>2015-01-28T14:41:52Z</time>
      </trkpt>
      <trkpt lat="43.21148" lon="5.3578">
        <ele>80.481018</ele>
        <time>2015-01-28T14:41:58Z</time>
      </trkpt>
      <trkpt lat="43.21152" lon="5.35784">
        <ele>81.727859</ele>
        <time>2015-01-28T14:42:05Z</time>
      </trkpt>
      <trkpt lat="43.21154" lon="5.3579">
        <ele>82.930283</ele>
        <time>2015-01-28T14:42:10Z</time>
      </trkpt>
      <trkpt lat="43.21156" lon="5.35796">
        <ele>84.124023</ele>
        <time>2015-01-28T14:42:17Z</time>
      </trkpt>
      <trkpt lat="43.2116" lon="5.35799">
        <ele>85.494743</ele>
        <time>2015-01-28T14:42:23Z</time>
      </trkpt>
      <trkpt lat="43.21164" lon="5.35802">
        <ele>86.865013</ele>
        <time>2015-01-28T14:42:29Z</time>
      </trkpt>
      <trkpt lat="43.21167" lon="5.35807">
        <ele>88.204773</ele>
        <time>2015-01-28T14:42:38Z</time>
      </trkpt>
      <trkpt lat="43.21172" lon="5.35812">
        <ele>89.087883</ele>
        <time>2015-01-28T14:42:44Z</time>
      </trkpt>
      <trkpt lat="43.21175" lon="5.35816">
        <ele>89.827255</ele>
        <time>2015-01-28T14:42:49Z</time>
      </trkpt>
      <trkpt lat="43.21179" lon="5.3582">
        <ele>90.623474</ele>
        <time>2015-01-28T14:42:55Z</time>
      </trkpt>
      <trkpt lat="43.21184" lon="5.35821">
        <ele>91.085907</ele>
        <time>2015-01-28T14:43:03Z</time>
      </trkpt>
      <trkpt lat="43.21188" lon="5.35823">
        <ele>91.696075</ele>
        <time>2015-01-28T14:43:15Z</time>
      </trkpt>
      <trkpt lat="43.21193" lon="5.35825">
        <ele>92.273262</ele>
        <time>2015-01-28T14:43:23Z</time>
      </trkpt>
      <trkpt lat="43.21197" lon="5.35829">
        <ele>93.243103</ele>
        <time>2015-01-28T14:43:32Z</time>
      </trkpt>
      <trkpt lat="43.21201" lon="5.35834">
        <ele>94.471863</ele>
        <time>2015-01-28T14:43:42Z</time>
      </trkpt>
      <trkpt lat="43.21205" lon="5.35836">
        <ele>95.107147</ele>
        <time>2015-01-28T14:43:49Z</time>
      </trkpt>
      <trkpt lat="43.21206" lon="5.35843">
        <ele>95.927872</ele>
        <time>2015-01-28T14:43:58Z</time>
      </trkpt>
      <trkpt lat="43.21208" lon="5.35849">
        <ele>96.786118</ele>
        <time>2015-01-28T14:44:12Z</time>
      </trkpt>
      <trkpt lat="43.21212" lon="5.35853">
        <ele>97.599625</ele>
        <time>2015-01-28T14:44:19Z</time>
      </trkpt>
      <trkpt lat="43.21214" lon="5.3586">
        <ele>98.503227</ele>
        <time>2015-01-28T14:44:28Z</time>
      </trkpt>
      <trkpt lat="43.21219" lon="5.3586">
        <ele>98.984833</ele>
        <time>2015-01-28T14:44:34Z</time>
      </trkpt>
      <trkpt lat="43.21222" lon="5.35866">
        <ele>99.933762</ele>
        <time>2015-01-28T14:44:44Z</time>
      </trkpt>
      <trkpt lat="43.21224" lon="5.35871">
        <ele>100.82933</ele>
        <time>2015-01-28T14:44:52Z</time>
      </trkpt>
      <trkpt lat="43.21225" lon="5.35877">
        <ele>101.715668</ele>
        <time>2015-01-28T14:45:01Z</time>
      </trkpt>
      <trkpt lat="43.21226" lon="5.35884">
        <ele>102.682198</ele>
        <time>2015-01-28T14:45:12Z</time>
      </trkpt>
      <trkpt lat="43.21231" lon="5.35887">
        <ele>103.572998</ele>
        <time>2015-01-28T14:45:21Z</time>
      </trkpt>
      <trkpt lat="43.21236" lon="5.35888">
        <ele>104.350159</ele>
        <time>2015-01-28T14:45:28Z</time>
      </trkpt>
      <trkpt lat="43.2124" lon="5.35891">
        <ele>105.198608</ele>
        <time>2015-01-28T14:47:25Z</time>
      </trkpt>
      <trkpt lat="43.21244" lon="5.35894">
        <ele>106.127449</ele>
        <time>2015-01-28T14:47:42Z</time>
      </trkpt>
      <trkpt lat="43.21247" lon="5.359">
        <ele>107.223869</ele>
        <time>2015-01-28T14:47:50Z</time>
      </trkpt>
      <trkpt lat="43.21251" lon="5.35904">
        <ele>108.125175</ele>
        <time>2015-01-28T14:47:58Z</time>
      </trkpt>
      <trkpt lat="43.21255" lon="5.35908">
        <ele>108.813675</ele>
        <time>2015-01-28T14:48:05Z</time>
      </trkpt>
      <trkpt lat="43.21259" lon="5.35913">
        <ele>109.693741</ele>
        <time>2015-01-28T14:48:12Z</time>
      </trkpt>
      <trkpt lat="43.21261" lon="5.3592">
        <ele>110.306427</ele>
        <time>2015-01-28T14:48:17Z</time>
      </trkpt>
      <trkpt lat="43.21264" lon="5.35925">
        <ele>110.574547</ele>
        <time>2015-01-28T14:48:22Z</time>
      </trkpt>
      <trkpt lat="43.21268" lon="5.3593">
        <ele>111.019852</ele>
        <time>2015-01-28T14:48:28Z</time>
      </trkpt>
      <trkpt lat="43.21271" lon="5.35935">
        <ele>111.619194</ele>
        <time>2015-01-28T14:48:34Z</time>
      </trkpt>
      <trkpt lat="43.21274" lon="5.3594">
        <ele>112.365784</ele>
        <time>2015-01-28T14:48:44Z</time>
      </trkpt>
      <trkpt lat="43.21275" lon="5.35947">
        <ele>113.064423</ele>
        <time>2015-01-28T14:48:51Z</time>
      </trkpt>
      <trkpt lat="43.21278" lon="5.35953">
        <ele>114.009048</ele>
        <time>2015-01-28T14:48:58Z</time>
      </trkpt>
      <trkpt lat="43.2128" lon="5.35959">
        <ele>115.059525</ele>
        <time>2015-01-28T14:49:05Z</time>
      </trkpt>
      <trkpt lat="43.21279" lon="5.35966">
        <ele>115.481255</ele>
        <time>2015-01-28T14:49:11Z</time>
      </trkpt>
      <trkpt lat="43.21279" lon="5.35972">
        <ele>116.213898</ele>
        <time>2015-01-28T14:49:17Z</time>
      </trkpt>
      <trkpt lat="43.2128" lon="5.35978">
        <ele>117.166199</ele>
        <time>2015-01-28T14:49:24Z</time>
      </trkpt>
      <trkpt lat="43.21279" lon="5.35984">
        <ele>117.141037</ele>
        <time>2015-01-28T14:49:33Z</time>
      </trkpt>
      <trkpt lat="43.21281" lon="5.35991">
        <ele>118.779129</ele>
        <time>2015-01-28T14:49:39Z</time>
      </trkpt>
      <trkpt lat="43.21283" lon="5.35997">
        <ele>120.247345</ele>
        <time>2015-01-28T14:49:44Z</time>
      </trkpt>
      <trkpt lat="43.21284" lon="5.36003">
        <ele>121.324577</ele>
        <time>2015-01-28T14:49:48Z</time>
      </trkpt>
      <trkpt lat="43.21286" lon="5.36009">
        <ele>122.52298</ele>
        <time>2015-01-28T14:49:54Z</time>
      </trkpt>
      <trkpt lat="43.21289" lon="5.36015">
        <ele>124.492279</ele>
        <time>2015-01-28T14:50:02Z</time>
      </trkpt>
      <trkpt lat="43.21291" lon="5.3602">
        <ele>126.133919</ele>
        <time>2015-01-28T14:50:09Z</time>
      </trkpt>
      <trkpt lat="43.2129" lon="5.36027">
        <ele>126.327957</ele>
        <time>2015-01-28T14:50:17Z</time>
      </trkpt>
      <trkpt lat="43.21288" lon="5.36033">
        <ele>126.008636</ele>
        <time>2015-01-28T14:50:25Z</time>
      </trkpt>
      <trkpt lat="43.21285" lon="5.36038">
        <ele>125.382599</ele>
        <time>2015-01-28T14:50:33Z</time>
      </trkpt>
      <trkpt lat="43.21283" lon="5.36044">
        <ele>125.11158</ele>
        <time>2015-01-28T14:50:41Z</time>
      </trkpt>
      <trkpt lat="43.21284" lon="5.3605">
        <ele>126.165939</ele>
        <time>2015-01-28T14:50:51Z</time>
      </trkpt>
      <trkpt lat="43.21282" lon="5.36056">
        <ele>126.07515</ele>
        <time>2015-01-28T14:50:58Z</time>
      </trkpt>
      <trkpt lat="43.21279" lon="5.36061">
        <ele>125.100998</ele>
        <time>2015-01-28T14:51:09Z</time>
      </trkpt>
      <trkpt lat="43.21278" lon="5.36068">
        <ele>125.541641</ele>
        <time>2015-01-28T14:51:22Z</time>
      </trkpt>
      <trkpt lat="43.21277" lon="5.36074">
        <ele>125.625198</ele>
        <time>2015-01-28T14:51:29Z</time>
      </trkpt>
      <trkpt lat="43.21274" lon="5.36079">
        <ele>124.698059</ele>
        <time>2015-01-28T14:51:36Z</time>
      </trkpt>
      <trkpt lat="43.21277" lon="5.36084">
        <ele>126.480652</ele>
        <time>2015-01-28T14:51:44Z</time>
      </trkpt>
      <trkpt lat="43.2128" lon="5.3609">
        <ele>127.175598</ele>
        <time>2015-01-28T14:51:54Z</time>
      </trkpt>
      <trkpt lat="43.21282" lon="5.36096">
        <ele>127.531006</ele>
        <time>2015-01-28T14:52:00Z</time>
      </trkpt>
      <trkpt lat="43.21286" lon="5.361">
        <ele>129.12265</ele>
        <time>2015-01-28T14:52:05Z</time>
      </trkpt>
      <trkpt lat="43.21289" lon="5.36106">
        <ele>130.219162</ele>
        <time>2015-01-28T14:52:11Z</time>
      </trkpt>
      <trkpt lat="43.21293" lon="5.36111">
        <ele>131.312958</ele>
        <time>2015-01-28T14:52:18Z</time>
      </trkpt>
      <trkpt lat="43.21295" lon="5.36117">
        <ele>131.873138</ele>
        <time>2015-01-28T14:52:24Z</time>
      </trkpt>
      <trkpt lat="43.21301" lon="5.36115">
        <ele>134.585831</ele>
        <time>2015-01-28T14:52:28Z</time>
      </trkpt>
      <trkpt lat="43.21305" lon="5.36119">
        <ele>136.13649</ele>
        <time>2015-01-28T14:52:32Z</time>
      </trkpt>
      <trkpt lat="43.21308" lon="5.36123">
        <ele>137.483322</ele>
        <time>2015-01-28T14:52:37Z</time>
      </trkpt>
      <trkpt lat="43.21313" lon="5.36125">
        <ele>139.383575</ele>
        <time>2015-01-28T14:52:52Z</time>
      </trkpt>
      <trkpt lat="43.21318" lon="5.36126">
        <ele>141.459869</ele>
        <time>2015-01-28T14:56:53Z</time>
      </trkpt>
      <trkpt lat="43.2132" lon="5.36133">
        <ele>141.815918</ele>
        <time>2015-01-28T14:57:06Z</time>
      </trkpt>
      <trkpt lat="43.21321" lon="5.36139">
        <ele>141.702026</ele>
        <time>2015-01-28T14:57:13Z</time>
      </trkpt>
      <trkpt lat="43.21318" lon="5.36145">
        <ele>139.997803</ele>
        <time>2015-01-28T14:57:20Z</time>
      </trkpt>
      <trkpt lat="43.21315" lon="5.3615">
        <ele>138.029022</ele>
        <time>2015-01-28T14:57:28Z</time>
      </trkpt>
      <trkpt lat="43.21316" lon="5.36156">
        <ele>137.812408</ele>
        <time>2015-01-28T14:57:41Z</time>
      </trkpt>
      <trkpt lat="43.2132" lon="5.36159">
        <ele>139.322327</ele>
        <time>2015-01-28T14:57:48Z</time>
      </trkpt>
      <trkpt lat="43.21323" lon="5.36165">
        <ele>140.307983</ele>
        <time>2015-01-28T14:57:58Z</time>
      </trkpt>
      <trkpt lat="43.21326" lon="5.36169">
        <ele>141.391266</ele>
        <time>2015-01-28T14:58:05Z</time>
      </trkpt>
      <trkpt lat="43.21329" lon="5.36175">
        <ele>142.419998</ele>
        <time>2015-01-28T14:58:10Z</time>
      </trkpt>
      <trkpt lat="43.21331" lon="5.36181">
        <ele>143.068146</ele>
        <time>2015-01-28T14:58:18Z</time>
      </trkpt>
      <trkpt lat="43.21333" lon="5.36187">
        <ele>143.459656</ele>
        <time>2015-01-28T14:58:25Z</time>
      </trkpt>
      <trkpt lat="43.21333" lon="5.36194">
        <ele>142.815689</ele>
        <time>2015-01-28T14:58:37Z</time>
      </trkpt>
      <trkpt lat="43.21329" lon="5.36198">
        <ele>140.879761</ele>
        <time>2015-01-28T14:58:48Z</time>
      </trkpt>
      <trkpt lat="43.21327" lon="5.36205">
        <ele>139.519699</ele>
        <time>2015-01-28T14:58:56Z</time>
      </trkpt>
      <trkpt lat="43.21328" lon="5.36211">
        <ele>139.412613</ele>
        <time>2015-01-28T14:59:04Z</time>
      </trkpt>
      <trkpt lat="43.21324" lon="5.36216">
        <ele>137.634201</ele>
        <time>2015-01-28T14:59:13Z</time>
      </trkpt>
      <trkpt lat="43.21321" lon="5.36221">
        <ele>136.054459</ele>
        <time>2015-01-28T14:59:20Z</time>
      </trkpt>
      <trkpt lat="43.21316" lon="5.36225">
        <ele>133.95192</ele>
        <time>2015-01-28T14:59:34Z</time>
      </trkpt>
      <trkpt lat="43.21318" lon="5.36231">
        <ele>134.296188</ele>
        <time>2015-01-28T14:59:53Z</time>
      </trkpt>
      <trkpt lat="43.21315" lon="5.36236">
        <ele>132.84256</ele>
        <time>2015-01-28T15:00:03Z</time>
      </trkpt>
      <trkpt lat="43.21318" lon="5.36241">
        <ele>133.907471</ele>
        <time>2015-01-28T15:00:13Z</time>
      </trkpt>
      <trkpt lat="43.21319" lon="5.36248">
        <ele>133.64418</ele>
        <time>2015-01-28T15:00:19Z</time>
      </trkpt>
      <trkpt lat="43.21322" lon="5.36252">
        <ele>134.651138</ele>
        <time>2015-01-28T15:00:27Z</time>
      </trkpt>
      <trkpt lat="43.21327" lon="5.36254">
        <ele>136.475128</ele>
        <time>2015-01-28T15:00:33Z</time>
      </trkpt>
      <trkpt lat="43.2133" lon="5.36259">
        <ele>137.721436</ele>
        <time>2015-01-28T15:00:38Z</time>
      </trkpt>
      <trkpt lat="43.21334" lon="5.36261">
        <ele>139.45755</ele>
        <time>2015-01-28T15:00:43Z</time>
      </trkpt>
      <trkpt lat="43.21339" lon="5.36258">
        <ele>141.952271</ele>
        <time>2015-01-28T15:00:51Z</time>
      </trkpt>
      <trkpt lat="43.21344" lon="5.3626">
        <ele>144.359329</ele>
        <time>2015-01-28T15:00:59Z</time>
      </trkpt>
      <trkpt lat="43.21348" lon="5.36267">
        <ele>146.338196</ele>
        <time>2015-01-28T15:01:03Z</time>
      </trkpt>
      <trkpt lat="43.21351" lon="5.36273">
        <ele>147.853302</ele>
        <time>2015-01-28T15:01:08Z</time>
      </trkpt>
      <trkpt lat="43.21352" lon="5.36279">
        <ele>148.082733</ele>
        <time>2015-01-28T15:01:17Z</time>
      </trkpt>
      <trkpt lat="43.21354" lon="5.36286">
        <ele>148.915909</ele>
        <time>2015-01-28T15:01:25Z</time>
      </trkpt>
      <trkpt lat="43.21357" lon="5.36291">
        <ele>150.305084</ele>
        <time>2015-01-28T15:01:29Z</time>
      </trkpt>
      <trkpt lat="43.21362" lon="5.36293">
        <ele>152.364441</ele>
        <time>2015-01-28T15:01:39Z</time>
      </trkpt>
      <trkpt lat="43.21366" lon="5.36297">
        <ele>154.296783</ele>
        <time>2015-01-28T15:01:46Z</time>
      </trkpt>
      <trkpt lat="43.21367" lon="5.36304">
        <ele>154.343781</ele>
        <time>2015-01-28T15:01:53Z</time>
      </trkpt>
      <trkpt lat="43.21366" lon="5.3631">
        <ele>153.877899</ele>
        <time>2015-01-28T15:01:58Z</time>
      </trkpt>
      <trkpt lat="43.21364" lon="5.36316">
        <ele>152.596329</ele>
        <time>2015-01-28T15:02:06Z</time>
      </trkpt>
      <trkpt lat="43.21363" lon="5.36322">
        <ele>152.086639</ele>
        <time>2015-01-28T15:02:11Z</time>
      </trkpt>
      <trkpt lat="43.21361" lon="5.36328">
        <ele>150.966492</ele>
        <time>2015-01-28T15:02:18Z</time>
      </trkpt>
      <trkpt lat="43.21357" lon="5.36332">
        <ele>149.191101</ele>
        <time>2015-01-28T15:02:24Z</time>
      </trkpt>
      <trkpt lat="43.21353" lon="5.36334">
        <ele>147.244736</ele>
        <time>2015-01-28T15:02:38Z</time>
      </trkpt>
      <trkpt lat="43.21348" lon="5.36332">
        <ele>145.172623</ele>
        <time>2015-01-28T15:02:44Z</time>
      </trkpt>
      <trkpt lat="43.21343" lon="5.36333">
        <ele>143.206375</ele>
        <time>2015-01-28T15:02:50Z</time>
      </trkpt>
      <trkpt lat="43.21339" lon="5.36334">
        <ele>141.269867</ele>
        <time>2015-01-28T15:02:59Z</time>
      </trkpt>
      <trkpt lat="43.21334" lon="5.36337">
        <ele>139.433792</ele>
        <time>2015-01-28T15:03:08Z</time>
      </trkpt>
      <trkpt lat="43.21332" lon="5.36343">
        <ele>138.720551</ele>
        <time>2015-01-28T15:03:16Z</time>
      </trkpt>
      <trkpt lat="43.21329" lon="5.36349">
        <ele>137.474472</ele>
        <time>2015-01-28T15:03:24Z</time>
      </trkpt>
      <trkpt lat="43.21328" lon="5.36354">
        <ele>136.839142</ele>
        <time>2015-01-28T15:03:31Z</time>
      </trkpt>
      <trkpt lat="43.21327" lon="5.36362">
        <ele>136.715317</ele>
        <time>2015-01-28T15:03:37Z</time>
      </trkpt>
      <trkpt lat="43.21325" lon="5.36367">
        <ele>135.969666</ele>
        <time>2015-01-28T15:05:54Z</time>
      </trkpt>
      <trkpt lat="43.21326" lon="5.36374">
        <ele>136.553192</ele>
        <time>2015-01-28T15:06:00Z</time>
      </trkpt>
      <trkpt lat="43.21327" lon="5.3638">
        <ele>136.825226</ele>
        <time>2015-01-28T15:06:06Z</time>
      </trkpt>
      <trkpt lat="43.21327" lon="5.36387">
        <ele>136.677628</ele>
        <time>2015-01-28T15:06:13Z</time>
      </trkpt>
      <trkpt lat="43.21331" lon="5.36389">
        <ele>138.702515</ele>
        <time>2015-01-28T15:06:20Z</time>
      </trkpt>
      <trkpt lat="43.21335" lon="5.36395">
        <ele>140.127335</ele>
        <time>2015-01-28T15:07:04Z</time>
      </trkpt>
      <trkpt lat="43.21338" lon="5.36399">
        <ele>141.280487</ele>
        <time>2015-01-28T15:07:11Z</time>
      </trkpt>
      <trkpt lat="43.21339" lon="5.36405">
        <ele>141.60025</ele>
        <time>2015-01-28T15:07:17Z</time>
      </trkpt>
      <trkpt lat="43.21342" lon="5.36411">
        <ele>142.344818</ele>
        <time>2015-01-28T15:07:22Z</time>
      </trkpt>
      <trkpt lat="43.21345" lon="5.36415">
        <ele>143.190857</ele>
        <time>2015-01-28T15:07:30Z</time>
      </trkpt>
      <trkpt lat="43.21349" lon="5.3642">
        <ele>143.15303</ele>
        <time>2015-01-28T15:07:36Z</time>
      </trkpt>
      <trkpt lat="43.21354" lon="5.3642">
        <ele>144.17688</ele>
        <time>2015-01-28T15:07:44Z</time>
      </trkpt>
      <trkpt lat="43.21357" lon="5.36425">
        <ele>143.782959</ele>
        <time>2015-01-28T15:07:54Z</time>
      </trkpt>
      <trkpt lat="43.21362" lon="5.36426">
        <ele>144.647827</ele>
        <time>2015-01-28T15:08:04Z</time>
      </trkpt>
      <trkpt lat="43.21367" lon="5.36424">
        <ele>146.726166</ele>
        <time>2015-01-28T15:08:13Z</time>
      </trkpt>
      <trkpt lat="43.21372" lon="5.36426">
        <ele>147.459625</ele>
        <time>2015-01-28T15:08:18Z</time>
      </trkpt>
      <trkpt lat="43.21376" lon="5.36428">
        <ele>148.16275</ele>
        <time>2015-01-28T15:08:26Z</time>
      </trkpt>
      <trkpt lat="43.2138" lon="5.36424">
        <ele>150.152771</ele>
        <time>2015-01-28T15:08:35Z</time>
      </trkpt>
      <trkpt lat="43.21385" lon="5.36428">
        <ele>150.403137</ele>
        <time>2015-01-28T15:08:41Z</time>
      </trkpt>
      <trkpt lat="43.21389" lon="5.36426">
        <ele>152.14093</ele>
        <time>2015-01-28T15:08:48Z</time>
      </trkpt>
      <trkpt lat="43.21393" lon="5.3643">
        <ele>151.890457</ele>
        <time>2015-01-28T15:08:54Z</time>
      </trkpt>
      <trkpt lat="43.21397" lon="5.36432">
        <ele>152.539856</ele>
        <time>2015-01-28T15:08:59Z</time>
      </trkpt>
      <trkpt lat="43.21402" lon="5.36432">
        <ele>154.044235</ele>
        <time>2015-01-28T15:09:04Z</time>
      </trkpt>
      <trkpt lat="43.21407" lon="5.3643">
        <ele>155.698456</ele>
        <time>2015-01-28T15:09:09Z</time>
      </trkpt>
      <trkpt lat="43.21411" lon="5.36436">
        <ele>155.13002</ele>
        <time>2015-01-28T15:09:14Z</time>
      </trkpt>
      <trkpt lat="43.21415" lon="5.36439">
        <ele>155.263901</ele>
        <time>2015-01-28T15:09:20Z</time>
      </trkpt>
      <trkpt lat="43.2142" lon="5.36441">
        <ele>156.674072</ele>
        <time>2015-01-28T15:09:28Z</time>
      </trkpt>
      <trkpt lat="43.21424" lon="5.36445">
        <ele>157.405853</ele>
        <time>2015-01-28T15:09:35Z</time>
      </trkpt>
      <trkpt lat="43.21424" lon="5.36453">
        <ele>155.497513</ele>
        <time>2015-01-28T15:09:40Z</time>
      </trkpt>
      <trkpt lat="43.21425" lon="5.36459">
        <ele>154.349625</ele>
        <time>2015-01-28T15:09:45Z</time>
      </trkpt>
      <trkpt lat="43.2143" lon="5.36461">
        <ele>156.370422</ele>
        <time>2015-01-28T15:09:51Z</time>
      </trkpt>
      <trkpt lat="43.21434" lon="5.36466">
        <ele>156.860199</ele>
        <time>2015-01-28T15:09:57Z</time>
      </trkpt>
      <trkpt lat="43.21436" lon="5.36472">
        <ele>155.898834</ele>
        <time>2015-01-28T15:10:02Z</time>
      </trkpt>
      <trkpt lat="43.21438" lon="5.36478">
        <ele>155.089645</ele>
        <time>2015-01-28T15:10:08Z</time>
      </trkpt>
      <trkpt lat="43.2144" lon="5.36485">
        <ele>154.49968</ele>
        <time>2015-01-28T15:10:14Z</time>
      </trkpt>
      <trkpt lat="43.21438" lon="5.36491">
        <ele>151.964966</ele>
        <time>2015-01-28T15:10:20Z</time>
      </trkpt>
      <trkpt lat="43.21435" lon="5.36497">
        <ele>148.940063</ele>
        <time>2015-01-28T15:10:25Z</time>
      </trkpt>
      <trkpt lat="43.21436" lon="5.36503">
        <ele>147.512421</ele>
        <time>2015-01-28T15:10:31Z</time>
      </trkpt>
      <trkpt lat="43.21438" lon="5.36509">
        <ele>146.728012</ele>
        <time>2015-01-28T15:10:36Z</time>
      </trkpt>
      <trkpt lat="43.21441" lon="5.36514">
        <ele>146.974274</ele>
        <time>2015-01-28T15:10:41Z</time>
      </trkpt>
      <trkpt lat="43.21445" lon="5.36518">
        <ele>147.71376</ele>
        <time>2015-01-28T15:10:48Z</time>
      </trkpt>
      <trkpt lat="43.21449" lon="5.36522">
        <ele>148.213226</ele>
        <time>2015-01-28T15:10:56Z</time>
      </trkpt>
      <trkpt lat="43.21452" lon="5.36526">
        <ele>148.756714</ele>
        <time>2015-01-28T15:11:01Z</time>
      </trkpt>
      <trkpt lat="43.21455" lon="5.36532">
        <ele>148.207184</ele>
        <time>2015-01-28T15:11:08Z</time>
      </trkpt>
      <trkpt lat="43.21456" lon="5.36538">
        <ele>146.791946</ele>
        <time>2015-01-28T15:11:13Z</time>
      </trkpt>
      <trkpt lat="43.21459" lon="5.36543">
        <ele>147.088867</ele>
        <time>2015-01-28T15:11:18Z</time>
      </trkpt>
      <trkpt lat="43.21462" lon="5.36548">
        <ele>147.142731</ele>
        <time>2015-01-28T15:11:23Z</time>
      </trkpt>
      <trkpt lat="43.21467" lon="5.36552">
        <ele>148.344742</ele>
        <time>2015-01-28T15:11:29Z</time>
      </trkpt>
      <trkpt lat="43.21471" lon="5.36553">
        <ele>150.270386</ele>
        <time>2015-01-28T15:11:34Z</time>
      </trkpt>
      <trkpt lat="43.21475" lon="5.36557">
        <ele>151.190842</ele>
        <time>2015-01-28T15:11:41Z</time>
      </trkpt>
      <trkpt lat="43.21478" lon="5.36564">
        <ele>150.357971</ele>
        <time>2015-01-28T15:11:46Z</time>
      </trkpt>
      <trkpt lat="43.2148" lon="5.36571">
        <ele>149.305939</ele>
        <time>2015-01-28T15:11:51Z</time>
      </trkpt>
      <trkpt lat="43.21484" lon="5.36575">
        <ele>150.152374</ele>
        <time>2015-01-28T15:11:56Z</time>
      </trkpt>
      <trkpt lat="43.21487" lon="5.36579">
        <ele>150.960648</ele>
        <time>2015-01-28T15:12:03Z</time>
      </trkpt>
      <trkpt lat="43.21489" lon="5.36585">
        <ele>150.172852</ele>
        <time>2015-01-28T15:12:10Z</time>
      </trkpt>
      <trkpt lat="43.21489" lon="5.36591">
        <ele>149.182129</ele>
        <time>2015-01-28T15:12:22Z</time>
      </trkpt>
      <trkpt lat="43.21487" lon="5.36597">
        <ele>147.108536</ele>
        <time>2015-01-28T15:12:28Z</time>
      </trkpt>
      <trkpt lat="43.21486" lon="5.36603">
        <ele>145.547089</ele>
        <time>2015-01-28T15:12:32Z</time>
      </trkpt>
      <trkpt lat="43.21487" lon="5.36609">
        <ele>144.593887</ele>
        <time>2015-01-28T15:12:38Z</time>
      </trkpt>
      <trkpt lat="43.21487" lon="5.36616">
        <ele>143.897812</ele>
        <time>2015-01-28T15:12:45Z</time>
      </trkpt>
      <trkpt lat="43.21488" lon="5.36622">
        <ele>142.950089</ele>
        <time>2015-01-28T15:12:51Z</time>
      </trkpt>
      <trkpt lat="43.21488" lon="5.36629">
        <ele>141.899109</ele>
        <time>2015-01-28T15:12:58Z</time>
      </trkpt>
      <trkpt lat="43.21489" lon="5.36636">
        <ele>140.94281</ele>
        <time>2015-01-28T15:13:05Z</time>
      </trkpt>
      <trkpt lat="43.21489" lon="5.36642">
        <ele>139.853149</ele>
        <time>2015-01-28T15:13:12Z</time>
      </trkpt>
      <trkpt lat="43.21489" lon="5.3665">
        <ele>138.783691</ele>
        <time>2015-01-28T15:13:18Z</time>
      </trkpt>
      <trkpt lat="43.21491" lon="5.36656">
        <ele>138.65387</ele>
        <time>2015-01-28T15:13:25Z</time>
      </trkpt>
      <trkpt lat="43.2149" lon="5.36662">
        <ele>136.850632</ele>
        <time>2015-01-28T15:13:50Z</time>
      </trkpt>
      <trkpt lat="43.21493" lon="5.36665">
        <ele>137.98201</ele>
        <time>2015-01-28T15:16:15Z</time>
      </trkpt>
      <trkpt lat="43.21498" lon="5.36665">
        <ele>140.518539</ele>
        <time>2015-01-28T15:24:31Z</time>
      </trkpt>
      <trkpt lat="43.21503" lon="5.36666">
        <ele>142.190475</ele>
        <time>2015-01-28T15:24:37Z</time>
      </trkpt>
      <trkpt lat="43.21507" lon="5.36668">
        <ele>143.053131</ele>
        <time>2015-01-28T15:24:43Z</time>
      </trkpt>
      <trkpt lat="43.21512" lon="5.36669">
        <ele>144.513824</ele>
        <time>2015-01-28T15:24:49Z</time>
      </trkpt>
      <trkpt lat="43.21517" lon="5.36668">
        <ele>146.421753</ele>
        <time>2015-01-28T15:24:55Z</time>
      </trkpt>
      <trkpt lat="43.21522" lon="5.36669">
        <ele>147.461594</ele>
        <time>2015-01-28T15:25:01Z</time>
      </trkpt>
      <trkpt lat="43.21526" lon="5.36672">
        <ele>148.139465</ele>
        <time>2015-01-28T15:25:06Z</time>
      </trkpt>
      <trkpt lat="43.21531" lon="5.36672">
        <ele>149.600983</ele>
        <time>2015-01-28T15:25:13Z</time>
      </trkpt>
      <trkpt lat="43.21535" lon="5.36674">
        <ele>150.470261</ele>
        <time>2015-01-28T15:25:20Z</time>
      </trkpt>
      <trkpt lat="43.2154" lon="5.36674">
        <ele>152.13443</ele>
        <time>2015-01-28T15:25:25Z</time>
      </trkpt>
      <trkpt lat="43.21543" lon="5.3668">
        <ele>151.265823</ele>
        <time>2015-01-28T15:25:32Z</time>
      </trkpt>
      <trkpt lat="43.21543" lon="5.36686">
        <ele>149.087326</ele>
        <time>2015-01-28T15:25:37Z</time>
      </trkpt>
      <trkpt lat="43.21542" lon="5.36693">
        <ele>146.721024</ele>
        <time>2015-01-28T15:25:44Z</time>
      </trkpt>
      <trkpt lat="43.21541" lon="5.36699">
        <ele>144.33551</ele>
        <time>2015-01-28T15:25:50Z</time>
      </trkpt>
      <trkpt lat="43.21543" lon="5.36705">
        <ele>143.205307</ele>
        <time>2015-01-28T15:25:55Z</time>
      </trkpt>
      <trkpt lat="43.21547" lon="5.36709">
        <ele>143.154221</ele>
        <time>2015-01-28T15:26:01Z</time>
      </trkpt>
      <trkpt lat="43.21551" lon="5.36713">
        <ele>142.86528</ele>
        <time>2015-01-28T15:26:06Z</time>
      </trkpt>
      <trkpt lat="43.21556" lon="5.36713">
        <ele>144.245392</ele>
        <time>2015-01-28T15:26:12Z</time>
      </trkpt>
      <trkpt lat="43.21561" lon="5.36715">
        <ele>144.954407</ele>
        <time>2015-01-28T15:26:19Z</time>
      </trkpt>
      <trkpt lat="43.21565" lon="5.36712">
        <ele>147.147461</ele>
        <time>2015-01-28T15:26:25Z</time>
      </trkpt>
      <trkpt lat="43.2157" lon="5.36709">
        <ele>149.494781</ele>
        <time>2015-01-28T15:26:32Z</time>
      </trkpt>
      <trkpt lat="43.21575" lon="5.36708">
        <ele>151.255783</ele>
        <time>2015-01-28T15:26:37Z</time>
      </trkpt>
      <trkpt lat="43.21579" lon="5.36711">
        <ele>151.463531</ele>
        <time>2015-01-28T15:26:43Z</time>
      </trkpt>
      <trkpt lat="43.21582" lon="5.36716">
        <ele>150.164093</ele>
        <time>2015-01-28T15:26:49Z</time>
      </trkpt>
      <trkpt lat="43.21583" lon="5.36723">
        <ele>148.115814</ele>
        <time>2015-01-28T15:26:54Z</time>
      </trkpt>
      <trkpt lat="43.21586" lon="5.36729">
        <ele>146.958038</ele>
        <time>2015-01-28T15:26:59Z</time>
      </trkpt>
      <trkpt lat="43.21589" lon="5.36734">
        <ele>146.596527</ele>
        <time>2015-01-28T15:27:07Z</time>
      </trkpt>
      <trkpt lat="43.21594" lon="5.36735">
        <ele>148.701996</ele>
        <time>2015-01-28T15:27:13Z</time>
      </trkpt>
      <trkpt lat="43.21598" lon="5.36739">
        <ele>148.663574</ele>
        <time>2015-01-28T15:27:19Z</time>
      </trkpt>
      <trkpt lat="43.21602" lon="5.36744">
        <ele>148.48851</ele>
        <time>2015-01-28T15:27:26Z</time>
      </trkpt>
      <trkpt lat="43.21605" lon="5.36748">
        <ele>147.943405</ele>
        <time>2015-01-28T15:28:09Z</time>
      </trkpt>
      <trkpt lat="43.21607" lon="5.36754">
        <ele>147.149033</ele>
        <time>2015-01-28T15:28:16Z</time>
      </trkpt>
      <trkpt lat="43.21611" lon="5.36757">
        <ele>147.863556</ele>
        <time>2015-01-28T15:28:34Z</time>
      </trkpt>
      <trkpt lat="43.21616" lon="5.3676">
        <ele>148.90036</ele>
        <time>2015-01-28T15:29:00Z</time>
      </trkpt>
      <trkpt lat="43.21619" lon="5.36765">
        <ele>149.1763</ele>
        <time>2015-01-28T15:29:16Z</time>
      </trkpt>
      <trkpt lat="43.21623" lon="5.36769">
        <ele>149.62001</ele>
        <time>2015-01-28T15:29:22Z</time>
      </trkpt>
      <trkpt lat="43.21627" lon="5.36773">
        <ele>150.319305</ele>
        <time>2015-01-28T15:29:28Z</time>
      </trkpt>
      <trkpt lat="43.21631" lon="5.36777">
        <ele>150.462463</ele>
        <time>2015-01-28T15:29:32Z</time>
      </trkpt>
      <trkpt lat="43.21635" lon="5.36779">
        <ele>151.690964</ele>
        <time>2015-01-28T15:29:39Z</time>
      </trkpt>
      <trkpt lat="43.2164" lon="5.3678">
        <ele>153.320206</ele>
        <time>2015-01-28T15:29:43Z</time>
      </trkpt>
      <trkpt lat="43.21645" lon="5.36781">
        <ele>154.458313</ele>
        <time>2015-01-28T15:29:52Z</time>
      </trkpt>
      <trkpt lat="43.21648" lon="5.36787">
        <ele>154.126236</ele>
        <time>2015-01-28T15:29:59Z</time>
      </trkpt>
      <trkpt lat="43.2165" lon="5.36792">
        <ele>153.416092</ele>
        <time>2015-01-28T15:30:05Z</time>
      </trkpt>
      <trkpt lat="43.21655" lon="5.3679">
        <ele>155.594772</ele>
        <time>2015-01-28T15:30:11Z</time>
      </trkpt>
      <trkpt lat="43.21652" lon="5.36795">
        <ele>152.976456</ele>
        <time>2015-01-28T15:30:30Z</time>
      </trkpt>
      <trkpt lat="43.21649" lon="5.368">
        <ele>150.406006</ele>
        <time>2015-01-28T15:30:39Z</time>
      </trkpt>
      <trkpt lat="43.21656" lon="5.36792">
        <ele>155.543518</ele>
        <time>2015-01-28T15:30:48Z</time>
      </trkpt>
      <trkpt lat="43.21661" lon="5.36788">
        <ele>158.551422</ele>
        <time>2015-01-28T15:31:04Z</time>
      </trkpt>
      <trkpt lat="43.21661" lon="5.36794">
        <ele>156.403061</ele>
        <time>2015-01-28T15:34:14Z</time>
      </trkpt>
      <trkpt lat="43.21663" lon="5.368">
        <ele>155.654907</ele>
        <time>2015-01-28T15:34:26Z</time>
      </trkpt>
      <trkpt lat="43.21668" lon="5.36802">
        <ele>156.637817</ele>
        <time>2015-01-28T15:34:34Z</time>
      </trkpt>
      <trkpt lat="43.2167" lon="5.36807">
        <ele>156.53949</ele>
        <time>2015-01-28T15:34:44Z</time>
      </trkpt>
      <trkpt lat="43.21674" lon="5.36812">
        <ele>156.750046</ele>
        <time>2015-01-28T15:35:15Z</time>
      </trkpt>
      <trkpt lat="43.21676" lon="5.36818">
        <ele>155.781586</ele>
        <time>2015-01-28T15:35:25Z</time>
      </trkpt>
      <trkpt lat="43.21671" lon="5.3682">
        <ele>152.748383</ele>
        <time>2015-01-28T15:35:41Z</time>
      </trkpt>
      <trkpt lat="43.21667" lon="5.36819">
        <ele>150.624542</ele>
        <time>2015-01-28T15:35:47Z</time>
      </trkpt>
      <trkpt lat="43.21662" lon="5.36821">
        <ele>148.379059</ele>
        <time>2015-01-28T15:35:54Z</time>
      </trkpt>
      <trkpt lat="43.21658" lon="5.36824">
        <ele>146.139435</ele>
        <time>2015-01-28T15:36:05Z</time>
      </trkpt>
      <trkpt lat="43.21654" lon="5.36821">
        <ele>145.651337</ele>
        <time>2015-01-28T15:36:12Z</time>
      </trkpt>
      <trkpt lat="43.21651" lon="5.36827">
        <ele>143.072266</ele>
        <time>2015-01-28T15:36:22Z</time>
      </trkpt>
      <trkpt lat="43.2165" lon="5.36834">
        <ele>140.943176</ele>
        <time>2015-01-28T15:36:27Z</time>
      </trkpt>
      <trkpt lat="43.21646" lon="5.36838">
        <ele>140.582169</ele>
        <time>2015-01-28T15:36:31Z</time>
      </trkpt>
      <trkpt lat="43.21642" lon="5.3684">
        <ele>139.928146</ele>
        <time>2015-01-28T15:36:41Z</time>
      </trkpt>
      <trkpt lat="43.21637" lon="5.36842">
        <ele>138.586792</ele>
        <time>2015-01-28T15:37:00Z</time>
      </trkpt>
      <trkpt lat="43.21634" lon="5.36846">
        <ele>138.72467</ele>
        <time>2015-01-28T15:37:04Z</time>
      </trkpt>
      <trkpt lat="43.21633" lon="5.36853">
        <ele>139.795944</ele>
        <time>2015-01-28T15:37:09Z</time>
      </trkpt>
      <trkpt lat="43.2163" lon="5.36859">
        <ele>140.173752</ele>
        <time>2015-01-28T15:37:15Z</time>
      </trkpt>
      <trkpt lat="43.2163" lon="5.36865">
        <ele>141.511002</ele>
        <time>2015-01-28T15:37:23Z</time>
      </trkpt>
      <trkpt lat="43.21629" lon="5.36871">
        <ele>142.403107</ele>
        <time>2015-01-28T15:37:31Z</time>
      </trkpt>
      <trkpt lat="43.21631" lon="5.36877">
        <ele>144.327591</ele>
        <time>2015-01-28T15:37:39Z</time>
      </trkpt>
      <trkpt lat="43.2163" lon="5.36883">
        <ele>145.481415</ele>
        <time>2015-01-28T15:37:51Z</time>
      </trkpt>
      <trkpt lat="43.21626" lon="5.36886">
        <ele>144.761566</ele>
        <time>2015-01-28T15:38:18Z</time>
      </trkpt>
      <trkpt lat="43.21623" lon="5.36891">
        <ele>144.91925</ele>
        <time>2015-01-28T15:38:23Z</time>
      </trkpt>
      <trkpt lat="43.2162" lon="5.36896">
        <ele>144.786346</ele>
        <time>2015-01-28T15:38:28Z</time>
      </trkpt>
      <trkpt lat="43.21619" lon="5.36903">
        <ele>145.783875</ele>
        <time>2015-01-28T15:38:35Z</time>
      </trkpt>
      <trkpt lat="43.21618" lon="5.36909">
        <ele>146.856934</ele>
        <time>2015-01-28T15:38:42Z</time>
      </trkpt>
      <trkpt lat="43.21616" lon="5.36916">
        <ele>147.331314</ele>
        <time>2015-01-28T15:38:48Z</time>
      </trkpt>
      <trkpt lat="43.21613" lon="5.36922">
        <ele>146.788666</ele>
        <time>2015-01-28T15:38:54Z</time>
      </trkpt>
      <trkpt lat="43.21611" lon="5.36927">
        <ele>145.817673</ele>
        <time>2015-01-28T15:39:04Z</time>
      </trkpt>
      <trkpt lat="43.21612" lon="5.36934">
        <ele>146.136719</ele>
        <time>2015-01-28T15:39:20Z</time>
      </trkpt>
      <trkpt lat="43.21611" lon="5.3694">
        <ele>145.864746</ele>
        <time>2015-01-28T15:39:28Z</time>
      </trkpt>
      <trkpt lat="43.21608" lon="5.36945">
        <ele>144.900803</ele>
        <time>2015-01-28T15:39:40Z</time>
      </trkpt>
      <trkpt lat="43.21608" lon="5.36952">
        <ele>144.678268</ele>
        <time>2015-01-28T15:40:08Z</time>
      </trkpt>
      <trkpt lat="43.21603" lon="5.36949">
        <ele>143.051819</ele>
        <time>2015-01-28T15:41:29Z</time>
      </trkpt>
      <trkpt lat="43.21598" lon="5.36947">
        <ele>140.915649</ele>
        <time>2015-01-28T15:42:54Z</time>
      </trkpt>
      <trkpt lat="43.21596" lon="5.36953">
        <ele>140.17868</ele>
        <time>2015-01-28T15:54:32Z</time>
      </trkpt>
      <trkpt lat="43.21591" lon="5.36954">
        <ele>138.447083</ele>
        <time>2015-01-28T15:55:00Z</time>
      </trkpt>
      <trkpt lat="43.21594" lon="5.36959">
        <ele>139.425949</ele>
        <time>2015-01-28T15:55:08Z</time>
      </trkpt>
      <trkpt lat="43.21596" lon="5.36965">
        <ele>140.230576</ele>
        <time>2015-01-28T15:55:23Z</time>
      </trkpt>
      <trkpt lat="43.216" lon="5.36969">
        <ele>141.852936</ele>
        <time>2015-01-28T15:55:32Z</time>
      </trkpt>
      <trkpt lat="43.21604" lon="5.36973">
        <ele>143.410812</ele>
        <time>2015-01-28T15:55:38Z</time>
      </trkpt>
      <trkpt lat="43.21608" lon="5.36977">
        <ele>144.892609</ele>
        <time>2015-01-28T15:55:42Z</time>
      </trkpt>
      <trkpt lat="43.21611" lon="5.36984">
        <ele>145.890533</ele>
        <time>2015-01-28T15:55:48Z</time>
      </trkpt>
      <trkpt lat="43.21613" lon="5.36989">
        <ele>146.593597</ele>
        <time>2015-01-28T15:55:51Z</time>
      </trkpt>
      <trkpt lat="43.21617" lon="5.36995">
        <ele>148.253723</ele>
        <time>2015-01-28T15:55:55Z</time>
      </trkpt>
      <trkpt lat="43.2162" lon="5.37">
        <ele>149.304565</ele>
        <time>2015-01-28T15:55:59Z</time>
      </trkpt>
      <trkpt lat="43.21622" lon="5.37007">
        <ele>147.897919</ele>
        <time>2015-01-28T15:56:04Z</time>
      </trkpt>
      <trkpt lat="43.21624" lon="5.37013">
        <ele>146.484924</ele>
        <time>2015-01-28T15:56:11Z</time>
      </trkpt>
      <trkpt lat="43.21627" lon="5.37018">
        <ele>145.81189</ele>
        <time>2015-01-28T15:56:16Z</time>
      </trkpt>
      <trkpt lat="43.21629" lon="5.37024">
        <ele>144.531372</ele>
        <time>2015-01-28T15:56:22Z</time>
      </trkpt>
      <trkpt lat="43.21632" lon="5.37029">
        <ele>144.085571</ele>
        <time>2015-01-28T15:56:27Z</time>
      </trkpt>
      <trkpt lat="43.21636" lon="5.37032">
        <ele>144.825378</ele>
        <time>2015-01-28T15:56:34Z</time>
      </trkpt>
      <trkpt lat="43.2164" lon="5.37035">
        <ele>145.256226</ele>
        <time>2015-01-28T15:56:48Z</time>
      </trkpt>
      <trkpt lat="43.21644" lon="5.37039">
        <ele>145.69455</ele>
        <time>2015-01-28T15:57:01Z</time>
      </trkpt>
      <trkpt lat="43.21649" lon="5.37041">
        <ele>146.619232</ele>
        <time>2015-01-28T15:57:06Z</time>
      </trkpt>
      <trkpt lat="43.21653" lon="5.37044">
        <ele>147.227539</ele>
        <time>2015-01-28T15:57:11Z</time>
      </trkpt>
      <trkpt lat="43.21656" lon="5.37039">
        <ele>150.234192</ele>
        <time>2015-01-28T15:57:17Z</time>
      </trkpt>
      <trkpt lat="43.21661" lon="5.37037">
        <ele>152.883881</ele>
        <time>2015-01-28T15:57:23Z</time>
      </trkpt>
      <trkpt lat="43.21665" lon="5.37042">
        <ele>152.854706</ele>
        <time>2015-01-28T15:57:27Z</time>
      </trkpt>
      <trkpt lat="43.21671" lon="5.37043">
        <ele>155.28775</ele>
        <time>2015-01-28T15:57:31Z</time>
      </trkpt>
      <trkpt lat="43.21676" lon="5.37043">
        <ele>157.983185</ele>
        <time>2015-01-28T15:57:36Z</time>
      </trkpt>
      <trkpt lat="43.2168" lon="5.37048">
        <ele>158.474182</ele>
        <time>2015-01-28T15:57:41Z</time>
      </trkpt>
      <trkpt lat="43.21683" lon="5.37054">
        <ele>158.399109</ele>
        <time>2015-01-28T15:57:45Z</time>
      </trkpt>
      <trkpt lat="43.21685" lon="5.37059">
        <ele>157.332962</ele>
        <time>2015-01-28T15:57:49Z</time>
      </trkpt>
      <trkpt lat="43.21687" lon="5.37065">
        <ele>156.403702</ele>
        <time>2015-01-28T15:57:54Z</time>
      </trkpt>
      <trkpt lat="43.21689" lon="5.37072">
        <ele>154.609253</ele>
        <time>2015-01-28T15:58:00Z</time>
      </trkpt>
      <trkpt lat="43.21693" lon="5.37075">
        <ele>156.000626</ele>
        <time>2015-01-28T15:58:16Z</time>
      </trkpt>
      <trkpt lat="43.21698" lon="5.37077">
        <ele>157.154846</ele>
        <time>2015-01-28T15:58:21Z</time>
      </trkpt>
      <trkpt lat="43.217" lon="5.37084">
        <ele>155.906647</ele>
        <time>2015-01-28T15:58:28Z</time>
      </trkpt>
      <trkpt lat="43.21701" lon="5.37091">
        <ele>156.036804</ele>
        <time>2015-01-28T15:58:34Z</time>
      </trkpt>
      <trkpt lat="43.21705" lon="5.37095">
        <ele>157.973419</ele>
        <time>2015-01-28T15:58:39Z</time>
      </trkpt>
      <trkpt lat="43.21707" lon="5.37101">
        <ele>158.73465</ele>
        <time>2015-01-28T15:58:45Z</time>
      </trkpt>
      <trkpt lat="43.21706" lon="5.37107">
        <ele>157.541748</ele>
        <time>2015-01-28T15:58:50Z</time>
      </trkpt>
      <trkpt lat="43.21706" lon="5.37114">
        <ele>156.949799</ele>
        <time>2015-01-28T15:58:54Z</time>
      </trkpt>
      <trkpt lat="43.21704" lon="5.3712">
        <ele>155.259354</ele>
        <time>2015-01-28T15:58:59Z</time>
      </trkpt>
      <trkpt lat="43.21705" lon="5.37127">
        <ele>155.568573</ele>
        <time>2015-01-28T15:59:05Z</time>
      </trkpt>
      <trkpt lat="43.21705" lon="5.37134">
        <ele>154.965912</ele>
        <time>2015-01-28T15:59:09Z</time>
      </trkpt>
      <trkpt lat="43.21703" lon="5.3714">
        <ele>153.305573</ele>
        <time>2015-01-28T15:59:13Z</time>
      </trkpt>
      <trkpt lat="43.21702" lon="5.37147">
        <ele>152.215637</ele>
        <time>2015-01-28T15:59:25Z</time>
      </trkpt>
      <trkpt lat="43.21705" lon="5.37152">
        <ele>153.681412</ele>
        <time>2015-01-28T15:59:33Z</time>
      </trkpt>
      <trkpt lat="43.21709" lon="5.37157">
        <ele>155.455139</ele>
        <time>2015-01-28T15:59:38Z</time>
      </trkpt>
      <trkpt lat="43.21713" lon="5.37161">
        <ele>157.394531</ele>
        <time>2015-01-28T15:59:44Z</time>
      </trkpt>
      <trkpt lat="43.21716" lon="5.37169">
        <ele>159.020233</ele>
        <time>2015-01-28T15:59:49Z</time>
      </trkpt>
      <trkpt lat="43.21719" lon="5.37174">
        <ele>161.052689</ele>
        <time>2015-01-28T15:59:54Z</time>
      </trkpt>
      <trkpt lat="43.21719" lon="5.37181">
        <ele>161.096268</ele>
        <time>2015-01-28T15:59:59Z</time>
      </trkpt>
      <trkpt lat="43.21718" lon="5.37187">
        <ele>161.154495</ele>
        <time>2015-01-28T16:00:04Z</time>
      </trkpt>
      <trkpt lat="43.21715" lon="5.37193">
        <ele>159.786057</ele>
        <time>2015-01-28T16:00:12Z</time>
      </trkpt>
      <trkpt lat="43.21713" lon="5.37199">
        <ele>158.851105</ele>
        <time>2015-01-28T16:00:19Z</time>
      </trkpt>
      <trkpt lat="43.2171" lon="5.37203">
        <ele>157.498978</ele>
        <time>2015-01-28T16:00:28Z</time>
      </trkpt>
      <trkpt lat="43.21711" lon="5.3721">
        <ele>158.468063</ele>
        <time>2015-01-28T16:00:40Z</time>
      </trkpt>
      <trkpt lat="43.21708" lon="5.37215">
        <ele>157.183472</ele>
        <time>2015-01-28T16:00:51Z</time>
      </trkpt>
      <trkpt lat="43.21711" lon="5.3722">
        <ele>158.835266</ele>
        <time>2015-01-28T16:00:58Z</time>
      </trkpt>
      <trkpt lat="43.21707" lon="5.37224">
        <ele>157.458649</ele>
        <time>2015-01-28T16:01:08Z</time>
      </trkpt>
      <trkpt lat="43.21706" lon="5.3723">
        <ele>157.060944</ele>
        <time>2015-01-28T16:01:25Z</time>
      </trkpt>
      <trkpt lat="43.21705" lon="5.37237">
        <ele>157.3927</ele>
        <time>2015-01-28T16:01:32Z</time>
      </trkpt>
      <trkpt lat="43.21702" lon="5.37241">
        <ele>156.106949</ele>
        <time>2015-01-28T16:01:40Z</time>
      </trkpt>
      <trkpt lat="43.217" lon="5.37248">
        <ele>155.873779</ele>
        <time>2015-01-28T16:01:55Z</time>
      </trkpt>
      <trkpt lat="43.217" lon="5.37254">
        <ele>155.203262</ele>
        <time>2015-01-28T16:02:06Z</time>
      </trkpt>
      <trkpt lat="43.21699" lon="5.3726">
        <ele>153.344345</ele>
        <time>2015-01-28T16:02:19Z</time>
      </trkpt>
      <trkpt lat="43.21698" lon="5.37267">
        <ele>151.531281</ele>
        <time>2015-01-28T16:02:25Z</time>
      </trkpt>
      <trkpt lat="43.21698" lon="5.37273">
        <ele>149.912445</ele>
        <time>2015-01-28T16:02:32Z</time>
      </trkpt>
      <trkpt lat="43.21694" lon="5.37278">
        <ele>146.901749</ele>
        <time>2015-01-28T16:02:38Z</time>
      </trkpt>
      <trkpt lat="43.21691" lon="5.37283">
        <ele>144.140564</ele>
        <time>2015-01-28T16:02:46Z</time>
      </trkpt>
      <trkpt lat="43.21692" lon="5.37291">
        <ele>142.892273</ele>
        <time>2015-01-28T16:02:54Z</time>
      </trkpt>
      <trkpt lat="43.21695" lon="5.37296">
        <ele>143.234512</ele>
        <time>2015-01-28T16:03:01Z</time>
      </trkpt>
      <trkpt lat="43.217" lon="5.37298">
        <ele>145.240845</ele>
        <time>2015-01-28T16:03:07Z</time>
      </trkpt>
      <trkpt lat="43.21704" lon="5.37297">
        <ele>147.965607</ele>
        <time>2015-01-28T16:03:13Z</time>
      </trkpt>
      <trkpt lat="43.21709" lon="5.37297">
        <ele>150.410675</ele>
        <time>2015-01-28T16:03:20Z</time>
      </trkpt>
      <trkpt lat="43.21712" lon="5.37303">
        <ele>150.496674</ele>
        <time>2015-01-28T16:03:25Z</time>
      </trkpt>
      <trkpt lat="43.21714" lon="5.37309">
        <ele>150.557648</ele>
        <time>2015-01-28T16:03:33Z</time>
      </trkpt>
      <trkpt lat="43.21719" lon="5.37309">
        <ele>153.125946</ele>
        <time>2015-01-28T16:03:40Z</time>
      </trkpt>
      <trkpt lat="43.21723" lon="5.37306">
        <ele>156.147018</ele>
        <time>2015-01-28T16:03:46Z</time>
      </trkpt>
      <trkpt lat="43.21728" lon="5.37308">
        <ele>158.387878</ele>
        <time>2015-01-28T16:03:55Z</time>
      </trkpt>
      <trkpt lat="43.2173" lon="5.37314">
        <ele>158.415817</ele>
        <time>2015-01-28T16:04:00Z</time>
      </trkpt>
      <trkpt lat="43.21732" lon="5.3732">
        <ele>158.786346</ele>
        <time>2015-01-28T16:04:05Z</time>
      </trkpt>
      <trkpt lat="43.21737" lon="5.37323">
        <ele>160.694534</ele>
        <time>2015-01-28T16:04:12Z</time>
      </trkpt>
      <trkpt lat="43.21741" lon="5.37326">
        <ele>162.720367</ele>
        <time>2015-01-28T16:04:21Z</time>
      </trkpt>
      <trkpt lat="43.21743" lon="5.37332">
        <ele>163.160507</ele>
        <time>2015-01-28T16:04:27Z</time>
      </trkpt>
      <trkpt lat="43.21747" lon="5.37336">
        <ele>163.960495</ele>
        <time>2015-01-28T16:04:33Z</time>
      </trkpt>
      <trkpt lat="43.21751" lon="5.37333">
        <ele>167.522308</ele>
        <time>2015-01-28T16:05:03Z</time>
      </trkpt>
      <trkpt lat="43.21755" lon="5.37337">
        <ele>167.577744</ele>
        <time>2015-01-28T16:05:15Z</time>
      </trkpt>
      <trkpt lat="43.21757" lon="5.37343">
        <ele>165.724091</ele>
        <time>2015-01-28T16:05:25Z</time>
      </trkpt>
      <trkpt lat="43.21759" lon="5.37349">
        <ele>164.263702</ele>
        <time>2015-01-28T16:05:32Z</time>
      </trkpt>
      <trkpt lat="43.21761" lon="5.37355">
        <ele>162.799301</ele>
        <time>2015-01-28T16:05:41Z</time>
      </trkpt>
      <trkpt lat="43.21763" lon="5.37361">
        <ele>160.854111</ele>
        <time>2015-01-28T16:05:47Z</time>
      </trkpt>
      <trkpt lat="43.21768" lon="5.37363">
        <ele>162.190125</ele>
        <time>2015-01-28T16:05:54Z</time>
      </trkpt>
      <trkpt lat="43.21772" lon="5.37367">
        <ele>162.252014</ele>
        <time>2015-01-28T16:06:01Z</time>
      </trkpt>
      <trkpt lat="43.21775" lon="5.37371">
        <ele>162.001221</ele>
        <time>2015-01-28T16:06:08Z</time>
      </trkpt>
      <trkpt lat="43.21779" lon="5.37373">
        <ele>163.471222</ele>
        <time>2015-01-28T16:06:16Z</time>
      </trkpt>
      <trkpt lat="43.21784" lon="5.37375">
        <ele>165.09935</ele>
        <time>2015-01-28T16:06:23Z</time>
      </trkpt>
      <trkpt lat="43.21787" lon="5.37381">
        <ele>163.867126</ele>
        <time>2015-01-28T16:06:29Z</time>
      </trkpt>
      <trkpt lat="43.21791" lon="5.37385">
        <ele>164.5672</ele>
        <time>2015-01-28T16:06:35Z</time>
      </trkpt>
      <trkpt lat="43.21796" lon="5.37386">
        <ele>166.516159</ele>
        <time>2015-01-28T16:06:41Z</time>
      </trkpt>
      <trkpt lat="43.21801" lon="5.37383">
        <ele>170.014282</ele>
        <time>2015-01-28T16:06:48Z</time>
      </trkpt>
      <trkpt lat="43.21806" lon="5.37385">
        <ele>171.749435</ele>
        <time>2015-01-28T16:06:55Z</time>
      </trkpt>
      <trkpt lat="43.2181" lon="5.37388">
        <ele>172.618927</ele>
        <time>2015-01-28T16:07:00Z</time>
      </trkpt>
      <trkpt lat="43.21814" lon="5.37391">
        <ele>173.822037</ele>
        <time>2015-01-28T16:07:09Z</time>
      </trkpt>
      <trkpt lat="43.21816" lon="5.37398">
        <ele>171.844131</ele>
        <time>2015-01-28T16:07:15Z</time>
      </trkpt>
      <trkpt lat="43.21818" lon="5.37403">
        <ele>170.693222</ele>
        <time>2015-01-28T16:07:20Z</time>
      </trkpt>
      <trkpt lat="43.21821" lon="5.37408">
        <ele>170.531815</ele>
        <time>2015-01-28T16:07:27Z</time>
      </trkpt>
      <trkpt lat="43.21822" lon="5.37415">
        <ele>168.872986</ele>
        <time>2015-01-28T16:07:33Z</time>
      </trkpt>
      <trkpt lat="43.21826" lon="5.37419">
        <ele>169.252594</ele>
        <time>2015-01-28T16:07:43Z</time>
      </trkpt>
      <trkpt lat="43.21828" lon="5.37425">
        <ele>168.520035</ele>
        <time>2015-01-28T16:07:51Z</time>
      </trkpt>
      <trkpt lat="43.21832" lon="5.3743">
        <ele>168.388199</ele>
        <time>2015-01-28T16:07:57Z</time>
      </trkpt>
      <trkpt lat="43.21835" lon="5.37435">
        <ele>167.803604</ele>
        <time>2015-01-28T16:08:02Z</time>
      </trkpt>
      <trkpt lat="43.21837" lon="5.3744">
        <ele>166.645111</ele>
        <time>2015-01-28T16:08:08Z</time>
      </trkpt>
      <trkpt lat="43.21842" lon="5.37444">
        <ele>166.573151</ele>
        <time>2015-01-28T16:08:14Z</time>
      </trkpt>
      <trkpt lat="43.21844" lon="5.37449">
        <ele>165.191437</ele>
        <time>2015-01-28T16:08:20Z</time>
      </trkpt>
      <trkpt lat="43.21848" lon="5.37453">
        <ele>165.290375</ele>
        <time>2015-01-28T16:08:30Z</time>
      </trkpt>
      <trkpt lat="43.21852" lon="5.37457">
        <ele>165.022751</ele>
        <time>2015-01-28T16:08:36Z</time>
      </trkpt>
      <trkpt lat="43.21857" lon="5.37459">
        <ele>165.52771</ele>
        <time>2015-01-28T16:08:45Z</time>
      </trkpt>
      <trkpt lat="43.21859" lon="5.37464">
        <ele>164.613678</ele>
        <time>2015-01-28T16:08:49Z</time>
      </trkpt>
      <trkpt lat="43.21863" lon="5.37468">
        <ele>164.597351</ele>
        <time>2015-01-28T16:08:55Z</time>
      </trkpt>
      <trkpt lat="43.21866" lon="5.37473">
        <ele>163.572479</ele>
        <time>2015-01-28T16:09:00Z</time>
      </trkpt>
      <trkpt lat="43.21868" lon="5.3748">
        <ele>161.741028</ele>
        <time>2015-01-28T16:09:05Z</time>
      </trkpt>
      <trkpt lat="43.21872" lon="5.37483">
        <ele>162.046707</ele>
        <time>2015-01-28T16:09:12Z</time>
      </trkpt>
      <trkpt lat="43.21877" lon="5.3748">
        <ele>164.223816</ele>
        <time>2015-01-28T16:09:19Z</time>
      </trkpt>
      <trkpt lat="43.21882" lon="5.3748">
        <ele>165.967621</ele>
        <time>2015-01-28T16:09:26Z</time>
      </trkpt>
      <trkpt lat="43.21886" lon="5.37479">
        <ele>167.771622</ele>
        <time>2015-01-28T16:09:33Z</time>
      </trkpt>
      <trkpt lat="43.21891" lon="5.37475">
        <ele>170.368439</ele>
        <time>2015-01-28T16:09:39Z</time>
      </trkpt>
      <trkpt lat="43.21895" lon="5.37472">
        <ele>172.672379</ele>
        <time>2015-01-28T16:09:45Z</time>
      </trkpt>
      <trkpt lat="43.219" lon="5.37468">
        <ele>175.375809</ele>
        <time>2015-01-28T16:09:51Z</time>
      </trkpt>
      <trkpt lat="43.21903" lon="5.37464">
        <ele>177.703079</ele>
        <time>2015-01-28T16:09:55Z</time>
      </trkpt>
      <trkpt lat="43.21908" lon="5.37463">
        <ele>179.5056</ele>
        <time>2015-01-28T16:10:06Z</time>
      </trkpt>
      <trkpt lat="43.21913" lon="5.37463">
        <ele>180.932129</ele>
        <time>2015-01-28T16:10:15Z</time>
      </trkpt>
      <trkpt lat="43.21917" lon="5.37458">
        <ele>183.734787</ele>
        <time>2015-01-28T16:10:21Z</time>
      </trkpt>
      <trkpt lat="43.21922" lon="5.37461">
        <ele>184.450333</ele>
        <time>2015-01-28T16:10:27Z</time>
      </trkpt>
      <trkpt lat="43.21925" lon="5.37468">
        <ele>183.514679</ele>
        <time>2015-01-28T16:10:32Z</time>
      </trkpt>
      <trkpt lat="43.2193" lon="5.37468">
        <ele>185.387497</ele>
        <time>2015-01-28T16:10:39Z</time>
      </trkpt>
      <trkpt lat="43.21935" lon="5.37467">
        <ele>187.633026</ele>
        <time>2015-01-28T16:10:45Z</time>
      </trkpt>
      <trkpt lat="43.21939" lon="5.37468">
        <ele>189.242065</ele>
        <time>2015-01-28T16:10:51Z</time>
      </trkpt>
      <trkpt lat="43.21944" lon="5.37467">
        <ele>191.220886</ele>
        <time>2015-01-28T16:10:57Z</time>
      </trkpt>
      <trkpt lat="43.21949" lon="5.37466">
        <ele>193.528732</ele>
        <time>2015-01-28T16:11:03Z</time>
      </trkpt>
      <trkpt lat="43.21954" lon="5.37464">
        <ele>195.683105</ele>
        <time>2015-01-28T16:11:10Z</time>
      </trkpt>
      <trkpt lat="43.21958" lon="5.37462">
        <ele>197.88913</ele>
        <time>2015-01-28T16:11:18Z</time>
      </trkpt>
      <trkpt lat="43.21963" lon="5.37459">
        <ele>200.112885</ele>
        <time>2015-01-28T16:11:26Z</time>
      </trkpt>
      <trkpt lat="43.21967" lon="5.37456">
        <ele>202.354401</ele>
        <time>2015-01-28T16:11:33Z</time>
      </trkpt>
      <trkpt lat="43.21972" lon="5.37457">
        <ele>204.025024</ele>
        <time>2015-01-28T16:11:40Z</time>
      </trkpt>
      <trkpt lat="43.21977" lon="5.37456">
        <ele>205.805206</ele>
        <time>2015-01-28T16:11:49Z</time>
      </trkpt>
      <trkpt lat="43.2198" lon="5.37452">
        <ele>207.887268</ele>
        <time>2015-01-28T16:11:57Z</time>
      </trkpt>
      <trkpt lat="43.21985" lon="5.37454">
        <ele>209.060822</ele>
        <time>2015-01-28T16:12:08Z</time>
      </trkpt>
      <trkpt lat="43.21989" lon="5.37455">
        <ele>210.548325</ele>
        <time>2015-01-28T16:12:15Z</time>
      </trkpt>
      <trkpt lat="43.21994" lon="5.37456">
        <ele>212.138992</ele>
        <time>2015-01-28T16:12:35Z</time>
      </trkpt>
      <trkpt lat="43.21994" lon="5.37463">
        <ele>211.136627</ele>
        <time>2015-01-28T16:12:51Z</time>
      </trkpt>
      <trkpt lat="43.21994" lon="5.37469">
        <ele>209.923553</ele>
        <time>2015-01-28T16:13:05Z</time>
      </trkpt>
      <trkpt lat="43.21994" lon="5.37476">
        <ele>209.245972</ele>
        <time>2015-01-28T16:13:24Z</time>
      </trkpt>
      <trkpt lat="43.21998" lon="5.3748">
        <ele>210.036804</ele>
        <time>2015-01-28T16:14:00Z</time>
      </trkpt>
      <trkpt lat="43.22" lon="5.37485">
        <ele>209.94017</ele>
        <time>2015-01-28T16:14:09Z</time>
      </trkpt>
      <trkpt lat="43.22003" lon="5.37489">
        <ele>211.301392</ele>
        <time>2015-01-28T16:14:32Z</time>
      </trkpt>
      <trkpt lat="43.22004" lon="5.37495">
        <ele>211.245667</ele>
        <time>2015-01-28T16:14:58Z</time>
      </trkpt>
      <trkpt lat="43.22004" lon="5.37502">
        <ele>210.442062</ele>
        <time>2015-01-28T16:15:06Z</time>
      </trkpt>
      <trkpt lat="43.22004" lon="5.37509">
        <ele>209.809418</ele>
        <time>2015-01-28T16:15:12Z</time>
      </trkpt>
      <trkpt lat="43.22003" lon="5.37515">
        <ele>208.827957</ele>
        <time>2015-01-28T16:15:17Z</time>
      </trkpt>
      <trkpt lat="43.22004" lon="5.37521">
        <ele>209.194489</ele>
        <time>2015-01-28T16:15:23Z</time>
      </trkpt>
      <trkpt lat="43.22004" lon="5.37528">
        <ele>208.84137</ele>
        <time>2015-01-28T16:15:30Z</time>
      </trkpt>
      <trkpt lat="43.22005" lon="5.37535">
        <ele>208.809799</ele>
        <time>2015-01-28T16:15:42Z</time>
      </trkpt>
      <trkpt lat="43.22009" lon="5.37538">
        <ele>211.13446</ele>
        <time>2015-01-28T16:15:57Z</time>
      </trkpt>
      <trkpt lat="43.2201" lon="5.37544">
        <ele>211.477371</ele>
        <time>2015-01-28T16:16:09Z</time>
      </trkpt>
      <trkpt lat="43.2201" lon="5.37551">
        <ele>211.342804</ele>
        <time>2015-01-28T16:16:16Z</time>
      </trkpt>
      <trkpt lat="43.22007" lon="5.37555">
        <ele>209.132553</ele>
        <time>2015-01-28T16:16:24Z</time>
      </trkpt>
      <trkpt lat="43.22011" lon="5.37558">
        <ele>211.783554</ele>
        <time>2015-01-28T16:17:43Z</time>
      </trkpt>
      <trkpt lat="43.22015" lon="5.37561">
        <ele>214.138733</ele>
        <time>2015-01-28T16:17:54Z</time>
      </trkpt>
      <trkpt lat="43.22016" lon="5.37568">
        <ele>214.341827</ele>
        <time>2015-01-28T16:18:14Z</time>
      </trkpt>
      <trkpt lat="43.2202" lon="5.37572">
        <ele>216.318542</ele>
        <time>2015-01-28T16:18:24Z</time>
      </trkpt>
      <trkpt lat="43.2202" lon="5.37579">
        <ele>216.069046</ele>
        <time>2015-01-28T16:18:33Z</time>
      </trkpt>
      <trkpt lat="43.22023" lon="5.37584">
        <ele>217.810822</ele>
        <time>2015-01-28T16:18:42Z</time>
      </trkpt>
      <trkpt lat="43.22026" lon="5.37587">
        <ele>220.158997</ele>
        <time>2015-01-28T16:18:48Z</time>
      </trkpt>
      <trkpt lat="43.2203" lon="5.3759">
        <ele>222.502472</ele>
        <time>2015-01-28T16:18:58Z</time>
      </trkpt>
      <trkpt lat="43.22035" lon="5.37588">
        <ele>225.473602</ele>
        <time>2015-01-28T16:19:09Z</time>
      </trkpt>
      <trkpt lat="43.22039" lon="5.37586">
        <ele>228.718842</ele>
        <time>2015-01-28T16:19:34Z</time>
      </trkpt>
      <trkpt lat="43.22043" lon="5.3759">
        <ele>230.831757</ele>
        <time>2015-01-28T16:19:44Z</time>
      </trkpt>
      <trkpt lat="43.22045" lon="5.37595">
        <ele>231.889252</ele>
        <time>2015-01-28T16:19:50Z</time>
      </trkpt>
      <trkpt lat="43.22049" lon="5.37599">
        <ele>234.428955</ele>
        <time>2015-01-28T16:19:55Z</time>
      </trkpt>
      <trkpt lat="43.2205" lon="5.37605">
        <ele>234.33194</ele>
        <time>2015-01-28T16:20:04Z</time>
      </trkpt>
      <trkpt lat="43.22051" lon="5.37611">
        <ele>234.4758</ele>
        <time>2015-01-28T16:20:19Z</time>
      </trkpt>
      <trkpt lat="43.22052" lon="5.37618">
        <ele>234.67392</ele>
        <time>2015-01-28T16:20:27Z</time>
      </trkpt>
      <trkpt lat="43.22057" lon="5.37618">
        <ele>237.607666</ele>
        <time>2015-01-28T16:20:44Z</time>
      </trkpt>
      <trkpt lat="43.22061" lon="5.37623">
        <ele>239.662689</ele>
        <time>2015-01-28T16:20:52Z</time>
      </trkpt>
      <trkpt lat="43.22065" lon="5.37625">
        <ele>242.286575</ele>
        <time>2015-01-28T16:21:08Z</time>
      </trkpt>
      <trkpt lat="43.22065" lon="5.37632">
        <ele>242.005753</ele>
        <time>2015-01-28T16:21:40Z</time>
      </trkpt>
      <trkpt lat="43.22067" lon="5.37638">
        <ele>242.109161</ele>
        <time>2015-01-28T16:21:45Z</time>
      </trkpt>
      <trkpt lat="43.22068" lon="5.37645">
        <ele>242.265991</ele>
        <time>2015-01-28T16:21:52Z</time>
      </trkpt>
      <trkpt lat="43.22067" lon="5.37651">
        <ele>241.573639</ele>
        <time>2015-01-28T16:22:01Z</time>
      </trkpt>
      <trkpt lat="43.22068" lon="5.37658">
        <ele>241.10434</ele>
        <time>2015-01-28T16:22:10Z</time>
      </trkpt>
      <trkpt lat="43.22067" lon="5.37664">
        <ele>240.311829</ele>
        <time>2015-01-28T16:22:19Z</time>
      </trkpt>
      <trkpt lat="43.22065" lon="5.3767">
        <ele>237.53714</ele>
        <time>2015-01-28T16:22:26Z</time>
      </trkpt>
      <trkpt lat="43.22062" lon="5.37676">
        <ele>233.373108</ele>
        <time>2015-01-28T16:22:35Z</time>
      </trkpt>
      <trkpt lat="43.22063" lon="5.37683">
        <ele>231.104645</ele>
        <time>2015-01-28T16:22:47Z</time>
      </trkpt>
      <trkpt lat="43.22062" lon="5.37691">
        <ele>227.708817</ele>
        <time>2015-01-28T16:22:53Z</time>
      </trkpt>
      <trkpt lat="43.22062" lon="5.37697">
        <ele>225.149277</ele>
        <time>2015-01-28T16:23:04Z</time>
      </trkpt>
      <trkpt lat="43.22064" lon="5.37703">
        <ele>223.629837</ele>
        <time>2015-01-28T16:23:14Z</time>
      </trkpt>
      <trkpt lat="43.22065" lon="5.37709">
        <ele>221.729492</ele>
        <time>2015-01-28T16:23:19Z</time>
      </trkpt>
      <trkpt lat="43.22064" lon="5.37716">
        <ele>219.002731</ele>
        <time>2015-01-28T16:23:31Z</time>
      </trkpt>
      <trkpt lat="43.22063" lon="5.37722">
        <ele>216.035278</ele>
        <time>2015-01-28T16:23:38Z</time>
      </trkpt>
      <trkpt lat="43.22068" lon="5.37722">
        <ele>218.71051</ele>
        <time>2015-01-28T16:29:13Z</time>
      </trkpt>
      <trkpt lat="43.22074" lon="5.37723">
        <ele>220.802612</ele>
        <time>2015-01-28T16:29:21Z</time>
      </trkpt>
      <trkpt lat="43.22079" lon="5.37723">
        <ele>223.529816</ele>
        <time>2015-01-28T16:29:28Z</time>
      </trkpt>
      <trkpt lat="43.22084" lon="5.37721">
        <ele>226.598755</ele>
        <time>2015-01-28T16:29:33Z</time>
      </trkpt>
      <trkpt lat="43.22089" lon="5.37722">
        <ele>226.128983</ele>
        <time>2015-01-28T16:29:38Z</time>
      </trkpt>
      <trkpt lat="43.22094" lon="5.37723">
        <ele>225.570572</ele>
        <time>2015-01-28T16:29:43Z</time>
      </trkpt>
      <trkpt lat="43.22098" lon="5.37722">
        <ele>225.892731</ele>
        <time>2015-01-28T16:29:48Z</time>
      </trkpt>
      <trkpt lat="43.22103" lon="5.3772">
        <ele>226.591217</ele>
        <time>2015-01-28T16:29:53Z</time>
      </trkpt>
      <trkpt lat="43.22108" lon="5.37718">
        <ele>227.276825</ele>
        <time>2015-01-28T16:29:58Z</time>
      </trkpt>
      <trkpt lat="43.22112" lon="5.37716">
        <ele>227.838623</ele>
        <time>2015-01-28T16:30:04Z</time>
      </trkpt>
      <trkpt lat="43.22117" lon="5.37715">
        <ele>228.150925</ele>
        <time>2015-01-28T16:30:09Z</time>
      </trkpt>
      <trkpt lat="43.22121" lon="5.37711">
        <ele>229.583832</ele>
        <time>2015-01-28T16:30:16Z</time>
      </trkpt>
      <trkpt lat="43.22124" lon="5.37707">
        <ele>230.930832</ele>
        <time>2015-01-28T16:30:25Z</time>
      </trkpt>
      <trkpt lat="43.22128" lon="5.37702">
        <ele>232.422791</ele>
        <time>2015-01-28T16:30:36Z</time>
      </trkpt>
      <trkpt lat="43.22133" lon="5.377">
        <ele>232.69458</ele>
        <time>2015-01-28T16:30:40Z</time>
      </trkpt>
      <trkpt lat="43.22137" lon="5.37699">
        <ele>232.95784</ele>
        <time>2015-01-28T16:30:50Z</time>
      </trkpt>
      <trkpt lat="43.22142" lon="5.37699">
        <ele>232.444382</ele>
        <time>2015-01-28T16:30:56Z</time>
      </trkpt>
      <trkpt lat="43.22147" lon="5.37699">
        <ele>232.110672</ele>
        <time>2015-01-28T16:31:03Z</time>
      </trkpt>
      <trkpt lat="43.22151" lon="5.37695">
        <ele>233.083191</ele>
        <time>2015-01-28T16:31:09Z</time>
      </trkpt>
      <trkpt lat="43.22156" lon="5.37694">
        <ele>233.203537</ele>
        <time>2015-01-28T16:31:14Z</time>
      </trkpt>
      <trkpt lat="43.22158" lon="5.37688">
        <ele>234.925186</ele>
        <time>2015-01-28T16:31:19Z</time>
      </trkpt>
      <trkpt lat="43.2216" lon="5.37681">
        <ele>236.755936</ele>
        <time>2015-01-28T16:31:24Z</time>
      </trkpt>
      <trkpt lat="43.22161" lon="5.37674">
        <ele>238.596222</ele>
        <time>2015-01-28T16:31:36Z</time>
      </trkpt>
      <trkpt lat="43.22164" lon="5.37668">
        <ele>239.823242</ele>
        <time>2015-01-28T16:31:45Z</time>
      </trkpt>
      <trkpt lat="43.22167" lon="5.37662">
        <ele>241.061935</ele>
        <time>2015-01-28T16:31:51Z</time>
      </trkpt>
      <trkpt lat="43.22169" lon="5.37656">
        <ele>242.577866</ele>
        <time>2015-01-28T16:32:05Z</time>
      </trkpt>
      <trkpt lat="43.22169" lon="5.3765">
        <ele>244.079422</ele>
        <time>2015-01-28T16:32:23Z</time>
      </trkpt>
      <trkpt lat="43.22172" lon="5.37644">
        <ele>245.418747</ele>
        <time>2015-01-28T16:32:54Z</time>
      </trkpt>
      <trkpt lat="43.22175" lon="5.37638">
        <ele>246.730026</ele>
        <time>2015-01-28T16:33:03Z</time>
      </trkpt>
      <trkpt lat="43.22178" lon="5.37633">
        <ele>248.069885</ele>
        <time>2015-01-28T16:33:08Z</time>
      </trkpt>
      <trkpt lat="43.22183" lon="5.37628">
        <ele>249.071503</ele>
        <time>2015-01-28T16:33:14Z</time>
      </trkpt>
      <trkpt lat="43.22186" lon="5.37624">
        <ele>250.060394</ele>
        <time>2015-01-28T16:33:19Z</time>
      </trkpt>
      <trkpt lat="43.22189" lon="5.37617">
        <ele>251.617035</ele>
        <time>2015-01-28T16:33:24Z</time>
      </trkpt>
      <trkpt lat="43.2219" lon="5.3761">
        <ele>253.15564</ele>
        <time>2015-01-28T16:33:29Z</time>
      </trkpt>
      <trkpt lat="43.22192" lon="5.37605">
        <ele>254.405243</ele>
        <time>2015-01-28T16:33:36Z</time>
      </trkpt>
      <trkpt lat="43.22194" lon="5.37598">
        <ele>255.872131</ele>
        <time>2015-01-28T16:33:43Z</time>
      </trkpt>
      <trkpt lat="43.22198" lon="5.37595">
        <ele>256.663879</ele>
        <time>2015-01-28T16:33:49Z</time>
      </trkpt>
      <trkpt lat="43.22203" lon="5.37593">
        <ele>256.848206</ele>
        <time>2015-01-28T16:33:54Z</time>
      </trkpt>
      <trkpt lat="43.22208" lon="5.37593">
        <ele>256.786743</ele>
        <time>2015-01-28T16:34:03Z</time>
      </trkpt>
      <trkpt lat="43.22211" lon="5.37597">
        <ele>255.728775</ele>
        <time>2015-01-28T16:34:11Z</time>
      </trkpt>
      <trkpt lat="43.22214" lon="5.37603">
        <ele>254.474487</ele>
        <time>2015-01-28T16:34:23Z</time>
      </trkpt>
      <trkpt lat="43.22219" lon="5.37602">
        <ele>254.565186</ele>
        <time>2015-01-28T16:34:29Z</time>
      </trkpt>
      <trkpt lat="43.22223" lon="5.37597">
        <ele>255.544464</ele>
        <time>2015-01-28T16:35:47Z</time>
      </trkpt>
      <trkpt lat="43.22225" lon="5.37603">
        <ele>254.163376</ele>
        <time>2015-01-28T16:36:04Z</time>
      </trkpt>
      <trkpt lat="43.22228" lon="5.3761">
        <ele>252.663513</ele>
        <time>2015-01-28T16:36:09Z</time>
      </trkpt>
      <trkpt lat="43.22229" lon="5.37617">
        <ele>251.07341</ele>
        <time>2015-01-28T16:36:13Z</time>
      </trkpt>
      <trkpt lat="43.22231" lon="5.37626">
        <ele>249.041061</ele>
        <time>2015-01-28T16:36:17Z</time>
      </trkpt>
      <trkpt lat="43.22235" lon="5.37633">
        <ele>247.482391</ele>
        <time>2015-01-28T16:36:21Z</time>
      </trkpt>
      <trkpt lat="43.22238" lon="5.37638">
        <ele>246.326813</ele>
        <time>2015-01-28T16:36:25Z</time>
      </trkpt>
      <trkpt lat="43.22243" lon="5.37637">
        <ele>246.519455</ele>
        <time>2015-01-28T16:36:30Z</time>
      </trkpt>
      <trkpt lat="43.22247" lon="5.37632">
        <ele>247.457291</ele>
        <time>2015-01-28T16:36:36Z</time>
      </trkpt>
      <trkpt lat="43.22252" lon="5.37629">
        <ele>249.187881</ele>
        <time>2015-01-28T16:36:41Z</time>
      </trkpt>
      <trkpt lat="43.22254" lon="5.37623">
        <ele>251.488403</ele>
        <time>2015-01-28T16:36:47Z</time>
      </trkpt>
      <trkpt lat="43.22258" lon="5.3762">
        <ele>254.221191</ele>
        <time>2015-01-28T16:36:51Z</time>
      </trkpt>
      <trkpt lat="43.22261" lon="5.37614">
        <ele>257.040344</ele>
        <time>2015-01-28T16:36:55Z</time>
      </trkpt>
      <trkpt lat="43.22265" lon="5.37612">
        <ele>259.702301</ele>
        <time>2015-01-28T16:37:00Z</time>
      </trkpt>
      <trkpt lat="43.2227" lon="5.37616">
        <ele>261.475952</ele>
        <time>2015-01-28T16:37:04Z</time>
      </trkpt>
      <trkpt lat="43.22272" lon="5.37623">
        <ele>261.102234</ele>
        <time>2015-01-28T16:37:10Z</time>
      </trkpt>
      <trkpt lat="43.22273" lon="5.3763">
        <ele>260.301483</ele>
        <time>2015-01-28T16:37:15Z</time>
      </trkpt>
      <trkpt lat="43.22274" lon="5.37638">
        <ele>259.378418</ele>
        <time>2015-01-28T16:37:19Z</time>
      </trkpt>
      <trkpt lat="43.22273" lon="5.37646">
        <ele>257.401978</ele>
        <time>2015-01-28T16:37:24Z</time>
      </trkpt>
      <trkpt lat="43.22272" lon="5.37654">
        <ele>255.015106</ele>
        <time>2015-01-28T16:37:27Z</time>
      </trkpt>
      <trkpt lat="43.2227" lon="5.37662">
        <ele>252.733215</ele>
        <time>2015-01-28T16:37:31Z</time>
      </trkpt>
      <trkpt lat="43.22271" lon="5.37669">
        <ele>251.589981</ele>
        <time>2015-01-28T16:37:35Z</time>
      </trkpt>
      <trkpt lat="43.22273" lon="5.37675">
        <ele>251.962646</ele>
        <time>2015-01-28T16:37:42Z</time>
      </trkpt>
      <trkpt lat="43.22275" lon="5.37681">
        <ele>252.009659</ele>
        <time>2015-01-28T16:37:54Z</time>
      </trkpt>
      <trkpt lat="43.22275" lon="5.37688">
        <ele>251.363907</ele>
        <time>2015-01-28T16:38:01Z</time>
      </trkpt>
      <trkpt lat="43.22277" lon="5.37694">
        <ele>251.426056</ele>
        <time>2015-01-28T16:38:20Z</time>
      </trkpt>
      <trkpt lat="43.22278" lon="5.377">
        <ele>250.886612</ele>
        <time>2015-01-28T16:38:45Z</time>
      </trkpt>
      <trkpt lat="43.22281" lon="5.37704">
        <ele>251.975647</ele>
        <time>2015-01-28T16:39:12Z</time>
      </trkpt>
      <trkpt lat="43.22283" lon="5.3771">
        <ele>252.309616</ele>
        <time>2015-01-28T16:39:48Z</time>
      </trkpt>
      <trkpt lat="43.22287" lon="5.37715">
        <ele>253.422333</ele>
        <time>2015-01-28T16:39:53Z</time>
      </trkpt>
      <trkpt lat="43.22293" lon="5.37716">
        <ele>255.835175</ele>
        <time>2015-01-28T16:39:58Z</time>
      </trkpt>
      <trkpt lat="43.22297" lon="5.3772">
        <ele>257.403198</ele>
        <time>2015-01-28T16:40:03Z</time>
      </trkpt>
      <trkpt lat="43.22302" lon="5.3773">
        <ele>257.701477</ele>
        <time>2015-01-28T16:40:07Z</time>
      </trkpt>
      <trkpt lat="43.22305" lon="5.37737">
        <ele>257.55368</ele>
        <time>2015-01-28T16:40:11Z</time>
      </trkpt>
      <trkpt lat="43.22308" lon="5.37741">
        <ele>258.232056</ele>
        <time>2015-01-28T16:40:16Z</time>
      </trkpt>
      <trkpt lat="43.22312" lon="5.37746">
        <ele>258.852905</ele>
        <time>2015-01-28T16:40:23Z</time>
      </trkpt>
      <trkpt lat="43.22314" lon="5.37752">
        <ele>258.600403</ele>
        <time>2015-01-28T16:40:30Z</time>
      </trkpt>
      <trkpt lat="43.22316" lon="5.37758">
        <ele>259.411163</ele>
        <time>2015-01-28T16:40:37Z</time>
      </trkpt>
      <trkpt lat="43.2232" lon="5.37762">
        <ele>260.673248</ele>
        <time>2015-01-28T16:40:43Z</time>
      </trkpt>
      <trkpt lat="43.22321" lon="5.37769">
        <ele>261.107208</ele>
        <time>2015-01-28T16:40:49Z</time>
      </trkpt>
      <trkpt lat="43.22325" lon="5.37774">
        <ele>262.137726</ele>
        <time>2015-01-28T16:40:59Z</time>
      </trkpt>
      <trkpt lat="43.22327" lon="5.3778">
        <ele>262.487762</ele>
        <time>2015-01-28T16:41:06Z</time>
      </trkpt>
      <trkpt lat="43.22329" lon="5.37786">
        <ele>262.847107</ele>
        <time>2015-01-28T16:41:14Z</time>
      </trkpt>
      <trkpt lat="43.22328" lon="5.37792">
        <ele>262.225861</ele>
        <time>2015-01-28T16:41:21Z</time>
      </trkpt>
      <trkpt lat="43.22331" lon="5.37798">
        <ele>262.692657</ele>
        <time>2015-01-28T16:41:34Z</time>
      </trkpt>
      <trkpt lat="43.22333" lon="5.37802">
        <ele>263.230469</ele>
        <time>2015-01-28T16:41:48Z</time>
      </trkpt>
      <trkpt lat="43.22334" lon="5.37809">
        <ele>262.757263</ele>
        <time>2015-01-28T16:41:56Z</time>
      </trkpt>
      <trkpt lat="43.22331" lon="5.37814">
        <ele>261.579315</ele>
        <time>2015-01-28T16:42:07Z</time>
      </trkpt>
      <trkpt lat="43.22329" lon="5.3782">
        <ele>260.727448</ele>
        <time>2015-01-28T16:42:13Z</time>
      </trkpt>
      <trkpt lat="43.22329" lon="5.37827">
        <ele>260.303223</ele>
        <time>2015-01-28T16:42:23Z</time>
      </trkpt>
      <trkpt lat="43.22329" lon="5.37833">
        <ele>259.843811</ele>
        <time>2015-01-28T16:42:32Z</time>
      </trkpt>
      <trkpt lat="43.22332" lon="5.37838">
        <ele>260.958954</ele>
        <time>2015-01-28T16:42:45Z</time>
      </trkpt>
      <trkpt lat="43.22333" lon="5.37832">
        <ele>261.11142</ele>
        <time>2015-01-28T16:42:58Z</time>
      </trkpt>
      <trkpt lat="43.22336" lon="5.37826">
        <ele>261.391266</ele>
        <time>2015-01-28T16:43:11Z</time>
      </trkpt>
      <trkpt lat="43.22342" lon="5.37824">
        <ele>261.296265</ele>
        <time>2015-01-28T16:43:16Z</time>
      </trkpt>
      <trkpt lat="43.22345" lon="5.37828">
        <ele>260.734009</ele>
        <time>2015-01-28T16:43:20Z</time>
      </trkpt>
      <trkpt lat="43.22347" lon="5.37834">
        <ele>260.007446</ele>
        <time>2015-01-28T16:43:30Z</time>
      </trkpt>
      <trkpt lat="43.22347" lon="5.3784">
        <ele>260.235901</ele>
        <time>2015-01-28T16:43:39Z</time>
      </trkpt>
      <trkpt lat="43.22345" lon="5.37847">
        <ele>260.682922</ele>
        <time>2015-01-28T16:44:14Z</time>
      </trkpt>
      <trkpt lat="43.22346" lon="5.37853">
        <ele>260.75528</ele>
        <time>2015-01-28T16:44:19Z</time>
      </trkpt>
      <trkpt lat="43.22348" lon="5.3786">
        <ele>260.717957</ele>
        <time>2015-01-28T16:44:24Z</time>
      </trkpt>
      <trkpt lat="43.22352" lon="5.37863">
        <ele>260.091095</ele>
        <time>2015-01-28T16:44:29Z</time>
      </trkpt>
      <trkpt lat="43.22356" lon="5.37867">
        <ele>259.489594</ele>
        <time>2015-01-28T16:44:38Z</time>
      </trkpt>
      <trkpt lat="43.2236" lon="5.3787">
        <ele>258.794495</ele>
        <time>2015-01-28T16:44:59Z</time>
      </trkpt>
      <trkpt lat="43.22364" lon="5.3787">
        <ele>257.948181</ele>
        <time>2015-01-28T16:45:09Z</time>
      </trkpt>
      <trkpt lat="43.22367" lon="5.37876">
        <ele>257.376526</ele>
        <time>2015-01-28T16:45:17Z</time>
      </trkpt>
      <trkpt lat="43.22366" lon="5.37882">
        <ele>257.416962</ele>
        <time>2015-01-28T16:45:36Z</time>
      </trkpt>
      <trkpt lat="43.22368" lon="5.37888">
        <ele>256.803131</ele>
        <time>2015-01-28T16:45:40Z</time>
      </trkpt>
      <trkpt lat="43.22369" lon="5.37894">
        <ele>256.257629</ele>
        <time>2015-01-28T16:45:45Z</time>
      </trkpt>
      <trkpt lat="43.22372" lon="5.379">
        <ele>255.177475</ele>
        <time>2015-01-28T16:46:15Z</time>
      </trkpt>
      <trkpt lat="43.22375" lon="5.37905">
        <ele>254.044662</ele>
        <time>2015-01-28T16:46:21Z</time>
      </trkpt>
      <trkpt lat="43.2238" lon="5.37904">
        <ele>252.749084</ele>
        <time>2015-01-28T16:46:33Z</time>
      </trkpt>
      <trkpt lat="43.22384" lon="5.379">
        <ele>251.988892</ele>
        <time>2015-01-28T16:46:38Z</time>
      </trkpt>
      <trkpt lat="43.22387" lon="5.37905">
        <ele>250.678436</ele>
        <time>2015-01-28T16:47:00Z</time>
      </trkpt>
      <trkpt lat="43.22392" lon="5.37908">
        <ele>248.905746</ele>
        <time>2015-01-28T16:47:05Z</time>
      </trkpt>
      <trkpt lat="43.22394" lon="5.37903">
        <ele>248.835358</ele>
        <time>2015-01-28T16:47:15Z</time>
      </trkpt>
      <trkpt lat="43.22395" lon="5.37895">
        <ele>249.42514</ele>
        <time>2015-01-28T16:47:23Z</time>
      </trkpt>
      <trkpt lat="43.22398" lon="5.3789">
        <ele>249.295425</ele>
        <time>2015-01-28T16:47:29Z</time>
      </trkpt>
      <trkpt lat="43.224" lon="5.37884">
        <ele>249.652512</ele>
        <time>2015-01-28T16:47:35Z</time>
      </trkpt>
      <trkpt lat="43.22402" lon="5.37879">
        <ele>249.887772</ele>
        <time>2015-01-28T16:47:41Z</time>
      </trkpt>
      <trkpt lat="43.22404" lon="5.37872">
        <ele>250.490936</ele>
        <time>2015-01-28T16:47:46Z</time>
      </trkpt>
      <trkpt lat="43.22401" lon="5.37866">
        <ele>251.77536</ele>
        <time>2015-01-28T16:47:52Z</time>
      </trkpt>
      <trkpt lat="43.22401" lon="5.37858">
        <ele>252.882812</ele>
        <time>2015-01-28T16:47:59Z</time>
      </trkpt>
      <trkpt lat="43.22401" lon="5.37851">
        <ele>253.766571</ele>
        <time>2015-01-28T16:48:06Z</time>
      </trkpt>
      <trkpt lat="43.22405" lon="5.37848">
        <ele>253.776733</ele>
        <time>2015-01-28T16:49:18Z</time>
      </trkpt>
      <trkpt lat="43.22409" lon="5.37844">
        <ele>253.944946</ele>
        <time>2015-01-28T16:49:55Z</time>
      </trkpt>
      <trkpt lat="43.22414" lon="5.37842">
        <ele>253.655045</ele>
        <time>2015-01-28T16:50:01Z</time>
      </trkpt>
      <trkpt lat="43.22418" lon="5.37844">
        <ele>252.757629</ele>
        <time>2015-01-28T16:50:06Z</time>
      </trkpt>
      <trkpt lat="43.22422" lon="5.37849">
        <ele>251.142273</ele>
        <time>2015-01-28T16:50:12Z</time>
      </trkpt>
      <trkpt lat="43.22428" lon="5.3785">
        <ele>249.917328</ele>
        <time>2015-01-28T16:50:18Z</time>
      </trkpt>
      <trkpt lat="43.22433" lon="5.37848">
        <ele>249.088394</ele>
        <time>2015-01-28T16:50:24Z</time>
      </trkpt>
      <trkpt lat="43.22439" lon="5.37845">
        <ele>248.447968</ele>
        <time>2015-01-28T16:50:28Z</time>
      </trkpt>
      <trkpt lat="43.22443" lon="5.37846">
        <ele>247.348846</ele>
        <time>2015-01-28T16:50:31Z</time>
      </trkpt>
      <trkpt lat="43.22449" lon="5.37846">
        <ele>246.212311</ele>
        <time>2015-01-28T16:50:35Z</time>
      </trkpt>
      <trkpt lat="43.22454" lon="5.37844">
        <ele>245.372238</ele>
        <time>2015-01-28T16:50:40Z</time>
      </trkpt>
      <trkpt lat="43.22459" lon="5.37844">
        <ele>244.558716</ele>
        <time>2015-01-28T16:50:45Z</time>
      </trkpt>
      <trkpt lat="43.22464" lon="5.37844">
        <ele>243.451538</ele>
        <time>2015-01-28T16:50:51Z</time>
      </trkpt>
      <trkpt lat="43.22469" lon="5.37843">
        <ele>242.579361</ele>
        <time>2015-01-28T16:50:58Z</time>
      </trkpt>
      <trkpt lat="43.22474" lon="5.37841">
        <ele>241.841278</ele>
        <time>2015-01-28T16:51:05Z</time>
      </trkpt>
      <trkpt lat="43.22478" lon="5.37836">
        <ele>241.514252</ele>
        <time>2015-01-28T16:51:11Z</time>
      </trkpt>
      <trkpt lat="43.22482" lon="5.37834">
        <ele>240.697235</ele>
        <time>2015-01-28T16:51:15Z</time>
      </trkpt>
      <trkpt lat="43.22487" lon="5.37832">
        <ele>240.23996</ele>
        <time>2015-01-28T16:51:19Z</time>
      </trkpt>
      <trkpt lat="43.22491" lon="5.37828">
        <ele>240.172028</ele>
        <time>2015-01-28T16:51:24Z</time>
      </trkpt>
      <trkpt lat="43.22495" lon="5.37824">
        <ele>240.506927</ele>
        <time>2015-01-28T16:51:32Z</time>
      </trkpt>
      <trkpt lat="43.22497" lon="5.37818">
        <ele>241.656647</ele>
        <time>2015-01-28T16:51:36Z</time>
      </trkpt>
      <trkpt lat="43.22499" lon="5.37811">
        <ele>242.863037</ele>
        <time>2015-01-28T16:51:42Z</time>
      </trkpt>
      <trkpt lat="43.22503" lon="5.37806">
        <ele>243.110306</ele>
        <time>2015-01-28T16:51:46Z</time>
      </trkpt>
      <trkpt lat="43.22508" lon="5.37801">
        <ele>242.922882</ele>
        <time>2015-01-28T16:51:51Z</time>
      </trkpt>
      <trkpt lat="43.22512" lon="5.37798">
        <ele>242.465958</ele>
        <time>2015-01-28T16:51:55Z</time>
      </trkpt>
      <trkpt lat="43.22516" lon="5.37795">
        <ele>241.92218</ele>
        <time>2015-01-28T16:51:59Z</time>
      </trkpt>
      <trkpt lat="43.2252" lon="5.37791">
        <ele>241.791824</ele>
        <time>2015-01-28T16:52:03Z</time>
      </trkpt>
      <trkpt lat="43.22524" lon="5.37786">
        <ele>241.63382</ele>
        <time>2015-01-28T16:52:08Z</time>
      </trkpt>
      <trkpt lat="43.22531" lon="5.3778">
        <ele>240.603134</ele>
        <time>2015-01-28T16:52:12Z</time>
      </trkpt>
      <trkpt lat="43.22536" lon="5.37776">
        <ele>240.017197</ele>
        <time>2015-01-28T16:52:16Z</time>
      </trkpt>
      <trkpt lat="43.2254" lon="5.37771">
        <ele>239.622498</ele>
        <time>2015-01-28T16:52:20Z</time>
      </trkpt>
      <trkpt lat="43.22542" lon="5.37765">
        <ele>240.093292</ele>
        <time>2015-01-28T16:52:24Z</time>
      </trkpt>
      <trkpt lat="43.22543" lon="5.37759">
        <ele>240.857269</ele>
        <time>2015-01-28T16:52:29Z</time>
      </trkpt>
      <trkpt lat="43.22544" lon="5.3775">
        <ele>242.315308</ele>
        <time>2015-01-28T16:52:33Z</time>
      </trkpt>
      <trkpt lat="43.22544" lon="5.37743">
        <ele>242.699097</ele>
        <time>2015-01-28T16:52:39Z</time>
      </trkpt>
      <trkpt lat="43.22546" lon="5.37738">
        <ele>242.1427</ele>
        <time>2015-01-28T16:52:46Z</time>
      </trkpt>
      <trkpt lat="43.22549" lon="5.37732">
        <ele>241.74765</ele>
        <time>2015-01-28T16:52:53Z</time>
      </trkpt>
      <trkpt lat="43.2255" lon="5.37726">
        <ele>241.798798</ele>
        <time>2015-01-28T16:52:58Z</time>
      </trkpt>
      <trkpt lat="43.22546" lon="5.37721">
        <ele>243.566345</ele>
        <time>2015-01-28T16:53:04Z</time>
      </trkpt>
      <trkpt lat="43.22547" lon="5.37714">
        <ele>243.56076</ele>
        <time>2015-01-28T16:53:10Z</time>
      </trkpt>
      <trkpt lat="43.2255" lon="5.37708">
        <ele>243.013092</ele>
        <time>2015-01-28T16:53:16Z</time>
      </trkpt>
      <trkpt lat="43.22551" lon="5.37702">
        <ele>242.839569</ele>
        <time>2015-01-28T16:53:23Z</time>
      </trkpt>
      <trkpt lat="43.22551" lon="5.37696">
        <ele>243.069122</ele>
        <time>2015-01-28T16:53:29Z</time>
      </trkpt>
      <trkpt lat="43.22555" lon="5.3769">
        <ele>242.040985</ele>
        <time>2015-01-28T16:53:35Z</time>
      </trkpt>
      <trkpt lat="43.22555" lon="5.37684">
        <ele>242.24942</ele>
        <time>2015-01-28T16:53:40Z</time>
      </trkpt>
      <trkpt lat="43.22556" lon="5.37678">
        <ele>241.941315</ele>
        <time>2015-01-28T16:53:45Z</time>
      </trkpt>
      <trkpt lat="43.22558" lon="5.37672">
        <ele>241.621216</ele>
        <time>2015-01-28T16:53:51Z</time>
      </trkpt>
      <trkpt lat="43.2256" lon="5.37665">
        <ele>241.205032</ele>
        <time>2015-01-28T16:53:56Z</time>
      </trkpt>
      <trkpt lat="43.22562" lon="5.37659">
        <ele>241.098175</ele>
        <time>2015-01-28T16:54:02Z</time>
      </trkpt>
      <trkpt lat="43.22564" lon="5.37654">
        <ele>240.354263</ele>
        <time>2015-01-28T16:54:08Z</time>
      </trkpt>
      <trkpt lat="43.22568" lon="5.37649">
        <ele>239.275085</ele>
        <time>2015-01-28T16:54:14Z</time>
      </trkpt>
      <trkpt lat="43.22571" lon="5.37645">
        <ele>238.202087</ele>
        <time>2015-01-28T16:54:18Z</time>
      </trkpt>
      <trkpt lat="43.22574" lon="5.37639">
        <ele>237.671265</ele>
        <time>2015-01-28T16:54:23Z</time>
      </trkpt>
      <trkpt lat="43.22577" lon="5.37632">
        <ele>237.076553</ele>
        <time>2015-01-28T16:54:29Z</time>
      </trkpt>
      <trkpt lat="43.22578" lon="5.37626">
        <ele>236.929611</ele>
        <time>2015-01-28T16:54:36Z</time>
      </trkpt>
      <trkpt lat="43.2258" lon="5.3762">
        <ele>236.660263</ele>
        <time>2015-01-28T16:54:41Z</time>
      </trkpt>
      <trkpt lat="43.22585" lon="5.37616">
        <ele>235.148941</ele>
        <time>2015-01-28T16:54:46Z</time>
      </trkpt>
      <trkpt lat="43.22589" lon="5.37615">
        <ele>234.385742</ele>
        <time>2015-01-28T16:54:50Z</time>
      </trkpt>
      <trkpt lat="43.22593" lon="5.37612">
        <ele>234.127869</ele>
        <time>2015-01-28T16:54:55Z</time>
      </trkpt>
      <trkpt lat="43.22596" lon="5.37605">
        <ele>234.374451</ele>
        <time>2015-01-28T16:55:00Z</time>
      </trkpt>
      <trkpt lat="43.226" lon="5.37602">
        <ele>233.998993</ele>
        <time>2015-01-28T16:55:05Z</time>
      </trkpt>
      <trkpt lat="43.22605" lon="5.37601">
        <ele>233.290131</ele>
        <time>2015-01-28T16:55:11Z</time>
      </trkpt>
      <trkpt lat="43.2261" lon="5.376">
        <ele>232.598801</ele>
        <time>2015-01-28T16:55:18Z</time>
      </trkpt>
      <trkpt lat="43.22614" lon="5.376">
        <ele>231.798218</ele>
        <time>2015-01-28T16:55:35Z</time>
      </trkpt>
      <trkpt lat="43.22618" lon="5.37595">
        <ele>231.863342</ele>
        <time>2015-01-28T16:55:40Z</time>
      </trkpt>
      <trkpt lat="43.22621" lon="5.3759">
        <ele>232.170105</ele>
        <time>2015-01-28T16:55:46Z</time>
      </trkpt>
      <trkpt lat="43.22624" lon="5.37585">
        <ele>232.308624</ele>
        <time>2015-01-28T16:55:51Z</time>
      </trkpt>
      <trkpt lat="43.22627" lon="5.3758">
        <ele>232.904785</ele>
        <time>2015-01-28T16:55:56Z</time>
      </trkpt>
      <trkpt lat="43.22631" lon="5.37575">
        <ele>233.179626</ele>
        <time>2015-01-28T16:56:01Z</time>
      </trkpt>
      <trkpt lat="43.22634" lon="5.37571">
        <ele>233.305573</ele>
        <time>2015-01-28T16:56:06Z</time>
      </trkpt>
      <trkpt lat="43.22638" lon="5.37568">
        <ele>233.262939</ele>
        <time>2015-01-28T16:56:11Z</time>
      </trkpt>
      <trkpt lat="43.22641" lon="5.37562">
        <ele>233.492065</ele>
        <time>2015-01-28T16:56:17Z</time>
      </trkpt>
      <trkpt lat="43.22644" lon="5.37557">
        <ele>233.868134</ele>
        <time>2015-01-28T16:56:23Z</time>
      </trkpt>
      <trkpt lat="43.22646" lon="5.3755">
        <ele>234.322021</ele>
        <time>2015-01-28T16:56:28Z</time>
      </trkpt>
      <trkpt lat="43.22649" lon="5.37545">
        <ele>234.298203</ele>
        <time>2015-01-28T16:56:33Z</time>
      </trkpt>
      <trkpt lat="43.22652" lon="5.3754">
        <ele>234.507477</ele>
        <time>2015-01-28T16:56:37Z</time>
      </trkpt>
      <trkpt lat="43.22654" lon="5.37534">
        <ele>234.765015</ele>
        <time>2015-01-28T16:56:42Z</time>
      </trkpt>
      <trkpt lat="43.22657" lon="5.37528">
        <ele>234.669342</ele>
        <time>2015-01-28T16:56:47Z</time>
      </trkpt>
      <trkpt lat="43.22659" lon="5.37522">
        <ele>234.905243</ele>
        <time>2015-01-28T16:56:53Z</time>
      </trkpt>
      <trkpt lat="43.22663" lon="5.37517">
        <ele>234.273376</ele>
        <time>2015-01-28T16:56:57Z</time>
      </trkpt>
      <trkpt lat="43.22667" lon="5.37515">
        <ele>233.2211</ele>
        <time>2015-01-28T16:57:21Z</time>
      </trkpt>
      <trkpt lat="43.22669" lon="5.37509">
        <ele>233.446091</ele>
        <time>2015-01-28T16:57:29Z</time>
      </trkpt>
      <trkpt lat="43.2267" lon="5.37502">
        <ele>233.956299</ele>
        <time>2015-01-28T16:57:35Z</time>
      </trkpt>
      <trkpt lat="43.2267" lon="5.37496">
        <ele>234.663208</ele>
        <time>2015-01-28T16:57:41Z</time>
      </trkpt>
      <trkpt lat="43.2267" lon="5.37489">
        <ele>235.370834</ele>
        <time>2015-01-28T16:57:47Z</time>
      </trkpt>
      <trkpt lat="43.22672" lon="5.37483">
        <ele>235.445694</ele>
        <time>2015-01-28T16:57:52Z</time>
      </trkpt>
      <trkpt lat="43.22675" lon="5.37477">
        <ele>235.060165</ele>
        <time>2015-01-28T16:57:56Z</time>
      </trkpt>
      <trkpt lat="43.22678" lon="5.37472">
        <ele>234.923645</ele>
        <time>2015-01-28T16:58:00Z</time>
      </trkpt>
      <trkpt lat="43.22679" lon="5.37466">
        <ele>235.11795</ele>
        <time>2015-01-28T16:58:05Z</time>
      </trkpt>
      <trkpt lat="43.22681" lon="5.3746">
        <ele>235.048248</ele>
        <time>2015-01-28T16:58:10Z</time>
      </trkpt>
      <trkpt lat="43.22685" lon="5.37455">
        <ele>234.366135</ele>
        <time>2015-01-28T16:58:14Z</time>
      </trkpt>
      <trkpt lat="43.22689" lon="5.37451">
        <ele>233.679581</ele>
        <time>2015-01-28T16:58:19Z</time>
      </trkpt>
      <trkpt lat="43.22693" lon="5.37446">
        <ele>233.00238</ele>
        <time>2015-01-28T16:58:24Z</time>
      </trkpt>
      <trkpt lat="43.22697" lon="5.37441">
        <ele>232.288773</ele>
        <time>2015-01-28T16:58:29Z</time>
      </trkpt>
      <trkpt lat="43.227" lon="5.37436">
        <ele>231.688446</ele>
        <time>2015-01-28T16:58:35Z</time>
      </trkpt>
      <trkpt lat="43.22703" lon="5.3743">
        <ele>231.389099</ele>
        <time>2015-01-28T16:58:42Z</time>
      </trkpt>
      <trkpt lat="43.22706" lon="5.37425">
        <ele>230.622955</ele>
        <time>2015-01-28T16:58:46Z</time>
      </trkpt>
      <trkpt lat="43.2271" lon="5.37421">
        <ele>229.635941</ele>
        <time>2015-01-28T16:58:54Z</time>
      </trkpt>
      <trkpt lat="43.22712" lon="5.37414">
        <ele>229.36795</ele>
        <time>2015-01-28T16:59:01Z</time>
      </trkpt>
      <trkpt lat="43.22712" lon="5.37408">
        <ele>228.636047</ele>
        <time>2015-01-28T16:59:06Z</time>
      </trkpt>
      <trkpt lat="43.22712" lon="5.37401">
        <ele>228.10762</ele>
        <time>2015-01-28T16:59:11Z</time>
      </trkpt>
      <trkpt lat="43.22713" lon="5.37394">
        <ele>227.350998</ele>
        <time>2015-01-28T16:59:15Z</time>
      </trkpt>
      <trkpt lat="43.22713" lon="5.37388">
        <ele>226.962036</ele>
        <time>2015-01-28T16:59:21Z</time>
      </trkpt>
      <trkpt lat="43.22714" lon="5.37381">
        <ele>225.958374</ele>
        <time>2015-01-28T16:59:28Z</time>
      </trkpt>
      <trkpt lat="43.22716" lon="5.37374">
        <ele>224.683487</ele>
        <time>2015-01-28T16:59:34Z</time>
      </trkpt>
      <trkpt lat="43.22717" lon="5.37367">
        <ele>223.78334</ele>
        <time>2015-01-28T16:59:41Z</time>
      </trkpt>
      <trkpt lat="43.22719" lon="5.37361">
        <ele>222.830048</ele>
        <time>2015-01-28T16:59:48Z</time>
      </trkpt>
      <trkpt lat="43.2272" lon="5.37355">
        <ele>222.03479</ele>
        <time>2015-01-28T16:59:56Z</time>
      </trkpt>
      <trkpt lat="43.22716" lon="5.3735">
        <ele>222.766281</ele>
        <time>2015-01-28T17:00:01Z</time>
      </trkpt>
      <trkpt lat="43.22714" lon="5.37343">
        <ele>222.999908</ele>
        <time>2015-01-28T17:00:07Z</time>
      </trkpt>
      <trkpt lat="43.22713" lon="5.37338">
        <ele>222.887253</ele>
        <time>2015-01-28T17:00:13Z</time>
      </trkpt>
      <trkpt lat="43.22713" lon="5.3733">
        <ele>221.42511</ele>
        <time>2015-01-28T17:00:19Z</time>
      </trkpt>
      <trkpt lat="43.22714" lon="5.37324">
        <ele>219.213318</ele>
        <time>2015-01-28T17:00:25Z</time>
      </trkpt>
      <trkpt lat="43.22713" lon="5.37317">
        <ele>217.602783</ele>
        <time>2015-01-28T17:00:31Z</time>
      </trkpt>
      <trkpt lat="43.2271" lon="5.37313">
        <ele>217.397888</ele>
        <time>2015-01-28T17:00:35Z</time>
      </trkpt>
      <trkpt lat="43.22708" lon="5.37306">
        <ele>216.153412</ele>
        <time>2015-01-28T17:00:39Z</time>
      </trkpt>
      <trkpt lat="43.22706" lon="5.373">
        <ele>214.770874</ele>
        <time>2015-01-28T17:00:43Z</time>
      </trkpt>
      <trkpt lat="43.22706" lon="5.37292">
        <ele>212.599335</ele>
        <time>2015-01-28T17:00:49Z</time>
      </trkpt>
      <trkpt lat="43.22708" lon="5.37286">
        <ele>210.374832</ele>
        <time>2015-01-28T17:00:55Z</time>
      </trkpt>
      <trkpt lat="43.22707" lon="5.3728">
        <ele>208.680542</ele>
        <time>2015-01-28T17:01:01Z</time>
      </trkpt>
      <trkpt lat="43.22704" lon="5.37274">
        <ele>207.847839</ele>
        <time>2015-01-28T17:01:06Z</time>
      </trkpt>
      <trkpt lat="43.227" lon="5.3727">
        <ele>207.555176</ele>
        <time>2015-01-28T17:01:10Z</time>
      </trkpt>
      <trkpt lat="43.22698" lon="5.37265">
        <ele>206.655243</ele>
        <time>2015-01-28T17:01:18Z</time>
      </trkpt>
      <trkpt lat="43.22695" lon="5.37259">
        <ele>205.647614</ele>
        <time>2015-01-28T17:01:25Z</time>
      </trkpt>
      <trkpt lat="43.22693" lon="5.37253">
        <ele>204.463776</ele>
        <time>2015-01-28T17:01:31Z</time>
      </trkpt>
      <trkpt lat="43.22695" lon="5.37248">
        <ele>202.313751</ele>
        <time>2015-01-28T17:01:36Z</time>
      </trkpt>
      <trkpt lat="43.22692" lon="5.37242">
        <ele>201.333618</ele>
        <time>2015-01-28T17:01:41Z</time>
      </trkpt>
      <trkpt lat="43.2269" lon="5.37236">
        <ele>200.194992</ele>
        <time>2015-01-28T17:01:46Z</time>
      </trkpt>
      <trkpt lat="43.22689" lon="5.3723">
        <ele>198.742096</ele>
        <time>2015-01-28T17:01:55Z</time>
      </trkpt>
      <trkpt lat="43.22687" lon="5.37224">
        <ele>197.722702</ele>
        <time>2015-01-28T17:02:05Z</time>
      </trkpt>
      <trkpt lat="43.22683" lon="5.3722">
        <ele>197.368744</ele>
        <time>2015-01-28T17:02:11Z</time>
      </trkpt>
      <trkpt lat="43.22682" lon="5.37214">
        <ele>196.077179</ele>
        <time>2015-01-28T17:02:22Z</time>
      </trkpt>
      <trkpt lat="43.22679" lon="5.37208">
        <ele>194.966995</ele>
        <time>2015-01-28T17:02:29Z</time>
      </trkpt>
      <trkpt lat="43.22675" lon="5.37204">
        <ele>194.720428</ele>
        <time>2015-01-28T17:03:03Z</time>
      </trkpt>
      <trkpt lat="43.22672" lon="5.37199">
        <ele>194.01828</ele>
        <time>2015-01-28T17:03:13Z</time>
      </trkpt>
      <trkpt lat="43.22683" lon="5.37194">
        <ele>190.010574</ele>
        <time>2015-01-28T17:03:17Z</time>
      </trkpt>
      <trkpt lat="43.22678" lon="5.3719">
        <ele>190.026337</ele>
        <time>2015-01-28T17:03:22Z</time>
      </trkpt>
      <trkpt lat="43.22674" lon="5.37185">
        <ele>189.387787</ele>
        <time>2015-01-28T17:03:26Z</time>
      </trkpt>
      <trkpt lat="43.22671" lon="5.3718">
        <ele>188.830002</ele>
        <time>2015-01-28T17:03:32Z</time>
      </trkpt>
      <trkpt lat="43.22667" lon="5.37175">
        <ele>188.289108</ele>
        <time>2015-01-28T17:03:38Z</time>
      </trkpt>
      <trkpt lat="43.22663" lon="5.37171">
        <ele>191.486511</ele>
        <time>2015-01-28T17:03:45Z</time>
      </trkpt>
      <trkpt lat="43.22659" lon="5.37166">
        <ele>194.411133</ele>
        <time>2015-01-28T17:03:49Z</time>
      </trkpt>
      <trkpt lat="43.22661" lon="5.37159">
        <ele>192.017761</ele>
        <time>2015-01-28T17:04:27Z</time>
      </trkpt>
      <trkpt lat="43.22664" lon="5.37154">
        <ele>188.487289</ele>
        <time>2015-01-28T17:05:47Z</time>
      </trkpt>
      <trkpt lat="43.22662" lon="5.37148">
        <ele>190.299652</ele>
        <time>2015-01-28T17:05:56Z</time>
      </trkpt>
      <trkpt lat="43.22658" lon="5.37144">
        <ele>194.540787</ele>
        <time>2015-01-28T17:06:01Z</time>
      </trkpt>
      <trkpt lat="43.2266" lon="5.37139">
        <ele>191.680847</ele>
        <time>2015-01-28T17:06:08Z</time>
      </trkpt>
      <trkpt lat="43.22664" lon="5.37134">
        <ele>188.366211</ele>
        <time>2015-01-28T17:06:14Z</time>
      </trkpt>
      <trkpt lat="43.22667" lon="5.3713">
        <ele>184.900131</ele>
        <time>2015-01-28T17:06:20Z</time>
      </trkpt>
      <trkpt lat="43.22671" lon="5.37126">
        <ele>183.601944</ele>
        <time>2015-01-28T17:06:24Z</time>
      </trkpt>
      <trkpt lat="43.22676" lon="5.37124">
        <ele>182.009995</ele>
        <time>2015-01-28T17:06:28Z</time>
      </trkpt>
      <trkpt lat="43.2268" lon="5.37118">
        <ele>180.435181</ele>
        <time>2015-01-28T17:06:32Z</time>
      </trkpt>
      <trkpt lat="43.22683" lon="5.37113">
        <ele>179.076065</ele>
        <time>2015-01-28T17:06:38Z</time>
      </trkpt>
      <trkpt lat="43.22687" lon="5.37108">
        <ele>177.484985</ele>
        <time>2015-01-28T17:06:43Z</time>
      </trkpt>
      <trkpt lat="43.22689" lon="5.37102">
        <ele>176.100494</ele>
        <time>2015-01-28T17:06:48Z</time>
      </trkpt>
      <trkpt lat="43.22693" lon="5.37097">
        <ele>174.376923</ele>
        <time>2015-01-28T17:06:53Z</time>
      </trkpt>
      <trkpt lat="43.22695" lon="5.37091">
        <ele>173.160187</ele>
        <time>2015-01-28T17:06:58Z</time>
      </trkpt>
      <trkpt lat="43.22696" lon="5.37084">
        <ele>172.011642</ele>
        <time>2015-01-28T17:07:03Z</time>
      </trkpt>
      <trkpt lat="43.22696" lon="5.37077">
        <ele>171.497345</ele>
        <time>2015-01-28T17:07:08Z</time>
      </trkpt>
      <trkpt lat="43.22697" lon="5.3707">
        <ele>170.635895</ele>
        <time>2015-01-28T17:07:14Z</time>
      </trkpt>
      <trkpt lat="43.22699" lon="5.37063">
        <ele>169.593979</ele>
        <time>2015-01-28T17:07:18Z</time>
      </trkpt>
      <trkpt lat="43.22703" lon="5.3706">
        <ele>167.985001</ele>
        <time>2015-01-28T17:07:25Z</time>
      </trkpt>
      <trkpt lat="43.22705" lon="5.37054">
        <ele>166.930695</ele>
        <time>2015-01-28T17:07:33Z</time>
      </trkpt>
      <trkpt lat="43.22711" lon="5.37052">
        <ele>164.760468</ele>
        <time>2015-01-28T17:07:38Z</time>
      </trkpt>
      <trkpt lat="43.22718" lon="5.37046">
        <ele>162.334656</ele>
        <time>2015-01-28T17:07:42Z</time>
      </trkpt>
      <trkpt lat="43.22721" lon="5.37041">
        <ele>161.069366</ele>
        <time>2015-01-28T17:07:46Z</time>
      </trkpt>
      <trkpt lat="43.22723" lon="5.37035">
        <ele>160.481354</ele>
        <time>2015-01-28T17:07:52Z</time>
      </trkpt>
      <trkpt lat="43.22722" lon="5.37028">
        <ele>160.485901</ele>
        <time>2015-01-28T17:07:56Z</time>
      </trkpt>
      <trkpt lat="43.2272" lon="5.37022">
        <ele>161.131683</ele>
        <time>2015-01-28T17:08:06Z</time>
      </trkpt>
      <trkpt lat="43.2272" lon="5.37015">
        <ele>160.751343</ele>
        <time>2015-01-28T17:08:14Z</time>
      </trkpt>
      <trkpt lat="43.22718" lon="5.37009">
        <ele>161.200729</ele>
        <time>2015-01-28T17:08:30Z</time>
      </trkpt>
      <trkpt lat="43.2272" lon="5.37003">
        <ele>160.708725</ele>
        <time>2015-01-28T17:08:54Z</time>
      </trkpt>
      <trkpt lat="43.22717" lon="5.36997">
        <ele>160.935059</ele>
        <time>2015-01-28T17:08:59Z</time>
      </trkpt>
      <trkpt lat="43.22717" lon="5.36991">
        <ele>160.127472</ele>
        <time>2015-01-28T17:09:09Z</time>
      </trkpt>
      <trkpt lat="43.22716" lon="5.36984">
        <ele>159.332764</ele>
        <time>2015-01-28T17:09:26Z</time>
      </trkpt>
      <trkpt lat="43.22713" lon="5.36978">
        <ele>158.982391</ele>
        <time>2015-01-28T17:09:34Z</time>
      </trkpt>
      <trkpt lat="43.22712" lon="5.36971">
        <ele>158.153107</ele>
        <time>2015-01-28T17:09:46Z</time>
      </trkpt>
      <trkpt lat="43.2271" lon="5.36965">
        <ele>157.570206</ele>
        <time>2015-01-28T17:09:58Z</time>
      </trkpt>
      <trkpt lat="43.22707" lon="5.3696">
        <ele>157.24408</ele>
        <time>2015-01-28T17:10:04Z</time>
      </trkpt>
      <trkpt lat="43.22704" lon="5.36955">
        <ele>156.720322</ele>
        <time>2015-01-28T17:10:13Z</time>
      </trkpt>
      <trkpt lat="43.22705" lon="5.36949">
        <ele>155.525208</ele>
        <time>2015-01-28T17:10:22Z</time>
      </trkpt>
      <trkpt lat="43.22703" lon="5.36943">
        <ele>154.677643</ele>
        <time>2015-01-28T17:10:30Z</time>
      </trkpt>
      <trkpt lat="43.22699" lon="5.36938">
        <ele>154.036469</ele>
        <time>2015-01-28T17:10:34Z</time>
      </trkpt>
      <trkpt lat="43.22699" lon="5.36931">
        <ele>152.741806</ele>
        <time>2015-01-28T17:10:45Z</time>
      </trkpt>
      <trkpt lat="43.22697" lon="5.36925">
        <ele>151.557495</ele>
        <time>2015-01-28T17:10:51Z</time>
      </trkpt>
      <trkpt lat="43.22694" lon="5.3692">
        <ele>150.653992</ele>
        <time>2015-01-28T17:10:57Z</time>
      </trkpt>
      <trkpt lat="43.2269" lon="5.36916">
        <ele>149.791656</ele>
        <time>2015-01-28T17:11:02Z</time>
      </trkpt>
      <trkpt lat="43.22689" lon="5.3691">
        <ele>148.343384</ele>
        <time>2015-01-28T17:11:08Z</time>
      </trkpt>
      <trkpt lat="43.22685" lon="5.36906">
        <ele>147.323029</ele>
        <time>2015-01-28T17:11:14Z</time>
      </trkpt>
      <trkpt lat="43.22682" lon="5.36901">
        <ele>146.11644</ele>
        <time>2015-01-28T17:11:24Z</time>
      </trkpt>
      <trkpt lat="43.22678" lon="5.36895">
        <ele>144.557999</ele>
        <time>2015-01-28T17:11:56Z</time>
      </trkpt>
      <trkpt lat="43.22675" lon="5.3689">
        <ele>143.384888</ele>
        <time>2015-01-28T17:12:02Z</time>
      </trkpt>
      <trkpt lat="43.22673" lon="5.36884">
        <ele>141.898315</ele>
        <time>2015-01-28T17:12:10Z</time>
      </trkpt>
      <trkpt lat="43.2267" lon="5.36879">
        <ele>140.411911</ele>
        <time>2015-01-28T17:12:17Z</time>
      </trkpt>
      <trkpt lat="43.2267" lon="5.36872">
        <ele>138.84552</ele>
        <time>2015-01-28T17:12:22Z</time>
      </trkpt>
      <trkpt lat="43.22667" lon="5.36866">
        <ele>137.219711</ele>
        <time>2015-01-28T17:12:30Z</time>
      </trkpt>
      <trkpt lat="43.22665" lon="5.36861">
        <ele>136.74736</ele>
        <time>2015-01-28T17:12:34Z</time>
      </trkpt>
      <trkpt lat="43.22663" lon="5.36855">
        <ele>135.651779</ele>
        <time>2015-01-28T17:12:41Z</time>
      </trkpt>
      <trkpt lat="43.2266" lon="5.3685">
        <ele>135.523331</ele>
        <time>2015-01-28T17:12:52Z</time>
      </trkpt>
      <trkpt lat="43.22656" lon="5.36845">
        <ele>135.09137</ele>
        <time>2015-01-28T17:12:59Z</time>
      </trkpt>
      <trkpt lat="43.22654" lon="5.36839">
        <ele>134.23111</ele>
        <time>2015-01-28T17:13:05Z</time>
      </trkpt>
      <trkpt lat="43.22651" lon="5.36834">
        <ele>133.628876</ele>
        <time>2015-01-28T17:13:11Z</time>
      </trkpt>
      <trkpt lat="43.22648" lon="5.36829">
        <ele>133.15509</ele>
        <time>2015-01-28T17:13:18Z</time>
      </trkpt>
      <trkpt lat="43.22647" lon="5.36822">
        <ele>132.238892</ele>
        <time>2015-01-28T17:13:28Z</time>
      </trkpt>
      <trkpt lat="43.22645" lon="5.36817">
        <ele>131.885422</ele>
        <time>2015-01-28T17:13:39Z</time>
      </trkpt>
      <trkpt lat="43.2264" lon="5.36813">
        <ele>132.430847</ele>
        <time>2015-01-28T17:13:45Z</time>
      </trkpt>
      <trkpt lat="43.22636" lon="5.3681">
        <ele>132.789734</ele>
        <time>2015-01-28T17:13:51Z</time>
      </trkpt>
      <trkpt lat="43.22634" lon="5.36804">
        <ele>132.264938</ele>
        <time>2015-01-28T17:13:59Z</time>
      </trkpt>
      <trkpt lat="43.2263" lon="5.368">
        <ele>132.520325</ele>
        <time>2015-01-28T17:14:05Z</time>
      </trkpt>
      <trkpt lat="43.22627" lon="5.36796">
        <ele>132.52243</ele>
        <time>2015-01-28T17:14:12Z</time>
      </trkpt>
      <trkpt lat="43.22626" lon="5.36789">
        <ele>131.466843</ele>
        <time>2015-01-28T17:14:22Z</time>
      </trkpt>
      <trkpt lat="43.22626" lon="5.36783">
        <ele>130.210922</ele>
        <time>2015-01-28T17:14:35Z</time>
      </trkpt>
      <trkpt lat="43.22626" lon="5.36776">
        <ele>128.837646</ele>
        <time>2015-01-28T17:14:41Z</time>
      </trkpt>
      <trkpt lat="43.22625" lon="5.36769">
        <ele>127.703621</ele>
        <time>2015-01-28T17:14:47Z</time>
      </trkpt>
      <trkpt lat="43.22625" lon="5.36762">
        <ele>126.51001</ele>
        <time>2015-01-28T17:14:53Z</time>
      </trkpt>
      <trkpt lat="43.22626" lon="5.36755">
        <ele>124.8517</ele>
        <time>2015-01-28T17:14:58Z</time>
      </trkpt>
      <trkpt lat="43.22628" lon="5.36749">
        <ele>123.367523</ele>
        <time>2015-01-28T17:15:03Z</time>
      </trkpt>
      <trkpt lat="43.2263" lon="5.36743">
        <ele>123.064445</ele>
        <time>2015-01-28T17:15:08Z</time>
      </trkpt>
      <trkpt lat="43.22631" lon="5.36737">
        <ele>123.01915</ele>
        <time>2015-01-28T17:15:14Z</time>
      </trkpt>
      <trkpt lat="43.22632" lon="5.36731">
        <ele>123.18116</ele>
        <time>2015-01-28T17:15:20Z</time>
      </trkpt>
      <trkpt lat="43.22632" lon="5.36724">
        <ele>123.285652</ele>
        <time>2015-01-28T17:15:26Z</time>
      </trkpt>
      <trkpt lat="43.22632" lon="5.36717">
        <ele>123.701248</ele>
        <time>2015-01-28T17:15:34Z</time>
      </trkpt>
      <trkpt lat="43.22634" lon="5.36711">
        <ele>123.443451</ele>
        <time>2015-01-28T17:15:41Z</time>
      </trkpt>
      <trkpt lat="43.22636" lon="5.36705">
        <ele>123.156342</ele>
        <time>2015-01-28T17:15:52Z</time>
      </trkpt>
      <trkpt lat="43.2264" lon="5.36702">
        <ele>122.068695</ele>
        <time>2015-01-28T17:16:07Z</time>
      </trkpt>
      <trkpt lat="43.22645" lon="5.36701">
        <ele>120.849541</ele>
        <time>2015-01-28T17:16:13Z</time>
      </trkpt>
      <trkpt lat="43.22649" lon="5.36703">
        <ele>119.488037</ele>
        <time>2015-01-28T17:16:23Z</time>
      </trkpt>
      <trkpt lat="43.22654" lon="5.36706">
        <ele>118.130135</ele>
        <time>2015-01-28T17:16:33Z</time>
      </trkpt>
      <trkpt lat="43.22657" lon="5.36702">
        <ele>117.324539</ele>
        <time>2015-01-28T17:16:42Z</time>
      </trkpt>
      <trkpt lat="43.22662" lon="5.36702">
        <ele>116.020721</ele>
        <time>2015-01-28T17:16:52Z</time>
      </trkpt>
      <trkpt lat="43.22667" lon="5.36701">
        <ele>114.791634</ele>
        <time>2015-01-28T17:16:59Z</time>
      </trkpt>
      <trkpt lat="43.22672" lon="5.367">
        <ele>114.072853</ele>
        <time>2015-01-28T17:17:04Z</time>
      </trkpt>
      <trkpt lat="43.22677" lon="5.367">
        <ele>113.340088</ele>
        <time>2015-01-28T17:17:09Z</time>
      </trkpt>
      <trkpt lat="43.22681" lon="5.36703">
        <ele>112.580849</ele>
        <time>2015-01-28T17:17:16Z</time>
      </trkpt>
      <trkpt lat="43.22685" lon="5.36705">
        <ele>111.901421</ele>
        <time>2015-01-28T17:17:22Z</time>
      </trkpt>
      <trkpt lat="43.2269" lon="5.36705">
        <ele>111.215958</ele>
        <time>2015-01-28T17:17:36Z</time>
      </trkpt>
      <trkpt lat="43.22695" lon="5.36705">
        <ele>110.507187</ele>
        <time>2015-01-28T17:17:44Z</time>
      </trkpt>
      <trkpt lat="43.227" lon="5.36704">
        <ele>109.830353</ele>
        <time>2015-01-28T17:17:49Z</time>
      </trkpt>
      <trkpt lat="43.22704" lon="5.36701">
        <ele>109.305679</ele>
        <time>2015-01-28T17:17:55Z</time>
      </trkpt>
      <trkpt lat="43.22708" lon="5.36698">
        <ele>108.698318</ele>
        <time>2015-01-28T17:18:02Z</time>
      </trkpt>
      <trkpt lat="43.22711" lon="5.36693">
        <ele>108.245041</ele>
        <time>2015-01-28T17:18:14Z</time>
      </trkpt>
      <trkpt lat="43.22716" lon="5.36693">
        <ele>107.459869</ele>
        <time>2015-01-28T17:18:19Z</time>
      </trkpt>
      <trkpt lat="43.22721" lon="5.36695">
        <ele>106.72953</ele>
        <time>2015-01-28T17:18:23Z</time>
      </trkpt>
      <trkpt lat="43.22723" lon="5.36701">
        <ele>106.382942</ele>
        <time>2015-01-28T17:18:31Z</time>
      </trkpt>
      <trkpt lat="43.22719" lon="5.36698">
        <ele>107.031494</ele>
        <time>2015-01-28T17:18:45Z</time>
      </trkpt>
      <trkpt lat="43.22721" lon="5.36691">
        <ele>106.808197</ele>
        <time>2015-01-28T17:19:40Z</time>
      </trkpt>
      <trkpt lat="43.22725" lon="5.36689">
        <ele>106.181313</ele>
        <time>2015-01-28T17:19:47Z</time>
      </trkpt>
      <trkpt lat="43.22731" lon="5.3669">
        <ele>105.250145</ele>
        <time>2015-01-28T17:19:55Z</time>
      </trkpt>
      <trkpt lat="43.22736" lon="5.36691">
        <ele>104.526703</ele>
        <time>2015-01-28T17:19:59Z</time>
      </trkpt>
      <trkpt lat="43.2274" lon="5.36694">
        <ele>103.854179</ele>
        <time>2015-01-28T17:20:04Z</time>
      </trkpt>
      <trkpt lat="43.22744" lon="5.36697">
        <ele>103.258736</ele>
        <time>2015-01-28T17:20:11Z</time>
      </trkpt>
      <trkpt lat="43.22749" lon="5.36697">
        <ele>102.56031</ele>
        <time>2015-01-28T17:20:17Z</time>
      </trkpt>
      <trkpt lat="43.22753" lon="5.36698">
        <ele>101.59272</ele>
        <time>2015-01-28T17:20:23Z</time>
      </trkpt>
      <trkpt lat="43.22758" lon="5.36699">
        <ele>100.563194</ele>
        <time>2015-01-28T17:20:28Z</time>
      </trkpt>
      <trkpt lat="43.22763" lon="5.36701">
        <ele>99.398796</ele>
        <time>2015-01-28T17:20:32Z</time>
      </trkpt>
      <trkpt lat="43.22769" lon="5.36699">
        <ele>98.098152</ele>
        <time>2015-01-28T17:20:36Z</time>
      </trkpt>
      <trkpt lat="43.22774" lon="5.36699">
        <ele>96.922722</ele>
        <time>2015-01-28T17:20:40Z</time>
      </trkpt>
      <trkpt lat="43.22778" lon="5.36702">
        <ele>95.881241</ele>
        <time>2015-01-28T17:20:45Z</time>
      </trkpt>
      <trkpt lat="43.22783" lon="5.36704">
        <ele>94.797058</ele>
        <time>2015-01-28T17:20:50Z</time>
      </trkpt>
      <trkpt lat="43.22788" lon="5.36705">
        <ele>93.646637</ele>
        <time>2015-01-28T17:20:56Z</time>
      </trkpt>
      <trkpt lat="43.22793" lon="5.36705">
        <ele>92.417694</ele>
        <time>2015-01-28T17:21:00Z</time>
      </trkpt>
      <trkpt lat="43.22798" lon="5.36702">
        <ele>91.246948</ele>
        <time>2015-01-28T17:21:04Z</time>
      </trkpt>
      <trkpt lat="43.22802" lon="5.367">
        <ele>90.216354</ele>
        <time>2015-01-28T17:21:09Z</time>
      </trkpt>
      <trkpt lat="43.22807" lon="5.36698">
        <ele>89.067825</ele>
        <time>2015-01-28T17:21:15Z</time>
      </trkpt>
      <trkpt lat="43.22812" lon="5.36696">
        <ele>88.05571</ele>
        <time>2015-01-28T17:21:21Z</time>
      </trkpt>
      <trkpt lat="43.22816" lon="5.36693">
        <ele>86.955971</ele>
        <time>2015-01-28T17:21:25Z</time>
      </trkpt>
      <trkpt lat="43.22821" lon="5.36695">
        <ele>85.948738</ele>
        <time>2015-01-28T17:21:30Z</time>
      </trkpt>
      <trkpt lat="43.22826" lon="5.36697">
        <ele>84.753929</ele>
        <time>2015-01-28T17:21:35Z</time>
      </trkpt>
      <trkpt lat="43.2283" lon="5.36695">
        <ele>83.702927</ele>
        <time>2015-01-28T17:21:40Z</time>
      </trkpt>
      <trkpt lat="43.22836" lon="5.36695">
        <ele>82.541145</ele>
        <time>2015-01-28T17:21:46Z</time>
      </trkpt>
      <trkpt lat="43.2284" lon="5.36696">
        <ele>81.599548</ele>
        <time>2015-01-28T17:21:50Z</time>
      </trkpt>
      <trkpt lat="43.22845" lon="5.36698">
        <ele>80.659225</ele>
        <time>2015-01-28T17:21:55Z</time>
      </trkpt>
      <trkpt lat="43.22849" lon="5.36697">
        <ele>79.739822</ele>
        <time>2015-01-28T17:22:00Z</time>
      </trkpt>
      <trkpt lat="43.22854" lon="5.36697">
        <ele>78.793594</ele>
        <time>2015-01-28T17:22:04Z</time>
      </trkpt>
      <trkpt lat="43.22858" lon="5.36694">
        <ele>77.893379</ele>
        <time>2015-01-28T17:22:13Z</time>
      </trkpt>
      <trkpt lat="43.22863" lon="5.36694">
        <ele>76.852829</ele>
        <time>2015-01-28T17:22:18Z</time>
      </trkpt>
      <trkpt lat="43.2287" lon="5.36694">
        <ele>75.48658</ele>
        <time>2015-01-28T17:22:22Z</time>
      </trkpt>
      <trkpt lat="43.22875" lon="5.36693">
        <ele>74.401108</ele>
        <time>2015-01-28T17:22:27Z</time>
      </trkpt>
      <trkpt lat="43.22879" lon="5.36691">
        <ele>73.45253</ele>
        <time>2015-01-28T17:22:31Z</time>
      </trkpt>
      <trkpt lat="43.22884" lon="5.3669">
        <ele>72.527908</ele>
        <time>2015-01-28T17:22:37Z</time>
      </trkpt>
      <trkpt lat="43.22888" lon="5.36688">
        <ele>71.598663</ele>
        <time>2015-01-28T17:22:44Z</time>
      </trkpt>
      <trkpt lat="43.22892" lon="5.36684">
        <ele>70.995285</ele>
        <time>2015-01-28T17:22:50Z</time>
      </trkpt>
      <trkpt lat="43.22897" lon="5.36681">
        <ele>69.944893</ele>
        <time>2015-01-28T17:22:56Z</time>
      </trkpt>
      <trkpt lat="43.22902" lon="5.36681">
        <ele>68.858917</ele>
        <time>2015-01-28T17:23:01Z</time>
      </trkpt>
      <trkpt lat="43.22907" lon="5.36677">
        <ele>67.956329</ele>
        <time>2015-01-28T17:23:05Z</time>
      </trkpt>
      <trkpt lat="43.22912" lon="5.36675">
        <ele>66.955444</ele>
        <time>2015-01-28T17:23:09Z</time>
      </trkpt>
      <trkpt lat="43.22917" lon="5.36674">
        <ele>65.901588</ele>
        <time>2015-01-28T17:23:13Z</time>
      </trkpt>
      <trkpt lat="43.22922" lon="5.36674">
        <ele>64.970222</ele>
        <time>2015-01-28T17:23:19Z</time>
      </trkpt>
      <trkpt lat="43.22927" lon="5.36675">
        <ele>63.986324</ele>
        <time>2015-01-28T17:23:24Z</time>
      </trkpt>
      <trkpt lat="43.22931" lon="5.36676">
        <ele>63.062485</ele>
        <time>2015-01-28T17:23:30Z</time>
      </trkpt>
      <trkpt lat="43.22936" lon="5.36675">
        <ele>62.166649</ele>
        <time>2015-01-28T17:23:34Z</time>
      </trkpt>
      <trkpt lat="43.22941" lon="5.36675">
        <ele>61.292679</ele>
        <time>2015-01-28T17:23:39Z</time>
      </trkpt>
      <trkpt lat="43.22945" lon="5.36675">
        <ele>60.341885</ele>
        <time>2015-01-28T17:23:44Z</time>
      </trkpt>
      <trkpt lat="43.22951" lon="5.36677">
        <ele>59.44841</ele>
        <time>2015-01-28T17:23:49Z</time>
      </trkpt>
      <trkpt lat="43.22955" lon="5.3668">
        <ele>58.778984</ele>
        <time>2015-01-28T17:23:54Z</time>
      </trkpt>
      <trkpt lat="43.22957" lon="5.36685">
        <ele>58.543755</ele>
        <time>2015-01-28T17:24:08Z</time>
      </trkpt>
      <trkpt lat="43.2296" lon="5.36691">
        <ele>58.217216</ele>
        <time>2015-01-28T17:24:37Z</time>
      </trkpt>
      <trkpt lat="43.22962" lon="5.36697">
        <ele>58.231087</ele>
        <time>2015-01-28T17:24:45Z</time>
      </trkpt>
      <trkpt lat="43.22963" lon="5.36704">
        <ele>58.354855</ele>
        <time>2015-01-28T17:24:51Z</time>
      </trkpt>
      <trkpt lat="43.22965" lon="5.3671">
        <ele>58.384125</ele>
        <time>2015-01-28T17:24:55Z</time>
      </trkpt>
      <trkpt lat="43.22968" lon="5.36715">
        <ele>58.144501</ele>
        <time>2015-01-28T17:24:59Z</time>
      </trkpt>
      <trkpt lat="43.2297" lon="5.3672">
        <ele>58.150642</ele>
        <time>2015-01-28T17:25:03Z</time>
      </trkpt>
      <trkpt lat="43.22975" lon="5.36724">
        <ele>57.820358</ele>
        <time>2015-01-28T17:25:11Z</time>
      </trkpt>
      <trkpt lat="43.2298" lon="5.36727">
        <ele>57.393738</ele>
        <time>2015-01-28T17:25:15Z</time>
      </trkpt>
      <trkpt lat="43.22984" lon="5.36732">
        <ele>57.2192</ele>
        <time>2015-01-28T17:25:20Z</time>
      </trkpt>
      <trkpt lat="43.22987" lon="5.36736">
        <ele>57.073757</ele>
        <time>2015-01-28T17:25:25Z</time>
      </trkpt>
      <trkpt lat="43.22992" lon="5.36738">
        <ele>56.739296</ele>
        <time>2015-01-28T17:25:29Z</time>
      </trkpt>
      <trkpt lat="43.22997" lon="5.36738">
        <ele>56.175503</ele>
        <time>2015-01-28T17:25:33Z</time>
      </trkpt>
      <trkpt lat="43.23001" lon="5.36733">
        <ele>55.375523</ele>
        <time>2015-01-28T17:25:37Z</time>
      </trkpt>
      <trkpt lat="43.23004" lon="5.36728">
        <ele>54.936089</ele>
        <time>2015-01-28T17:25:41Z</time>
      </trkpt>
      <trkpt lat="43.23007" lon="5.36723">
        <ele>54.423679</ele>
        <time>2015-01-28T17:25:45Z</time>
      </trkpt>
      <trkpt lat="43.23011" lon="5.36718">
        <ele>53.977585</ele>
        <time>2015-01-28T17:25:50Z</time>
      </trkpt>
      <trkpt lat="43.23015" lon="5.36714">
        <ele>53.459274</ele>
        <time>2015-01-28T17:25:55Z</time>
      </trkpt>
      <trkpt lat="43.23019" lon="5.36709">
        <ele>52.956882</ele>
        <time>2015-01-28T17:25:59Z</time>
      </trkpt>
      <trkpt lat="43.23025" lon="5.3671">
        <ele>53.025845</ele>
        <time>2015-01-28T17:26:05Z</time>
      </trkpt>
      <trkpt lat="43.2303" lon="5.3671">
        <ele>52.993431</ele>
        <time>2015-01-28T17:26:09Z</time>
      </trkpt>
      <trkpt lat="43.23035" lon="5.3671">
        <ele>52.958214</ele>
        <time>2015-01-28T17:26:13Z</time>
      </trkpt>
      <trkpt lat="43.2304" lon="5.36709">
        <ele>52.851845</ele>
        <time>2015-01-28T17:26:18Z</time>
      </trkpt>
      <trkpt lat="43.23045" lon="5.36708">
        <ele>52.660156</ele>
        <time>2015-01-28T17:26:23Z</time>
      </trkpt>
      <trkpt lat="43.2305" lon="5.36708">
        <ele>52.696121</ele>
        <time>2015-01-28T17:26:28Z</time>
      </trkpt>
      <trkpt lat="43.23056" lon="5.36709">
        <ele>52.684898</ele>
        <time>2015-01-28T17:26:33Z</time>
      </trkpt>
      <trkpt lat="43.2306" lon="5.36706">
        <ele>52.361256</ele>
        <time>2015-01-28T17:26:38Z</time>
      </trkpt>
      <trkpt lat="43.23065" lon="5.36704">
        <ele>51.92622</ele>
        <time>2015-01-28T17:26:44Z</time>
      </trkpt>
      <trkpt lat="43.2307" lon="5.36704">
        <ele>51.913078</ele>
        <time>2015-01-28T17:26:48Z</time>
      </trkpt>
      <trkpt lat="43.23074" lon="5.36705">
        <ele>52.070316</ele>
        <time>2015-01-28T17:26:52Z</time>
      </trkpt>
      <trkpt lat="43.23079" lon="5.36707">
        <ele>52.267281</ele>
        <time>2015-01-28T17:26:56Z</time>
      </trkpt>
      <trkpt lat="43.23084" lon="5.36708">
        <ele>52.437317</ele>
        <time>2015-01-28T17:27:00Z</time>
      </trkpt>
      <trkpt lat="43.23088" lon="5.36711">
        <ele>52.755615</ele>
        <time>2015-01-28T17:27:04Z</time>
      </trkpt>
      <trkpt lat="43.23093" lon="5.36713">
        <ele>53.01297</ele>
        <time>2015-01-28T17:27:09Z</time>
      </trkpt>
      <trkpt lat="43.23097" lon="5.36715">
        <ele>53.140259</ele>
        <time>2015-01-28T17:27:14Z</time>
      </trkpt>
      <trkpt lat="43.23103" lon="5.36716">
        <ele>53.154358</ele>
        <time>2015-01-28T17:27:19Z</time>
      </trkpt>
      <trkpt lat="43.23108" lon="5.36715">
        <ele>52.905731</ele>
        <time>2015-01-28T17:27:24Z</time>
      </trkpt>
      <trkpt lat="43.23114" lon="5.36713">
        <ele>52.511475</ele>
        <time>2015-01-28T17:27:28Z</time>
      </trkpt>
      <trkpt lat="43.23118" lon="5.36714">
        <ele>52.527435</ele>
        <time>2015-01-28T17:27:32Z</time>
      </trkpt>
      <trkpt lat="43.23123" lon="5.36714">
        <ele>52.430023</ele>
        <time>2015-01-28T17:27:37Z</time>
      </trkpt>
      <trkpt lat="43.23128" lon="5.36714">
        <ele>52.338684</ele>
        <time>2015-01-28T17:27:41Z</time>
      </trkpt>
      <trkpt lat="43.23133" lon="5.36716">
        <ele>52.557678</ele>
        <time>2015-01-28T17:27:46Z</time>
      </trkpt>
      <trkpt lat="43.23138" lon="5.36718">
        <ele>52.662201</ele>
        <time>2015-01-28T17:27:51Z</time>
      </trkpt>
      <trkpt lat="43.23142" lon="5.3672">
        <ele>52.882996</ele>
        <time>2015-01-28T17:27:56Z</time>
      </trkpt>
      <trkpt lat="43.23147" lon="5.36724">
        <ele>53.356781</ele>
        <time>2015-01-28T17:28:01Z</time>
      </trkpt>
      <trkpt lat="43.23152" lon="5.36725">
        <ele>53.422699</ele>
        <time>2015-01-28T17:28:05Z</time>
      </trkpt>
      <trkpt lat="43.23155" lon="5.3673">
        <ele>54.18689</ele>
        <time>2015-01-28T17:28:10Z</time>
      </trkpt>
      <trkpt lat="43.23159" lon="5.36735">
        <ele>54.788055</ele>
        <time>2015-01-28T17:28:15Z</time>
      </trkpt>
      <trkpt lat="43.23164" lon="5.36737">
        <ele>55.088165</ele>
        <time>2015-01-28T17:28:20Z</time>
      </trkpt>
      <trkpt lat="43.23169" lon="5.36741">
        <ele>55.491512</ele>
        <time>2015-01-28T17:28:25Z</time>
      </trkpt>
      <trkpt lat="43.23173" lon="5.36742">
        <ele>55.355152</ele>
        <time>2015-01-28T17:28:31Z</time>
      </trkpt>
      <trkpt lat="43.23178" lon="5.36741">
        <ele>55.08078</ele>
        <time>2015-01-28T17:28:38Z</time>
      </trkpt>
      <trkpt lat="43.23183" lon="5.36745">
        <ele>55.275429</ele>
        <time>2015-01-28T17:28:43Z</time>
      </trkpt>
      <trkpt lat="43.23189" lon="5.36748">
        <ele>55.401699</ele>
        <time>2015-01-28T17:28:46Z</time>
      </trkpt>
      <trkpt lat="43.23193" lon="5.36751">
        <ele>55.587864</ele>
        <time>2015-01-28T17:28:50Z</time>
      </trkpt>
      <trkpt lat="43.23195" lon="5.36757">
        <ele>56.136032</ele>
        <time>2015-01-28T17:28:55Z</time>
      </trkpt>
      <trkpt lat="43.232" lon="5.36761">
        <ele>56.215408</ele>
        <time>2015-01-28T17:29:00Z</time>
      </trkpt>
      <trkpt lat="43.23205" lon="5.36764">
        <ele>56.264328</ele>
        <time>2015-01-28T17:29:05Z</time>
      </trkpt>
      <trkpt lat="43.23208" lon="5.36769">
        <ele>56.623726</ele>
        <time>2015-01-28T17:29:10Z</time>
      </trkpt>
      <trkpt lat="43.23211" lon="5.36776">
        <ele>57.060928</ele>
        <time>2015-01-28T17:29:15Z</time>
      </trkpt>
      <trkpt lat="43.23215" lon="5.36781">
        <ele>57.31852</ele>
        <time>2015-01-28T17:29:19Z</time>
      </trkpt>
      <trkpt lat="43.23218" lon="5.36787">
        <ele>57.562225</ele>
        <time>2015-01-28T17:29:23Z</time>
      </trkpt>
      <trkpt lat="43.2322" lon="5.36793">
        <ele>58.02129</ele>
        <time>2015-01-28T17:29:30Z</time>
      </trkpt>
      <trkpt lat="43.2322" lon="5.36799">
        <ele>58.67569</ele>
        <time>2015-01-28T17:29:34Z</time>
      </trkpt>
      <trkpt lat="43.2322" lon="5.36807">
        <ele>59.373695</ele>
        <time>2015-01-28T17:29:38Z</time>
      </trkpt>
      <trkpt lat="43.23224" lon="5.36814">
        <ele>59.645683</ele>
        <time>2015-01-28T17:29:42Z</time>
      </trkpt>
      <trkpt lat="43.23227" lon="5.36818">
        <ele>59.599609</ele>
        <time>2015-01-28T17:29:47Z</time>
      </trkpt>
      <trkpt lat="43.23231" lon="5.36822">
        <ele>59.563911</ele>
        <time>2015-01-28T17:29:51Z</time>
      </trkpt>
      <trkpt lat="43.23234" lon="5.36828">
        <ele>59.66185</ele>
        <time>2015-01-28T17:29:55Z</time>
      </trkpt>
      <trkpt lat="43.23237" lon="5.36833">
        <ele>59.601883</ele>
        <time>2015-01-28T17:29:59Z</time>
      </trkpt>
      <trkpt lat="43.23241" lon="5.36837">
        <ele>59.463451</ele>
        <time>2015-01-28T17:30:04Z</time>
      </trkpt>
      <trkpt lat="43.23246" lon="5.36839">
        <ele>59.008026</ele>
        <time>2015-01-28T17:30:08Z</time>
      </trkpt>
      <trkpt lat="43.23251" lon="5.36841">
        <ele>58.461708</ele>
        <time>2015-01-28T17:30:13Z</time>
      </trkpt>
      <trkpt lat="43.23255" lon="5.36843">
        <ele>58.229687</ele>
        <time>2015-01-28T17:30:18Z</time>
      </trkpt>
      <trkpt lat="43.2326" lon="5.36844">
        <ele>57.812119</ele>
        <time>2015-01-28T17:30:23Z</time>
      </trkpt>
      <trkpt lat="43.23263" lon="5.36848">
        <ele>57.774296</ele>
        <time>2015-01-28T17:30:28Z</time>
      </trkpt>
      <trkpt lat="43.23267" lon="5.36854">
        <ele>57.735817</ele>
        <time>2015-01-28T17:30:33Z</time>
      </trkpt>
      <trkpt lat="43.23269" lon="5.36861">
        <ele>58.049698</ele>
        <time>2015-01-28T17:30:38Z</time>
      </trkpt>
      <trkpt lat="43.23271" lon="5.36868">
        <ele>58.328995</ele>
        <time>2015-01-28T17:30:42Z</time>
      </trkpt>
      <trkpt lat="43.23274" lon="5.36873">
        <ele>58.417412</ele>
        <time>2015-01-28T17:30:47Z</time>
      </trkpt>
      <trkpt lat="43.23277" lon="5.36879">
        <ele>58.543839</ele>
        <time>2015-01-28T17:30:52Z</time>
      </trkpt>
      <trkpt lat="43.23281" lon="5.36884">
        <ele>58.445354</ele>
        <time>2015-01-28T17:30:57Z</time>
      </trkpt>
      <trkpt lat="43.23284" lon="5.3689">
        <ele>58.563652</ele>
        <time>2015-01-28T17:31:02Z</time>
      </trkpt>
      <trkpt lat="43.23288" lon="5.36895">
        <ele>58.409893</ele>
        <time>2015-01-28T17:31:05Z</time>
      </trkpt>
      <trkpt lat="43.23294" lon="5.36897">
        <ele>58.02121</ele>
        <time>2015-01-28T17:31:09Z</time>
      </trkpt>
      <trkpt lat="43.23297" lon="5.36903">
        <ele>58.008759</ele>
        <time>2015-01-28T17:31:15Z</time>
      </trkpt>
      <trkpt lat="43.233" lon="5.36909">
        <ele>58.095848</ele>
        <time>2015-01-28T17:31:19Z</time>
      </trkpt>
      <trkpt lat="43.23302" lon="5.36915">
        <ele>58.355064</ele>
        <time>2015-01-28T17:31:23Z</time>
      </trkpt>
      <trkpt lat="43.23303" lon="5.36922">
        <ele>58.478935</ele>
        <time>2015-01-28T17:31:28Z</time>
      </trkpt>
      <trkpt lat="43.23304" lon="5.36928">
        <ele>58.611969</ele>
        <time>2015-01-28T17:31:32Z</time>
      </trkpt>
      <trkpt lat="43.23308" lon="5.36935">
        <ele>58.448429</ele>
        <time>2015-01-28T17:31:37Z</time>
      </trkpt>
      <trkpt lat="43.2331" lon="5.3694">
        <ele>58.340431</ele>
        <time>2015-01-28T17:31:42Z</time>
      </trkpt>
      <trkpt lat="43.2331" lon="5.36947">
        <ele>58.649841</ele>
        <time>2015-01-28T17:31:46Z</time>
      </trkpt>
      <trkpt lat="43.23309" lon="5.36955">
        <ele>58.999489</ele>
        <time>2015-01-28T17:31:50Z</time>
      </trkpt>
      <trkpt lat="43.2331" lon="5.36961">
        <ele>59.137383</ele>
        <time>2015-01-28T17:31:55Z</time>
      </trkpt>
      <trkpt lat="43.23314" lon="5.36965">
        <ele>58.547749</ele>
        <time>2015-01-28T17:32:34Z</time>
      </trkpt>
      <trkpt lat="43.2331" lon="5.36966">
        <ele>59.301094</ele>
        <time>2015-01-28T17:33:08Z</time>
      </trkpt>
      <trkpt lat="43.23309" lon="5.36973">
        <ele>59.694626</ele>
        <time>2015-01-28T17:33:14Z</time>
      </trkpt>
      <trkpt lat="43.2331" lon="5.3698">
        <ele>59.852638</ele>
        <time>2015-01-28T17:33:18Z</time>
      </trkpt>
      <trkpt lat="43.2331" lon="5.36987">
        <ele>59.927002</ele>
        <time>2015-01-28T17:33:23Z</time>
      </trkpt>
      <trkpt lat="43.2331" lon="5.36995">
        <ele>60.238674</ele>
        <time>2015-01-28T17:33:28Z</time>
      </trkpt>
      <trkpt lat="43.23313" lon="5.37001">
        <ele>59.8745</ele>
        <time>2015-01-28T17:33:34Z</time>
      </trkpt>
      <trkpt lat="43.23316" lon="5.37006">
        <ele>59.414352</ele>
        <time>2015-01-28T17:33:39Z</time>
      </trkpt>
      <trkpt lat="43.23316" lon="5.37014">
        <ele>59.561581</ele>
        <time>2015-01-28T17:33:43Z</time>
      </trkpt>
      <trkpt lat="43.23316" lon="5.3702">
        <ele>59.715637</ele>
        <time>2015-01-28T17:33:47Z</time>
      </trkpt>
      <trkpt lat="43.23316" lon="5.37028">
        <ele>59.905651</ele>
        <time>2015-01-28T17:33:53Z</time>
      </trkpt>
      <trkpt lat="43.23314" lon="5.37035">
        <ele>60.486572</ele>
        <time>2015-01-28T17:33:57Z</time>
      </trkpt>
      <trkpt lat="43.23312" lon="5.37042">
        <ele>60.940189</ele>
        <time>2015-01-28T17:34:02Z</time>
      </trkpt>
      <trkpt lat="43.23312" lon="5.37048">
        <ele>61.256569</ele>
        <time>2015-01-28T17:34:06Z</time>
      </trkpt>
      <trkpt lat="43.23311" lon="5.37056">
        <ele>61.59816</ele>
        <time>2015-01-28T17:34:10Z</time>
      </trkpt>
      <trkpt lat="43.23315" lon="5.37058">
        <ele>60.549004</ele>
        <time>2015-01-28T17:34:23Z</time>
      </trkpt>
      <trkpt lat="43.2332" lon="5.37061">
        <ele>59.280067</ele>
        <time>2015-01-28T17:34:27Z</time>
      </trkpt>
      <trkpt lat="43.23324" lon="5.37065">
        <ele>58.45784</ele>
        <time>2015-01-28T17:34:36Z</time>
      </trkpt>
      <trkpt lat="43.23322" lon="5.37071">
        <ele>58.921524</ele>
        <time>2015-01-28T17:34:40Z</time>
      </trkpt>
      <trkpt lat="43.23327" lon="5.37076">
        <ele>57.78672</ele>
        <time>2015-01-28T17:34:52Z</time>
      </trkpt>
      <trkpt lat="43.2333" lon="5.3708">
        <ele>56.803288</ele>
        <time>2015-01-28T17:34:57Z</time>
      </trkpt>
      <trkpt lat="43.23328" lon="5.37086">
        <ele>57.576511</ele>
        <time>2015-01-28T17:35:03Z</time>
      </trkpt>
      <trkpt lat="43.23324" lon="5.37091">
        <ele>58.45002</ele>
        <time>2015-01-28T17:35:08Z</time>
      </trkpt>
      <trkpt lat="43.23322" lon="5.37098">
        <ele>58.877953</ele>
        <time>2015-01-28T17:35:29Z</time>
      </trkpt>
      <trkpt lat="43.23325" lon="5.37103">
        <ele>58.074371</ele>
        <time>2015-01-28T17:35:34Z</time>
      </trkpt>
      <trkpt lat="43.23326" lon="5.37109">
        <ele>57.53936</ele>
        <time>2015-01-28T17:35:45Z</time>
      </trkpt>
      <trkpt lat="43.23327" lon="5.37116">
        <ele>57.31221</ele>
        <time>2015-01-28T17:35:49Z</time>
      </trkpt>
      <trkpt lat="43.23325" lon="5.37124">
        <ele>57.515987</ele>
        <time>2015-01-28T17:35:53Z</time>
      </trkpt>
      <trkpt lat="43.23326" lon="5.3713">
        <ele>57.177338</ele>
        <time>2015-01-28T17:35:58Z</time>
      </trkpt>
      <trkpt lat="43.23328" lon="5.37137">
        <ele>56.705475</ele>
        <time>2015-01-28T17:36:04Z</time>
      </trkpt>
      <trkpt lat="43.23324" lon="5.37142">
        <ele>57.485664</ele>
        <time>2015-01-28T17:36:07Z</time>
      </trkpt>
      <trkpt lat="43.23328" lon="5.37147">
        <ele>56.566566</ele>
        <time>2015-01-28T17:36:11Z</time>
      </trkpt>
      <trkpt lat="43.23332" lon="5.37152">
        <ele>55.605389</ele>
        <time>2015-01-28T17:36:15Z</time>
      </trkpt>
      <trkpt lat="43.23334" lon="5.37159">
        <ele>55.053593</ele>
        <time>2015-01-28T17:36:19Z</time>
      </trkpt>
      <trkpt lat="43.23337" lon="5.37165">
        <ele>54.852276</ele>
        <time>2015-01-28T17:36:23Z</time>
      </trkpt>
      <trkpt lat="43.23338" lon="5.37172">
        <ele>55.007725</ele>
        <time>2015-01-28T17:36:28Z</time>
      </trkpt>
      <trkpt lat="43.2334" lon="5.37178">
        <ele>55.143845</ele>
        <time>2015-01-28T17:36:33Z</time>
      </trkpt>
      <trkpt lat="43.23341" lon="5.37185">
        <ele>55.356808</ele>
        <time>2015-01-28T17:36:37Z</time>
      </trkpt>
      <trkpt lat="43.23343" lon="5.37191">
        <ele>55.557549</ele>
        <time>2015-01-28T17:36:41Z</time>
      </trkpt>
      <trkpt lat="43.23346" lon="5.37196">
        <ele>55.648186</ele>
        <time>2015-01-28T17:36:48Z</time>
      </trkpt>
      <trkpt lat="43.23349" lon="5.37201">
        <ele>55.776169</ele>
        <time>2015-01-28T17:36:57Z</time>
      </trkpt>
      <trkpt lat="43.23354" lon="5.37201">
        <ele>55.646709</ele>
        <time>2015-01-28T17:37:02Z</time>
      </trkpt>
      <trkpt lat="43.23358" lon="5.37196">
        <ele>55.2827</ele>
        <time>2015-01-28T17:37:07Z</time>
      </trkpt>
      <trkpt lat="43.23361" lon="5.37192">
        <ele>54.961609</ele>
        <time>2015-01-28T17:37:20Z</time>
      </trkpt>
      <trkpt lat="43.23365" lon="5.37187">
        <ele>54.583496</ele>
        <time>2015-01-28T17:37:28Z</time>
      </trkpt>
      <trkpt lat="43.23369" lon="5.37184">
        <ele>54.264717</ele>
        <time>2015-01-28T17:37:32Z</time>
      </trkpt>
      <trkpt lat="43.23375" lon="5.37181">
        <ele>53.867165</ele>
        <time>2015-01-28T17:37:36Z</time>
      </trkpt>
      <trkpt lat="43.2338" lon="5.37181">
        <ele>53.660484</ele>
        <time>2015-01-28T17:37:39Z</time>
      </trkpt>
      <trkpt lat="43.23384" lon="5.37178">
        <ele>53.281952</ele>
        <time>2015-01-28T17:37:45Z</time>
      </trkpt>
      <trkpt lat="43.23389" lon="5.37179">
        <ele>53.155125</ele>
        <time>2015-01-28T17:37:53Z</time>
      </trkpt>
      <trkpt lat="43.23394" lon="5.37179">
        <ele>52.936146</ele>
        <time>2015-01-28T17:38:01Z</time>
      </trkpt>
      <trkpt lat="43.23399" lon="5.37178">
        <ele>52.704338</ele>
        <time>2015-01-28T17:38:06Z</time>
      </trkpt>
      <trkpt lat="43.23404" lon="5.37181">
        <ele>52.700924</ele>
        <time>2015-01-28T17:38:13Z</time>
      </trkpt>
      <trkpt lat="43.23408" lon="5.37182">
        <ele>52.642742</ele>
        <time>2015-01-28T17:38:17Z</time>
      </trkpt>
      <trkpt lat="43.23413" lon="5.37185">
        <ele>52.660023</ele>
        <time>2015-01-28T17:38:20Z</time>
      </trkpt>
      <trkpt lat="43.23417" lon="5.37189">
        <ele>52.869526</ele>
        <time>2015-01-28T17:38:24Z</time>
      </trkpt>
      <trkpt lat="43.23422" lon="5.37194">
        <ele>53.250912</ele>
        <time>2015-01-28T17:38:28Z</time>
      </trkpt>
      <trkpt lat="43.23425" lon="5.372">
        <ele>53.72327</ele>
        <time>2015-01-28T17:38:32Z</time>
      </trkpt>
      <trkpt lat="43.2343" lon="5.37202">
        <ele>53.871685</ele>
        <time>2015-01-28T17:38:37Z</time>
      </trkpt>
      <trkpt lat="43.23434" lon="5.37206">
        <ele>54.1525</ele>
        <time>2015-01-28T17:38:41Z</time>
      </trkpt>
      <trkpt lat="43.23436" lon="5.37212">
        <ele>54.506001</ele>
        <time>2015-01-28T17:38:44Z</time>
      </trkpt>
      <trkpt lat="43.23439" lon="5.37217">
        <ele>54.83836</ele>
        <time>2015-01-28T17:38:48Z</time>
      </trkpt>
      <trkpt lat="43.23444" lon="5.37219">
        <ele>54.889957</ele>
        <time>2015-01-28T17:38:54Z</time>
      </trkpt>
      <trkpt lat="43.23448" lon="5.37218">
        <ele>54.752018</ele>
        <time>2015-01-28T17:38:59Z</time>
      </trkpt>
      <trkpt lat="43.23453" lon="5.37218">
        <ele>54.683952</ele>
        <time>2015-01-28T17:39:04Z</time>
      </trkpt>
      <trkpt lat="43.23458" lon="5.37213">
        <ele>54.26622</ele>
        <time>2015-01-28T17:39:10Z</time>
      </trkpt>
      <trkpt lat="43.23461" lon="5.37207">
        <ele>53.905785</ele>
        <time>2015-01-28T17:39:16Z</time>
      </trkpt>
      <trkpt lat="43.23466" lon="5.37204">
        <ele>53.679054</ele>
        <time>2015-01-28T17:39:22Z</time>
      </trkpt>
      <trkpt lat="43.2347" lon="5.372">
        <ele>53.428864</ele>
        <time>2015-01-28T17:39:28Z</time>
      </trkpt>
      <trkpt lat="43.23474" lon="5.37198">
        <ele>53.269417</ele>
        <time>2015-01-28T17:39:33Z</time>
      </trkpt>
      <trkpt lat="43.2348" lon="5.37195">
        <ele>53.12434</ele>
        <time>2015-01-28T17:39:37Z</time>
      </trkpt>
      <trkpt lat="43.23485" lon="5.37192">
        <ele>52.941124</ele>
        <time>2015-01-28T17:39:42Z</time>
      </trkpt>
      <trkpt lat="43.23489" lon="5.37188">
        <ele>52.759926</ele>
        <time>2015-01-28T17:39:47Z</time>
      </trkpt>
      <trkpt lat="43.23492" lon="5.37182">
        <ele>52.524426</ele>
        <time>2015-01-28T17:39:53Z</time>
      </trkpt>
      <trkpt lat="43.23495" lon="5.37177">
        <ele>52.356712</ele>
        <time>2015-01-28T17:39:57Z</time>
      </trkpt>
      <trkpt lat="43.23501" lon="5.37174">
        <ele>52.224121</ele>
        <time>2015-01-28T17:40:01Z</time>
      </trkpt>
      <trkpt lat="43.23506" lon="5.37172">
        <ele>51.863586</ele>
        <time>2015-01-28T17:40:04Z</time>
      </trkpt>
      <trkpt lat="43.23511" lon="5.3717">
        <ele>51.472809</ele>
        <time>2015-01-28T17:40:08Z</time>
      </trkpt>
      <trkpt lat="43.23514" lon="5.37163">
        <ele>50.949127</ele>
        <time>2015-01-28T17:40:12Z</time>
      </trkpt>
      <trkpt lat="43.23516" lon="5.37156">
        <ele>50.444061</ele>
        <time>2015-01-28T17:40:20Z</time>
      </trkpt>
      <trkpt lat="43.23519" lon="5.37152">
        <ele>49.987213</ele>
        <time>2015-01-28T17:40:26Z</time>
      </trkpt>
      <trkpt lat="43.23525" lon="5.3715">
        <ele>49.492828</ele>
        <time>2015-01-28T17:40:30Z</time>
      </trkpt>
      <trkpt lat="43.2353" lon="5.37148">
        <ele>49.068176</ele>
        <time>2015-01-28T17:40:34Z</time>
      </trkpt>
      <trkpt lat="43.23534" lon="5.37144">
        <ele>48.620331</ele>
        <time>2015-01-28T17:40:37Z</time>
      </trkpt>
      <trkpt lat="43.23538" lon="5.37139">
        <ele>48.066132</ele>
        <time>2015-01-28T17:40:42Z</time>
      </trkpt>
      <trkpt lat="43.2354" lon="5.37133">
        <ele>47.580444</ele>
        <time>2015-01-28T17:40:48Z</time>
      </trkpt>
      <trkpt lat="43.23542" lon="5.37127">
        <ele>47.079346</ele>
        <time>2015-01-28T17:40:52Z</time>
      </trkpt>
      <trkpt lat="43.23546" lon="5.37124">
        <ele>46.683838</ele>
        <time>2015-01-28T17:40:55Z</time>
      </trkpt>
      <trkpt lat="43.23552" lon="5.37122">
        <ele>46.165802</ele>
        <time>2015-01-28T17:40:59Z</time>
      </trkpt>
      <trkpt lat="43.23557" lon="5.37118">
        <ele>45.627167</ele>
        <time>2015-01-28T17:41:03Z</time>
      </trkpt>
      <trkpt lat="43.23562" lon="5.37115">
        <ele>45.178101</ele>
        <time>2015-01-28T17:41:07Z</time>
      </trkpt>
      <trkpt lat="43.23567" lon="5.37112">
        <ele>44.720642</ele>
        <time>2015-01-28T17:41:11Z</time>
      </trkpt>
      <trkpt lat="43.23571" lon="5.37108">
        <ele>44.192841</ele>
        <time>2015-01-28T17:41:16Z</time>
      </trkpt>
      <trkpt lat="43.23574" lon="5.37102">
        <ele>43.674805</ele>
        <time>2015-01-28T17:41:21Z</time>
      </trkpt>
      <trkpt lat="43.23578" lon="5.37099">
        <ele>43.248169</ele>
        <time>2015-01-28T17:41:25Z</time>
      </trkpt>
      <trkpt lat="43.23582" lon="5.37096">
        <ele>42.80246</ele>
        <time>2015-01-28T17:41:29Z</time>
      </trkpt>
      <trkpt lat="43.23586" lon="5.37092">
        <ele>42.417137</ele>
        <time>2015-01-28T17:41:33Z</time>
      </trkpt>
      <trkpt lat="43.23591" lon="5.37091">
        <ele>42.217937</ele>
        <time>2015-01-28T17:41:36Z</time>
      </trkpt>
      <trkpt lat="43.23595" lon="5.37088">
        <ele>41.937286</ele>
        <time>2015-01-28T17:41:41Z</time>
      </trkpt>
      <trkpt lat="43.23598" lon="5.37082">
        <ele>41.635998</ele>
        <time>2015-01-28T17:41:46Z</time>
      </trkpt>
      <trkpt lat="43.23603" lon="5.37078">
        <ele>41.421574</ele>
        <time>2015-01-28T17:41:50Z</time>
      </trkpt>
      <trkpt lat="43.23609" lon="5.37076">
        <ele>41.258366</ele>
        <time>2015-01-28T17:41:54Z</time>
      </trkpt>
      <trkpt lat="43.23615" lon="5.37073">
        <ele>41.030624</ele>
        <time>2015-01-28T17:41:58Z</time>
      </trkpt>
      <trkpt lat="43.23616" lon="5.37066">
        <ele>40.844673</ele>
        <time>2015-01-28T17:42:06Z</time>
      </trkpt>
      <trkpt lat="43.23621" lon="5.37063">
        <ele>40.633614</ele>
        <time>2015-01-28T17:42:13Z</time>
      </trkpt>
      <trkpt lat="43.23625" lon="5.3706">
        <ele>40.430092</ele>
        <time>2015-01-28T17:42:17Z</time>
      </trkpt>
      <trkpt lat="43.23629" lon="5.37056">
        <ele>40.202988</ele>
        <time>2015-01-28T17:42:22Z</time>
      </trkpt>
      <trkpt lat="43.23632" lon="5.37051">
        <ele>39.987892</ele>
        <time>2015-01-28T17:42:27Z</time>
      </trkpt>
      <trkpt lat="43.23636" lon="5.37046">
        <ele>39.725742</ele>
        <time>2015-01-28T17:42:32Z</time>
      </trkpt>
      <trkpt lat="43.23642" lon="5.37045">
        <ele>39.480347</ele>
        <time>2015-01-28T17:42:35Z</time>
      </trkpt>
      <trkpt lat="43.23646" lon="5.37045">
        <ele>39.32753</ele>
        <time>2015-01-28T17:42:38Z</time>
      </trkpt>
      <trkpt lat="43.23652" lon="5.37042">
        <ele>39.049511</ele>
        <time>2015-01-28T17:42:42Z</time>
      </trkpt>
      <trkpt lat="43.23654" lon="5.37036">
        <ele>38.779896</ele>
        <time>2015-01-28T17:42:47Z</time>
      </trkpt>
      <trkpt lat="43.23659" lon="5.37032">
        <ele>38.471916</ele>
        <time>2015-01-28T17:42:51Z</time>
      </trkpt>
      <trkpt lat="43.23663" lon="5.37029">
        <ele>38.163433</ele>
        <time>2015-01-28T17:42:55Z</time>
      </trkpt>
      <trkpt lat="43.23662" lon="5.37022">
        <ele>37.978878</ele>
        <time>2015-01-28T17:43:00Z</time>
      </trkpt>
      <trkpt lat="43.23666" lon="5.37019">
        <ele>37.682331</ele>
        <time>2015-01-28T17:43:04Z</time>
      </trkpt>
      <trkpt lat="43.2367" lon="5.37013">
        <ele>37.224548</ele>
        <time>2015-01-28T17:43:09Z</time>
      </trkpt>
      <trkpt lat="43.23674" lon="5.37006">
        <ele>36.780548</ele>
        <time>2015-01-28T17:43:13Z</time>
      </trkpt>
      <trkpt lat="43.23679" lon="5.37001">
        <ele>36.306271</ele>
        <time>2015-01-28T17:43:17Z</time>
      </trkpt>
      <trkpt lat="43.23682" lon="5.36996">
        <ele>35.894245</ele>
        <time>2015-01-28T17:43:22Z</time>
      </trkpt>
      <trkpt lat="43.23686" lon="5.36992">
        <ele>35.477417</ele>
        <time>2015-01-28T17:43:27Z</time>
      </trkpt>
      <trkpt lat="43.2369" lon="5.36987">
        <ele>35.064499</ele>
        <time>2015-01-28T17:43:34Z</time>
      </trkpt>
      <trkpt lat="43.23695" lon="5.36985">
        <ele>34.669476</ele>
        <time>2015-01-28T17:43:39Z</time>
      </trkpt>
      <trkpt lat="43.23701" lon="5.36985">
        <ele>34.38488</ele>
        <time>2015-01-28T17:43:43Z</time>
      </trkpt>
      <trkpt lat="43.23705" lon="5.36981">
        <ele>34.033844</ele>
        <time>2015-01-28T17:43:47Z</time>
      </trkpt>
      <trkpt lat="43.23708" lon="5.36978">
        <ele>33.703018</ele>
        <time>2015-01-28T17:43:54Z</time>
      </trkpt>
      <trkpt lat="43.23712" lon="5.36973">
        <ele>33.35778</ele>
        <time>2015-01-28T17:43:58Z</time>
      </trkpt>
      <trkpt lat="43.23717" lon="5.3697">
        <ele>32.947514</ele>
        <time>2015-01-28T17:44:02Z</time>
      </trkpt>
      <trkpt lat="43.2372" lon="5.36964">
        <ele>32.633972</ele>
        <time>2015-01-28T17:44:08Z</time>
      </trkpt>
      <trkpt lat="43.23725" lon="5.3696">
        <ele>32.276886</ele>
        <time>2015-01-28T17:44:12Z</time>
      </trkpt>
      <trkpt lat="43.23727" lon="5.36955">
        <ele>31.988121</ele>
        <time>2015-01-28T17:44:17Z</time>
      </trkpt>
      <trkpt lat="43.23732" lon="5.36952">
        <ele>31.661572</ele>
        <time>2015-01-28T17:44:21Z</time>
      </trkpt>
      <trkpt lat="43.23737" lon="5.36949">
        <ele>31.388617</ele>
        <time>2015-01-28T17:44:24Z</time>
      </trkpt>
      <trkpt lat="43.23741" lon="5.36945">
        <ele>31.074545</ele>
        <time>2015-01-28T17:44:28Z</time>
      </trkpt>
      <trkpt lat="43.23746" lon="5.36941">
        <ele>30.760181</ele>
        <time>2015-01-28T17:44:32Z</time>
      </trkpt>
      <trkpt lat="43.2375" lon="5.36938">
        <ele>30.512009</ele>
        <time>2015-01-28T17:44:36Z</time>
      </trkpt>
      <trkpt lat="43.23755" lon="5.36935">
        <ele>30.383505</ele>
        <time>2015-01-28T17:44:40Z</time>
      </trkpt>
      <trkpt lat="43.23759" lon="5.36932">
        <ele>30.241692</ele>
        <time>2015-01-28T17:44:44Z</time>
      </trkpt>
      <trkpt lat="43.23763" lon="5.36928">
        <ele>30.092518</ele>
        <time>2015-01-28T17:44:48Z</time>
      </trkpt>
      <trkpt lat="43.23767" lon="5.36924">
        <ele>29.941931</ele>
        <time>2015-01-28T17:44:53Z</time>
      </trkpt>
      <trkpt lat="43.23771" lon="5.36919">
        <ele>29.798931</ele>
        <time>2015-01-28T17:44:58Z</time>
      </trkpt>
      <trkpt lat="43.23775" lon="5.36915">
        <ele>29.602774</ele>
        <time>2015-01-28T17:45:03Z</time>
      </trkpt>
      <trkpt lat="43.2378" lon="5.36911">
        <ele>29.400215</ele>
        <time>2015-01-28T17:45:08Z</time>
      </trkpt>
      <trkpt lat="43.23784" lon="5.36906">
        <ele>29.137774</ele>
        <time>2015-01-28T17:45:12Z</time>
      </trkpt>
      <trkpt lat="43.23788" lon="5.369">
        <ele>28.837929</ele>
        <time>2015-01-28T17:45:17Z</time>
      </trkpt>
      <trkpt lat="43.23792" lon="5.36897">
        <ele>28.660503</ele>
        <time>2015-01-28T17:45:21Z</time>
      </trkpt>
      <trkpt lat="43.23797" lon="5.36894">
        <ele>28.492317</ele>
        <time>2015-01-28T17:45:26Z</time>
      </trkpt>
      <trkpt lat="43.23802" lon="5.3689">
        <ele>28.311333</ele>
        <time>2015-01-28T17:45:32Z</time>
      </trkpt>
      <trkpt lat="43.23807" lon="5.36886">
        <ele>28.112537</ele>
        <time>2015-01-28T17:45:36Z</time>
      </trkpt>
      <trkpt lat="43.23812" lon="5.36885">
        <ele>28.011387</ele>
        <time>2015-01-28T17:45:40Z</time>
      </trkpt>
      <trkpt lat="43.23816" lon="5.36879">
        <ele>27.764683</ele>
        <time>2015-01-28T17:45:44Z</time>
      </trkpt>
      <trkpt lat="43.2382" lon="5.36876">
        <ele>27.620201</ele>
        <time>2015-01-28T17:45:48Z</time>
      </trkpt>
      <trkpt lat="43.23824" lon="5.3687">
        <ele>27.357105</ele>
        <time>2015-01-28T17:45:53Z</time>
      </trkpt>
      <trkpt lat="43.23827" lon="5.36866">
        <ele>27.207193</ele>
        <time>2015-01-28T17:45:57Z</time>
      </trkpt>
      <trkpt lat="43.23831" lon="5.36861">
        <ele>26.989923</ele>
        <time>2015-01-28T17:46:01Z</time>
      </trkpt>
      <trkpt lat="43.23835" lon="5.36857">
        <ele>26.822308</ele>
        <time>2015-01-28T17:46:05Z</time>
      </trkpt>
      <trkpt lat="43.2384" lon="5.36851">
        <ele>26.540388</ele>
        <time>2015-01-28T17:46:09Z</time>
      </trkpt>
      <trkpt lat="43.23843" lon="5.36846">
        <ele>26.285305</ele>
        <time>2015-01-28T17:46:16Z</time>
      </trkpt>
      <trkpt lat="43.23847" lon="5.36841">
        <ele>25.995123</ele>
        <time>2015-01-28T17:46:22Z</time>
      </trkpt>
      <trkpt lat="43.23852" lon="5.36836">
        <ele>25.68461</ele>
        <time>2015-01-28T17:46:26Z</time>
      </trkpt>
      <trkpt lat="43.23855" lon="5.36832">
        <ele>25.4207</ele>
        <time>2015-01-28T17:46:29Z</time>
      </trkpt>
      <trkpt lat="43.2386" lon="5.36828">
        <ele>25.18696</ele>
        <time>2015-01-28T17:46:33Z</time>
      </trkpt>
      <trkpt lat="43.23864" lon="5.36822">
        <ele>24.889652</ele>
        <time>2015-01-28T17:46:37Z</time>
      </trkpt>
      <trkpt lat="43.23867" lon="5.36816">
        <ele>24.623558</ele>
        <time>2015-01-28T17:46:43Z</time>
      </trkpt>
      <trkpt lat="43.23871" lon="5.36811">
        <ele>24.303623</ele>
        <time>2015-01-28T17:46:48Z</time>
      </trkpt>
      <trkpt lat="43.23877" lon="5.36809">
        <ele>24.076561</ele>
        <time>2015-01-28T17:46:52Z</time>
      </trkpt>
      <trkpt lat="43.23881" lon="5.36805">
        <ele>23.800442</ele>
        <time>2015-01-28T17:46:57Z</time>
      </trkpt>
      <trkpt lat="43.23886" lon="5.36803">
        <ele>23.544106</ele>
        <time>2015-01-28T17:47:02Z</time>
      </trkpt>
      <trkpt lat="43.2389" lon="5.368">
        <ele>23.283421</ele>
        <time>2015-01-28T17:47:06Z</time>
      </trkpt>
      <trkpt lat="43.23895" lon="5.36797">
        <ele>22.986664</ele>
        <time>2015-01-28T17:47:10Z</time>
      </trkpt>
      <trkpt lat="43.23898" lon="5.36792">
        <ele>22.680866</ele>
        <time>2015-01-28T17:47:15Z</time>
      </trkpt>
      <trkpt lat="43.23903" lon="5.36787">
        <ele>22.305597</ele>
        <time>2015-01-28T17:47:20Z</time>
      </trkpt>
      <trkpt lat="43.23903" lon="5.36778">
        <ele>21.897293</ele>
        <time>2015-01-28T17:47:24Z</time>
      </trkpt>
      <trkpt lat="43.23905" lon="5.36772">
        <ele>21.528309</ele>
        <time>2015-01-28T17:47:29Z</time>
      </trkpt>
      <trkpt lat="43.2391" lon="5.36769">
        <ele>21.216412</ele>
        <time>2015-01-28T17:47:34Z</time>
      </trkpt>
      <trkpt lat="43.23916" lon="5.36768">
        <ele>20.905624</ele>
        <time>2015-01-28T17:47:38Z</time>
      </trkpt>
      <trkpt lat="43.23921" lon="5.36765">
        <ele>20.651905</ele>
        <time>2015-01-28T17:47:44Z</time>
      </trkpt>
      <trkpt lat="43.23924" lon="5.36759">
        <ele>20.347317</ele>
        <time>2015-01-28T17:47:48Z</time>
      </trkpt>
      <trkpt lat="43.23929" lon="5.36758">
        <ele>20.216438</ele>
        <time>2015-01-28T17:47:52Z</time>
      </trkpt>
      <trkpt lat="43.23933" lon="5.36755">
        <ele>20.005276</ele>
        <time>2015-01-28T17:47:57Z</time>
      </trkpt>
      <trkpt lat="43.23938" lon="5.3675">
        <ele>19.744349</ele>
        <time>2015-01-28T17:48:04Z</time>
      </trkpt>
      <trkpt lat="43.23947" lon="5.3675">
        <ele>19.63245</ele>
        <time>2015-01-28T17:48:08Z</time>
      </trkpt>
      <trkpt lat="43.23952" lon="5.36747">
        <ele>19.519545</ele>
        <time>2015-01-28T17:48:12Z</time>
      </trkpt>
      <trkpt lat="43.23955" lon="5.36741">
        <ele>19.336384</ele>
        <time>2015-01-28T17:48:16Z</time>
      </trkpt>
      <trkpt lat="43.23961" lon="5.36739">
        <ele>19.181152</ele>
        <time>2015-01-28T17:48:20Z</time>
      </trkpt>
      <trkpt lat="43.23967" lon="5.36736">
        <ele>19.009565</ele>
        <time>2015-01-28T17:48:24Z</time>
      </trkpt>
      <trkpt lat="43.23972" lon="5.36733">
        <ele>18.86504</ele>
        <time>2015-01-28T17:48:28Z</time>
      </trkpt>
      <trkpt lat="43.23976" lon="5.36729">
        <ele>18.665695</ele>
        <time>2015-01-28T17:48:32Z</time>
      </trkpt>
      <trkpt lat="43.23979" lon="5.36724">
        <ele>18.465355</ele>
        <time>2015-01-28T17:48:36Z</time>
      </trkpt>
      <trkpt lat="43.23983" lon="5.36719">
        <ele>18.236441</ele>
        <time>2015-01-28T17:48:40Z</time>
      </trkpt>
      <trkpt lat="43.23988" lon="5.36715">
        <ele>17.989357</ele>
        <time>2015-01-28T17:48:44Z</time>
      </trkpt>
      <trkpt lat="43.2399" lon="5.36708">
        <ele>17.713873</ele>
        <time>2015-01-28T17:48:48Z</time>
      </trkpt>
      <trkpt lat="43.23996" lon="5.36705">
        <ele>17.503431</ele>
        <time>2015-01-28T17:48:52Z</time>
      </trkpt>
      <trkpt lat="43.23997" lon="5.36698">
        <ele>17.224703</ele>
        <time>2015-01-28T17:48:58Z</time>
      </trkpt>
      <trkpt lat="43.23999" lon="5.36692">
        <ele>16.960379</ele>
        <time>2015-01-28T17:49:02Z</time>
      </trkpt>
      <trkpt lat="43.24001" lon="5.36687">
        <ele>16.689356</ele>
        <time>2015-01-28T17:49:12Z</time>
      </trkpt>
      <trkpt lat="43.23997" lon="5.3668">
        <ele>16.583128</ele>
        <time>2015-01-28T17:49:18Z</time>
      </trkpt>
      <trkpt lat="43.23995" lon="5.36674">
        <ele>16.460791</ele>
        <time>2015-01-28T17:49:23Z</time>
      </trkpt>
      <trkpt lat="43.23994" lon="5.36668">
        <ele>16.268496</ele>
        <time>2015-01-28T17:49:29Z</time>
      </trkpt>
      <trkpt lat="43.23996" lon="5.36662">
        <ele>16.075928</ele>
        <time>2015-01-28T17:49:34Z</time>
      </trkpt>
      <trkpt lat="43.23996" lon="5.36655">
        <ele>16.018341</ele>
        <time>2015-01-28T17:49:37Z</time>
      </trkpt>
      <trkpt lat="43.23996" lon="5.36648">
        <ele>15.91217</ele>
        <time>2015-01-28T17:49:42Z</time>
      </trkpt>
      <trkpt lat="43.23998" lon="5.36642">
        <ele>15.767944</ele>
        <time>2015-01-28T17:49:45Z</time>
      </trkpt>
      <trkpt lat="43.24001" lon="5.36636">
        <ele>15.6134</ele>
        <time>2015-01-28T17:49:50Z</time>
      </trkpt>
      <trkpt lat="43.24003" lon="5.36629">
        <ele>15.498318</ele>
        <time>2015-01-28T17:49:54Z</time>
      </trkpt>
      <trkpt lat="43.24004" lon="5.36622">
        <ele>15.397027</ele>
        <time>2015-01-28T17:49:59Z</time>
      </trkpt>
      <trkpt lat="43.24004" lon="5.36616">
        <ele>15.333148</ele>
        <time>2015-01-28T17:50:04Z</time>
      </trkpt>
      <trkpt lat="43.24002" lon="5.36609">
        <ele>15.269209</ele>
        <time>2015-01-28T17:50:08Z</time>
      </trkpt>
      <trkpt lat="43.24004" lon="5.36602">
        <ele>15.167184</ele>
        <time>2015-01-28T17:50:15Z</time>
      </trkpt>
      <trkpt lat="43.24002" lon="5.36595">
        <ele>15.115972</ele>
        <time>2015-01-28T17:50:18Z</time>
      </trkpt>
      <trkpt lat="43.24001" lon="5.36588">
        <ele>15.052796</ele>
        <time>2015-01-28T17:50:23Z</time>
      </trkpt>
      <trkpt lat="43.23999" lon="5.36582">
        <ele>14.999831</ele>
        <time>2015-01-28T17:50:28Z</time>
      </trkpt>
      <trkpt lat="43.23997" lon="5.36576">
        <ele>14.93714</ele>
        <time>2015-01-28T17:50:33Z</time>
      </trkpt>
      <trkpt lat="43.23997" lon="5.3657">
        <ele>14.768359</ele>
        <time>2015-01-28T17:50:37Z</time>
      </trkpt>
      <trkpt lat="43.23997" lon="5.36564">
        <ele>14.627002</ele>
        <time>2015-01-28T17:50:42Z</time>
      </trkpt>
      <trkpt lat="43.23996" lon="5.36555">
        <ele>14.442639</ele>
        <time>2015-01-28T17:50:46Z</time>
      </trkpt>
      <trkpt lat="43.23995" lon="5.36548">
        <ele>14.291638</ele>
        <time>2015-01-28T17:50:52Z</time>
      </trkpt>
      <trkpt lat="43.23996" lon="5.36541">
        <ele>14.110162</ele>
        <time>2015-01-28T17:50:57Z</time>
      </trkpt>
      <trkpt lat="43.23999" lon="5.36534">
        <ele>13.865408</ele>
        <time>2015-01-28T17:51:01Z</time>
      </trkpt>
      <trkpt lat="43.23994" lon="5.36535">
        <ele>14.018049</ele>
        <time>2015-01-28T17:51:24Z</time>
      </trkpt>
      <trkpt lat="43.23993" lon="5.36543">
        <ele>14.249419</ele>
        <time>2015-01-28T17:52:21Z</time>
      </trkpt>
      <trkpt lat="43.23995" lon="5.3655">
        <ele>14.357889</ele>
        <time>2015-01-28T17:52:26Z</time>
      </trkpt>
      <trkpt lat="43.23992" lon="5.36556">
        <ele>14.601041</ele>
        <time>2015-01-28T17:52:30Z</time>
      </trkpt>
      <trkpt lat="43.23992" lon="5.36562">
        <ele>14.765071</ele>
        <time>2015-01-28T17:52:35Z</time>
      </trkpt>
      <trkpt lat="43.23993" lon="5.36568">
        <ele>14.867317</ele>
        <time>2015-01-28T17:52:38Z</time>
      </trkpt>
      <trkpt lat="43.23994" lon="5.36575">
        <ele>15.004345</ele>
        <time>2015-01-28T17:52:41Z</time>
      </trkpt>
    </trkseg>
  </trk>
</gpx>